<?xml version="1.0" encoding="UTF-8" standalone="no" ?>
<gpx xmlns="http://www.topografix.com/GPX/1/1" xmlns:xsi="http://www.w3.org/2001/XMLSchema-instance" xsi:schemaLocation="http://www.topografix.com/GPX/1/1 http://www.topografix.com/GPX/1/1/gpx.xsd" version="1.1" creator="VisuGPX - https://www.visugpx.com">
  <metadata>
    <name>entrainement 24/12</name>
    <desc><![CDATA[entrainement 24/12]]></desc>
  </metadata>
  <trk>
    <name><![CDATA[entrainement 24/12_1]]></name>
    <trkseg>
      <trkpt lat="49.90314" lon="1.09562">
        <ele>7.8</ele>
        <time>2014-12-24T17:12:28.000Z</time>
      </trkpt>
      <trkpt lat="49.90314" lon="1.09562">
        <ele>7.8</ele>
        <time>2014-12-24T17:12:29.000Z</time>
      </trkpt>
      <trkpt lat="49.90314" lon="1.09562">
        <ele>7.7</ele>
        <time>2014-12-24T17:12:30.000Z</time>
      </trkpt>
      <trkpt lat="49.90314" lon="1.09562">
        <ele>7.7</ele>
        <time>2014-12-24T17:12:32.000Z</time>
      </trkpt>
      <trkpt lat="49.90314" lon="1.09562">
        <ele>7.7</ele>
        <time>2014-12-24T17:12:33.000Z</time>
      </trkpt>
      <trkpt lat="49.90313" lon="1.09563">
        <ele>7.8</ele>
        <time>2014-12-24T17:12:34.000Z</time>
      </trkpt>
      <trkpt lat="49.90306" lon="1.09567">
        <ele>8.1</ele>
        <time>2014-12-24T17:12:35.000Z</time>
      </trkpt>
      <trkpt lat="49.90306" lon="1.09567">
        <ele>8.2</ele>
        <time>2014-12-24T17:12:36.000Z</time>
      </trkpt>
      <trkpt lat="49.90306" lon="1.09562">
        <ele>8.5</ele>
        <time>2014-12-24T17:12:37.000Z</time>
      </trkpt>
      <trkpt lat="49.90307" lon="1.09562">
        <ele>8.5</ele>
        <time>2014-12-24T17:12:38.000Z</time>
      </trkpt>
      <trkpt lat="49.90307" lon="1.0956">
        <ele>8.5</ele>
        <time>2014-12-24T17:12:39.000Z</time>
      </trkpt>
      <trkpt lat="49.90308" lon="1.09558">
        <ele>8.6</ele>
        <time>2014-12-24T17:12:40.000Z</time>
      </trkpt>
      <trkpt lat="49.90309" lon="1.09556">
        <ele>8.6</ele>
        <time>2014-12-24T17:12:41.000Z</time>
      </trkpt>
      <trkpt lat="49.9031" lon="1.09553">
        <ele>8.9</ele>
        <time>2014-12-24T17:12:42.000Z</time>
      </trkpt>
      <trkpt lat="49.90311" lon="1.0955">
        <ele>9.1</ele>
        <time>2014-12-24T17:12:43.000Z</time>
      </trkpt>
      <trkpt lat="49.90313" lon="1.09546">
        <ele>9.3</ele>
        <time>2014-12-24T17:12:44.000Z</time>
      </trkpt>
      <trkpt lat="49.90314" lon="1.09543">
        <ele>9.5</ele>
        <time>2014-12-24T17:12:45.000Z</time>
      </trkpt>
      <trkpt lat="49.90315" lon="1.0954">
        <ele>9.6</ele>
        <time>2014-12-24T17:12:46.000Z</time>
      </trkpt>
      <trkpt lat="49.90317" lon="1.09537">
        <ele>9.7</ele>
        <time>2014-12-24T17:12:47.000Z</time>
      </trkpt>
      <trkpt lat="49.90318" lon="1.09533">
        <ele>9.7</ele>
        <time>2014-12-24T17:12:48.000Z</time>
      </trkpt>
      <trkpt lat="49.9032" lon="1.0953">
        <ele>9.7</ele>
        <time>2014-12-24T17:12:49.000Z</time>
      </trkpt>
      <trkpt lat="49.90322" lon="1.09526">
        <ele>9.6</ele>
        <time>2014-12-24T17:12:50.000Z</time>
      </trkpt>
      <trkpt lat="49.90324" lon="1.09523">
        <ele>9.5</ele>
        <time>2014-12-24T17:12:51.000Z</time>
      </trkpt>
      <trkpt lat="49.90326" lon="1.09519">
        <ele>9.4</ele>
        <time>2014-12-24T17:12:52.000Z</time>
      </trkpt>
      <trkpt lat="49.90327" lon="1.09516">
        <ele>9.3</ele>
        <time>2014-12-24T17:12:53.000Z</time>
      </trkpt>
      <trkpt lat="49.90329" lon="1.09513">
        <ele>9.2</ele>
        <time>2014-12-24T17:12:54.000Z</time>
      </trkpt>
      <trkpt lat="49.9033" lon="1.0951">
        <ele>9</ele>
        <time>2014-12-24T17:12:55.000Z</time>
      </trkpt>
      <trkpt lat="49.90332" lon="1.09507">
        <ele>8.8</ele>
        <time>2014-12-24T17:12:56.000Z</time>
      </trkpt>
      <trkpt lat="49.90334" lon="1.09504">
        <ele>8.7</ele>
        <time>2014-12-24T17:12:57.000Z</time>
      </trkpt>
      <trkpt lat="49.90336" lon="1.095">
        <ele>8.7</ele>
        <time>2014-12-24T17:12:58.000Z</time>
      </trkpt>
      <trkpt lat="49.90338" lon="1.09497">
        <ele>8.8</ele>
        <time>2014-12-24T17:12:59.000Z</time>
      </trkpt>
      <trkpt lat="49.9034" lon="1.09493">
        <ele>8.9</ele>
        <time>2014-12-24T17:13:00.000Z</time>
      </trkpt>
      <trkpt lat="49.90342" lon="1.0949">
        <ele>9</ele>
        <time>2014-12-24T17:13:01.000Z</time>
      </trkpt>
      <trkpt lat="49.90343" lon="1.09486">
        <ele>9</ele>
        <time>2014-12-24T17:13:02.000Z</time>
      </trkpt>
      <trkpt lat="49.90345" lon="1.09483">
        <ele>9.1</ele>
        <time>2014-12-24T17:13:03.000Z</time>
      </trkpt>
      <trkpt lat="49.90347" lon="1.09479">
        <ele>9</ele>
        <time>2014-12-24T17:13:04.000Z</time>
      </trkpt>
      <trkpt lat="49.90349" lon="1.09476">
        <ele>9</ele>
        <time>2014-12-24T17:13:05.000Z</time>
      </trkpt>
      <trkpt lat="49.90351" lon="1.09472">
        <ele>8.8</ele>
        <time>2014-12-24T17:13:06.000Z</time>
      </trkpt>
      <trkpt lat="49.90353" lon="1.09469">
        <ele>8.8</ele>
        <time>2014-12-24T17:13:07.000Z</time>
      </trkpt>
      <trkpt lat="49.90355" lon="1.09465">
        <ele>8.7</ele>
        <time>2014-12-24T17:13:08.000Z</time>
      </trkpt>
      <trkpt lat="49.90357" lon="1.09461">
        <ele>8.6</ele>
        <time>2014-12-24T17:13:09.000Z</time>
      </trkpt>
      <trkpt lat="49.90358" lon="1.09458">
        <ele>8.5</ele>
        <time>2014-12-24T17:13:10.000Z</time>
      </trkpt>
      <trkpt lat="49.90361" lon="1.09455">
        <ele>8.4</ele>
        <time>2014-12-24T17:13:11.000Z</time>
      </trkpt>
      <trkpt lat="49.90363" lon="1.09451">
        <ele>8.4</ele>
        <time>2014-12-24T17:13:12.000Z</time>
      </trkpt>
      <trkpt lat="49.90365" lon="1.09449">
        <ele>8.4</ele>
        <time>2014-12-24T17:13:13.000Z</time>
      </trkpt>
      <trkpt lat="49.90368" lon="1.09446">
        <ele>8.4</ele>
        <time>2014-12-24T17:13:14.000Z</time>
      </trkpt>
      <trkpt lat="49.9037" lon="1.09444">
        <ele>8.4</ele>
        <time>2014-12-24T17:13:15.000Z</time>
      </trkpt>
      <trkpt lat="49.90372" lon="1.09441">
        <ele>8.4</ele>
        <time>2014-12-24T17:13:16.000Z</time>
      </trkpt>
      <trkpt lat="49.90374" lon="1.09438">
        <ele>8.4</ele>
        <time>2014-12-24T17:13:17.000Z</time>
      </trkpt>
      <trkpt lat="49.90376" lon="1.09435">
        <ele>8.4</ele>
        <time>2014-12-24T17:13:18.000Z</time>
      </trkpt>
      <trkpt lat="49.90378" lon="1.09432">
        <ele>8.4</ele>
        <time>2014-12-24T17:13:19.000Z</time>
      </trkpt>
      <trkpt lat="49.9038" lon="1.09429">
        <ele>8.4</ele>
        <time>2014-12-24T17:13:20.000Z</time>
      </trkpt>
      <trkpt lat="49.90382" lon="1.09426">
        <ele>8.3</ele>
        <time>2014-12-24T17:13:21.000Z</time>
      </trkpt>
      <trkpt lat="49.90384" lon="1.09423">
        <ele>8.3</ele>
        <time>2014-12-24T17:13:22.000Z</time>
      </trkpt>
      <trkpt lat="49.90386" lon="1.0942">
        <ele>8.2</ele>
        <time>2014-12-24T17:13:23.000Z</time>
      </trkpt>
      <trkpt lat="49.90387" lon="1.09417">
        <ele>8.2</ele>
        <time>2014-12-24T17:13:24.000Z</time>
      </trkpt>
      <trkpt lat="49.90389" lon="1.09414">
        <ele>8.2</ele>
        <time>2014-12-24T17:13:25.000Z</time>
      </trkpt>
      <trkpt lat="49.90391" lon="1.09411">
        <ele>8.3</ele>
        <time>2014-12-24T17:13:26.000Z</time>
      </trkpt>
      <trkpt lat="49.90393" lon="1.09407">
        <ele>8.3</ele>
        <time>2014-12-24T17:13:27.000Z</time>
      </trkpt>
      <trkpt lat="49.90395" lon="1.09404">
        <ele>8.3</ele>
        <time>2014-12-24T17:13:28.000Z</time>
      </trkpt>
      <trkpt lat="49.90397" lon="1.09401">
        <ele>8.3</ele>
        <time>2014-12-24T17:13:29.000Z</time>
      </trkpt>
      <trkpt lat="49.904" lon="1.09399">
        <ele>8.3</ele>
        <time>2014-12-24T17:13:30.000Z</time>
      </trkpt>
      <trkpt lat="49.90402" lon="1.09396">
        <ele>8.2</ele>
        <time>2014-12-24T17:13:31.000Z</time>
      </trkpt>
      <trkpt lat="49.90404" lon="1.09393">
        <ele>8.1</ele>
        <time>2014-12-24T17:13:32.000Z</time>
      </trkpt>
      <trkpt lat="49.90406" lon="1.09391">
        <ele>8</ele>
        <time>2014-12-24T17:13:33.000Z</time>
      </trkpt>
      <trkpt lat="49.90409" lon="1.09388">
        <ele>7.9</ele>
        <time>2014-12-24T17:13:34.000Z</time>
      </trkpt>
      <trkpt lat="49.90411" lon="1.09386">
        <ele>7.9</ele>
        <time>2014-12-24T17:13:35.000Z</time>
      </trkpt>
      <trkpt lat="49.90413" lon="1.09384">
        <ele>7.8</ele>
        <time>2014-12-24T17:13:36.000Z</time>
      </trkpt>
      <trkpt lat="49.90416" lon="1.09382">
        <ele>7.9</ele>
        <time>2014-12-24T17:13:37.000Z</time>
      </trkpt>
      <trkpt lat="49.90418" lon="1.09379">
        <ele>8</ele>
        <time>2014-12-24T17:13:38.000Z</time>
      </trkpt>
      <trkpt lat="49.9042" lon="1.09377">
        <ele>8.1</ele>
        <time>2014-12-24T17:13:39.000Z</time>
      </trkpt>
      <trkpt lat="49.90423" lon="1.09375">
        <ele>8.1</ele>
        <time>2014-12-24T17:13:40.000Z</time>
      </trkpt>
      <trkpt lat="49.90426" lon="1.09373">
        <ele>8.1</ele>
        <time>2014-12-24T17:13:41.000Z</time>
      </trkpt>
      <trkpt lat="49.90428" lon="1.09371">
        <ele>8.1</ele>
        <time>2014-12-24T17:13:42.000Z</time>
      </trkpt>
      <trkpt lat="49.90431" lon="1.09368">
        <ele>8.1</ele>
        <time>2014-12-24T17:13:43.000Z</time>
      </trkpt>
      <trkpt lat="49.90433" lon="1.09366">
        <ele>8</ele>
        <time>2014-12-24T17:13:44.000Z</time>
      </trkpt>
      <trkpt lat="49.90436" lon="1.09364">
        <ele>7.8</ele>
        <time>2014-12-24T17:13:45.000Z</time>
      </trkpt>
      <trkpt lat="49.90438" lon="1.09362">
        <ele>7.6</ele>
        <time>2014-12-24T17:13:46.000Z</time>
      </trkpt>
      <trkpt lat="49.90441" lon="1.09359">
        <ele>7.5</ele>
        <time>2014-12-24T17:13:47.000Z</time>
      </trkpt>
      <trkpt lat="49.90444" lon="1.09357">
        <ele>7.4</ele>
        <time>2014-12-24T17:13:48.000Z</time>
      </trkpt>
      <trkpt lat="49.90446" lon="1.09355">
        <ele>7.4</ele>
        <time>2014-12-24T17:13:49.000Z</time>
      </trkpt>
      <trkpt lat="49.90449" lon="1.09353">
        <ele>7.6</ele>
        <time>2014-12-24T17:13:50.000Z</time>
      </trkpt>
      <trkpt lat="49.90451" lon="1.0935">
        <ele>7.7</ele>
        <time>2014-12-24T17:13:51.000Z</time>
      </trkpt>
      <trkpt lat="49.90454" lon="1.09348">
        <ele>7.8</ele>
        <time>2014-12-24T17:13:52.000Z</time>
      </trkpt>
      <trkpt lat="49.90457" lon="1.09346">
        <ele>7.9</ele>
        <time>2014-12-24T17:13:53.000Z</time>
      </trkpt>
      <trkpt lat="49.9046" lon="1.09343">
        <ele>7.9</ele>
        <time>2014-12-24T17:13:54.000Z</time>
      </trkpt>
      <trkpt lat="49.90462" lon="1.09341">
        <ele>8</ele>
        <time>2014-12-24T17:13:55.000Z</time>
      </trkpt>
      <trkpt lat="49.90465" lon="1.09339">
        <ele>8</ele>
        <time>2014-12-24T17:13:56.000Z</time>
      </trkpt>
      <trkpt lat="49.90468" lon="1.09337">
        <ele>8</ele>
        <time>2014-12-24T17:13:57.000Z</time>
      </trkpt>
      <trkpt lat="49.90471" lon="1.09335">
        <ele>8</ele>
        <time>2014-12-24T17:13:58.000Z</time>
      </trkpt>
      <trkpt lat="49.90474" lon="1.09333">
        <ele>7.9</ele>
        <time>2014-12-24T17:13:59.000Z</time>
      </trkpt>
      <trkpt lat="49.90477" lon="1.09331">
        <ele>7.7</ele>
        <time>2014-12-24T17:14:00.000Z</time>
      </trkpt>
      <trkpt lat="49.90479" lon="1.09329">
        <ele>7.5</ele>
        <time>2014-12-24T17:14:01.000Z</time>
      </trkpt>
      <trkpt lat="49.90482" lon="1.09327">
        <ele>7.3</ele>
        <time>2014-12-24T17:14:02.000Z</time>
      </trkpt>
      <trkpt lat="49.90485" lon="1.09325">
        <ele>7.1</ele>
        <time>2014-12-24T17:14:03.000Z</time>
      </trkpt>
      <trkpt lat="49.90488" lon="1.09323">
        <ele>6.9</ele>
        <time>2014-12-24T17:14:04.000Z</time>
      </trkpt>
      <trkpt lat="49.9049" lon="1.09321">
        <ele>6.7</ele>
        <time>2014-12-24T17:14:05.000Z</time>
      </trkpt>
      <trkpt lat="49.90493" lon="1.09319">
        <ele>6.5</ele>
        <time>2014-12-24T17:14:06.000Z</time>
      </trkpt>
      <trkpt lat="49.90496" lon="1.09316">
        <ele>6.3</ele>
        <time>2014-12-24T17:14:07.000Z</time>
      </trkpt>
      <trkpt lat="49.90498" lon="1.09314">
        <ele>6.1</ele>
        <time>2014-12-24T17:14:08.000Z</time>
      </trkpt>
      <trkpt lat="49.90501" lon="1.09312">
        <ele>6</ele>
        <time>2014-12-24T17:14:09.000Z</time>
      </trkpt>
      <trkpt lat="49.90504" lon="1.0931">
        <ele>6</ele>
        <time>2014-12-24T17:14:10.000Z</time>
      </trkpt>
      <trkpt lat="49.90506" lon="1.09308">
        <ele>6</ele>
        <time>2014-12-24T17:14:11.000Z</time>
      </trkpt>
      <trkpt lat="49.90509" lon="1.09306">
        <ele>6</ele>
        <time>2014-12-24T17:14:12.000Z</time>
      </trkpt>
      <trkpt lat="49.90511" lon="1.09304">
        <ele>6</ele>
        <time>2014-12-24T17:14:13.000Z</time>
      </trkpt>
      <trkpt lat="49.90514" lon="1.09302">
        <ele>6.1</ele>
        <time>2014-12-24T17:14:14.000Z</time>
      </trkpt>
      <trkpt lat="49.90517" lon="1.09301">
        <ele>6.2</ele>
        <time>2014-12-24T17:14:15.000Z</time>
      </trkpt>
      <trkpt lat="49.90519" lon="1.09299">
        <ele>6.2</ele>
        <time>2014-12-24T17:14:16.000Z</time>
      </trkpt>
      <trkpt lat="49.90522" lon="1.09298">
        <ele>6.3</ele>
        <time>2014-12-24T17:14:17.000Z</time>
      </trkpt>
      <trkpt lat="49.90524" lon="1.09296">
        <ele>6.3</ele>
        <time>2014-12-24T17:14:18.000Z</time>
      </trkpt>
      <trkpt lat="49.90527" lon="1.09295">
        <ele>6.4</ele>
        <time>2014-12-24T17:14:19.000Z</time>
      </trkpt>
      <trkpt lat="49.90529" lon="1.09293">
        <ele>6.4</ele>
        <time>2014-12-24T17:14:20.000Z</time>
      </trkpt>
      <trkpt lat="49.90532" lon="1.09291">
        <ele>6.4</ele>
        <time>2014-12-24T17:14:21.000Z</time>
      </trkpt>
      <trkpt lat="49.90535" lon="1.0929">
        <ele>6.3</ele>
        <time>2014-12-24T17:14:22.000Z</time>
      </trkpt>
      <trkpt lat="49.90537" lon="1.09287">
        <ele>6.3</ele>
        <time>2014-12-24T17:14:23.000Z</time>
      </trkpt>
      <trkpt lat="49.9054" lon="1.09285">
        <ele>6.3</ele>
        <time>2014-12-24T17:14:24.000Z</time>
      </trkpt>
      <trkpt lat="49.90543" lon="1.09283">
        <ele>6.3</ele>
        <time>2014-12-24T17:14:25.000Z</time>
      </trkpt>
      <trkpt lat="49.90546" lon="1.09281">
        <ele>6.2</ele>
        <time>2014-12-24T17:14:26.000Z</time>
      </trkpt>
      <trkpt lat="49.90549" lon="1.09279">
        <ele>6.2</ele>
        <time>2014-12-24T17:14:27.000Z</time>
      </trkpt>
      <trkpt lat="49.90552" lon="1.09277">
        <ele>6.1</ele>
        <time>2014-12-24T17:14:28.000Z</time>
      </trkpt>
      <trkpt lat="49.90554" lon="1.09275">
        <ele>6</ele>
        <time>2014-12-24T17:14:29.000Z</time>
      </trkpt>
      <trkpt lat="49.90557" lon="1.09273">
        <ele>5.9</ele>
        <time>2014-12-24T17:14:30.000Z</time>
      </trkpt>
      <trkpt lat="49.9056" lon="1.09271">
        <ele>5.8</ele>
        <time>2014-12-24T17:14:31.000Z</time>
      </trkpt>
      <trkpt lat="49.90562" lon="1.09269">
        <ele>5.8</ele>
        <time>2014-12-24T17:14:32.000Z</time>
      </trkpt>
      <trkpt lat="49.90565" lon="1.09267">
        <ele>5.7</ele>
        <time>2014-12-24T17:14:33.000Z</time>
      </trkpt>
      <trkpt lat="49.90568" lon="1.09264">
        <ele>5.6</ele>
        <time>2014-12-24T17:14:34.000Z</time>
      </trkpt>
      <trkpt lat="49.9057" lon="1.09262">
        <ele>5.5</ele>
        <time>2014-12-24T17:14:35.000Z</time>
      </trkpt>
      <trkpt lat="49.90573" lon="1.09259">
        <ele>5.4</ele>
        <time>2014-12-24T17:14:36.000Z</time>
      </trkpt>
      <trkpt lat="49.90576" lon="1.09257">
        <ele>5.3</ele>
        <time>2014-12-24T17:14:37.000Z</time>
      </trkpt>
      <trkpt lat="49.90578" lon="1.09254">
        <ele>5.2</ele>
        <time>2014-12-24T17:14:38.000Z</time>
      </trkpt>
      <trkpt lat="49.90581" lon="1.09252">
        <ele>5.1</ele>
        <time>2014-12-24T17:14:39.000Z</time>
      </trkpt>
      <trkpt lat="49.90583" lon="1.09249">
        <ele>5</ele>
        <time>2014-12-24T17:14:40.000Z</time>
      </trkpt>
      <trkpt lat="49.90586" lon="1.09246">
        <ele>5.1</ele>
        <time>2014-12-24T17:14:41.000Z</time>
      </trkpt>
      <trkpt lat="49.90588" lon="1.09243">
        <ele>5.2</ele>
        <time>2014-12-24T17:14:42.000Z</time>
      </trkpt>
      <trkpt lat="49.9059" lon="1.0924">
        <ele>5.3</ele>
        <time>2014-12-24T17:14:43.000Z</time>
      </trkpt>
      <trkpt lat="49.90593" lon="1.09237">
        <ele>5.3</ele>
        <time>2014-12-24T17:14:44.000Z</time>
      </trkpt>
      <trkpt lat="49.90595" lon="1.09234">
        <ele>5.3</ele>
        <time>2014-12-24T17:14:45.000Z</time>
      </trkpt>
      <trkpt lat="49.90597" lon="1.09231">
        <ele>5.3</ele>
        <time>2014-12-24T17:14:46.000Z</time>
      </trkpt>
      <trkpt lat="49.906" lon="1.09228">
        <ele>5.3</ele>
        <time>2014-12-24T17:14:47.000Z</time>
      </trkpt>
      <trkpt lat="49.90602" lon="1.09225">
        <ele>5.3</ele>
        <time>2014-12-24T17:14:48.000Z</time>
      </trkpt>
      <trkpt lat="49.90604" lon="1.09221">
        <ele>5.3</ele>
        <time>2014-12-24T17:14:49.000Z</time>
      </trkpt>
      <trkpt lat="49.90606" lon="1.09218">
        <ele>5.3</ele>
        <time>2014-12-24T17:14:50.000Z</time>
      </trkpt>
      <trkpt lat="49.90608" lon="1.09215">
        <ele>5.3</ele>
        <time>2014-12-24T17:14:51.000Z</time>
      </trkpt>
      <trkpt lat="49.9061" lon="1.09212">
        <ele>5.4</ele>
        <time>2014-12-24T17:14:52.000Z</time>
      </trkpt>
      <trkpt lat="49.90612" lon="1.09209">
        <ele>5.5</ele>
        <time>2014-12-24T17:14:53.000Z</time>
      </trkpt>
      <trkpt lat="49.90615" lon="1.09206">
        <ele>5.5</ele>
        <time>2014-12-24T17:14:54.000Z</time>
      </trkpt>
      <trkpt lat="49.90617" lon="1.09203">
        <ele>5.6</ele>
        <time>2014-12-24T17:14:55.000Z</time>
      </trkpt>
      <trkpt lat="49.90619" lon="1.092">
        <ele>5.6</ele>
        <time>2014-12-24T17:14:56.000Z</time>
      </trkpt>
      <trkpt lat="49.90621" lon="1.09196">
        <ele>5.6</ele>
        <time>2014-12-24T17:14:57.000Z</time>
      </trkpt>
      <trkpt lat="49.90623" lon="1.09193">
        <ele>5.6</ele>
        <time>2014-12-24T17:14:58.000Z</time>
      </trkpt>
      <trkpt lat="49.90625" lon="1.0919">
        <ele>5.5</ele>
        <time>2014-12-24T17:14:59.000Z</time>
      </trkpt>
      <trkpt lat="49.90627" lon="1.09186">
        <ele>5.4</ele>
        <time>2014-12-24T17:15:00.000Z</time>
      </trkpt>
      <trkpt lat="49.90629" lon="1.09183">
        <ele>5.3</ele>
        <time>2014-12-24T17:15:01.000Z</time>
      </trkpt>
      <trkpt lat="49.90631" lon="1.09179">
        <ele>5.3</ele>
        <time>2014-12-24T17:15:02.000Z</time>
      </trkpt>
      <trkpt lat="49.90633" lon="1.09175">
        <ele>5.2</ele>
        <time>2014-12-24T17:15:03.000Z</time>
      </trkpt>
      <trkpt lat="49.90636" lon="1.09172">
        <ele>5.1</ele>
        <time>2014-12-24T17:15:04.000Z</time>
      </trkpt>
      <trkpt lat="49.90638" lon="1.09168">
        <ele>5</ele>
        <time>2014-12-24T17:15:05.000Z</time>
      </trkpt>
      <trkpt lat="49.9064" lon="1.09165">
        <ele>5.1</ele>
        <time>2014-12-24T17:15:06.000Z</time>
      </trkpt>
      <trkpt lat="49.90642" lon="1.09162">
        <ele>5.1</ele>
        <time>2014-12-24T17:15:07.000Z</time>
      </trkpt>
      <trkpt lat="49.90644" lon="1.09159">
        <ele>5.2</ele>
        <time>2014-12-24T17:15:08.000Z</time>
      </trkpt>
      <trkpt lat="49.90646" lon="1.09155">
        <ele>5.3</ele>
        <time>2014-12-24T17:15:09.000Z</time>
      </trkpt>
      <trkpt lat="49.90648" lon="1.09152">
        <ele>5.4</ele>
        <time>2014-12-24T17:15:10.000Z</time>
      </trkpt>
      <trkpt lat="49.9065" lon="1.09149">
        <ele>5.4</ele>
        <time>2014-12-24T17:15:11.000Z</time>
      </trkpt>
      <trkpt lat="49.90652" lon="1.09146">
        <ele>5.4</ele>
        <time>2014-12-24T17:15:12.000Z</time>
      </trkpt>
      <trkpt lat="49.90654" lon="1.09142">
        <ele>5.4</ele>
        <time>2014-12-24T17:15:13.000Z</time>
      </trkpt>
      <trkpt lat="49.90656" lon="1.09139">
        <ele>5.4</ele>
        <time>2014-12-24T17:15:14.000Z</time>
      </trkpt>
      <trkpt lat="49.90658" lon="1.09136">
        <ele>5.4</ele>
        <time>2014-12-24T17:15:15.000Z</time>
      </trkpt>
      <trkpt lat="49.90661" lon="1.09132">
        <ele>5.4</ele>
        <time>2014-12-24T17:15:16.000Z</time>
      </trkpt>
      <trkpt lat="49.90663" lon="1.09129">
        <ele>5.5</ele>
        <time>2014-12-24T17:15:17.000Z</time>
      </trkpt>
      <trkpt lat="49.90665" lon="1.09125">
        <ele>5.5</ele>
        <time>2014-12-24T17:15:18.000Z</time>
      </trkpt>
      <trkpt lat="49.90667" lon="1.09121">
        <ele>5.6</ele>
        <time>2014-12-24T17:15:19.000Z</time>
      </trkpt>
      <trkpt lat="49.90669" lon="1.09118">
        <ele>5.7</ele>
        <time>2014-12-24T17:15:20.000Z</time>
      </trkpt>
      <trkpt lat="49.90671" lon="1.09114">
        <ele>5.7</ele>
        <time>2014-12-24T17:15:21.000Z</time>
      </trkpt>
      <trkpt lat="49.90673" lon="1.09111">
        <ele>5.8</ele>
        <time>2014-12-24T17:15:22.000Z</time>
      </trkpt>
      <trkpt lat="49.90675" lon="1.09107">
        <ele>5.8</ele>
        <time>2014-12-24T17:15:23.000Z</time>
      </trkpt>
      <trkpt lat="49.90677" lon="1.09104">
        <ele>5.9</ele>
        <time>2014-12-24T17:15:24.000Z</time>
      </trkpt>
      <trkpt lat="49.90679" lon="1.091">
        <ele>5.9</ele>
        <time>2014-12-24T17:15:25.000Z</time>
      </trkpt>
      <trkpt lat="49.90681" lon="1.09097">
        <ele>6</ele>
        <time>2014-12-24T17:15:26.000Z</time>
      </trkpt>
      <trkpt lat="49.90683" lon="1.09093">
        <ele>6</ele>
        <time>2014-12-24T17:15:27.000Z</time>
      </trkpt>
      <trkpt lat="49.90685" lon="1.09089">
        <ele>6.1</ele>
        <time>2014-12-24T17:15:28.000Z</time>
      </trkpt>
      <trkpt lat="49.90687" lon="1.09086">
        <ele>6.2</ele>
        <time>2014-12-24T17:15:29.000Z</time>
      </trkpt>
      <trkpt lat="49.90689" lon="1.09082">
        <ele>6.2</ele>
        <time>2014-12-24T17:15:30.000Z</time>
      </trkpt>
      <trkpt lat="49.90691" lon="1.09078">
        <ele>6.3</ele>
        <time>2014-12-24T17:15:31.000Z</time>
      </trkpt>
      <trkpt lat="49.90693" lon="1.09074">
        <ele>6.4</ele>
        <time>2014-12-24T17:15:32.000Z</time>
      </trkpt>
      <trkpt lat="49.90695" lon="1.09071">
        <ele>6.5</ele>
        <time>2014-12-24T17:15:33.000Z</time>
      </trkpt>
      <trkpt lat="49.90697" lon="1.09067">
        <ele>6.5</ele>
        <time>2014-12-24T17:15:34.000Z</time>
      </trkpt>
      <trkpt lat="49.90699" lon="1.09063">
        <ele>6.6</ele>
        <time>2014-12-24T17:15:35.000Z</time>
      </trkpt>
      <trkpt lat="49.90701" lon="1.0906">
        <ele>6.7</ele>
        <time>2014-12-24T17:15:36.000Z</time>
      </trkpt>
      <trkpt lat="49.90703" lon="1.09056">
        <ele>6.7</ele>
        <time>2014-12-24T17:15:37.000Z</time>
      </trkpt>
      <trkpt lat="49.90705" lon="1.09053">
        <ele>6.6</ele>
        <time>2014-12-24T17:15:38.000Z</time>
      </trkpt>
      <trkpt lat="49.90707" lon="1.0905">
        <ele>6.5</ele>
        <time>2014-12-24T17:15:39.000Z</time>
      </trkpt>
      <trkpt lat="49.90709" lon="1.09047">
        <ele>6.5</ele>
        <time>2014-12-24T17:15:40.000Z</time>
      </trkpt>
      <trkpt lat="49.90712" lon="1.09044">
        <ele>6.4</ele>
        <time>2014-12-24T17:15:41.000Z</time>
      </trkpt>
      <trkpt lat="49.90714" lon="1.0904">
        <ele>6.3</ele>
        <time>2014-12-24T17:15:42.000Z</time>
      </trkpt>
      <trkpt lat="49.90716" lon="1.09037">
        <ele>6.2</ele>
        <time>2014-12-24T17:15:43.000Z</time>
      </trkpt>
      <trkpt lat="49.90718" lon="1.09033">
        <ele>6.2</ele>
        <time>2014-12-24T17:15:44.000Z</time>
      </trkpt>
      <trkpt lat="49.9072" lon="1.0903">
        <ele>6.1</ele>
        <time>2014-12-24T17:15:45.000Z</time>
      </trkpt>
      <trkpt lat="49.90722" lon="1.09026">
        <ele>6</ele>
        <time>2014-12-24T17:15:46.000Z</time>
      </trkpt>
      <trkpt lat="49.90724" lon="1.09023">
        <ele>6</ele>
        <time>2014-12-24T17:15:47.000Z</time>
      </trkpt>
      <trkpt lat="49.90726" lon="1.09019">
        <ele>6</ele>
        <time>2014-12-24T17:15:48.000Z</time>
      </trkpt>
      <trkpt lat="49.90728" lon="1.09016">
        <ele>6</ele>
        <time>2014-12-24T17:15:49.000Z</time>
      </trkpt>
      <trkpt lat="49.9073" lon="1.09012">
        <ele>6</ele>
        <time>2014-12-24T17:15:50.000Z</time>
      </trkpt>
      <trkpt lat="49.90732" lon="1.09008">
        <ele>6</ele>
        <time>2014-12-24T17:15:51.000Z</time>
      </trkpt>
      <trkpt lat="49.90734" lon="1.09005">
        <ele>6</ele>
        <time>2014-12-24T17:15:52.000Z</time>
      </trkpt>
      <trkpt lat="49.90736" lon="1.09001">
        <ele>6</ele>
        <time>2014-12-24T17:15:53.000Z</time>
      </trkpt>
      <trkpt lat="49.90738" lon="1.08998">
        <ele>6</ele>
        <time>2014-12-24T17:15:54.000Z</time>
      </trkpt>
      <trkpt lat="49.90739" lon="1.08994">
        <ele>6.1</ele>
        <time>2014-12-24T17:15:55.000Z</time>
      </trkpt>
      <trkpt lat="49.90741" lon="1.0899">
        <ele>6.1</ele>
        <time>2014-12-24T17:15:56.000Z</time>
      </trkpt>
      <trkpt lat="49.90744" lon="1.08987">
        <ele>6.1</ele>
        <time>2014-12-24T17:15:57.000Z</time>
      </trkpt>
      <trkpt lat="49.90746" lon="1.08984">
        <ele>6.1</ele>
        <time>2014-12-24T17:15:58.000Z</time>
      </trkpt>
      <trkpt lat="49.90748" lon="1.0898">
        <ele>6.1</ele>
        <time>2014-12-24T17:15:59.000Z</time>
      </trkpt>
      <trkpt lat="49.9075" lon="1.08976">
        <ele>6</ele>
        <time>2014-12-24T17:16:00.000Z</time>
      </trkpt>
      <trkpt lat="49.90752" lon="1.08973">
        <ele>6</ele>
        <time>2014-12-24T17:16:01.000Z</time>
      </trkpt>
      <trkpt lat="49.90754" lon="1.08969">
        <ele>6</ele>
        <time>2014-12-24T17:16:02.000Z</time>
      </trkpt>
      <trkpt lat="49.90757" lon="1.08966">
        <ele>6</ele>
        <time>2014-12-24T17:16:03.000Z</time>
      </trkpt>
      <trkpt lat="49.90759" lon="1.08962">
        <ele>6</ele>
        <time>2014-12-24T17:16:04.000Z</time>
      </trkpt>
      <trkpt lat="49.90761" lon="1.08958">
        <ele>6</ele>
        <time>2014-12-24T17:16:05.000Z</time>
      </trkpt>
      <trkpt lat="49.90763" lon="1.08955">
        <ele>6</ele>
        <time>2014-12-24T17:16:06.000Z</time>
      </trkpt>
      <trkpt lat="49.90765" lon="1.08951">
        <ele>6</ele>
        <time>2014-12-24T17:16:07.000Z</time>
      </trkpt>
      <trkpt lat="49.90767" lon="1.08948">
        <ele>6</ele>
        <time>2014-12-24T17:16:08.000Z</time>
      </trkpt>
      <trkpt lat="49.9077" lon="1.08944">
        <ele>6</ele>
        <time>2014-12-24T17:16:09.000Z</time>
      </trkpt>
      <trkpt lat="49.90772" lon="1.0894">
        <ele>6</ele>
        <time>2014-12-24T17:16:10.000Z</time>
      </trkpt>
      <trkpt lat="49.90774" lon="1.08936">
        <ele>6</ele>
        <time>2014-12-24T17:16:11.000Z</time>
      </trkpt>
      <trkpt lat="49.90776" lon="1.08932">
        <ele>6</ele>
        <time>2014-12-24T17:16:12.000Z</time>
      </trkpt>
      <trkpt lat="49.90779" lon="1.08929">
        <ele>6</ele>
        <time>2014-12-24T17:16:13.000Z</time>
      </trkpt>
      <trkpt lat="49.90781" lon="1.08926">
        <ele>5.9</ele>
        <time>2014-12-24T17:16:14.000Z</time>
      </trkpt>
      <trkpt lat="49.90783" lon="1.08922">
        <ele>5.8</ele>
        <time>2014-12-24T17:16:15.000Z</time>
      </trkpt>
      <trkpt lat="49.90785" lon="1.08919">
        <ele>5.7</ele>
        <time>2014-12-24T17:16:16.000Z</time>
      </trkpt>
      <trkpt lat="49.90787" lon="1.08915">
        <ele>5.7</ele>
        <time>2014-12-24T17:16:17.000Z</time>
      </trkpt>
      <trkpt lat="49.90789" lon="1.08911">
        <ele>5.7</ele>
        <time>2014-12-24T17:16:18.000Z</time>
      </trkpt>
      <trkpt lat="49.90792" lon="1.08907">
        <ele>5.7</ele>
        <time>2014-12-24T17:16:19.000Z</time>
      </trkpt>
      <trkpt lat="49.90794" lon="1.08904">
        <ele>5.7</ele>
        <time>2014-12-24T17:16:20.000Z</time>
      </trkpt>
      <trkpt lat="49.90796" lon="1.089">
        <ele>5.7</ele>
        <time>2014-12-24T17:16:21.000Z</time>
      </trkpt>
      <trkpt lat="49.90798" lon="1.08896">
        <ele>5.8</ele>
        <time>2014-12-24T17:16:22.000Z</time>
      </trkpt>
      <trkpt lat="49.90801" lon="1.08892">
        <ele>5.9</ele>
        <time>2014-12-24T17:16:23.000Z</time>
      </trkpt>
      <trkpt lat="49.90803" lon="1.08888">
        <ele>6</ele>
        <time>2014-12-24T17:16:24.000Z</time>
      </trkpt>
      <trkpt lat="49.90805" lon="1.08884">
        <ele>6</ele>
        <time>2014-12-24T17:16:25.000Z</time>
      </trkpt>
      <trkpt lat="49.90807" lon="1.08881">
        <ele>5.9</ele>
        <time>2014-12-24T17:16:26.000Z</time>
      </trkpt>
      <trkpt lat="49.90809" lon="1.08877">
        <ele>5.8</ele>
        <time>2014-12-24T17:16:27.000Z</time>
      </trkpt>
      <trkpt lat="49.90811" lon="1.08873">
        <ele>5.7</ele>
        <time>2014-12-24T17:16:28.000Z</time>
      </trkpt>
      <trkpt lat="49.90814" lon="1.0887">
        <ele>5.6</ele>
        <time>2014-12-24T17:16:29.000Z</time>
      </trkpt>
      <trkpt lat="49.90816" lon="1.08867">
        <ele>5.5</ele>
        <time>2014-12-24T17:16:30.000Z</time>
      </trkpt>
      <trkpt lat="49.90818" lon="1.08864">
        <ele>5.5</ele>
        <time>2014-12-24T17:16:31.000Z</time>
      </trkpt>
      <trkpt lat="49.9082" lon="1.08861">
        <ele>5.5</ele>
        <time>2014-12-24T17:16:32.000Z</time>
      </trkpt>
      <trkpt lat="49.90822" lon="1.08857">
        <ele>5.5</ele>
        <time>2014-12-24T17:16:33.000Z</time>
      </trkpt>
      <trkpt lat="49.90824" lon="1.08854">
        <ele>5.6</ele>
        <time>2014-12-24T17:16:34.000Z</time>
      </trkpt>
      <trkpt lat="49.90826" lon="1.0885">
        <ele>5.6</ele>
        <time>2014-12-24T17:16:35.000Z</time>
      </trkpt>
      <trkpt lat="49.90828" lon="1.08847">
        <ele>5.7</ele>
        <time>2014-12-24T17:16:36.000Z</time>
      </trkpt>
      <trkpt lat="49.90831" lon="1.08843">
        <ele>5.7</ele>
        <time>2014-12-24T17:16:37.000Z</time>
      </trkpt>
      <trkpt lat="49.90833" lon="1.0884">
        <ele>5.8</ele>
        <time>2014-12-24T17:16:38.000Z</time>
      </trkpt>
      <trkpt lat="49.90835" lon="1.08836">
        <ele>5.8</ele>
        <time>2014-12-24T17:16:39.000Z</time>
      </trkpt>
      <trkpt lat="49.90837" lon="1.08833">
        <ele>5.9</ele>
        <time>2014-12-24T17:16:40.000Z</time>
      </trkpt>
      <trkpt lat="49.90839" lon="1.0883">
        <ele>5.8</ele>
        <time>2014-12-24T17:16:41.000Z</time>
      </trkpt>
      <trkpt lat="49.90842" lon="1.08827">
        <ele>5.8</ele>
        <time>2014-12-24T17:16:42.000Z</time>
      </trkpt>
      <trkpt lat="49.90844" lon="1.08823">
        <ele>5.8</ele>
        <time>2014-12-24T17:16:43.000Z</time>
      </trkpt>
      <trkpt lat="49.90846" lon="1.0882">
        <ele>5.8</ele>
        <time>2014-12-24T17:16:44.000Z</time>
      </trkpt>
      <trkpt lat="49.90848" lon="1.08817">
        <ele>5.8</ele>
        <time>2014-12-24T17:16:45.000Z</time>
      </trkpt>
      <trkpt lat="49.90851" lon="1.08814">
        <ele>5.8</ele>
        <time>2014-12-24T17:16:46.000Z</time>
      </trkpt>
      <trkpt lat="49.90853" lon="1.0881">
        <ele>5.9</ele>
        <time>2014-12-24T17:16:47.000Z</time>
      </trkpt>
      <trkpt lat="49.90855" lon="1.08807">
        <ele>6</ele>
        <time>2014-12-24T17:16:48.000Z</time>
      </trkpt>
      <trkpt lat="49.90857" lon="1.08803">
        <ele>6</ele>
        <time>2014-12-24T17:16:49.000Z</time>
      </trkpt>
      <trkpt lat="49.90859" lon="1.08799">
        <ele>6</ele>
        <time>2014-12-24T17:16:50.000Z</time>
      </trkpt>
      <trkpt lat="49.90861" lon="1.08795">
        <ele>6</ele>
        <time>2014-12-24T17:16:51.000Z</time>
      </trkpt>
      <trkpt lat="49.90863" lon="1.08791">
        <ele>5.9</ele>
        <time>2014-12-24T17:16:52.000Z</time>
      </trkpt>
      <trkpt lat="49.90865" lon="1.08788">
        <ele>5.8</ele>
        <time>2014-12-24T17:16:53.000Z</time>
      </trkpt>
      <trkpt lat="49.90868" lon="1.08784">
        <ele>5.8</ele>
        <time>2014-12-24T17:16:54.000Z</time>
      </trkpt>
      <trkpt lat="49.9087" lon="1.08781">
        <ele>5.7</ele>
        <time>2014-12-24T17:16:55.000Z</time>
      </trkpt>
      <trkpt lat="49.90872" lon="1.08778">
        <ele>5.6</ele>
        <time>2014-12-24T17:16:56.000Z</time>
      </trkpt>
      <trkpt lat="49.90874" lon="1.08775">
        <ele>5.6</ele>
        <time>2014-12-24T17:16:57.000Z</time>
      </trkpt>
      <trkpt lat="49.90877" lon="1.08771">
        <ele>5.7</ele>
        <time>2014-12-24T17:16:58.000Z</time>
      </trkpt>
      <trkpt lat="49.90879" lon="1.08768">
        <ele>5.7</ele>
        <time>2014-12-24T17:16:59.000Z</time>
      </trkpt>
      <trkpt lat="49.90881" lon="1.08765">
        <ele>5.7</ele>
        <time>2014-12-24T17:17:00.000Z</time>
      </trkpt>
      <trkpt lat="49.90883" lon="1.08761">
        <ele>5.8</ele>
        <time>2014-12-24T17:17:01.000Z</time>
      </trkpt>
      <trkpt lat="49.90886" lon="1.08758">
        <ele>5.8</ele>
        <time>2014-12-24T17:17:02.000Z</time>
      </trkpt>
      <trkpt lat="49.90888" lon="1.08755">
        <ele>5.9</ele>
        <time>2014-12-24T17:17:03.000Z</time>
      </trkpt>
      <trkpt lat="49.9089" lon="1.08752">
        <ele>5.8</ele>
        <time>2014-12-24T17:17:04.000Z</time>
      </trkpt>
      <trkpt lat="49.90893" lon="1.08749">
        <ele>5.8</ele>
        <time>2014-12-24T17:17:05.000Z</time>
      </trkpt>
      <trkpt lat="49.90895" lon="1.08745">
        <ele>5.6</ele>
        <time>2014-12-24T17:17:06.000Z</time>
      </trkpt>
      <trkpt lat="49.90897" lon="1.08742">
        <ele>5.6</ele>
        <time>2014-12-24T17:17:07.000Z</time>
      </trkpt>
      <trkpt lat="49.90899" lon="1.08739">
        <ele>5.6</ele>
        <time>2014-12-24T17:17:08.000Z</time>
      </trkpt>
      <trkpt lat="49.90901" lon="1.08736">
        <ele>5.6</ele>
        <time>2014-12-24T17:17:09.000Z</time>
      </trkpt>
      <trkpt lat="49.90904" lon="1.08732">
        <ele>5.6</ele>
        <time>2014-12-24T17:17:10.000Z</time>
      </trkpt>
      <trkpt lat="49.90906" lon="1.08729">
        <ele>5.7</ele>
        <time>2014-12-24T17:17:11.000Z</time>
      </trkpt>
      <trkpt lat="49.90908" lon="1.08726">
        <ele>5.8</ele>
        <time>2014-12-24T17:17:12.000Z</time>
      </trkpt>
      <trkpt lat="49.9091" lon="1.08723">
        <ele>6</ele>
        <time>2014-12-24T17:17:13.000Z</time>
      </trkpt>
      <trkpt lat="49.90912" lon="1.08719">
        <ele>6</ele>
        <time>2014-12-24T17:17:14.000Z</time>
      </trkpt>
      <trkpt lat="49.90914" lon="1.08716">
        <ele>6</ele>
        <time>2014-12-24T17:17:15.000Z</time>
      </trkpt>
      <trkpt lat="49.90916" lon="1.08713">
        <ele>6</ele>
        <time>2014-12-24T17:17:16.000Z</time>
      </trkpt>
      <trkpt lat="49.90919" lon="1.0871">
        <ele>5.9</ele>
        <time>2014-12-24T17:17:17.000Z</time>
      </trkpt>
      <trkpt lat="49.90921" lon="1.08707">
        <ele>5.8</ele>
        <time>2014-12-24T17:17:18.000Z</time>
      </trkpt>
      <trkpt lat="49.90923" lon="1.08704">
        <ele>5.7</ele>
        <time>2014-12-24T17:17:19.000Z</time>
      </trkpt>
      <trkpt lat="49.90926" lon="1.087">
        <ele>5.6</ele>
        <time>2014-12-24T17:17:20.000Z</time>
      </trkpt>
      <trkpt lat="49.90928" lon="1.08697">
        <ele>5.6</ele>
        <time>2014-12-24T17:17:21.000Z</time>
      </trkpt>
      <trkpt lat="49.9093" lon="1.08694">
        <ele>5.5</ele>
        <time>2014-12-24T17:17:22.000Z</time>
      </trkpt>
      <trkpt lat="49.90933" lon="1.0869">
        <ele>5.6</ele>
        <time>2014-12-24T17:17:23.000Z</time>
      </trkpt>
      <trkpt lat="49.90935" lon="1.08687">
        <ele>5.6</ele>
        <time>2014-12-24T17:17:24.000Z</time>
      </trkpt>
      <trkpt lat="49.90937" lon="1.08684">
        <ele>5.6</ele>
        <time>2014-12-24T17:17:25.000Z</time>
      </trkpt>
      <trkpt lat="49.9094" lon="1.08681">
        <ele>5.7</ele>
        <time>2014-12-24T17:17:26.000Z</time>
      </trkpt>
      <trkpt lat="49.90942" lon="1.08678">
        <ele>5.7</ele>
        <time>2014-12-24T17:17:27.000Z</time>
      </trkpt>
      <trkpt lat="49.90945" lon="1.08675">
        <ele>5.7</ele>
        <time>2014-12-24T17:17:28.000Z</time>
      </trkpt>
      <trkpt lat="49.90947" lon="1.08671">
        <ele>5.7</ele>
        <time>2014-12-24T17:17:29.000Z</time>
      </trkpt>
      <trkpt lat="49.90949" lon="1.08668">
        <ele>5.6</ele>
        <time>2014-12-24T17:17:30.000Z</time>
      </trkpt>
      <trkpt lat="49.90952" lon="1.08664">
        <ele>5.5</ele>
        <time>2014-12-24T17:17:31.000Z</time>
      </trkpt>
      <trkpt lat="49.90954" lon="1.08661">
        <ele>5.5</ele>
        <time>2014-12-24T17:17:32.000Z</time>
      </trkpt>
      <trkpt lat="49.90957" lon="1.08657">
        <ele>5.4</ele>
        <time>2014-12-24T17:17:33.000Z</time>
      </trkpt>
      <trkpt lat="49.90959" lon="1.08654">
        <ele>5.4</ele>
        <time>2014-12-24T17:17:34.000Z</time>
      </trkpt>
      <trkpt lat="49.90962" lon="1.08651">
        <ele>5.5</ele>
        <time>2014-12-24T17:17:35.000Z</time>
      </trkpt>
      <trkpt lat="49.90964" lon="1.08648">
        <ele>5.5</ele>
        <time>2014-12-24T17:17:36.000Z</time>
      </trkpt>
      <trkpt lat="49.90967" lon="1.08644">
        <ele>5.7</ele>
        <time>2014-12-24T17:17:37.000Z</time>
      </trkpt>
      <trkpt lat="49.90969" lon="1.08641">
        <ele>5.8</ele>
        <time>2014-12-24T17:17:38.000Z</time>
      </trkpt>
      <trkpt lat="49.90972" lon="1.08638">
        <ele>6</ele>
        <time>2014-12-24T17:17:39.000Z</time>
      </trkpt>
      <trkpt lat="49.90974" lon="1.08635">
        <ele>5.9</ele>
        <time>2014-12-24T17:17:40.000Z</time>
      </trkpt>
      <trkpt lat="49.90976" lon="1.08632">
        <ele>5.8</ele>
        <time>2014-12-24T17:17:41.000Z</time>
      </trkpt>
      <trkpt lat="49.90979" lon="1.0863">
        <ele>5.8</ele>
        <time>2014-12-24T17:17:42.000Z</time>
      </trkpt>
      <trkpt lat="49.90981" lon="1.08627">
        <ele>5.7</ele>
        <time>2014-12-24T17:17:43.000Z</time>
      </trkpt>
      <trkpt lat="49.90984" lon="1.08624">
        <ele>5.6</ele>
        <time>2014-12-24T17:17:44.000Z</time>
      </trkpt>
      <trkpt lat="49.90986" lon="1.08621">
        <ele>5.5</ele>
        <time>2014-12-24T17:17:45.000Z</time>
      </trkpt>
      <trkpt lat="49.90989" lon="1.08618">
        <ele>5.4</ele>
        <time>2014-12-24T17:17:46.000Z</time>
      </trkpt>
      <trkpt lat="49.90991" lon="1.08616">
        <ele>5.3</ele>
        <time>2014-12-24T17:17:47.000Z</time>
      </trkpt>
      <trkpt lat="49.90994" lon="1.08613">
        <ele>5.2</ele>
        <time>2014-12-24T17:17:48.000Z</time>
      </trkpt>
      <trkpt lat="49.90996" lon="1.0861">
        <ele>5.2</ele>
        <time>2014-12-24T17:17:49.000Z</time>
      </trkpt>
      <trkpt lat="49.90999" lon="1.08607">
        <ele>5.2</ele>
        <time>2014-12-24T17:17:50.000Z</time>
      </trkpt>
      <trkpt lat="49.91002" lon="1.08604">
        <ele>5.2</ele>
        <time>2014-12-24T17:17:51.000Z</time>
      </trkpt>
      <trkpt lat="49.91004" lon="1.08601">
        <ele>5.2</ele>
        <time>2014-12-24T17:17:52.000Z</time>
      </trkpt>
      <trkpt lat="49.91007" lon="1.08599">
        <ele>5.3</ele>
        <time>2014-12-24T17:17:53.000Z</time>
      </trkpt>
      <trkpt lat="49.9101" lon="1.08596">
        <ele>5.4</ele>
        <time>2014-12-24T17:17:54.000Z</time>
      </trkpt>
      <trkpt lat="49.91012" lon="1.08593">
        <ele>5.5</ele>
        <time>2014-12-24T17:17:55.000Z</time>
      </trkpt>
      <trkpt lat="49.91015" lon="1.0859">
        <ele>5.6</ele>
        <time>2014-12-24T17:17:56.000Z</time>
      </trkpt>
      <trkpt lat="49.91018" lon="1.08588">
        <ele>5.8</ele>
        <time>2014-12-24T17:17:57.000Z</time>
      </trkpt>
      <trkpt lat="49.9102" lon="1.08585">
        <ele>5.9</ele>
        <time>2014-12-24T17:17:58.000Z</time>
      </trkpt>
      <trkpt lat="49.91023" lon="1.08583">
        <ele>6</ele>
        <time>2014-12-24T17:17:59.000Z</time>
      </trkpt>
      <trkpt lat="49.91025" lon="1.08581">
        <ele>6.1</ele>
        <time>2014-12-24T17:18:00.000Z</time>
      </trkpt>
      <trkpt lat="49.91028" lon="1.08578">
        <ele>6.2</ele>
        <time>2014-12-24T17:18:01.000Z</time>
      </trkpt>
      <trkpt lat="49.9103" lon="1.08576">
        <ele>6.3</ele>
        <time>2014-12-24T17:18:02.000Z</time>
      </trkpt>
      <trkpt lat="49.91032" lon="1.08573">
        <ele>6.5</ele>
        <time>2014-12-24T17:18:03.000Z</time>
      </trkpt>
      <trkpt lat="49.91035" lon="1.0857">
        <ele>6.6</ele>
        <time>2014-12-24T17:18:04.000Z</time>
      </trkpt>
      <trkpt lat="49.91037" lon="1.08567">
        <ele>6.7</ele>
        <time>2014-12-24T17:18:05.000Z</time>
      </trkpt>
      <trkpt lat="49.91039" lon="1.08563">
        <ele>6.8</ele>
        <time>2014-12-24T17:18:06.000Z</time>
      </trkpt>
      <trkpt lat="49.91041" lon="1.0856">
        <ele>6.9</ele>
        <time>2014-12-24T17:18:07.000Z</time>
      </trkpt>
      <trkpt lat="49.91043" lon="1.08556">
        <ele>7</ele>
        <time>2014-12-24T17:18:08.000Z</time>
      </trkpt>
      <trkpt lat="49.91045" lon="1.08553">
        <ele>7</ele>
        <time>2014-12-24T17:18:09.000Z</time>
      </trkpt>
      <trkpt lat="49.91047" lon="1.0855">
        <ele>6.9</ele>
        <time>2014-12-24T17:18:10.000Z</time>
      </trkpt>
      <trkpt lat="49.91049" lon="1.08547">
        <ele>6.9</ele>
        <time>2014-12-24T17:18:11.000Z</time>
      </trkpt>
      <trkpt lat="49.91052" lon="1.08543">
        <ele>6.9</ele>
        <time>2014-12-24T17:18:12.000Z</time>
      </trkpt>
      <trkpt lat="49.91054" lon="1.08539">
        <ele>7</ele>
        <time>2014-12-24T17:18:13.000Z</time>
      </trkpt>
      <trkpt lat="49.91056" lon="1.08536">
        <ele>7.1</ele>
        <time>2014-12-24T17:18:14.000Z</time>
      </trkpt>
      <trkpt lat="49.91059" lon="1.08533">
        <ele>7.2</ele>
        <time>2014-12-24T17:18:15.000Z</time>
      </trkpt>
      <trkpt lat="49.91061" lon="1.0853">
        <ele>7.3</ele>
        <time>2014-12-24T17:18:16.000Z</time>
      </trkpt>
      <trkpt lat="49.91063" lon="1.08526">
        <ele>7.2</ele>
        <time>2014-12-24T17:18:17.000Z</time>
      </trkpt>
      <trkpt lat="49.91066" lon="1.08523">
        <ele>7.2</ele>
        <time>2014-12-24T17:18:18.000Z</time>
      </trkpt>
      <trkpt lat="49.91069" lon="1.0852">
        <ele>7.2</ele>
        <time>2014-12-24T17:18:19.000Z</time>
      </trkpt>
      <trkpt lat="49.91071" lon="1.08518">
        <ele>7.2</ele>
        <time>2014-12-24T17:18:20.000Z</time>
      </trkpt>
      <trkpt lat="49.91074" lon="1.08515">
        <ele>7.2</ele>
        <time>2014-12-24T17:18:21.000Z</time>
      </trkpt>
      <trkpt lat="49.91076" lon="1.08512">
        <ele>7.2</ele>
        <time>2014-12-24T17:18:22.000Z</time>
      </trkpt>
      <trkpt lat="49.91079" lon="1.08509">
        <ele>7.2</ele>
        <time>2014-12-24T17:18:23.000Z</time>
      </trkpt>
      <trkpt lat="49.91081" lon="1.08506">
        <ele>7.1</ele>
        <time>2014-12-24T17:18:24.000Z</time>
      </trkpt>
      <trkpt lat="49.91083" lon="1.08503">
        <ele>7.1</ele>
        <time>2014-12-24T17:18:25.000Z</time>
      </trkpt>
      <trkpt lat="49.91086" lon="1.085">
        <ele>7</ele>
        <time>2014-12-24T17:18:26.000Z</time>
      </trkpt>
      <trkpt lat="49.91089" lon="1.08497">
        <ele>6.9</ele>
        <time>2014-12-24T17:18:27.000Z</time>
      </trkpt>
      <trkpt lat="49.91091" lon="1.08494">
        <ele>6.9</ele>
        <time>2014-12-24T17:18:28.000Z</time>
      </trkpt>
      <trkpt lat="49.91093" lon="1.08491">
        <ele>6.8</ele>
        <time>2014-12-24T17:18:29.000Z</time>
      </trkpt>
      <trkpt lat="49.91096" lon="1.08489">
        <ele>6.8</ele>
        <time>2014-12-24T17:18:30.000Z</time>
      </trkpt>
      <trkpt lat="49.91099" lon="1.08486">
        <ele>6.8</ele>
        <time>2014-12-24T17:18:31.000Z</time>
      </trkpt>
      <trkpt lat="49.91101" lon="1.08483">
        <ele>6.8</ele>
        <time>2014-12-24T17:18:32.000Z</time>
      </trkpt>
      <trkpt lat="49.91104" lon="1.08481">
        <ele>6.8</ele>
        <time>2014-12-24T17:18:33.000Z</time>
      </trkpt>
      <trkpt lat="49.91107" lon="1.08478">
        <ele>6.9</ele>
        <time>2014-12-24T17:18:34.000Z</time>
      </trkpt>
      <trkpt lat="49.91109" lon="1.08476">
        <ele>6.9</ele>
        <time>2014-12-24T17:18:35.000Z</time>
      </trkpt>
      <trkpt lat="49.91112" lon="1.08473">
        <ele>7</ele>
        <time>2014-12-24T17:18:36.000Z</time>
      </trkpt>
      <trkpt lat="49.91115" lon="1.08471">
        <ele>6.9</ele>
        <time>2014-12-24T17:18:37.000Z</time>
      </trkpt>
      <trkpt lat="49.91117" lon="1.08468">
        <ele>6.8</ele>
        <time>2014-12-24T17:18:38.000Z</time>
      </trkpt>
      <trkpt lat="49.9112" lon="1.08465">
        <ele>6.7</ele>
        <time>2014-12-24T17:18:39.000Z</time>
      </trkpt>
      <trkpt lat="49.91123" lon="1.08463">
        <ele>6.7</ele>
        <time>2014-12-24T17:18:40.000Z</time>
      </trkpt>
      <trkpt lat="49.91126" lon="1.0846">
        <ele>6.6</ele>
        <time>2014-12-24T17:18:41.000Z</time>
      </trkpt>
      <trkpt lat="49.91129" lon="1.08458">
        <ele>6.5</ele>
        <time>2014-12-24T17:18:42.000Z</time>
      </trkpt>
      <trkpt lat="49.91131" lon="1.08455">
        <ele>6.4</ele>
        <time>2014-12-24T17:18:43.000Z</time>
      </trkpt>
      <trkpt lat="49.91134" lon="1.08453">
        <ele>6.3</ele>
        <time>2014-12-24T17:18:44.000Z</time>
      </trkpt>
      <trkpt lat="49.91136" lon="1.08449">
        <ele>6.2</ele>
        <time>2014-12-24T17:18:45.000Z</time>
      </trkpt>
      <trkpt lat="49.91138" lon="1.08447">
        <ele>6.1</ele>
        <time>2014-12-24T17:18:46.000Z</time>
      </trkpt>
      <trkpt lat="49.9114" lon="1.08444">
        <ele>6</ele>
        <time>2014-12-24T17:18:47.000Z</time>
      </trkpt>
      <trkpt lat="49.91142" lon="1.08441">
        <ele>6</ele>
        <time>2014-12-24T17:18:48.000Z</time>
      </trkpt>
      <trkpt lat="49.91145" lon="1.08438">
        <ele>6</ele>
        <time>2014-12-24T17:18:49.000Z</time>
      </trkpt>
      <trkpt lat="49.91147" lon="1.08435">
        <ele>6</ele>
        <time>2014-12-24T17:18:50.000Z</time>
      </trkpt>
      <trkpt lat="49.91149" lon="1.08433">
        <ele>6</ele>
        <time>2014-12-24T17:18:51.000Z</time>
      </trkpt>
      <trkpt lat="49.91152" lon="1.0843">
        <ele>5.9</ele>
        <time>2014-12-24T17:18:52.000Z</time>
      </trkpt>
      <trkpt lat="49.91154" lon="1.08427">
        <ele>5.9</ele>
        <time>2014-12-24T17:18:53.000Z</time>
      </trkpt>
      <trkpt lat="49.91156" lon="1.08424">
        <ele>5.9</ele>
        <time>2014-12-24T17:18:54.000Z</time>
      </trkpt>
      <trkpt lat="49.91158" lon="1.08421">
        <ele>5.9</ele>
        <time>2014-12-24T17:18:55.000Z</time>
      </trkpt>
      <trkpt lat="49.91161" lon="1.08418">
        <ele>5.8</ele>
        <time>2014-12-24T17:18:56.000Z</time>
      </trkpt>
      <trkpt lat="49.91163" lon="1.08415">
        <ele>5.8</ele>
        <time>2014-12-24T17:18:57.000Z</time>
      </trkpt>
      <trkpt lat="49.91165" lon="1.08412">
        <ele>5.8</ele>
        <time>2014-12-24T17:18:58.000Z</time>
      </trkpt>
      <trkpt lat="49.91167" lon="1.0841">
        <ele>5.8</ele>
        <time>2014-12-24T17:18:59.000Z</time>
      </trkpt>
      <trkpt lat="49.9117" lon="1.08407">
        <ele>5.7</ele>
        <time>2014-12-24T17:19:00.000Z</time>
      </trkpt>
      <trkpt lat="49.91172" lon="1.08405">
        <ele>5.6</ele>
        <time>2014-12-24T17:19:01.000Z</time>
      </trkpt>
      <trkpt lat="49.91174" lon="1.08403">
        <ele>5.5</ele>
        <time>2014-12-24T17:19:02.000Z</time>
      </trkpt>
      <trkpt lat="49.91177" lon="1.084">
        <ele>5.4</ele>
        <time>2014-12-24T17:19:03.000Z</time>
      </trkpt>
      <trkpt lat="49.9118" lon="1.08398">
        <ele>5.3</ele>
        <time>2014-12-24T17:19:04.000Z</time>
      </trkpt>
      <trkpt lat="49.91182" lon="1.08395">
        <ele>5.2</ele>
        <time>2014-12-24T17:19:05.000Z</time>
      </trkpt>
      <trkpt lat="49.91185" lon="1.08393">
        <ele>5.1</ele>
        <time>2014-12-24T17:19:06.000Z</time>
      </trkpt>
      <trkpt lat="49.91188" lon="1.0839">
        <ele>5</ele>
        <time>2014-12-24T17:19:07.000Z</time>
      </trkpt>
      <trkpt lat="49.9119" lon="1.08387">
        <ele>5</ele>
        <time>2014-12-24T17:19:08.000Z</time>
      </trkpt>
      <trkpt lat="49.91192" lon="1.08384">
        <ele>5</ele>
        <time>2014-12-24T17:19:09.000Z</time>
      </trkpt>
      <trkpt lat="49.91194" lon="1.08381">
        <ele>5</ele>
        <time>2014-12-24T17:19:10.000Z</time>
      </trkpt>
      <trkpt lat="49.91196" lon="1.08378">
        <ele>5</ele>
        <time>2014-12-24T17:19:11.000Z</time>
      </trkpt>
      <trkpt lat="49.91199" lon="1.08375">
        <ele>5.1</ele>
        <time>2014-12-24T17:19:12.000Z</time>
      </trkpt>
      <trkpt lat="49.91201" lon="1.08371">
        <ele>5.1</ele>
        <time>2014-12-24T17:19:13.000Z</time>
      </trkpt>
      <trkpt lat="49.91204" lon="1.08368">
        <ele>5.1</ele>
        <time>2014-12-24T17:19:14.000Z</time>
      </trkpt>
      <trkpt lat="49.91206" lon="1.08365">
        <ele>5.1</ele>
        <time>2014-12-24T17:19:15.000Z</time>
      </trkpt>
      <trkpt lat="49.91209" lon="1.08361">
        <ele>5</ele>
        <time>2014-12-24T17:19:16.000Z</time>
      </trkpt>
      <trkpt lat="49.91211" lon="1.08358">
        <ele>5</ele>
        <time>2014-12-24T17:19:17.000Z</time>
      </trkpt>
      <trkpt lat="49.91214" lon="1.08355">
        <ele>5.1</ele>
        <time>2014-12-24T17:19:18.000Z</time>
      </trkpt>
      <trkpt lat="49.91216" lon="1.08352">
        <ele>5.1</ele>
        <time>2014-12-24T17:19:19.000Z</time>
      </trkpt>
      <trkpt lat="49.91218" lon="1.0835">
        <ele>5.1</ele>
        <time>2014-12-24T17:19:20.000Z</time>
      </trkpt>
      <trkpt lat="49.91221" lon="1.08347">
        <ele>5</ele>
        <time>2014-12-24T17:19:21.000Z</time>
      </trkpt>
      <trkpt lat="49.91223" lon="1.08344">
        <ele>5</ele>
        <time>2014-12-24T17:19:22.000Z</time>
      </trkpt>
      <trkpt lat="49.91226" lon="1.08342">
        <ele>5</ele>
        <time>2014-12-24T17:19:23.000Z</time>
      </trkpt>
      <trkpt lat="49.91228" lon="1.08339">
        <ele>5</ele>
        <time>2014-12-24T17:19:24.000Z</time>
      </trkpt>
      <trkpt lat="49.91231" lon="1.08337">
        <ele>5</ele>
        <time>2014-12-24T17:19:25.000Z</time>
      </trkpt>
      <trkpt lat="49.91233" lon="1.08335">
        <ele>5</ele>
        <time>2014-12-24T17:19:26.000Z</time>
      </trkpt>
      <trkpt lat="49.91236" lon="1.08333">
        <ele>5</ele>
        <time>2014-12-24T17:19:27.000Z</time>
      </trkpt>
      <trkpt lat="49.91238" lon="1.08331">
        <ele>5</ele>
        <time>2014-12-24T17:19:28.000Z</time>
      </trkpt>
      <trkpt lat="49.91242" lon="1.08328">
        <ele>5.1</ele>
        <time>2014-12-24T17:19:29.000Z</time>
      </trkpt>
      <trkpt lat="49.91244" lon="1.08326">
        <ele>5.1</ele>
        <time>2014-12-24T17:19:30.000Z</time>
      </trkpt>
      <trkpt lat="49.91247" lon="1.08323">
        <ele>5</ele>
        <time>2014-12-24T17:19:31.000Z</time>
      </trkpt>
      <trkpt lat="49.9125" lon="1.08321">
        <ele>5</ele>
        <time>2014-12-24T17:19:32.000Z</time>
      </trkpt>
      <trkpt lat="49.91252" lon="1.08318">
        <ele>5</ele>
        <time>2014-12-24T17:19:33.000Z</time>
      </trkpt>
      <trkpt lat="49.91255" lon="1.08316">
        <ele>5.1</ele>
        <time>2014-12-24T17:19:34.000Z</time>
      </trkpt>
      <trkpt lat="49.91258" lon="1.08314">
        <ele>5.1</ele>
        <time>2014-12-24T17:19:35.000Z</time>
      </trkpt>
      <trkpt lat="49.91261" lon="1.08312">
        <ele>5.1</ele>
        <time>2014-12-24T17:19:36.000Z</time>
      </trkpt>
      <trkpt lat="49.91264" lon="1.0831">
        <ele>5.1</ele>
        <time>2014-12-24T17:19:37.000Z</time>
      </trkpt>
      <trkpt lat="49.91267" lon="1.08308">
        <ele>5</ele>
        <time>2014-12-24T17:19:38.000Z</time>
      </trkpt>
      <trkpt lat="49.91269" lon="1.08305">
        <ele>5</ele>
        <time>2014-12-24T17:19:39.000Z</time>
      </trkpt>
      <trkpt lat="49.91272" lon="1.08303">
        <ele>5</ele>
        <time>2014-12-24T17:19:40.000Z</time>
      </trkpt>
      <trkpt lat="49.91274" lon="1.08301">
        <ele>5</ele>
        <time>2014-12-24T17:19:41.000Z</time>
      </trkpt>
      <trkpt lat="49.91277" lon="1.08298">
        <ele>5</ele>
        <time>2014-12-24T17:19:42.000Z</time>
      </trkpt>
      <trkpt lat="49.91279" lon="1.08296">
        <ele>5</ele>
        <time>2014-12-24T17:19:43.000Z</time>
      </trkpt>
      <trkpt lat="49.91281" lon="1.08293">
        <ele>5.1</ele>
        <time>2014-12-24T17:19:44.000Z</time>
      </trkpt>
      <trkpt lat="49.91284" lon="1.0829">
        <ele>5.2</ele>
        <time>2014-12-24T17:19:45.000Z</time>
      </trkpt>
      <trkpt lat="49.91286" lon="1.08287">
        <ele>5.3</ele>
        <time>2014-12-24T17:19:46.000Z</time>
      </trkpt>
      <trkpt lat="49.91288" lon="1.08285">
        <ele>5.4</ele>
        <time>2014-12-24T17:19:47.000Z</time>
      </trkpt>
      <trkpt lat="49.91291" lon="1.08282">
        <ele>5.5</ele>
        <time>2014-12-24T17:19:48.000Z</time>
      </trkpt>
      <trkpt lat="49.91293" lon="1.08279">
        <ele>5.6</ele>
        <time>2014-12-24T17:19:49.000Z</time>
      </trkpt>
      <trkpt lat="49.91296" lon="1.08276">
        <ele>5.7</ele>
        <time>2014-12-24T17:19:50.000Z</time>
      </trkpt>
      <trkpt lat="49.91298" lon="1.08273">
        <ele>5.8</ele>
        <time>2014-12-24T17:19:51.000Z</time>
      </trkpt>
      <trkpt lat="49.91301" lon="1.08271">
        <ele>5.9</ele>
        <time>2014-12-24T17:19:52.000Z</time>
      </trkpt>
      <trkpt lat="49.91303" lon="1.08268">
        <ele>5.9</ele>
        <time>2014-12-24T17:19:53.000Z</time>
      </trkpt>
      <trkpt lat="49.91305" lon="1.08266">
        <ele>6</ele>
        <time>2014-12-24T17:19:54.000Z</time>
      </trkpt>
      <trkpt lat="49.91308" lon="1.08263">
        <ele>6</ele>
        <time>2014-12-24T17:19:55.000Z</time>
      </trkpt>
      <trkpt lat="49.9131" lon="1.0826">
        <ele>6</ele>
        <time>2014-12-24T17:19:56.000Z</time>
      </trkpt>
      <trkpt lat="49.91312" lon="1.08257">
        <ele>6</ele>
        <time>2014-12-24T17:19:57.000Z</time>
      </trkpt>
      <trkpt lat="49.91315" lon="1.08254">
        <ele>6</ele>
        <time>2014-12-24T17:19:58.000Z</time>
      </trkpt>
      <trkpt lat="49.91317" lon="1.08252">
        <ele>6</ele>
        <time>2014-12-24T17:19:59.000Z</time>
      </trkpt>
      <trkpt lat="49.9132" lon="1.08249">
        <ele>6</ele>
        <time>2014-12-24T17:20:00.000Z</time>
      </trkpt>
      <trkpt lat="49.91322" lon="1.08246">
        <ele>6</ele>
        <time>2014-12-24T17:20:01.000Z</time>
      </trkpt>
      <trkpt lat="49.91325" lon="1.08243">
        <ele>6</ele>
        <time>2014-12-24T17:20:02.000Z</time>
      </trkpt>
      <trkpt lat="49.91327" lon="1.08241">
        <ele>6</ele>
        <time>2014-12-24T17:20:03.000Z</time>
      </trkpt>
      <trkpt lat="49.9133" lon="1.08238">
        <ele>6</ele>
        <time>2014-12-24T17:20:04.000Z</time>
      </trkpt>
      <trkpt lat="49.91332" lon="1.08235">
        <ele>6</ele>
        <time>2014-12-24T17:20:05.000Z</time>
      </trkpt>
      <trkpt lat="49.91335" lon="1.08233">
        <ele>6</ele>
        <time>2014-12-24T17:20:06.000Z</time>
      </trkpt>
      <trkpt lat="49.91337" lon="1.0823">
        <ele>6</ele>
        <time>2014-12-24T17:20:07.000Z</time>
      </trkpt>
      <trkpt lat="49.9134" lon="1.08228">
        <ele>6</ele>
        <time>2014-12-24T17:20:08.000Z</time>
      </trkpt>
      <trkpt lat="49.91343" lon="1.08225">
        <ele>6</ele>
        <time>2014-12-24T17:20:09.000Z</time>
      </trkpt>
      <trkpt lat="49.91346" lon="1.08222">
        <ele>6</ele>
        <time>2014-12-24T17:20:10.000Z</time>
      </trkpt>
      <trkpt lat="49.91349" lon="1.08219">
        <ele>6</ele>
        <time>2014-12-24T17:20:11.000Z</time>
      </trkpt>
      <trkpt lat="49.91351" lon="1.08217">
        <ele>6</ele>
        <time>2014-12-24T17:20:12.000Z</time>
      </trkpt>
      <trkpt lat="49.91354" lon="1.08214">
        <ele>6</ele>
        <time>2014-12-24T17:20:13.000Z</time>
      </trkpt>
      <trkpt lat="49.91356" lon="1.08211">
        <ele>6</ele>
        <time>2014-12-24T17:20:14.000Z</time>
      </trkpt>
      <trkpt lat="49.91359" lon="1.08209">
        <ele>6</ele>
        <time>2014-12-24T17:20:15.000Z</time>
      </trkpt>
      <trkpt lat="49.91361" lon="1.08206">
        <ele>6</ele>
        <time>2014-12-24T17:20:16.000Z</time>
      </trkpt>
      <trkpt lat="49.91363" lon="1.08204">
        <ele>6</ele>
        <time>2014-12-24T17:20:17.000Z</time>
      </trkpt>
      <trkpt lat="49.91365" lon="1.08201">
        <ele>6</ele>
        <time>2014-12-24T17:20:18.000Z</time>
      </trkpt>
      <trkpt lat="49.91368" lon="1.08198">
        <ele>6</ele>
        <time>2014-12-24T17:20:19.000Z</time>
      </trkpt>
      <trkpt lat="49.9137" lon="1.08196">
        <ele>6</ele>
        <time>2014-12-24T17:20:20.000Z</time>
      </trkpt>
      <trkpt lat="49.91372" lon="1.08194">
        <ele>6</ele>
        <time>2014-12-24T17:20:21.000Z</time>
      </trkpt>
      <trkpt lat="49.91375" lon="1.08191">
        <ele>6.1</ele>
        <time>2014-12-24T17:20:22.000Z</time>
      </trkpt>
      <trkpt lat="49.91377" lon="1.08188">
        <ele>6.1</ele>
        <time>2014-12-24T17:20:23.000Z</time>
      </trkpt>
      <trkpt lat="49.91379" lon="1.08185">
        <ele>6.1</ele>
        <time>2014-12-24T17:20:24.000Z</time>
      </trkpt>
      <trkpt lat="49.91381" lon="1.08182">
        <ele>6.1</ele>
        <time>2014-12-24T17:20:25.000Z</time>
      </trkpt>
      <trkpt lat="49.91383" lon="1.08179">
        <ele>6.1</ele>
        <time>2014-12-24T17:20:26.000Z</time>
      </trkpt>
      <trkpt lat="49.91386" lon="1.08177">
        <ele>6.1</ele>
        <time>2014-12-24T17:20:27.000Z</time>
      </trkpt>
      <trkpt lat="49.91388" lon="1.08174">
        <ele>6</ele>
        <time>2014-12-24T17:20:28.000Z</time>
      </trkpt>
      <trkpt lat="49.91391" lon="1.08172">
        <ele>6</ele>
        <time>2014-12-24T17:20:29.000Z</time>
      </trkpt>
      <trkpt lat="49.91393" lon="1.0817">
        <ele>6</ele>
        <time>2014-12-24T17:20:30.000Z</time>
      </trkpt>
      <trkpt lat="49.91396" lon="1.08167">
        <ele>6</ele>
        <time>2014-12-24T17:20:31.000Z</time>
      </trkpt>
      <trkpt lat="49.91399" lon="1.08165">
        <ele>6.1</ele>
        <time>2014-12-24T17:20:32.000Z</time>
      </trkpt>
      <trkpt lat="49.91401" lon="1.08163">
        <ele>6.1</ele>
        <time>2014-12-24T17:20:33.000Z</time>
      </trkpt>
      <trkpt lat="49.91404" lon="1.0816">
        <ele>6.2</ele>
        <time>2014-12-24T17:20:34.000Z</time>
      </trkpt>
      <trkpt lat="49.91406" lon="1.08157">
        <ele>6.3</ele>
        <time>2014-12-24T17:20:35.000Z</time>
      </trkpt>
      <trkpt lat="49.91409" lon="1.08155">
        <ele>6.4</ele>
        <time>2014-12-24T17:20:36.000Z</time>
      </trkpt>
      <trkpt lat="49.91411" lon="1.08152">
        <ele>6.5</ele>
        <time>2014-12-24T17:20:37.000Z</time>
      </trkpt>
      <trkpt lat="49.91413" lon="1.0815">
        <ele>6.6</ele>
        <time>2014-12-24T17:20:38.000Z</time>
      </trkpt>
      <trkpt lat="49.91416" lon="1.08147">
        <ele>6.7</ele>
        <time>2014-12-24T17:20:39.000Z</time>
      </trkpt>
      <trkpt lat="49.91418" lon="1.08145">
        <ele>6.8</ele>
        <time>2014-12-24T17:20:40.000Z</time>
      </trkpt>
      <trkpt lat="49.91421" lon="1.08143">
        <ele>6.8</ele>
        <time>2014-12-24T17:20:41.000Z</time>
      </trkpt>
      <trkpt lat="49.91423" lon="1.0814">
        <ele>6.7</ele>
        <time>2014-12-24T17:20:42.000Z</time>
      </trkpt>
      <trkpt lat="49.91425" lon="1.08138">
        <ele>6.7</ele>
        <time>2014-12-24T17:20:43.000Z</time>
      </trkpt>
      <trkpt lat="49.91428" lon="1.08135">
        <ele>6.7</ele>
        <time>2014-12-24T17:20:44.000Z</time>
      </trkpt>
      <trkpt lat="49.9143" lon="1.08133">
        <ele>6.6</ele>
        <time>2014-12-24T17:20:45.000Z</time>
      </trkpt>
      <trkpt lat="49.91432" lon="1.0813">
        <ele>6.6</ele>
        <time>2014-12-24T17:20:46.000Z</time>
      </trkpt>
      <trkpt lat="49.91435" lon="1.08127">
        <ele>6.6</ele>
        <time>2014-12-24T17:20:47.000Z</time>
      </trkpt>
      <trkpt lat="49.91437" lon="1.08125">
        <ele>6.6</ele>
        <time>2014-12-24T17:20:48.000Z</time>
      </trkpt>
      <trkpt lat="49.9144" lon="1.08122">
        <ele>6.7</ele>
        <time>2014-12-24T17:20:49.000Z</time>
      </trkpt>
      <trkpt lat="49.91442" lon="1.08119">
        <ele>6.7</ele>
        <time>2014-12-24T17:20:50.000Z</time>
      </trkpt>
      <trkpt lat="49.91444" lon="1.08116">
        <ele>6.8</ele>
        <time>2014-12-24T17:20:51.000Z</time>
      </trkpt>
      <trkpt lat="49.91446" lon="1.08113">
        <ele>6.9</ele>
        <time>2014-12-24T17:20:52.000Z</time>
      </trkpt>
      <trkpt lat="49.91448" lon="1.08111">
        <ele>6.9</ele>
        <time>2014-12-24T17:20:53.000Z</time>
      </trkpt>
      <trkpt lat="49.91451" lon="1.08108">
        <ele>6.9</ele>
        <time>2014-12-24T17:20:54.000Z</time>
      </trkpt>
      <trkpt lat="49.91453" lon="1.08106">
        <ele>6.9</ele>
        <time>2014-12-24T17:20:55.000Z</time>
      </trkpt>
      <trkpt lat="49.91456" lon="1.08104">
        <ele>6.8</ele>
        <time>2014-12-24T17:20:56.000Z</time>
      </trkpt>
      <trkpt lat="49.91459" lon="1.08103">
        <ele>6.8</ele>
        <time>2014-12-24T17:20:57.000Z</time>
      </trkpt>
      <trkpt lat="49.91462" lon="1.08101">
        <ele>6.8</ele>
        <time>2014-12-24T17:20:58.000Z</time>
      </trkpt>
      <trkpt lat="49.91464" lon="1.08098">
        <ele>6.7</ele>
        <time>2014-12-24T17:20:59.000Z</time>
      </trkpt>
      <trkpt lat="49.91467" lon="1.08096">
        <ele>6.7</ele>
        <time>2014-12-24T17:21:00.000Z</time>
      </trkpt>
      <trkpt lat="49.91469" lon="1.08093">
        <ele>6.7</ele>
        <time>2014-12-24T17:21:01.000Z</time>
      </trkpt>
      <trkpt lat="49.91471" lon="1.08091">
        <ele>6.8</ele>
        <time>2014-12-24T17:21:02.000Z</time>
      </trkpt>
      <trkpt lat="49.91474" lon="1.08088">
        <ele>6.8</ele>
        <time>2014-12-24T17:21:03.000Z</time>
      </trkpt>
      <trkpt lat="49.91476" lon="1.08086">
        <ele>6.9</ele>
        <time>2014-12-24T17:21:04.000Z</time>
      </trkpt>
      <trkpt lat="49.91479" lon="1.08083">
        <ele>7</ele>
        <time>2014-12-24T17:21:05.000Z</time>
      </trkpt>
      <trkpt lat="49.91481" lon="1.0808">
        <ele>7.1</ele>
        <time>2014-12-24T17:21:06.000Z</time>
      </trkpt>
      <trkpt lat="49.91484" lon="1.08078">
        <ele>7.2</ele>
        <time>2014-12-24T17:21:07.000Z</time>
      </trkpt>
      <trkpt lat="49.91487" lon="1.08075">
        <ele>7.3</ele>
        <time>2014-12-24T17:21:08.000Z</time>
      </trkpt>
      <trkpt lat="49.9149" lon="1.08073">
        <ele>7.4</ele>
        <time>2014-12-24T17:21:09.000Z</time>
      </trkpt>
      <trkpt lat="49.91493" lon="1.08071">
        <ele>7.5</ele>
        <time>2014-12-24T17:21:10.000Z</time>
      </trkpt>
      <trkpt lat="49.91496" lon="1.08068">
        <ele>7.5</ele>
        <time>2014-12-24T17:21:11.000Z</time>
      </trkpt>
      <trkpt lat="49.91498" lon="1.08066">
        <ele>7.6</ele>
        <time>2014-12-24T17:21:12.000Z</time>
      </trkpt>
      <trkpt lat="49.91501" lon="1.08064">
        <ele>7.7</ele>
        <time>2014-12-24T17:21:13.000Z</time>
      </trkpt>
      <trkpt lat="49.91504" lon="1.08061">
        <ele>7.7</ele>
        <time>2014-12-24T17:21:14.000Z</time>
      </trkpt>
      <trkpt lat="49.91506" lon="1.08058">
        <ele>7.7</ele>
        <time>2014-12-24T17:21:15.000Z</time>
      </trkpt>
      <trkpt lat="49.91509" lon="1.08055">
        <ele>7.7</ele>
        <time>2014-12-24T17:21:16.000Z</time>
      </trkpt>
      <trkpt lat="49.91512" lon="1.08053">
        <ele>7.6</ele>
        <time>2014-12-24T17:21:17.000Z</time>
      </trkpt>
      <trkpt lat="49.91514" lon="1.0805">
        <ele>7.6</ele>
        <time>2014-12-24T17:21:18.000Z</time>
      </trkpt>
      <trkpt lat="49.91517" lon="1.08047">
        <ele>7.6</ele>
        <time>2014-12-24T17:21:19.000Z</time>
      </trkpt>
      <trkpt lat="49.9152" lon="1.08045">
        <ele>7.6</ele>
        <time>2014-12-24T17:21:20.000Z</time>
      </trkpt>
      <trkpt lat="49.91522" lon="1.08042">
        <ele>7.6</ele>
        <time>2014-12-24T17:21:21.000Z</time>
      </trkpt>
      <trkpt lat="49.91525" lon="1.08039">
        <ele>7.6</ele>
        <time>2014-12-24T17:21:22.000Z</time>
      </trkpt>
      <trkpt lat="49.91527" lon="1.08036">
        <ele>7.7</ele>
        <time>2014-12-24T17:21:23.000Z</time>
      </trkpt>
      <trkpt lat="49.9153" lon="1.08033">
        <ele>7.8</ele>
        <time>2014-12-24T17:21:24.000Z</time>
      </trkpt>
      <trkpt lat="49.91532" lon="1.0803">
        <ele>7.9</ele>
        <time>2014-12-24T17:21:25.000Z</time>
      </trkpt>
      <trkpt lat="49.91534" lon="1.08027">
        <ele>8</ele>
        <time>2014-12-24T17:21:26.000Z</time>
      </trkpt>
      <trkpt lat="49.91536" lon="1.08024">
        <ele>8</ele>
        <time>2014-12-24T17:21:27.000Z</time>
      </trkpt>
      <trkpt lat="49.91538" lon="1.0802">
        <ele>8</ele>
        <time>2014-12-24T17:21:28.000Z</time>
      </trkpt>
      <trkpt lat="49.9154" lon="1.08017">
        <ele>8</ele>
        <time>2014-12-24T17:21:29.000Z</time>
      </trkpt>
      <trkpt lat="49.91542" lon="1.08014">
        <ele>8</ele>
        <time>2014-12-24T17:21:30.000Z</time>
      </trkpt>
      <trkpt lat="49.91543" lon="1.08011">
        <ele>8</ele>
        <time>2014-12-24T17:21:31.000Z</time>
      </trkpt>
      <trkpt lat="49.91545" lon="1.08009">
        <ele>8</ele>
        <time>2014-12-24T17:21:32.000Z</time>
      </trkpt>
      <trkpt lat="49.91547" lon="1.08006">
        <ele>8</ele>
        <time>2014-12-24T17:21:33.000Z</time>
      </trkpt>
      <trkpt lat="49.91549" lon="1.08004">
        <ele>8</ele>
        <time>2014-12-24T17:21:34.000Z</time>
      </trkpt>
      <trkpt lat="49.91551" lon="1.08001">
        <ele>8</ele>
        <time>2014-12-24T17:21:35.000Z</time>
      </trkpt>
      <trkpt lat="49.91554" lon="1.07998">
        <ele>7.9</ele>
        <time>2014-12-24T17:21:36.000Z</time>
      </trkpt>
      <trkpt lat="49.91557" lon="1.07995">
        <ele>7.8</ele>
        <time>2014-12-24T17:21:37.000Z</time>
      </trkpt>
      <trkpt lat="49.91559" lon="1.07992">
        <ele>7.6</ele>
        <time>2014-12-24T17:21:38.000Z</time>
      </trkpt>
      <trkpt lat="49.91563" lon="1.0799">
        <ele>7.5</ele>
        <time>2014-12-24T17:21:39.000Z</time>
      </trkpt>
      <trkpt lat="49.91566" lon="1.07987">
        <ele>7.3</ele>
        <time>2014-12-24T17:21:40.000Z</time>
      </trkpt>
      <trkpt lat="49.91569" lon="1.07985">
        <ele>7.2</ele>
        <time>2014-12-24T17:21:41.000Z</time>
      </trkpt>
      <trkpt lat="49.91572" lon="1.07982">
        <ele>7.1</ele>
        <time>2014-12-24T17:21:42.000Z</time>
      </trkpt>
      <trkpt lat="49.91574" lon="1.07979">
        <ele>7.1</ele>
        <time>2014-12-24T17:21:43.000Z</time>
      </trkpt>
      <trkpt lat="49.91577" lon="1.07977">
        <ele>7</ele>
        <time>2014-12-24T17:21:44.000Z</time>
      </trkpt>
      <trkpt lat="49.9158" lon="1.07975">
        <ele>7</ele>
        <time>2014-12-24T17:21:45.000Z</time>
      </trkpt>
      <trkpt lat="49.91583" lon="1.07972">
        <ele>7</ele>
        <time>2014-12-24T17:21:46.000Z</time>
      </trkpt>
      <trkpt lat="49.91586" lon="1.07969">
        <ele>7.2</ele>
        <time>2014-12-24T17:21:47.000Z</time>
      </trkpt>
      <trkpt lat="49.91589" lon="1.07967">
        <ele>7.3</ele>
        <time>2014-12-24T17:21:48.000Z</time>
      </trkpt>
      <trkpt lat="49.91592" lon="1.07964">
        <ele>7.4</ele>
        <time>2014-12-24T17:21:49.000Z</time>
      </trkpt>
      <trkpt lat="49.91595" lon="1.07961">
        <ele>7.5</ele>
        <time>2014-12-24T17:21:50.000Z</time>
      </trkpt>
      <trkpt lat="49.91597" lon="1.07958">
        <ele>7.5</ele>
        <time>2014-12-24T17:21:51.000Z</time>
      </trkpt>
      <trkpt lat="49.916" lon="1.07955">
        <ele>7.5</ele>
        <time>2014-12-24T17:21:52.000Z</time>
      </trkpt>
      <trkpt lat="49.91602" lon="1.07951">
        <ele>7.4</ele>
        <time>2014-12-24T17:21:53.000Z</time>
      </trkpt>
      <trkpt lat="49.91604" lon="1.07948">
        <ele>7.3</ele>
        <time>2014-12-24T17:21:54.000Z</time>
      </trkpt>
      <trkpt lat="49.91607" lon="1.07944">
        <ele>7.2</ele>
        <time>2014-12-24T17:21:55.000Z</time>
      </trkpt>
      <trkpt lat="49.91609" lon="1.07941">
        <ele>7.1</ele>
        <time>2014-12-24T17:21:56.000Z</time>
      </trkpt>
      <trkpt lat="49.91611" lon="1.07938">
        <ele>7</ele>
        <time>2014-12-24T17:21:57.000Z</time>
      </trkpt>
      <trkpt lat="49.91613" lon="1.07934">
        <ele>6.9</ele>
        <time>2014-12-24T17:21:58.000Z</time>
      </trkpt>
      <trkpt lat="49.91615" lon="1.0793">
        <ele>6.9</ele>
        <time>2014-12-24T17:21:59.000Z</time>
      </trkpt>
      <trkpt lat="49.91617" lon="1.07927">
        <ele>6.8</ele>
        <time>2014-12-24T17:22:00.000Z</time>
      </trkpt>
      <trkpt lat="49.91619" lon="1.07924">
        <ele>6.7</ele>
        <time>2014-12-24T17:22:01.000Z</time>
      </trkpt>
      <trkpt lat="49.91621" lon="1.0792">
        <ele>6.6</ele>
        <time>2014-12-24T17:22:02.000Z</time>
      </trkpt>
      <trkpt lat="49.91623" lon="1.07917">
        <ele>6.6</ele>
        <time>2014-12-24T17:22:03.000Z</time>
      </trkpt>
      <trkpt lat="49.91625" lon="1.07914">
        <ele>6.5</ele>
        <time>2014-12-24T17:22:04.000Z</time>
      </trkpt>
      <trkpt lat="49.91627" lon="1.07911">
        <ele>6.4</ele>
        <time>2014-12-24T17:22:05.000Z</time>
      </trkpt>
      <trkpt lat="49.91629" lon="1.07907">
        <ele>6.3</ele>
        <time>2014-12-24T17:22:06.000Z</time>
      </trkpt>
      <trkpt lat="49.91632" lon="1.07904">
        <ele>6.3</ele>
        <time>2014-12-24T17:22:07.000Z</time>
      </trkpt>
      <trkpt lat="49.91634" lon="1.07901">
        <ele>6.2</ele>
        <time>2014-12-24T17:22:08.000Z</time>
      </trkpt>
      <trkpt lat="49.91635" lon="1.07897">
        <ele>6.1</ele>
        <time>2014-12-24T17:22:09.000Z</time>
      </trkpt>
      <trkpt lat="49.91637" lon="1.07894">
        <ele>6.1</ele>
        <time>2014-12-24T17:22:10.000Z</time>
      </trkpt>
      <trkpt lat="49.91639" lon="1.07891">
        <ele>6</ele>
        <time>2014-12-24T17:22:11.000Z</time>
      </trkpt>
      <trkpt lat="49.91642" lon="1.07888">
        <ele>6</ele>
        <time>2014-12-24T17:22:12.000Z</time>
      </trkpt>
      <trkpt lat="49.91644" lon="1.07884">
        <ele>6.1</ele>
        <time>2014-12-24T17:22:13.000Z</time>
      </trkpt>
      <trkpt lat="49.91646" lon="1.07881">
        <ele>6.2</ele>
        <time>2014-12-24T17:22:14.000Z</time>
      </trkpt>
      <trkpt lat="49.91648" lon="1.07878">
        <ele>6.3</ele>
        <time>2014-12-24T17:22:15.000Z</time>
      </trkpt>
      <trkpt lat="49.9165" lon="1.07874">
        <ele>6.3</ele>
        <time>2014-12-24T17:22:16.000Z</time>
      </trkpt>
      <trkpt lat="49.91652" lon="1.0787">
        <ele>6.3</ele>
        <time>2014-12-24T17:22:17.000Z</time>
      </trkpt>
      <trkpt lat="49.91654" lon="1.07867">
        <ele>6.4</ele>
        <time>2014-12-24T17:22:18.000Z</time>
      </trkpt>
      <trkpt lat="49.91656" lon="1.07864">
        <ele>6.3</ele>
        <time>2014-12-24T17:22:19.000Z</time>
      </trkpt>
      <trkpt lat="49.91658" lon="1.07861">
        <ele>6.3</ele>
        <time>2014-12-24T17:22:20.000Z</time>
      </trkpt>
      <trkpt lat="49.9166" lon="1.07857">
        <ele>6.4</ele>
        <time>2014-12-24T17:22:21.000Z</time>
      </trkpt>
      <trkpt lat="49.91663" lon="1.07854">
        <ele>6.4</ele>
        <time>2014-12-24T17:22:22.000Z</time>
      </trkpt>
      <trkpt lat="49.91665" lon="1.07851">
        <ele>6.4</ele>
        <time>2014-12-24T17:22:23.000Z</time>
      </trkpt>
      <trkpt lat="49.91668" lon="1.07849">
        <ele>6.5</ele>
        <time>2014-12-24T17:22:24.000Z</time>
      </trkpt>
      <trkpt lat="49.91671" lon="1.07846">
        <ele>6.5</ele>
        <time>2014-12-24T17:22:25.000Z</time>
      </trkpt>
      <trkpt lat="49.91674" lon="1.07844">
        <ele>6.6</ele>
        <time>2014-12-24T17:22:26.000Z</time>
      </trkpt>
      <trkpt lat="49.91677" lon="1.07841">
        <ele>6.7</ele>
        <time>2014-12-24T17:22:27.000Z</time>
      </trkpt>
      <trkpt lat="49.9168" lon="1.07839">
        <ele>6.8</ele>
        <time>2014-12-24T17:22:28.000Z</time>
      </trkpt>
      <trkpt lat="49.91684" lon="1.07837">
        <ele>6.9</ele>
        <time>2014-12-24T17:22:29.000Z</time>
      </trkpt>
      <trkpt lat="49.91687" lon="1.07835">
        <ele>7</ele>
        <time>2014-12-24T17:22:30.000Z</time>
      </trkpt>
      <trkpt lat="49.9169" lon="1.07832">
        <ele>7</ele>
        <time>2014-12-24T17:22:31.000Z</time>
      </trkpt>
      <trkpt lat="49.91693" lon="1.07829">
        <ele>7</ele>
        <time>2014-12-24T17:22:32.000Z</time>
      </trkpt>
      <trkpt lat="49.91696" lon="1.07827">
        <ele>7</ele>
        <time>2014-12-24T17:22:33.000Z</time>
      </trkpt>
      <trkpt lat="49.91698" lon="1.07824">
        <ele>6.9</ele>
        <time>2014-12-24T17:22:34.000Z</time>
      </trkpt>
      <trkpt lat="49.917" lon="1.07821">
        <ele>6.9</ele>
        <time>2014-12-24T17:22:35.000Z</time>
      </trkpt>
      <trkpt lat="49.91703" lon="1.07818">
        <ele>6.9</ele>
        <time>2014-12-24T17:22:36.000Z</time>
      </trkpt>
      <trkpt lat="49.91705" lon="1.07815">
        <ele>6.9</ele>
        <time>2014-12-24T17:22:37.000Z</time>
      </trkpt>
      <trkpt lat="49.91707" lon="1.07811">
        <ele>6.9</ele>
        <time>2014-12-24T17:22:38.000Z</time>
      </trkpt>
      <trkpt lat="49.91709" lon="1.07808">
        <ele>6.9</ele>
        <time>2014-12-24T17:22:39.000Z</time>
      </trkpt>
      <trkpt lat="49.91712" lon="1.07805">
        <ele>7</ele>
        <time>2014-12-24T17:22:40.000Z</time>
      </trkpt>
      <trkpt lat="49.91714" lon="1.07802">
        <ele>7.1</ele>
        <time>2014-12-24T17:22:41.000Z</time>
      </trkpt>
      <trkpt lat="49.91716" lon="1.07798">
        <ele>7.1</ele>
        <time>2014-12-24T17:22:42.000Z</time>
      </trkpt>
      <trkpt lat="49.91718" lon="1.07795">
        <ele>7.1</ele>
        <time>2014-12-24T17:22:43.000Z</time>
      </trkpt>
      <trkpt lat="49.9172" lon="1.07792">
        <ele>7.1</ele>
        <time>2014-12-24T17:22:44.000Z</time>
      </trkpt>
      <trkpt lat="49.91722" lon="1.07789">
        <ele>7</ele>
        <time>2014-12-24T17:22:45.000Z</time>
      </trkpt>
      <trkpt lat="49.91725" lon="1.07787">
        <ele>7</ele>
        <time>2014-12-24T17:22:46.000Z</time>
      </trkpt>
      <trkpt lat="49.91728" lon="1.07784">
        <ele>7</ele>
        <time>2014-12-24T17:22:47.000Z</time>
      </trkpt>
      <trkpt lat="49.91731" lon="1.07781">
        <ele>7</ele>
        <time>2014-12-24T17:22:48.000Z</time>
      </trkpt>
      <trkpt lat="49.91733" lon="1.07778">
        <ele>7</ele>
        <time>2014-12-24T17:22:49.000Z</time>
      </trkpt>
      <trkpt lat="49.91736" lon="1.07775">
        <ele>7</ele>
        <time>2014-12-24T17:22:50.000Z</time>
      </trkpt>
      <trkpt lat="49.91739" lon="1.07772">
        <ele>7.1</ele>
        <time>2014-12-24T17:22:51.000Z</time>
      </trkpt>
      <trkpt lat="49.91742" lon="1.0777">
        <ele>7.1</ele>
        <time>2014-12-24T17:22:52.000Z</time>
      </trkpt>
      <trkpt lat="49.91744" lon="1.07767">
        <ele>7.1</ele>
        <time>2014-12-24T17:22:53.000Z</time>
      </trkpt>
      <trkpt lat="49.91746" lon="1.07764">
        <ele>7.1</ele>
        <time>2014-12-24T17:22:54.000Z</time>
      </trkpt>
      <trkpt lat="49.91749" lon="1.07761">
        <ele>7</ele>
        <time>2014-12-24T17:22:55.000Z</time>
      </trkpt>
      <trkpt lat="49.91751" lon="1.07758">
        <ele>7</ele>
        <time>2014-12-24T17:22:56.000Z</time>
      </trkpt>
      <trkpt lat="49.91754" lon="1.07756">
        <ele>7</ele>
        <time>2014-12-24T17:22:57.000Z</time>
      </trkpt>
      <trkpt lat="49.91756" lon="1.07754">
        <ele>7</ele>
        <time>2014-12-24T17:22:58.000Z</time>
      </trkpt>
      <trkpt lat="49.91759" lon="1.07753">
        <ele>7</ele>
        <time>2014-12-24T17:22:59.000Z</time>
      </trkpt>
      <trkpt lat="49.91761" lon="1.07753">
        <ele>7</ele>
        <time>2014-12-24T17:23:00.000Z</time>
      </trkpt>
      <trkpt lat="49.91764" lon="1.07753">
        <ele>7</ele>
        <time>2014-12-24T17:23:01.000Z</time>
      </trkpt>
      <trkpt lat="49.91766" lon="1.07754">
        <ele>7</ele>
        <time>2014-12-24T17:23:02.000Z</time>
      </trkpt>
      <trkpt lat="49.91769" lon="1.07755">
        <ele>7</ele>
        <time>2014-12-24T17:23:03.000Z</time>
      </trkpt>
      <trkpt lat="49.91772" lon="1.07755">
        <ele>7</ele>
        <time>2014-12-24T17:23:04.000Z</time>
      </trkpt>
      <trkpt lat="49.91774" lon="1.07755">
        <ele>7</ele>
        <time>2014-12-24T17:23:05.000Z</time>
      </trkpt>
      <trkpt lat="49.91776" lon="1.07755">
        <ele>7</ele>
        <time>2014-12-24T17:23:06.000Z</time>
      </trkpt>
      <trkpt lat="49.91779" lon="1.07755">
        <ele>7</ele>
        <time>2014-12-24T17:23:07.000Z</time>
      </trkpt>
      <trkpt lat="49.9178" lon="1.07754">
        <ele>7</ele>
        <time>2014-12-24T17:23:08.000Z</time>
      </trkpt>
      <trkpt lat="49.91782" lon="1.07752">
        <ele>7</ele>
        <time>2014-12-24T17:23:09.000Z</time>
      </trkpt>
      <trkpt lat="49.91783" lon="1.07749">
        <ele>7</ele>
        <time>2014-12-24T17:23:10.000Z</time>
      </trkpt>
      <trkpt lat="49.91784" lon="1.07746">
        <ele>7</ele>
        <time>2014-12-24T17:23:11.000Z</time>
      </trkpt>
      <trkpt lat="49.91785" lon="1.07744">
        <ele>7</ele>
        <time>2014-12-24T17:23:12.000Z</time>
      </trkpt>
      <trkpt lat="49.91786" lon="1.07741">
        <ele>7</ele>
        <time>2014-12-24T17:23:13.000Z</time>
      </trkpt>
      <trkpt lat="49.91787" lon="1.07737">
        <ele>7</ele>
        <time>2014-12-24T17:23:14.000Z</time>
      </trkpt>
      <trkpt lat="49.91788" lon="1.07734">
        <ele>7</ele>
        <time>2014-12-24T17:23:15.000Z</time>
      </trkpt>
      <trkpt lat="49.91789" lon="1.0773">
        <ele>7</ele>
        <time>2014-12-24T17:23:16.000Z</time>
      </trkpt>
      <trkpt lat="49.9179" lon="1.07726">
        <ele>7</ele>
        <time>2014-12-24T17:23:17.000Z</time>
      </trkpt>
      <trkpt lat="49.91792" lon="1.07723">
        <ele>7</ele>
        <time>2014-12-24T17:23:18.000Z</time>
      </trkpt>
      <trkpt lat="49.91793" lon="1.07719">
        <ele>7</ele>
        <time>2014-12-24T17:23:19.000Z</time>
      </trkpt>
      <trkpt lat="49.91794" lon="1.07716">
        <ele>7</ele>
        <time>2014-12-24T17:23:20.000Z</time>
      </trkpt>
      <trkpt lat="49.91796" lon="1.07712">
        <ele>7</ele>
        <time>2014-12-24T17:23:21.000Z</time>
      </trkpt>
      <trkpt lat="49.91798" lon="1.07709">
        <ele>7</ele>
        <time>2014-12-24T17:23:22.000Z</time>
      </trkpt>
      <trkpt lat="49.918" lon="1.07706">
        <ele>7</ele>
        <time>2014-12-24T17:23:23.000Z</time>
      </trkpt>
      <trkpt lat="49.91802" lon="1.07704">
        <ele>7</ele>
        <time>2014-12-24T17:23:24.000Z</time>
      </trkpt>
      <trkpt lat="49.91805" lon="1.07701">
        <ele>7</ele>
        <time>2014-12-24T17:23:25.000Z</time>
      </trkpt>
      <trkpt lat="49.91808" lon="1.07699">
        <ele>7</ele>
        <time>2014-12-24T17:23:26.000Z</time>
      </trkpt>
      <trkpt lat="49.91811" lon="1.07696">
        <ele>7</ele>
        <time>2014-12-24T17:23:27.000Z</time>
      </trkpt>
      <trkpt lat="49.91814" lon="1.07693">
        <ele>7.1</ele>
        <time>2014-12-24T17:23:28.000Z</time>
      </trkpt>
      <trkpt lat="49.91817" lon="1.0769">
        <ele>7.2</ele>
        <time>2014-12-24T17:23:29.000Z</time>
      </trkpt>
      <trkpt lat="49.9182" lon="1.07686">
        <ele>7.3</ele>
        <time>2014-12-24T17:23:30.000Z</time>
      </trkpt>
      <trkpt lat="49.91823" lon="1.07683">
        <ele>7.4</ele>
        <time>2014-12-24T17:23:31.000Z</time>
      </trkpt>
      <trkpt lat="49.91826" lon="1.07681">
        <ele>7.5</ele>
        <time>2014-12-24T17:23:32.000Z</time>
      </trkpt>
      <trkpt lat="49.91829" lon="1.07679">
        <ele>7.6</ele>
        <time>2014-12-24T17:23:33.000Z</time>
      </trkpt>
      <trkpt lat="49.91833" lon="1.07677">
        <ele>7.6</ele>
        <time>2014-12-24T17:23:34.000Z</time>
      </trkpt>
      <trkpt lat="49.91836" lon="1.07675">
        <ele>7.7</ele>
        <time>2014-12-24T17:23:35.000Z</time>
      </trkpt>
      <trkpt lat="49.91839" lon="1.07672">
        <ele>7.8</ele>
        <time>2014-12-24T17:23:36.000Z</time>
      </trkpt>
      <trkpt lat="49.91841" lon="1.0767">
        <ele>7.9</ele>
        <time>2014-12-24T17:23:37.000Z</time>
      </trkpt>
      <trkpt lat="49.91844" lon="1.07667">
        <ele>8</ele>
        <time>2014-12-24T17:23:38.000Z</time>
      </trkpt>
      <trkpt lat="49.91846" lon="1.07665">
        <ele>8</ele>
        <time>2014-12-24T17:23:39.000Z</time>
      </trkpt>
      <trkpt lat="49.91848" lon="1.07662">
        <ele>8</ele>
        <time>2014-12-24T17:23:40.000Z</time>
      </trkpt>
      <trkpt lat="49.9185" lon="1.0766">
        <ele>8</ele>
        <time>2014-12-24T17:23:41.000Z</time>
      </trkpt>
      <trkpt lat="49.91853" lon="1.07657">
        <ele>8</ele>
        <time>2014-12-24T17:23:42.000Z</time>
      </trkpt>
      <trkpt lat="49.91855" lon="1.07654">
        <ele>8</ele>
        <time>2014-12-24T17:23:43.000Z</time>
      </trkpt>
      <trkpt lat="49.91857" lon="1.07651">
        <ele>8</ele>
        <time>2014-12-24T17:23:44.000Z</time>
      </trkpt>
      <trkpt lat="49.91859" lon="1.07649">
        <ele>8</ele>
        <time>2014-12-24T17:23:45.000Z</time>
      </trkpt>
      <trkpt lat="49.91862" lon="1.07646">
        <ele>8</ele>
        <time>2014-12-24T17:23:46.000Z</time>
      </trkpt>
      <trkpt lat="49.91864" lon="1.07643">
        <ele>8</ele>
        <time>2014-12-24T17:23:47.000Z</time>
      </trkpt>
      <trkpt lat="49.91867" lon="1.07641">
        <ele>8</ele>
        <time>2014-12-24T17:23:48.000Z</time>
      </trkpt>
      <trkpt lat="49.9187" lon="1.07639">
        <ele>8</ele>
        <time>2014-12-24T17:23:49.000Z</time>
      </trkpt>
      <trkpt lat="49.91873" lon="1.07637">
        <ele>8</ele>
        <time>2014-12-24T17:23:50.000Z</time>
      </trkpt>
      <trkpt lat="49.91876" lon="1.07635">
        <ele>8</ele>
        <time>2014-12-24T17:23:51.000Z</time>
      </trkpt>
      <trkpt lat="49.91879" lon="1.07633">
        <ele>8</ele>
        <time>2014-12-24T17:23:52.000Z</time>
      </trkpt>
      <trkpt lat="49.91882" lon="1.07631">
        <ele>8</ele>
        <time>2014-12-24T17:23:53.000Z</time>
      </trkpt>
      <trkpt lat="49.91885" lon="1.07629">
        <ele>8</ele>
        <time>2014-12-24T17:23:54.000Z</time>
      </trkpt>
      <trkpt lat="49.91888" lon="1.07627">
        <ele>8</ele>
        <time>2014-12-24T17:23:55.000Z</time>
      </trkpt>
      <trkpt lat="49.91891" lon="1.07626">
        <ele>8</ele>
        <time>2014-12-24T17:23:56.000Z</time>
      </trkpt>
      <trkpt lat="49.91894" lon="1.07624">
        <ele>7.9</ele>
        <time>2014-12-24T17:23:57.000Z</time>
      </trkpt>
      <trkpt lat="49.91897" lon="1.07622">
        <ele>7.9</ele>
        <time>2014-12-24T17:23:58.000Z</time>
      </trkpt>
      <trkpt lat="49.919" lon="1.07621">
        <ele>7.9</ele>
        <time>2014-12-24T17:23:59.000Z</time>
      </trkpt>
      <trkpt lat="49.91904" lon="1.07619">
        <ele>7.8</ele>
        <time>2014-12-24T17:24:00.000Z</time>
      </trkpt>
      <trkpt lat="49.91906" lon="1.07617">
        <ele>7.9</ele>
        <time>2014-12-24T17:24:01.000Z</time>
      </trkpt>
      <trkpt lat="49.91909" lon="1.07615">
        <ele>7.9</ele>
        <time>2014-12-24T17:24:02.000Z</time>
      </trkpt>
      <trkpt lat="49.91912" lon="1.07613">
        <ele>7.9</ele>
        <time>2014-12-24T17:24:03.000Z</time>
      </trkpt>
      <trkpt lat="49.91915" lon="1.07611">
        <ele>8</ele>
        <time>2014-12-24T17:24:04.000Z</time>
      </trkpt>
      <trkpt lat="49.91917" lon="1.07608">
        <ele>8</ele>
        <time>2014-12-24T17:24:05.000Z</time>
      </trkpt>
      <trkpt lat="49.9192" lon="1.07606">
        <ele>8</ele>
        <time>2014-12-24T17:24:06.000Z</time>
      </trkpt>
      <trkpt lat="49.91922" lon="1.07603">
        <ele>7.9</ele>
        <time>2014-12-24T17:24:07.000Z</time>
      </trkpt>
      <trkpt lat="49.91925" lon="1.07601">
        <ele>7.9</ele>
        <time>2014-12-24T17:24:08.000Z</time>
      </trkpt>
      <trkpt lat="49.91927" lon="1.07598">
        <ele>7.8</ele>
        <time>2014-12-24T17:24:09.000Z</time>
      </trkpt>
      <trkpt lat="49.91929" lon="1.07596">
        <ele>7.8</ele>
        <time>2014-12-24T17:24:10.000Z</time>
      </trkpt>
      <trkpt lat="49.91932" lon="1.07593">
        <ele>7.7</ele>
        <time>2014-12-24T17:24:11.000Z</time>
      </trkpt>
      <trkpt lat="49.91934" lon="1.07591">
        <ele>7.5</ele>
        <time>2014-12-24T17:24:12.000Z</time>
      </trkpt>
      <trkpt lat="49.91936" lon="1.07588">
        <ele>7.4</ele>
        <time>2014-12-24T17:24:13.000Z</time>
      </trkpt>
      <trkpt lat="49.91939" lon="1.07585">
        <ele>7.3</ele>
        <time>2014-12-24T17:24:14.000Z</time>
      </trkpt>
      <trkpt lat="49.91941" lon="1.07583">
        <ele>7.1</ele>
        <time>2014-12-24T17:24:15.000Z</time>
      </trkpt>
      <trkpt lat="49.91943" lon="1.0758">
        <ele>7.2</ele>
        <time>2014-12-24T17:24:16.000Z</time>
      </trkpt>
      <trkpt lat="49.91945" lon="1.07577">
        <ele>7.3</ele>
        <time>2014-12-24T17:24:17.000Z</time>
      </trkpt>
      <trkpt lat="49.91948" lon="1.07574">
        <ele>7.4</ele>
        <time>2014-12-24T17:24:18.000Z</time>
      </trkpt>
      <trkpt lat="49.9195" lon="1.07572">
        <ele>7.5</ele>
        <time>2014-12-24T17:24:19.000Z</time>
      </trkpt>
      <trkpt lat="49.91952" lon="1.0757">
        <ele>7.6</ele>
        <time>2014-12-24T17:24:20.000Z</time>
      </trkpt>
      <trkpt lat="49.91954" lon="1.07568">
        <ele>7.7</ele>
        <time>2014-12-24T17:24:21.000Z</time>
      </trkpt>
      <trkpt lat="49.91956" lon="1.07566">
        <ele>7.8</ele>
        <time>2014-12-24T17:24:22.000Z</time>
      </trkpt>
      <trkpt lat="49.91959" lon="1.07565">
        <ele>7.8</ele>
        <time>2014-12-24T17:24:23.000Z</time>
      </trkpt>
      <trkpt lat="49.91963" lon="1.07564">
        <ele>7.9</ele>
        <time>2014-12-24T17:24:24.000Z</time>
      </trkpt>
      <trkpt lat="49.91966" lon="1.07562">
        <ele>7.9</ele>
        <time>2014-12-24T17:24:25.000Z</time>
      </trkpt>
      <trkpt lat="49.9197" lon="1.07561">
        <ele>8</ele>
        <time>2014-12-24T17:24:26.000Z</time>
      </trkpt>
      <trkpt lat="49.91974" lon="1.07559">
        <ele>8</ele>
        <time>2014-12-24T17:24:27.000Z</time>
      </trkpt>
      <trkpt lat="49.91977" lon="1.07557">
        <ele>8</ele>
        <time>2014-12-24T17:24:28.000Z</time>
      </trkpt>
      <trkpt lat="49.91981" lon="1.07555">
        <ele>8</ele>
        <time>2014-12-24T17:24:29.000Z</time>
      </trkpt>
      <trkpt lat="49.91984" lon="1.07553">
        <ele>8.1</ele>
        <time>2014-12-24T17:24:30.000Z</time>
      </trkpt>
      <trkpt lat="49.91987" lon="1.0755">
        <ele>8.1</ele>
        <time>2014-12-24T17:24:31.000Z</time>
      </trkpt>
      <trkpt lat="49.9199" lon="1.07547">
        <ele>8.1</ele>
        <time>2014-12-24T17:24:32.000Z</time>
      </trkpt>
      <trkpt lat="49.91992" lon="1.07544">
        <ele>8.1</ele>
        <time>2014-12-24T17:24:33.000Z</time>
      </trkpt>
      <trkpt lat="49.91995" lon="1.07541">
        <ele>8.1</ele>
        <time>2014-12-24T17:24:34.000Z</time>
      </trkpt>
      <trkpt lat="49.91998" lon="1.07538">
        <ele>8.1</ele>
        <time>2014-12-24T17:24:35.000Z</time>
      </trkpt>
      <trkpt lat="49.92" lon="1.07535">
        <ele>8</ele>
        <time>2014-12-24T17:24:36.000Z</time>
      </trkpt>
      <trkpt lat="49.92003" lon="1.07532">
        <ele>8</ele>
        <time>2014-12-24T17:24:37.000Z</time>
      </trkpt>
      <trkpt lat="49.92005" lon="1.07529">
        <ele>8</ele>
        <time>2014-12-24T17:24:38.000Z</time>
      </trkpt>
      <trkpt lat="49.92008" lon="1.07527">
        <ele>8</ele>
        <time>2014-12-24T17:24:39.000Z</time>
      </trkpt>
      <trkpt lat="49.9201" lon="1.07525">
        <ele>8.1</ele>
        <time>2014-12-24T17:24:40.000Z</time>
      </trkpt>
      <trkpt lat="49.92013" lon="1.07523">
        <ele>8.1</ele>
        <time>2014-12-24T17:24:41.000Z</time>
      </trkpt>
      <trkpt lat="49.92015" lon="1.0752">
        <ele>8.1</ele>
        <time>2014-12-24T17:24:42.000Z</time>
      </trkpt>
      <trkpt lat="49.92018" lon="1.07518">
        <ele>8.1</ele>
        <time>2014-12-24T17:24:43.000Z</time>
      </trkpt>
      <trkpt lat="49.9202" lon="1.07515">
        <ele>8.1</ele>
        <time>2014-12-24T17:24:44.000Z</time>
      </trkpt>
      <trkpt lat="49.92022" lon="1.07512">
        <ele>8.1</ele>
        <time>2014-12-24T17:24:45.000Z</time>
      </trkpt>
      <trkpt lat="49.92024" lon="1.07509">
        <ele>8.1</ele>
        <time>2014-12-24T17:24:46.000Z</time>
      </trkpt>
      <trkpt lat="49.92028" lon="1.07507">
        <ele>8</ele>
        <time>2014-12-24T17:24:47.000Z</time>
      </trkpt>
      <trkpt lat="49.92031" lon="1.07505">
        <ele>8</ele>
        <time>2014-12-24T17:24:48.000Z</time>
      </trkpt>
      <trkpt lat="49.92035" lon="1.07503">
        <ele>8</ele>
        <time>2014-12-24T17:24:49.000Z</time>
      </trkpt>
      <trkpt lat="49.92038" lon="1.07501">
        <ele>8</ele>
        <time>2014-12-24T17:24:50.000Z</time>
      </trkpt>
      <trkpt lat="49.92041" lon="1.07499">
        <ele>8.1</ele>
        <time>2014-12-24T17:24:51.000Z</time>
      </trkpt>
      <trkpt lat="49.92044" lon="1.07496">
        <ele>8.2</ele>
        <time>2014-12-24T17:24:52.000Z</time>
      </trkpt>
      <trkpt lat="49.92047" lon="1.07493">
        <ele>8.3</ele>
        <time>2014-12-24T17:24:53.000Z</time>
      </trkpt>
      <trkpt lat="49.9205" lon="1.0749">
        <ele>8.4</ele>
        <time>2014-12-24T17:24:54.000Z</time>
      </trkpt>
      <trkpt lat="49.92053" lon="1.07488">
        <ele>8.5</ele>
        <time>2014-12-24T17:24:55.000Z</time>
      </trkpt>
      <trkpt lat="49.92055" lon="1.07485">
        <ele>8.5</ele>
        <time>2014-12-24T17:24:56.000Z</time>
      </trkpt>
      <trkpt lat="49.92058" lon="1.07482">
        <ele>8.5</ele>
        <time>2014-12-24T17:24:57.000Z</time>
      </trkpt>
      <trkpt lat="49.92061" lon="1.0748">
        <ele>8.5</ele>
        <time>2014-12-24T17:24:58.000Z</time>
      </trkpt>
      <trkpt lat="49.92064" lon="1.07477">
        <ele>8.5</ele>
        <time>2014-12-24T17:24:59.000Z</time>
      </trkpt>
      <trkpt lat="49.92067" lon="1.07475">
        <ele>8.5</ele>
        <time>2014-12-24T17:25:00.000Z</time>
      </trkpt>
      <trkpt lat="49.92069" lon="1.07473">
        <ele>8.5</ele>
        <time>2014-12-24T17:25:01.000Z</time>
      </trkpt>
      <trkpt lat="49.92072" lon="1.07471">
        <ele>8.4</ele>
        <time>2014-12-24T17:25:02.000Z</time>
      </trkpt>
      <trkpt lat="49.92075" lon="1.07469">
        <ele>8.3</ele>
        <time>2014-12-24T17:25:03.000Z</time>
      </trkpt>
      <trkpt lat="49.92078" lon="1.07467">
        <ele>8.2</ele>
        <time>2014-12-24T17:25:04.000Z</time>
      </trkpt>
      <trkpt lat="49.92081" lon="1.07465">
        <ele>8.1</ele>
        <time>2014-12-24T17:25:05.000Z</time>
      </trkpt>
      <trkpt lat="49.92083" lon="1.07462">
        <ele>8</ele>
        <time>2014-12-24T17:25:06.000Z</time>
      </trkpt>
      <trkpt lat="49.92086" lon="1.0746">
        <ele>8</ele>
        <time>2014-12-24T17:25:07.000Z</time>
      </trkpt>
      <trkpt lat="49.92088" lon="1.07457">
        <ele>8.1</ele>
        <time>2014-12-24T17:25:08.000Z</time>
      </trkpt>
      <trkpt lat="49.9209" lon="1.07454">
        <ele>8.2</ele>
        <time>2014-12-24T17:25:09.000Z</time>
      </trkpt>
      <trkpt lat="49.92093" lon="1.07451">
        <ele>8.3</ele>
        <time>2014-12-24T17:25:10.000Z</time>
      </trkpt>
      <trkpt lat="49.92095" lon="1.07449">
        <ele>8.4</ele>
        <time>2014-12-24T17:25:11.000Z</time>
      </trkpt>
      <trkpt lat="49.92098" lon="1.07446">
        <ele>8.5</ele>
        <time>2014-12-24T17:25:12.000Z</time>
      </trkpt>
      <trkpt lat="49.921" lon="1.07444">
        <ele>8.6</ele>
        <time>2014-12-24T17:25:13.000Z</time>
      </trkpt>
      <trkpt lat="49.92103" lon="1.07442">
        <ele>8.7</ele>
        <time>2014-12-24T17:25:14.000Z</time>
      </trkpt>
      <trkpt lat="49.92105" lon="1.0744">
        <ele>8.9</ele>
        <time>2014-12-24T17:25:15.000Z</time>
      </trkpt>
      <trkpt lat="49.92107" lon="1.07438">
        <ele>8.9</ele>
        <time>2014-12-24T17:25:16.000Z</time>
      </trkpt>
      <trkpt lat="49.92109" lon="1.07435">
        <ele>9</ele>
        <time>2014-12-24T17:25:17.000Z</time>
      </trkpt>
      <trkpt lat="49.92111" lon="1.07433">
        <ele>9</ele>
        <time>2014-12-24T17:25:18.000Z</time>
      </trkpt>
      <trkpt lat="49.92115" lon="1.07426">
        <ele>9.2</ele>
        <time>2014-12-24T17:25:19.000Z</time>
      </trkpt>
      <trkpt lat="49.92115" lon="1.07426">
        <ele>9.2</ele>
        <time>2014-12-24T17:25:20.000Z</time>
      </trkpt>
      <trkpt lat="49.92117" lon="1.07425">
        <ele>9.3</ele>
        <time>2014-12-24T17:25:21.000Z</time>
      </trkpt>
      <trkpt lat="49.92118" lon="1.07423">
        <ele>9.4</ele>
        <time>2014-12-24T17:25:22.000Z</time>
      </trkpt>
      <trkpt lat="49.9212" lon="1.07422">
        <ele>9.5</ele>
        <time>2014-12-24T17:25:23.000Z</time>
      </trkpt>
      <trkpt lat="49.92122" lon="1.0742">
        <ele>9.7</ele>
        <time>2014-12-24T17:25:24.000Z</time>
      </trkpt>
      <trkpt lat="49.92124" lon="1.07419">
        <ele>9.9</ele>
        <time>2014-12-24T17:25:25.000Z</time>
      </trkpt>
      <trkpt lat="49.92127" lon="1.07417">
        <ele>10.1</ele>
        <time>2014-12-24T17:25:26.000Z</time>
      </trkpt>
      <trkpt lat="49.92129" lon="1.07415">
        <ele>10.3</ele>
        <time>2014-12-24T17:25:27.000Z</time>
      </trkpt>
      <trkpt lat="49.92132" lon="1.07414">
        <ele>10.5</ele>
        <time>2014-12-24T17:25:28.000Z</time>
      </trkpt>
      <trkpt lat="49.92135" lon="1.07412">
        <ele>10.6</ele>
        <time>2014-12-24T17:25:29.000Z</time>
      </trkpt>
      <trkpt lat="49.92137" lon="1.07411">
        <ele>10.7</ele>
        <time>2014-12-24T17:25:30.000Z</time>
      </trkpt>
      <trkpt lat="49.9214" lon="1.07408">
        <ele>10.7</ele>
        <time>2014-12-24T17:25:31.000Z</time>
      </trkpt>
      <trkpt lat="49.92142" lon="1.07406">
        <ele>10.5</ele>
        <time>2014-12-24T17:25:32.000Z</time>
      </trkpt>
      <trkpt lat="49.92144" lon="1.07404">
        <ele>10.4</ele>
        <time>2014-12-24T17:25:33.000Z</time>
      </trkpt>
      <trkpt lat="49.92147" lon="1.07402">
        <ele>10.3</ele>
        <time>2014-12-24T17:25:34.000Z</time>
      </trkpt>
      <trkpt lat="49.92149" lon="1.074">
        <ele>10.3</ele>
        <time>2014-12-24T17:25:35.000Z</time>
      </trkpt>
      <trkpt lat="49.92151" lon="1.07399">
        <ele>10.2</ele>
        <time>2014-12-24T17:25:36.000Z</time>
      </trkpt>
      <trkpt lat="49.92154" lon="1.07397">
        <ele>10.1</ele>
        <time>2014-12-24T17:25:37.000Z</time>
      </trkpt>
      <trkpt lat="49.92156" lon="1.07395">
        <ele>10.1</ele>
        <time>2014-12-24T17:25:38.000Z</time>
      </trkpt>
      <trkpt lat="49.92157" lon="1.07393">
        <ele>10.1</ele>
        <time>2014-12-24T17:25:39.000Z</time>
      </trkpt>
      <trkpt lat="49.92159" lon="1.07392">
        <ele>10</ele>
        <time>2014-12-24T17:25:40.000Z</time>
      </trkpt>
      <trkpt lat="49.92161" lon="1.0739">
        <ele>10</ele>
        <time>2014-12-24T17:25:41.000Z</time>
      </trkpt>
      <trkpt lat="49.92163" lon="1.07388">
        <ele>10.1</ele>
        <time>2014-12-24T17:25:42.000Z</time>
      </trkpt>
      <trkpt lat="49.92166" lon="1.07386">
        <ele>10.3</ele>
        <time>2014-12-24T17:25:43.000Z</time>
      </trkpt>
      <trkpt lat="49.92169" lon="1.07385">
        <ele>10.4</ele>
        <time>2014-12-24T17:25:44.000Z</time>
      </trkpt>
      <trkpt lat="49.92171" lon="1.07383">
        <ele>10.6</ele>
        <time>2014-12-24T17:25:45.000Z</time>
      </trkpt>
      <trkpt lat="49.92174" lon="1.07381">
        <ele>10.7</ele>
        <time>2014-12-24T17:25:46.000Z</time>
      </trkpt>
      <trkpt lat="49.92176" lon="1.07379">
        <ele>10.8</ele>
        <time>2014-12-24T17:25:47.000Z</time>
      </trkpt>
      <trkpt lat="49.92179" lon="1.07377">
        <ele>10.9</ele>
        <time>2014-12-24T17:25:48.000Z</time>
      </trkpt>
      <trkpt lat="49.92182" lon="1.07375">
        <ele>11</ele>
        <time>2014-12-24T17:25:49.000Z</time>
      </trkpt>
      <trkpt lat="49.92184" lon="1.07373">
        <ele>11</ele>
        <time>2014-12-24T17:25:50.000Z</time>
      </trkpt>
      <trkpt lat="49.92187" lon="1.07371">
        <ele>11</ele>
        <time>2014-12-24T17:25:51.000Z</time>
      </trkpt>
      <trkpt lat="49.9219" lon="1.07369">
        <ele>11</ele>
        <time>2014-12-24T17:25:52.000Z</time>
      </trkpt>
      <trkpt lat="49.92193" lon="1.07367">
        <ele>10.9</ele>
        <time>2014-12-24T17:25:53.000Z</time>
      </trkpt>
      <trkpt lat="49.92196" lon="1.07366">
        <ele>10.8</ele>
        <time>2014-12-24T17:25:54.000Z</time>
      </trkpt>
      <trkpt lat="49.92199" lon="1.07364">
        <ele>10.9</ele>
        <time>2014-12-24T17:25:55.000Z</time>
      </trkpt>
      <trkpt lat="49.92206" lon="1.0736">
        <ele>11.1</ele>
        <time>2014-12-24T17:25:56.000Z</time>
      </trkpt>
      <trkpt lat="49.92207" lon="1.0736">
        <ele>11.1</ele>
        <time>2014-12-24T17:25:57.000Z</time>
      </trkpt>
      <trkpt lat="49.92209" lon="1.07359">
        <ele>11.2</ele>
        <time>2014-12-24T17:25:58.000Z</time>
      </trkpt>
      <trkpt lat="49.9221" lon="1.07358">
        <ele>11.3</ele>
        <time>2014-12-24T17:25:59.000Z</time>
      </trkpt>
      <trkpt lat="49.92213" lon="1.07357">
        <ele>11.4</ele>
        <time>2014-12-24T17:26:00.000Z</time>
      </trkpt>
      <trkpt lat="49.92215" lon="1.07355">
        <ele>11.5</ele>
        <time>2014-12-24T17:26:01.000Z</time>
      </trkpt>
      <trkpt lat="49.92218" lon="1.07354">
        <ele>11.6</ele>
        <time>2014-12-24T17:26:02.000Z</time>
      </trkpt>
      <trkpt lat="49.9222" lon="1.07353">
        <ele>11.6</ele>
        <time>2014-12-24T17:26:03.000Z</time>
      </trkpt>
      <trkpt lat="49.92222" lon="1.07352">
        <ele>11.7</ele>
        <time>2014-12-24T17:26:04.000Z</time>
      </trkpt>
      <trkpt lat="49.92225" lon="1.0735">
        <ele>11.7</ele>
        <time>2014-12-24T17:26:05.000Z</time>
      </trkpt>
      <trkpt lat="49.92228" lon="1.07349">
        <ele>11.8</ele>
        <time>2014-12-24T17:26:06.000Z</time>
      </trkpt>
      <trkpt lat="49.92231" lon="1.07349">
        <ele>11.8</ele>
        <time>2014-12-24T17:26:07.000Z</time>
      </trkpt>
      <trkpt lat="49.92235" lon="1.07348">
        <ele>11.7</ele>
        <time>2014-12-24T17:26:08.000Z</time>
      </trkpt>
      <trkpt lat="49.92239" lon="1.07348">
        <ele>11.7</ele>
        <time>2014-12-24T17:26:09.000Z</time>
      </trkpt>
      <trkpt lat="49.92243" lon="1.07348">
        <ele>11.6</ele>
        <time>2014-12-24T17:26:10.000Z</time>
      </trkpt>
      <trkpt lat="49.92248" lon="1.07347">
        <ele>11.5</ele>
        <time>2014-12-24T17:26:11.000Z</time>
      </trkpt>
      <trkpt lat="49.92252" lon="1.07346">
        <ele>11.5</ele>
        <time>2014-12-24T17:26:12.000Z</time>
      </trkpt>
      <trkpt lat="49.92256" lon="1.07345">
        <ele>11.3</ele>
        <time>2014-12-24T17:26:13.000Z</time>
      </trkpt>
      <trkpt lat="49.9226" lon="1.07344">
        <ele>11.3</ele>
        <time>2014-12-24T17:26:14.000Z</time>
      </trkpt>
      <trkpt lat="49.92264" lon="1.07342">
        <ele>11.2</ele>
        <time>2014-12-24T17:26:15.000Z</time>
      </trkpt>
      <trkpt lat="49.92267" lon="1.07341">
        <ele>11.1</ele>
        <time>2014-12-24T17:26:16.000Z</time>
      </trkpt>
      <trkpt lat="49.9227" lon="1.07339">
        <ele>11.1</ele>
        <time>2014-12-24T17:26:17.000Z</time>
      </trkpt>
      <trkpt lat="49.92273" lon="1.07339">
        <ele>11</ele>
        <time>2014-12-24T17:26:18.000Z</time>
      </trkpt>
      <trkpt lat="49.9228" lon="1.07334">
        <ele>10.9</ele>
        <time>2014-12-24T17:26:19.000Z</time>
      </trkpt>
      <trkpt lat="49.9228" lon="1.07334">
        <ele>10.9</ele>
        <time>2014-12-24T17:26:20.000Z</time>
      </trkpt>
      <trkpt lat="49.92281" lon="1.07332">
        <ele>10.9</ele>
        <time>2014-12-24T17:26:21.000Z</time>
      </trkpt>
      <trkpt lat="49.92283" lon="1.0733">
        <ele>10.8</ele>
        <time>2014-12-24T17:26:22.000Z</time>
      </trkpt>
      <trkpt lat="49.92285" lon="1.07328">
        <ele>10.7</ele>
        <time>2014-12-24T17:26:23.000Z</time>
      </trkpt>
      <trkpt lat="49.92288" lon="1.07325">
        <ele>10.6</ele>
        <time>2014-12-24T17:26:24.000Z</time>
      </trkpt>
      <trkpt lat="49.9229" lon="1.07324">
        <ele>10.6</ele>
        <time>2014-12-24T17:26:25.000Z</time>
      </trkpt>
      <trkpt lat="49.92293" lon="1.07322">
        <ele>10.5</ele>
        <time>2014-12-24T17:26:26.000Z</time>
      </trkpt>
      <trkpt lat="49.92295" lon="1.07319">
        <ele>10.4</ele>
        <time>2014-12-24T17:26:27.000Z</time>
      </trkpt>
      <trkpt lat="49.92298" lon="1.07316">
        <ele>10.3</ele>
        <time>2014-12-24T17:26:28.000Z</time>
      </trkpt>
      <trkpt lat="49.92301" lon="1.07313">
        <ele>10.2</ele>
        <time>2014-12-24T17:26:29.000Z</time>
      </trkpt>
      <trkpt lat="49.92304" lon="1.0731">
        <ele>10.1</ele>
        <time>2014-12-24T17:26:30.000Z</time>
      </trkpt>
      <trkpt lat="49.92307" lon="1.07307">
        <ele>10</ele>
        <time>2014-12-24T17:26:31.000Z</time>
      </trkpt>
      <trkpt lat="49.9231" lon="1.07304">
        <ele>10</ele>
        <time>2014-12-24T17:26:32.000Z</time>
      </trkpt>
      <trkpt lat="49.92313" lon="1.07301">
        <ele>10</ele>
        <time>2014-12-24T17:26:33.000Z</time>
      </trkpt>
      <trkpt lat="49.92316" lon="1.07298">
        <ele>9.9</ele>
        <time>2014-12-24T17:26:34.000Z</time>
      </trkpt>
      <trkpt lat="49.92318" lon="1.07296">
        <ele>9.8</ele>
        <time>2014-12-24T17:26:35.000Z</time>
      </trkpt>
      <trkpt lat="49.92321" lon="1.07293">
        <ele>9.8</ele>
        <time>2014-12-24T17:26:36.000Z</time>
      </trkpt>
      <trkpt lat="49.92324" lon="1.07291">
        <ele>9.6</ele>
        <time>2014-12-24T17:26:37.000Z</time>
      </trkpt>
      <trkpt lat="49.92327" lon="1.07288">
        <ele>9.5</ele>
        <time>2014-12-24T17:26:38.000Z</time>
      </trkpt>
      <trkpt lat="49.9233" lon="1.07285">
        <ele>9.3</ele>
        <time>2014-12-24T17:26:39.000Z</time>
      </trkpt>
      <trkpt lat="49.92332" lon="1.07283">
        <ele>9.2</ele>
        <time>2014-12-24T17:26:40.000Z</time>
      </trkpt>
      <trkpt lat="49.92335" lon="1.07281">
        <ele>9.1</ele>
        <time>2014-12-24T17:26:41.000Z</time>
      </trkpt>
      <trkpt lat="49.92337" lon="1.07279">
        <ele>9</ele>
        <time>2014-12-24T17:26:42.000Z</time>
      </trkpt>
      <trkpt lat="49.92338" lon="1.07276">
        <ele>9</ele>
        <time>2014-12-24T17:26:43.000Z</time>
      </trkpt>
      <trkpt lat="49.92343" lon="1.07268">
        <ele>9.2</ele>
        <time>2014-12-24T17:26:44.000Z</time>
      </trkpt>
      <trkpt lat="49.92344" lon="1.07268">
        <ele>9.2</ele>
        <time>2014-12-24T17:26:45.000Z</time>
      </trkpt>
      <trkpt lat="49.92345" lon="1.07267">
        <ele>9.2</ele>
        <time>2014-12-24T17:26:46.000Z</time>
      </trkpt>
      <trkpt lat="49.92348" lon="1.07266">
        <ele>9.2</ele>
        <time>2014-12-24T17:26:47.000Z</time>
      </trkpt>
      <trkpt lat="49.9235" lon="1.07264">
        <ele>9.2</ele>
        <time>2014-12-24T17:26:48.000Z</time>
      </trkpt>
      <trkpt lat="49.92353" lon="1.07263">
        <ele>9.2</ele>
        <time>2014-12-24T17:26:49.000Z</time>
      </trkpt>
      <trkpt lat="49.92356" lon="1.07261">
        <ele>9.1</ele>
        <time>2014-12-24T17:26:50.000Z</time>
      </trkpt>
      <trkpt lat="49.92359" lon="1.07259">
        <ele>9</ele>
        <time>2014-12-24T17:26:51.000Z</time>
      </trkpt>
      <trkpt lat="49.92362" lon="1.07257">
        <ele>9</ele>
        <time>2014-12-24T17:26:52.000Z</time>
      </trkpt>
      <trkpt lat="49.92365" lon="1.07255">
        <ele>9</ele>
        <time>2014-12-24T17:26:53.000Z</time>
      </trkpt>
      <trkpt lat="49.92368" lon="1.07254">
        <ele>9</ele>
        <time>2014-12-24T17:26:54.000Z</time>
      </trkpt>
      <trkpt lat="49.9237" lon="1.07252">
        <ele>9</ele>
        <time>2014-12-24T17:26:55.000Z</time>
      </trkpt>
      <trkpt lat="49.92372" lon="1.0725">
        <ele>9</ele>
        <time>2014-12-24T17:26:56.000Z</time>
      </trkpt>
      <trkpt lat="49.92375" lon="1.07247">
        <ele>9</ele>
        <time>2014-12-24T17:26:57.000Z</time>
      </trkpt>
      <trkpt lat="49.92377" lon="1.07245">
        <ele>9</ele>
        <time>2014-12-24T17:26:58.000Z</time>
      </trkpt>
      <trkpt lat="49.9238" lon="1.07243">
        <ele>9</ele>
        <time>2014-12-24T17:26:59.000Z</time>
      </trkpt>
      <trkpt lat="49.92383" lon="1.0724">
        <ele>9</ele>
        <time>2014-12-24T17:27:00.000Z</time>
      </trkpt>
      <trkpt lat="49.92386" lon="1.07238">
        <ele>9</ele>
        <time>2014-12-24T17:27:01.000Z</time>
      </trkpt>
      <trkpt lat="49.92389" lon="1.07235">
        <ele>9</ele>
        <time>2014-12-24T17:27:02.000Z</time>
      </trkpt>
      <trkpt lat="49.92392" lon="1.07232">
        <ele>9</ele>
        <time>2014-12-24T17:27:03.000Z</time>
      </trkpt>
      <trkpt lat="49.92395" lon="1.0723">
        <ele>9</ele>
        <time>2014-12-24T17:27:04.000Z</time>
      </trkpt>
      <trkpt lat="49.92398" lon="1.07228">
        <ele>9</ele>
        <time>2014-12-24T17:27:05.000Z</time>
      </trkpt>
      <trkpt lat="49.92401" lon="1.07226">
        <ele>9</ele>
        <time>2014-12-24T17:27:06.000Z</time>
      </trkpt>
      <trkpt lat="49.92403" lon="1.07224">
        <ele>9</ele>
        <time>2014-12-24T17:27:07.000Z</time>
      </trkpt>
      <trkpt lat="49.92405" lon="1.07222">
        <ele>9</ele>
        <time>2014-12-24T17:27:08.000Z</time>
      </trkpt>
      <trkpt lat="49.92408" lon="1.0722">
        <ele>9.2</ele>
        <time>2014-12-24T17:27:09.000Z</time>
      </trkpt>
      <trkpt lat="49.9241" lon="1.07218">
        <ele>9.3</ele>
        <time>2014-12-24T17:27:10.000Z</time>
      </trkpt>
      <trkpt lat="49.92413" lon="1.07216">
        <ele>9.3</ele>
        <time>2014-12-24T17:27:11.000Z</time>
      </trkpt>
      <trkpt lat="49.92415" lon="1.07214">
        <ele>9.3</ele>
        <time>2014-12-24T17:27:12.000Z</time>
      </trkpt>
      <trkpt lat="49.92418" lon="1.07212">
        <ele>9.3</ele>
        <time>2014-12-24T17:27:13.000Z</time>
      </trkpt>
      <trkpt lat="49.92422" lon="1.0721">
        <ele>9.4</ele>
        <time>2014-12-24T17:27:14.000Z</time>
      </trkpt>
      <trkpt lat="49.92425" lon="1.07208">
        <ele>9.4</ele>
        <time>2014-12-24T17:27:15.000Z</time>
      </trkpt>
      <trkpt lat="49.92428" lon="1.07206">
        <ele>9.4</ele>
        <time>2014-12-24T17:27:16.000Z</time>
      </trkpt>
      <trkpt lat="49.9243" lon="1.07203">
        <ele>9.4</ele>
        <time>2014-12-24T17:27:17.000Z</time>
      </trkpt>
      <trkpt lat="49.92433" lon="1.07201">
        <ele>9.3</ele>
        <time>2014-12-24T17:27:18.000Z</time>
      </trkpt>
      <trkpt lat="49.92435" lon="1.07198">
        <ele>9.3</ele>
        <time>2014-12-24T17:27:19.000Z</time>
      </trkpt>
      <trkpt lat="49.92438" lon="1.07196">
        <ele>9.2</ele>
        <time>2014-12-24T17:27:20.000Z</time>
      </trkpt>
      <trkpt lat="49.92441" lon="1.07194">
        <ele>9.1</ele>
        <time>2014-12-24T17:27:21.000Z</time>
      </trkpt>
      <trkpt lat="49.92444" lon="1.07192">
        <ele>9.1</ele>
        <time>2014-12-24T17:27:22.000Z</time>
      </trkpt>
      <trkpt lat="49.92446" lon="1.0719">
        <ele>9.1</ele>
        <time>2014-12-24T17:27:23.000Z</time>
      </trkpt>
      <trkpt lat="49.92449" lon="1.07188">
        <ele>9.1</ele>
        <time>2014-12-24T17:27:24.000Z</time>
      </trkpt>
      <trkpt lat="49.92451" lon="1.07186">
        <ele>9.1</ele>
        <time>2014-12-24T17:27:25.000Z</time>
      </trkpt>
      <trkpt lat="49.92453" lon="1.07184">
        <ele>9.1</ele>
        <time>2014-12-24T17:27:26.000Z</time>
      </trkpt>
      <trkpt lat="49.92456" lon="1.07182">
        <ele>9.1</ele>
        <time>2014-12-24T17:27:27.000Z</time>
      </trkpt>
      <trkpt lat="49.92458" lon="1.0718">
        <ele>9</ele>
        <time>2014-12-24T17:27:28.000Z</time>
      </trkpt>
      <trkpt lat="49.92461" lon="1.07178">
        <ele>9</ele>
        <time>2014-12-24T17:27:29.000Z</time>
      </trkpt>
      <trkpt lat="49.92464" lon="1.07177">
        <ele>8.9</ele>
        <time>2014-12-24T17:27:30.000Z</time>
      </trkpt>
      <trkpt lat="49.92468" lon="1.07176">
        <ele>8.8</ele>
        <time>2014-12-24T17:27:31.000Z</time>
      </trkpt>
      <trkpt lat="49.92471" lon="1.07175">
        <ele>8.8</ele>
        <time>2014-12-24T17:27:32.000Z</time>
      </trkpt>
      <trkpt lat="49.92475" lon="1.07173">
        <ele>8.7</ele>
        <time>2014-12-24T17:27:33.000Z</time>
      </trkpt>
      <trkpt lat="49.92478" lon="1.07172">
        <ele>8.6</ele>
        <time>2014-12-24T17:27:34.000Z</time>
      </trkpt>
      <trkpt lat="49.92482" lon="1.07171">
        <ele>8.6</ele>
        <time>2014-12-24T17:27:35.000Z</time>
      </trkpt>
      <trkpt lat="49.92485" lon="1.07169">
        <ele>8.5</ele>
        <time>2014-12-24T17:27:36.000Z</time>
      </trkpt>
      <trkpt lat="49.92488" lon="1.07167">
        <ele>8.4</ele>
        <time>2014-12-24T17:27:37.000Z</time>
      </trkpt>
      <trkpt lat="49.9249" lon="1.07165">
        <ele>8.4</ele>
        <time>2014-12-24T17:27:38.000Z</time>
      </trkpt>
      <trkpt lat="49.92492" lon="1.07163">
        <ele>8.4</ele>
        <time>2014-12-24T17:27:39.000Z</time>
      </trkpt>
      <trkpt lat="49.92495" lon="1.0716">
        <ele>8.4</ele>
        <time>2014-12-24T17:27:40.000Z</time>
      </trkpt>
      <trkpt lat="49.92497" lon="1.07158">
        <ele>8.4</ele>
        <time>2014-12-24T17:27:41.000Z</time>
      </trkpt>
      <trkpt lat="49.92499" lon="1.07156">
        <ele>8.4</ele>
        <time>2014-12-24T17:27:42.000Z</time>
      </trkpt>
      <trkpt lat="49.92501" lon="1.07153">
        <ele>8.5</ele>
        <time>2014-12-24T17:27:43.000Z</time>
      </trkpt>
      <trkpt lat="49.92504" lon="1.07151">
        <ele>8.6</ele>
        <time>2014-12-24T17:27:44.000Z</time>
      </trkpt>
      <trkpt lat="49.92506" lon="1.07147">
        <ele>8.8</ele>
        <time>2014-12-24T17:27:45.000Z</time>
      </trkpt>
      <trkpt lat="49.92509" lon="1.07144">
        <ele>8.9</ele>
        <time>2014-12-24T17:27:46.000Z</time>
      </trkpt>
      <trkpt lat="49.92511" lon="1.07141">
        <ele>9</ele>
        <time>2014-12-24T17:27:47.000Z</time>
      </trkpt>
      <trkpt lat="49.92513" lon="1.07138">
        <ele>9</ele>
        <time>2014-12-24T17:27:48.000Z</time>
      </trkpt>
      <trkpt lat="49.92515" lon="1.07136">
        <ele>9</ele>
        <time>2014-12-24T17:27:49.000Z</time>
      </trkpt>
      <trkpt lat="49.92521" lon="1.07129">
        <ele>9</ele>
        <time>2014-12-24T17:27:50.000Z</time>
      </trkpt>
      <trkpt lat="49.92522" lon="1.07128">
        <ele>9</ele>
        <time>2014-12-24T17:27:51.000Z</time>
      </trkpt>
      <trkpt lat="49.92524" lon="1.07127">
        <ele>9</ele>
        <time>2014-12-24T17:27:52.000Z</time>
      </trkpt>
      <trkpt lat="49.92527" lon="1.07125">
        <ele>9</ele>
        <time>2014-12-24T17:27:53.000Z</time>
      </trkpt>
      <trkpt lat="49.92531" lon="1.07123">
        <ele>9</ele>
        <time>2014-12-24T17:27:54.000Z</time>
      </trkpt>
      <trkpt lat="49.92535" lon="1.07121">
        <ele>9</ele>
        <time>2014-12-24T17:27:55.000Z</time>
      </trkpt>
      <trkpt lat="49.92539" lon="1.07119">
        <ele>9</ele>
        <time>2014-12-24T17:27:56.000Z</time>
      </trkpt>
      <trkpt lat="49.92543" lon="1.07116">
        <ele>9</ele>
        <time>2014-12-24T17:27:57.000Z</time>
      </trkpt>
      <trkpt lat="49.92546" lon="1.07113">
        <ele>9</ele>
        <time>2014-12-24T17:27:58.000Z</time>
      </trkpt>
      <trkpt lat="49.92549" lon="1.0711">
        <ele>9</ele>
        <time>2014-12-24T17:27:59.000Z</time>
      </trkpt>
      <trkpt lat="49.92553" lon="1.07107">
        <ele>9.2</ele>
        <time>2014-12-24T17:28:00.000Z</time>
      </trkpt>
      <trkpt lat="49.92556" lon="1.07104">
        <ele>9.3</ele>
        <time>2014-12-24T17:28:01.000Z</time>
      </trkpt>
      <trkpt lat="49.92559" lon="1.071">
        <ele>9.4</ele>
        <time>2014-12-24T17:28:02.000Z</time>
      </trkpt>
      <trkpt lat="49.92561" lon="1.07097">
        <ele>9.6</ele>
        <time>2014-12-24T17:28:03.000Z</time>
      </trkpt>
      <trkpt lat="49.92564" lon="1.07095">
        <ele>9.7</ele>
        <time>2014-12-24T17:28:04.000Z</time>
      </trkpt>
      <trkpt lat="49.92567" lon="1.07092">
        <ele>9.8</ele>
        <time>2014-12-24T17:28:05.000Z</time>
      </trkpt>
      <trkpt lat="49.9257" lon="1.07089">
        <ele>9.9</ele>
        <time>2014-12-24T17:28:06.000Z</time>
      </trkpt>
      <trkpt lat="49.92573" lon="1.07086">
        <ele>10</ele>
        <time>2014-12-24T17:28:07.000Z</time>
      </trkpt>
      <trkpt lat="49.92576" lon="1.07083">
        <ele>10</ele>
        <time>2014-12-24T17:28:08.000Z</time>
      </trkpt>
      <trkpt lat="49.92579" lon="1.0708">
        <ele>10</ele>
        <time>2014-12-24T17:28:09.000Z</time>
      </trkpt>
      <trkpt lat="49.92581" lon="1.07078">
        <ele>10</ele>
        <time>2014-12-24T17:28:10.000Z</time>
      </trkpt>
      <trkpt lat="49.92583" lon="1.07075">
        <ele>10</ele>
        <time>2014-12-24T17:28:11.000Z</time>
      </trkpt>
      <trkpt lat="49.92585" lon="1.07071">
        <ele>10</ele>
        <time>2014-12-24T17:28:12.000Z</time>
      </trkpt>
      <trkpt lat="49.92587" lon="1.07068">
        <ele>9.9</ele>
        <time>2014-12-24T17:28:13.000Z</time>
      </trkpt>
      <trkpt lat="49.92589" lon="1.07064">
        <ele>9.9</ele>
        <time>2014-12-24T17:28:14.000Z</time>
      </trkpt>
      <trkpt lat="49.9259" lon="1.0706">
        <ele>10</ele>
        <time>2014-12-24T17:28:15.000Z</time>
      </trkpt>
      <trkpt lat="49.9259" lon="1.07056">
        <ele>10</ele>
        <time>2014-12-24T17:28:16.000Z</time>
      </trkpt>
      <trkpt lat="49.9259" lon="1.07052">
        <ele>10</ele>
        <time>2014-12-24T17:28:17.000Z</time>
      </trkpt>
      <trkpt lat="49.92589" lon="1.07048">
        <ele>10</ele>
        <time>2014-12-24T17:28:18.000Z</time>
      </trkpt>
      <trkpt lat="49.92588" lon="1.07044">
        <ele>10</ele>
        <time>2014-12-24T17:28:19.000Z</time>
      </trkpt>
      <trkpt lat="49.92587" lon="1.0704">
        <ele>10</ele>
        <time>2014-12-24T17:28:20.000Z</time>
      </trkpt>
      <trkpt lat="49.92586" lon="1.07037">
        <ele>10</ele>
        <time>2014-12-24T17:28:21.000Z</time>
      </trkpt>
      <trkpt lat="49.92585" lon="1.07033">
        <ele>10</ele>
        <time>2014-12-24T17:28:22.000Z</time>
      </trkpt>
      <trkpt lat="49.92583" lon="1.0703">
        <ele>10</ele>
        <time>2014-12-24T17:28:23.000Z</time>
      </trkpt>
      <trkpt lat="49.92582" lon="1.07026">
        <ele>10.1</ele>
        <time>2014-12-24T17:28:24.000Z</time>
      </trkpt>
      <trkpt lat="49.9258" lon="1.07022">
        <ele>10.1</ele>
        <time>2014-12-24T17:28:25.000Z</time>
      </trkpt>
      <trkpt lat="49.92579" lon="1.07018">
        <ele>10.1</ele>
        <time>2014-12-24T17:28:26.000Z</time>
      </trkpt>
      <trkpt lat="49.92578" lon="1.07014">
        <ele>10.1</ele>
        <time>2014-12-24T17:28:27.000Z</time>
      </trkpt>
      <trkpt lat="49.92576" lon="1.07011">
        <ele>10.1</ele>
        <time>2014-12-24T17:28:28.000Z</time>
      </trkpt>
      <trkpt lat="49.92574" lon="1.07007">
        <ele>10.1</ele>
        <time>2014-12-24T17:28:29.000Z</time>
      </trkpt>
      <trkpt lat="49.92573" lon="1.07004">
        <ele>10</ele>
        <time>2014-12-24T17:28:30.000Z</time>
      </trkpt>
      <trkpt lat="49.92571" lon="1.07">
        <ele>10</ele>
        <time>2014-12-24T17:28:31.000Z</time>
      </trkpt>
      <trkpt lat="49.92569" lon="1.06995">
        <ele>10</ele>
        <time>2014-12-24T17:28:32.000Z</time>
      </trkpt>
      <trkpt lat="49.92568" lon="1.06991">
        <ele>10</ele>
        <time>2014-12-24T17:28:33.000Z</time>
      </trkpt>
      <trkpt lat="49.92567" lon="1.06986">
        <ele>10</ele>
        <time>2014-12-24T17:28:34.000Z</time>
      </trkpt>
      <trkpt lat="49.92567" lon="1.06982">
        <ele>10</ele>
        <time>2014-12-24T17:28:35.000Z</time>
      </trkpt>
      <trkpt lat="49.92567" lon="1.06977">
        <ele>10</ele>
        <time>2014-12-24T17:28:36.000Z</time>
      </trkpt>
      <trkpt lat="49.92567" lon="1.06972">
        <ele>10</ele>
        <time>2014-12-24T17:28:37.000Z</time>
      </trkpt>
      <trkpt lat="49.92567" lon="1.06967">
        <ele>10.1</ele>
        <time>2014-12-24T17:28:38.000Z</time>
      </trkpt>
      <trkpt lat="49.92567" lon="1.06963">
        <ele>10.2</ele>
        <time>2014-12-24T17:28:39.000Z</time>
      </trkpt>
      <trkpt lat="49.92568" lon="1.06958">
        <ele>10.3</ele>
        <time>2014-12-24T17:28:40.000Z</time>
      </trkpt>
      <trkpt lat="49.92568" lon="1.06954">
        <ele>10.4</ele>
        <time>2014-12-24T17:28:41.000Z</time>
      </trkpt>
      <trkpt lat="49.92568" lon="1.06949">
        <ele>10.5</ele>
        <time>2014-12-24T17:28:42.000Z</time>
      </trkpt>
      <trkpt lat="49.92568" lon="1.06944">
        <ele>10.5</ele>
        <time>2014-12-24T17:28:43.000Z</time>
      </trkpt>
      <trkpt lat="49.92569" lon="1.0694">
        <ele>10.5</ele>
        <time>2014-12-24T17:28:44.000Z</time>
      </trkpt>
      <trkpt lat="49.92569" lon="1.06935">
        <ele>10.5</ele>
        <time>2014-12-24T17:28:45.000Z</time>
      </trkpt>
      <trkpt lat="49.92569" lon="1.0693">
        <ele>10.5</ele>
        <time>2014-12-24T17:28:46.000Z</time>
      </trkpt>
      <trkpt lat="49.92569" lon="1.06925">
        <ele>10.5</ele>
        <time>2014-12-24T17:28:47.000Z</time>
      </trkpt>
      <trkpt lat="49.92569" lon="1.06921">
        <ele>10.5</ele>
        <time>2014-12-24T17:28:48.000Z</time>
      </trkpt>
      <trkpt lat="49.92569" lon="1.06916">
        <ele>10.5</ele>
        <time>2014-12-24T17:28:49.000Z</time>
      </trkpt>
      <trkpt lat="49.92569" lon="1.06912">
        <ele>10.5</ele>
        <time>2014-12-24T17:28:50.000Z</time>
      </trkpt>
      <trkpt lat="49.92568" lon="1.06907">
        <ele>10.5</ele>
        <time>2014-12-24T17:28:51.000Z</time>
      </trkpt>
      <trkpt lat="49.92568" lon="1.06902">
        <ele>10.6</ele>
        <time>2014-12-24T17:28:52.000Z</time>
      </trkpt>
      <trkpt lat="49.92567" lon="1.06897">
        <ele>10.6</ele>
        <time>2014-12-24T17:28:53.000Z</time>
      </trkpt>
      <trkpt lat="49.92566" lon="1.06893">
        <ele>10.6</ele>
        <time>2014-12-24T17:28:54.000Z</time>
      </trkpt>
      <trkpt lat="49.92564" lon="1.06888">
        <ele>10.7</ele>
        <time>2014-12-24T17:28:55.000Z</time>
      </trkpt>
      <trkpt lat="49.92563" lon="1.06883">
        <ele>10.7</ele>
        <time>2014-12-24T17:28:56.000Z</time>
      </trkpt>
      <trkpt lat="49.92562" lon="1.06878">
        <ele>10.8</ele>
        <time>2014-12-24T17:28:57.000Z</time>
      </trkpt>
      <trkpt lat="49.92561" lon="1.06873">
        <ele>10.8</ele>
        <time>2014-12-24T17:28:58.000Z</time>
      </trkpt>
      <trkpt lat="49.92561" lon="1.06868">
        <ele>10.8</ele>
        <time>2014-12-24T17:28:59.000Z</time>
      </trkpt>
      <trkpt lat="49.9256" lon="1.06863">
        <ele>10.8</ele>
        <time>2014-12-24T17:29:00.000Z</time>
      </trkpt>
      <trkpt lat="49.92559" lon="1.06858">
        <ele>10.9</ele>
        <time>2014-12-24T17:29:01.000Z</time>
      </trkpt>
      <trkpt lat="49.92559" lon="1.06854">
        <ele>10.9</ele>
        <time>2014-12-24T17:29:02.000Z</time>
      </trkpt>
      <trkpt lat="49.92558" lon="1.06849">
        <ele>10.9</ele>
        <time>2014-12-24T17:29:03.000Z</time>
      </trkpt>
      <trkpt lat="49.92558" lon="1.06844">
        <ele>10.9</ele>
        <time>2014-12-24T17:29:04.000Z</time>
      </trkpt>
      <trkpt lat="49.92557" lon="1.06839">
        <ele>10.9</ele>
        <time>2014-12-24T17:29:05.000Z</time>
      </trkpt>
      <trkpt lat="49.92556" lon="1.06835">
        <ele>11</ele>
        <time>2014-12-24T17:29:06.000Z</time>
      </trkpt>
      <trkpt lat="49.92556" lon="1.0683">
        <ele>11.1</ele>
        <time>2014-12-24T17:29:07.000Z</time>
      </trkpt>
      <trkpt lat="49.92555" lon="1.06826">
        <ele>11.6</ele>
        <time>2014-12-24T17:29:08.000Z</time>
      </trkpt>
      <trkpt lat="49.92555" lon="1.06821">
        <ele>12.1</ele>
        <time>2014-12-24T17:29:09.000Z</time>
      </trkpt>
      <trkpt lat="49.92555" lon="1.06817">
        <ele>11.8</ele>
        <time>2014-12-24T17:29:10.000Z</time>
      </trkpt>
      <trkpt lat="49.92556" lon="1.06814">
        <ele>11.7</ele>
        <time>2014-12-24T17:29:11.000Z</time>
      </trkpt>
      <trkpt lat="49.92559" lon="1.06809">
        <ele>11.7</ele>
        <time>2014-12-24T17:29:12.000Z</time>
      </trkpt>
      <trkpt lat="49.92559" lon="1.06809">
        <ele>11.7</ele>
        <time>2014-12-24T17:29:13.000Z</time>
      </trkpt>
      <trkpt lat="49.92559" lon="1.06809">
        <ele>11.6</ele>
        <time>2014-12-24T17:29:14.000Z</time>
      </trkpt>
      <trkpt lat="49.9256" lon="1.06809">
        <ele>11.6</ele>
        <time>2014-12-24T17:29:15.000Z</time>
      </trkpt>
      <trkpt lat="49.9256" lon="1.06809">
        <ele>11.6</ele>
        <time>2014-12-24T17:29:16.000Z</time>
      </trkpt>
      <trkpt lat="49.92561" lon="1.0681">
        <ele>11.5</ele>
        <time>2014-12-24T17:29:17.000Z</time>
      </trkpt>
      <trkpt lat="49.92561" lon="1.0681">
        <ele>11.5</ele>
        <time>2014-12-24T17:29:18.000Z</time>
      </trkpt>
      <trkpt lat="49.92562" lon="1.0681">
        <ele>11.4</ele>
        <time>2014-12-24T17:29:19.000Z</time>
      </trkpt>
      <trkpt lat="49.92563" lon="1.0681">
        <ele>11.4</ele>
        <time>2014-12-24T17:29:20.000Z</time>
      </trkpt>
      <trkpt lat="49.92565" lon="1.06807">
        <ele>11.3</ele>
        <time>2014-12-24T17:29:21.000Z</time>
      </trkpt>
      <trkpt lat="49.92565" lon="1.06806">
        <ele>11.3</ele>
        <time>2014-12-24T17:29:22.000Z</time>
      </trkpt>
      <trkpt lat="49.92564" lon="1.06804">
        <ele>11.3</ele>
        <time>2014-12-24T17:29:23.000Z</time>
      </trkpt>
      <trkpt lat="49.92564" lon="1.068">
        <ele>11.3</ele>
        <time>2014-12-24T17:29:24.000Z</time>
      </trkpt>
      <trkpt lat="49.92563" lon="1.06797">
        <ele>11.2</ele>
        <time>2014-12-24T17:29:25.000Z</time>
      </trkpt>
      <trkpt lat="49.92563" lon="1.06793">
        <ele>11.1</ele>
        <time>2014-12-24T17:29:26.000Z</time>
      </trkpt>
      <trkpt lat="49.92563" lon="1.06788">
        <ele>11</ele>
        <time>2014-12-24T17:29:27.000Z</time>
      </trkpt>
      <trkpt lat="49.92563" lon="1.06784">
        <ele>10.9</ele>
        <time>2014-12-24T17:29:28.000Z</time>
      </trkpt>
      <trkpt lat="49.92563" lon="1.06779">
        <ele>10.8</ele>
        <time>2014-12-24T17:29:29.000Z</time>
      </trkpt>
      <trkpt lat="49.92563" lon="1.06775">
        <ele>10.7</ele>
        <time>2014-12-24T17:29:30.000Z</time>
      </trkpt>
      <trkpt lat="49.92563" lon="1.0677">
        <ele>10.7</ele>
        <time>2014-12-24T17:29:31.000Z</time>
      </trkpt>
      <trkpt lat="49.92563" lon="1.06766">
        <ele>10.7</ele>
        <time>2014-12-24T17:29:32.000Z</time>
      </trkpt>
      <trkpt lat="49.92563" lon="1.06761">
        <ele>10.7</ele>
        <time>2014-12-24T17:29:33.000Z</time>
      </trkpt>
      <trkpt lat="49.92563" lon="1.06756">
        <ele>10.7</ele>
        <time>2014-12-24T17:29:34.000Z</time>
      </trkpt>
      <trkpt lat="49.92562" lon="1.06752">
        <ele>10.8</ele>
        <time>2014-12-24T17:29:35.000Z</time>
      </trkpt>
      <trkpt lat="49.92562" lon="1.06747">
        <ele>10.7</ele>
        <time>2014-12-24T17:29:36.000Z</time>
      </trkpt>
      <trkpt lat="49.92562" lon="1.06742">
        <ele>10.7</ele>
        <time>2014-12-24T17:29:37.000Z</time>
      </trkpt>
      <trkpt lat="49.92561" lon="1.06738">
        <ele>10.6</ele>
        <time>2014-12-24T17:29:38.000Z</time>
      </trkpt>
      <trkpt lat="49.92561" lon="1.06733">
        <ele>10.6</ele>
        <time>2014-12-24T17:29:39.000Z</time>
      </trkpt>
      <trkpt lat="49.92561" lon="1.06729">
        <ele>10.5</ele>
        <time>2014-12-24T17:29:40.000Z</time>
      </trkpt>
      <trkpt lat="49.92562" lon="1.06725">
        <ele>10.4</ele>
        <time>2014-12-24T17:29:41.000Z</time>
      </trkpt>
      <trkpt lat="49.92563" lon="1.06722">
        <ele>10.2</ele>
        <time>2014-12-24T17:29:42.000Z</time>
      </trkpt>
      <trkpt lat="49.92565" lon="1.06719">
        <ele>9.9</ele>
        <time>2014-12-24T17:29:43.000Z</time>
      </trkpt>
      <trkpt lat="49.92568" lon="1.06717">
        <ele>9.6</ele>
        <time>2014-12-24T17:29:44.000Z</time>
      </trkpt>
      <trkpt lat="49.92571" lon="1.06715">
        <ele>9.2</ele>
        <time>2014-12-24T17:29:45.000Z</time>
      </trkpt>
      <trkpt lat="49.92573" lon="1.06714">
        <ele>8.9</ele>
        <time>2014-12-24T17:29:46.000Z</time>
      </trkpt>
      <trkpt lat="49.92576" lon="1.06714">
        <ele>8.5</ele>
        <time>2014-12-24T17:29:47.000Z</time>
      </trkpt>
      <trkpt lat="49.9258" lon="1.06714">
        <ele>8.1</ele>
        <time>2014-12-24T17:29:48.000Z</time>
      </trkpt>
      <trkpt lat="49.92582" lon="1.06715">
        <ele>7.9</ele>
        <time>2014-12-24T17:29:49.000Z</time>
      </trkpt>
      <trkpt lat="49.92585" lon="1.06717">
        <ele>7.7</ele>
        <time>2014-12-24T17:29:50.000Z</time>
      </trkpt>
      <trkpt lat="49.92588" lon="1.06719">
        <ele>7.7</ele>
        <time>2014-12-24T17:29:51.000Z</time>
      </trkpt>
      <trkpt lat="49.9259" lon="1.06722">
        <ele>7.7</ele>
        <time>2014-12-24T17:29:52.000Z</time>
      </trkpt>
      <trkpt lat="49.92592" lon="1.06725">
        <ele>7.8</ele>
        <time>2014-12-24T17:29:53.000Z</time>
      </trkpt>
      <trkpt lat="49.92594" lon="1.06728">
        <ele>7.8</ele>
        <time>2014-12-24T17:29:54.000Z</time>
      </trkpt>
      <trkpt lat="49.92596" lon="1.06732">
        <ele>7.8</ele>
        <time>2014-12-24T17:29:55.000Z</time>
      </trkpt>
      <trkpt lat="49.92597" lon="1.06736">
        <ele>7.8</ele>
        <time>2014-12-24T17:29:56.000Z</time>
      </trkpt>
      <trkpt lat="49.92598" lon="1.0674">
        <ele>7.7</ele>
        <time>2014-12-24T17:29:57.000Z</time>
      </trkpt>
      <trkpt lat="49.926" lon="1.06744">
        <ele>7.6</ele>
        <time>2014-12-24T17:29:58.000Z</time>
      </trkpt>
      <trkpt lat="49.92601" lon="1.06748">
        <ele>7.5</ele>
        <time>2014-12-24T17:29:59.000Z</time>
      </trkpt>
      <trkpt lat="49.92602" lon="1.06752">
        <ele>7.4</ele>
        <time>2014-12-24T17:30:00.000Z</time>
      </trkpt>
      <trkpt lat="49.92603" lon="1.06757">
        <ele>7.3</ele>
        <time>2014-12-24T17:30:01.000Z</time>
      </trkpt>
      <trkpt lat="49.92604" lon="1.06761">
        <ele>7.3</ele>
        <time>2014-12-24T17:30:02.000Z</time>
      </trkpt>
      <trkpt lat="49.92605" lon="1.06765">
        <ele>7.2</ele>
        <time>2014-12-24T17:30:03.000Z</time>
      </trkpt>
      <trkpt lat="49.92607" lon="1.0677">
        <ele>7.2</ele>
        <time>2014-12-24T17:30:04.000Z</time>
      </trkpt>
      <trkpt lat="49.92608" lon="1.06774">
        <ele>7.2</ele>
        <time>2014-12-24T17:30:05.000Z</time>
      </trkpt>
      <trkpt lat="49.92609" lon="1.06778">
        <ele>7.2</ele>
        <time>2014-12-24T17:30:06.000Z</time>
      </trkpt>
      <trkpt lat="49.92611" lon="1.06783">
        <ele>7</ele>
        <time>2014-12-24T17:30:07.000Z</time>
      </trkpt>
      <trkpt lat="49.92612" lon="1.06787">
        <ele>7</ele>
        <time>2014-12-24T17:30:08.000Z</time>
      </trkpt>
      <trkpt lat="49.92613" lon="1.06792">
        <ele>6.9</ele>
        <time>2014-12-24T17:30:09.000Z</time>
      </trkpt>
      <trkpt lat="49.92615" lon="1.06797">
        <ele>6.9</ele>
        <time>2014-12-24T17:30:10.000Z</time>
      </trkpt>
      <trkpt lat="49.92616" lon="1.06802">
        <ele>6.9</ele>
        <time>2014-12-24T17:30:11.000Z</time>
      </trkpt>
      <trkpt lat="49.92618" lon="1.06807">
        <ele>7</ele>
        <time>2014-12-24T17:30:12.000Z</time>
      </trkpt>
      <trkpt lat="49.92619" lon="1.06812">
        <ele>7.1</ele>
        <time>2014-12-24T17:30:13.000Z</time>
      </trkpt>
      <trkpt lat="49.9262" lon="1.06816">
        <ele>7.1</ele>
        <time>2014-12-24T17:30:14.000Z</time>
      </trkpt>
      <trkpt lat="49.92622" lon="1.06821">
        <ele>7.1</ele>
        <time>2014-12-24T17:30:15.000Z</time>
      </trkpt>
      <trkpt lat="49.92623" lon="1.06826">
        <ele>7.1</ele>
        <time>2014-12-24T17:30:16.000Z</time>
      </trkpt>
      <trkpt lat="49.92624" lon="1.0683">
        <ele>7</ele>
        <time>2014-12-24T17:30:17.000Z</time>
      </trkpt>
      <trkpt lat="49.92625" lon="1.06835">
        <ele>7</ele>
        <time>2014-12-24T17:30:18.000Z</time>
      </trkpt>
      <trkpt lat="49.92627" lon="1.0684">
        <ele>7.1</ele>
        <time>2014-12-24T17:30:19.000Z</time>
      </trkpt>
      <trkpt lat="49.92628" lon="1.06844">
        <ele>7.2</ele>
        <time>2014-12-24T17:30:20.000Z</time>
      </trkpt>
      <trkpt lat="49.92629" lon="1.06849">
        <ele>7.3</ele>
        <time>2014-12-24T17:30:21.000Z</time>
      </trkpt>
      <trkpt lat="49.9263" lon="1.06854">
        <ele>7.3</ele>
        <time>2014-12-24T17:30:22.000Z</time>
      </trkpt>
      <trkpt lat="49.92632" lon="1.06858">
        <ele>7.4</ele>
        <time>2014-12-24T17:30:23.000Z</time>
      </trkpt>
      <trkpt lat="49.92633" lon="1.06863">
        <ele>7.4</ele>
        <time>2014-12-24T17:30:24.000Z</time>
      </trkpt>
      <trkpt lat="49.92635" lon="1.06867">
        <ele>7.3</ele>
        <time>2014-12-24T17:30:25.000Z</time>
      </trkpt>
      <trkpt lat="49.92636" lon="1.06871">
        <ele>7.2</ele>
        <time>2014-12-24T17:30:26.000Z</time>
      </trkpt>
      <trkpt lat="49.92638" lon="1.06875">
        <ele>7.1</ele>
        <time>2014-12-24T17:30:27.000Z</time>
      </trkpt>
      <trkpt lat="49.9264" lon="1.0688">
        <ele>6.9</ele>
        <time>2014-12-24T17:30:28.000Z</time>
      </trkpt>
      <trkpt lat="49.92642" lon="1.06884">
        <ele>6.9</ele>
        <time>2014-12-24T17:30:29.000Z</time>
      </trkpt>
      <trkpt lat="49.92643" lon="1.06888">
        <ele>6.8</ele>
        <time>2014-12-24T17:30:30.000Z</time>
      </trkpt>
      <trkpt lat="49.92645" lon="1.06893">
        <ele>6.9</ele>
        <time>2014-12-24T17:30:31.000Z</time>
      </trkpt>
      <trkpt lat="49.92646" lon="1.06897">
        <ele>7</ele>
        <time>2014-12-24T17:30:32.000Z</time>
      </trkpt>
      <trkpt lat="49.92648" lon="1.06902">
        <ele>7.1</ele>
        <time>2014-12-24T17:30:33.000Z</time>
      </trkpt>
      <trkpt lat="49.9265" lon="1.06906">
        <ele>7.2</ele>
        <time>2014-12-24T17:30:34.000Z</time>
      </trkpt>
      <trkpt lat="49.92651" lon="1.06911">
        <ele>7.3</ele>
        <time>2014-12-24T17:30:35.000Z</time>
      </trkpt>
      <trkpt lat="49.92653" lon="1.06915">
        <ele>7.4</ele>
        <time>2014-12-24T17:30:36.000Z</time>
      </trkpt>
      <trkpt lat="49.92655" lon="1.0692">
        <ele>7.5</ele>
        <time>2014-12-24T17:30:37.000Z</time>
      </trkpt>
      <trkpt lat="49.92656" lon="1.06924">
        <ele>7.6</ele>
        <time>2014-12-24T17:30:38.000Z</time>
      </trkpt>
      <trkpt lat="49.92658" lon="1.06928">
        <ele>7.6</ele>
        <time>2014-12-24T17:30:39.000Z</time>
      </trkpt>
      <trkpt lat="49.9266" lon="1.06933">
        <ele>7.5</ele>
        <time>2014-12-24T17:30:40.000Z</time>
      </trkpt>
      <trkpt lat="49.92661" lon="1.06937">
        <ele>7.5</ele>
        <time>2014-12-24T17:30:41.000Z</time>
      </trkpt>
      <trkpt lat="49.92663" lon="1.06942">
        <ele>7.4</ele>
        <time>2014-12-24T17:30:42.000Z</time>
      </trkpt>
      <trkpt lat="49.92665" lon="1.06946">
        <ele>7.2</ele>
        <time>2014-12-24T17:30:43.000Z</time>
      </trkpt>
      <trkpt lat="49.92666" lon="1.0695">
        <ele>7</ele>
        <time>2014-12-24T17:30:44.000Z</time>
      </trkpt>
      <trkpt lat="49.92668" lon="1.06955">
        <ele>6.9</ele>
        <time>2014-12-24T17:30:45.000Z</time>
      </trkpt>
      <trkpt lat="49.9267" lon="1.06959">
        <ele>6.9</ele>
        <time>2014-12-24T17:30:46.000Z</time>
      </trkpt>
      <trkpt lat="49.92671" lon="1.06963">
        <ele>6.9</ele>
        <time>2014-12-24T17:30:47.000Z</time>
      </trkpt>
      <trkpt lat="49.92673" lon="1.06968">
        <ele>6.9</ele>
        <time>2014-12-24T17:30:48.000Z</time>
      </trkpt>
      <trkpt lat="49.92675" lon="1.06972">
        <ele>7</ele>
        <time>2014-12-24T17:30:49.000Z</time>
      </trkpt>
      <trkpt lat="49.92677" lon="1.06976">
        <ele>7.1</ele>
        <time>2014-12-24T17:30:50.000Z</time>
      </trkpt>
      <trkpt lat="49.92678" lon="1.06981">
        <ele>7.2</ele>
        <time>2014-12-24T17:30:51.000Z</time>
      </trkpt>
      <trkpt lat="49.9268" lon="1.06985">
        <ele>7.2</ele>
        <time>2014-12-24T17:30:52.000Z</time>
      </trkpt>
      <trkpt lat="49.92682" lon="1.06989">
        <ele>7.3</ele>
        <time>2014-12-24T17:30:53.000Z</time>
      </trkpt>
      <trkpt lat="49.92683" lon="1.06994">
        <ele>7.3</ele>
        <time>2014-12-24T17:30:54.000Z</time>
      </trkpt>
      <trkpt lat="49.92685" lon="1.06998">
        <ele>7.3</ele>
        <time>2014-12-24T17:30:55.000Z</time>
      </trkpt>
      <trkpt lat="49.92686" lon="1.07002">
        <ele>7.3</ele>
        <time>2014-12-24T17:30:56.000Z</time>
      </trkpt>
      <trkpt lat="49.92687" lon="1.07007">
        <ele>7.4</ele>
        <time>2014-12-24T17:30:57.000Z</time>
      </trkpt>
      <trkpt lat="49.92689" lon="1.07011">
        <ele>7.4</ele>
        <time>2014-12-24T17:30:58.000Z</time>
      </trkpt>
      <trkpt lat="49.92691" lon="1.07015">
        <ele>7.3</ele>
        <time>2014-12-24T17:30:59.000Z</time>
      </trkpt>
      <trkpt lat="49.92692" lon="1.0702">
        <ele>7.2</ele>
        <time>2014-12-24T17:31:00.000Z</time>
      </trkpt>
      <trkpt lat="49.92693" lon="1.07025">
        <ele>7.1</ele>
        <time>2014-12-24T17:31:01.000Z</time>
      </trkpt>
      <trkpt lat="49.92694" lon="1.07029">
        <ele>7</ele>
        <time>2014-12-24T17:31:02.000Z</time>
      </trkpt>
      <trkpt lat="49.92695" lon="1.07034">
        <ele>7</ele>
        <time>2014-12-24T17:31:03.000Z</time>
      </trkpt>
      <trkpt lat="49.92696" lon="1.07039">
        <ele>7</ele>
        <time>2014-12-24T17:31:04.000Z</time>
      </trkpt>
      <trkpt lat="49.92698" lon="1.07043">
        <ele>6.9</ele>
        <time>2014-12-24T17:31:05.000Z</time>
      </trkpt>
      <trkpt lat="49.92699" lon="1.07047">
        <ele>7</ele>
        <time>2014-12-24T17:31:06.000Z</time>
      </trkpt>
      <trkpt lat="49.927" lon="1.07051">
        <ele>7</ele>
        <time>2014-12-24T17:31:07.000Z</time>
      </trkpt>
      <trkpt lat="49.92702" lon="1.07056">
        <ele>7</ele>
        <time>2014-12-24T17:31:08.000Z</time>
      </trkpt>
      <trkpt lat="49.92703" lon="1.0706">
        <ele>7.1</ele>
        <time>2014-12-24T17:31:09.000Z</time>
      </trkpt>
      <trkpt lat="49.92705" lon="1.07064">
        <ele>7.2</ele>
        <time>2014-12-24T17:31:10.000Z</time>
      </trkpt>
      <trkpt lat="49.92706" lon="1.07068">
        <ele>7.3</ele>
        <time>2014-12-24T17:31:11.000Z</time>
      </trkpt>
      <trkpt lat="49.92708" lon="1.07072">
        <ele>7.3</ele>
        <time>2014-12-24T17:31:12.000Z</time>
      </trkpt>
      <trkpt lat="49.92709" lon="1.07077">
        <ele>7.4</ele>
        <time>2014-12-24T17:31:13.000Z</time>
      </trkpt>
      <trkpt lat="49.92711" lon="1.07081">
        <ele>7.4</ele>
        <time>2014-12-24T17:31:14.000Z</time>
      </trkpt>
      <trkpt lat="49.92713" lon="1.07085">
        <ele>7.4</ele>
        <time>2014-12-24T17:31:15.000Z</time>
      </trkpt>
      <trkpt lat="49.92714" lon="1.0709">
        <ele>7.4</ele>
        <time>2014-12-24T17:31:16.000Z</time>
      </trkpt>
      <trkpt lat="49.92716" lon="1.07094">
        <ele>7.4</ele>
        <time>2014-12-24T17:31:17.000Z</time>
      </trkpt>
      <trkpt lat="49.92717" lon="1.07099">
        <ele>7.4</ele>
        <time>2014-12-24T17:31:18.000Z</time>
      </trkpt>
      <trkpt lat="49.92719" lon="1.07103">
        <ele>7.3</ele>
        <time>2014-12-24T17:31:19.000Z</time>
      </trkpt>
      <trkpt lat="49.92721" lon="1.07107">
        <ele>7.2</ele>
        <time>2014-12-24T17:31:20.000Z</time>
      </trkpt>
      <trkpt lat="49.92722" lon="1.07111">
        <ele>7</ele>
        <time>2014-12-24T17:31:21.000Z</time>
      </trkpt>
      <trkpt lat="49.92724" lon="1.07116">
        <ele>7</ele>
        <time>2014-12-24T17:31:22.000Z</time>
      </trkpt>
      <trkpt lat="49.92725" lon="1.0712">
        <ele>6.9</ele>
        <time>2014-12-24T17:31:23.000Z</time>
      </trkpt>
      <trkpt lat="49.92726" lon="1.07124">
        <ele>6.9</ele>
        <time>2014-12-24T17:31:24.000Z</time>
      </trkpt>
      <trkpt lat="49.92727" lon="1.07128">
        <ele>6.9</ele>
        <time>2014-12-24T17:31:25.000Z</time>
      </trkpt>
      <trkpt lat="49.92728" lon="1.07132">
        <ele>6.9</ele>
        <time>2014-12-24T17:31:26.000Z</time>
      </trkpt>
      <trkpt lat="49.92729" lon="1.07137">
        <ele>7</ele>
        <time>2014-12-24T17:31:27.000Z</time>
      </trkpt>
      <trkpt lat="49.92731" lon="1.07141">
        <ele>7.1</ele>
        <time>2014-12-24T17:31:28.000Z</time>
      </trkpt>
      <trkpt lat="49.92732" lon="1.07145">
        <ele>7.3</ele>
        <time>2014-12-24T17:31:29.000Z</time>
      </trkpt>
      <trkpt lat="49.92733" lon="1.0715">
        <ele>7.5</ele>
        <time>2014-12-24T17:31:30.000Z</time>
      </trkpt>
      <trkpt lat="49.92734" lon="1.07154">
        <ele>7.6</ele>
        <time>2014-12-24T17:31:31.000Z</time>
      </trkpt>
      <trkpt lat="49.92735" lon="1.07158">
        <ele>7.8</ele>
        <time>2014-12-24T17:31:32.000Z</time>
      </trkpt>
      <trkpt lat="49.92735" lon="1.07163">
        <ele>7.9</ele>
        <time>2014-12-24T17:31:33.000Z</time>
      </trkpt>
      <trkpt lat="49.92736" lon="1.07167">
        <ele>8.1</ele>
        <time>2014-12-24T17:31:34.000Z</time>
      </trkpt>
      <trkpt lat="49.92736" lon="1.07172">
        <ele>8.1</ele>
        <time>2014-12-24T17:31:35.000Z</time>
      </trkpt>
      <trkpt lat="49.92737" lon="1.07176">
        <ele>8.1</ele>
        <time>2014-12-24T17:31:36.000Z</time>
      </trkpt>
      <trkpt lat="49.92738" lon="1.07181">
        <ele>8.1</ele>
        <time>2014-12-24T17:31:37.000Z</time>
      </trkpt>
      <trkpt lat="49.92739" lon="1.07185">
        <ele>8.1</ele>
        <time>2014-12-24T17:31:38.000Z</time>
      </trkpt>
      <trkpt lat="49.9274" lon="1.0719">
        <ele>8.1</ele>
        <time>2014-12-24T17:31:39.000Z</time>
      </trkpt>
      <trkpt lat="49.9274" lon="1.07194">
        <ele>8</ele>
        <time>2014-12-24T17:31:40.000Z</time>
      </trkpt>
      <trkpt lat="49.92741" lon="1.07198">
        <ele>7.9</ele>
        <time>2014-12-24T17:31:41.000Z</time>
      </trkpt>
      <trkpt lat="49.92742" lon="1.07203">
        <ele>7.7</ele>
        <time>2014-12-24T17:31:42.000Z</time>
      </trkpt>
      <trkpt lat="49.92742" lon="1.07207">
        <ele>7.6</ele>
        <time>2014-12-24T17:31:43.000Z</time>
      </trkpt>
      <trkpt lat="49.92743" lon="1.07212">
        <ele>7.4</ele>
        <time>2014-12-24T17:31:44.000Z</time>
      </trkpt>
      <trkpt lat="49.92744" lon="1.07216">
        <ele>7.3</ele>
        <time>2014-12-24T17:31:45.000Z</time>
      </trkpt>
      <trkpt lat="49.92745" lon="1.07221">
        <ele>7.2</ele>
        <time>2014-12-24T17:31:46.000Z</time>
      </trkpt>
      <trkpt lat="49.92746" lon="1.07226">
        <ele>7.3</ele>
        <time>2014-12-24T17:31:47.000Z</time>
      </trkpt>
      <trkpt lat="49.92747" lon="1.0723">
        <ele>7.6</ele>
        <time>2014-12-24T17:31:48.000Z</time>
      </trkpt>
      <trkpt lat="49.92748" lon="1.07235">
        <ele>7.9</ele>
        <time>2014-12-24T17:31:49.000Z</time>
      </trkpt>
      <trkpt lat="49.92749" lon="1.07239">
        <ele>8.2</ele>
        <time>2014-12-24T17:31:50.000Z</time>
      </trkpt>
      <trkpt lat="49.9275" lon="1.07244">
        <ele>8.6</ele>
        <time>2014-12-24T17:31:51.000Z</time>
      </trkpt>
      <trkpt lat="49.92751" lon="1.07248">
        <ele>8.8</ele>
        <time>2014-12-24T17:31:52.000Z</time>
      </trkpt>
      <trkpt lat="49.92752" lon="1.07253">
        <ele>9</ele>
        <time>2014-12-24T17:31:53.000Z</time>
      </trkpt>
      <trkpt lat="49.92753" lon="1.07257">
        <ele>9</ele>
        <time>2014-12-24T17:31:54.000Z</time>
      </trkpt>
      <trkpt lat="49.92754" lon="1.07262">
        <ele>9.1</ele>
        <time>2014-12-24T17:31:55.000Z</time>
      </trkpt>
      <trkpt lat="49.92755" lon="1.07266">
        <ele>9.1</ele>
        <time>2014-12-24T17:31:56.000Z</time>
      </trkpt>
      <trkpt lat="49.92757" lon="1.0727">
        <ele>9.1</ele>
        <time>2014-12-24T17:31:57.000Z</time>
      </trkpt>
      <trkpt lat="49.92758" lon="1.07274">
        <ele>9.1</ele>
        <time>2014-12-24T17:31:58.000Z</time>
      </trkpt>
      <trkpt lat="49.92759" lon="1.07279">
        <ele>9</ele>
        <time>2014-12-24T17:31:59.000Z</time>
      </trkpt>
      <trkpt lat="49.9276" lon="1.07283">
        <ele>8.8</ele>
        <time>2014-12-24T17:32:00.000Z</time>
      </trkpt>
      <trkpt lat="49.92762" lon="1.07288">
        <ele>8.7</ele>
        <time>2014-12-24T17:32:01.000Z</time>
      </trkpt>
      <trkpt lat="49.92763" lon="1.07292">
        <ele>8.5</ele>
        <time>2014-12-24T17:32:02.000Z</time>
      </trkpt>
      <trkpt lat="49.92765" lon="1.07297">
        <ele>8.4</ele>
        <time>2014-12-24T17:32:03.000Z</time>
      </trkpt>
      <trkpt lat="49.92766" lon="1.07301">
        <ele>8.4</ele>
        <time>2014-12-24T17:32:04.000Z</time>
      </trkpt>
      <trkpt lat="49.92768" lon="1.07306">
        <ele>8.4</ele>
        <time>2014-12-24T17:32:05.000Z</time>
      </trkpt>
      <trkpt lat="49.9277" lon="1.0731">
        <ele>8.3</ele>
        <time>2014-12-24T17:32:06.000Z</time>
      </trkpt>
      <trkpt lat="49.92771" lon="1.07315">
        <ele>8.2</ele>
        <time>2014-12-24T17:32:07.000Z</time>
      </trkpt>
      <trkpt lat="49.92773" lon="1.07319">
        <ele>8.2</ele>
        <time>2014-12-24T17:32:08.000Z</time>
      </trkpt>
      <trkpt lat="49.92775" lon="1.07324">
        <ele>8.1</ele>
        <time>2014-12-24T17:32:09.000Z</time>
      </trkpt>
      <trkpt lat="49.92776" lon="1.07329">
        <ele>8</ele>
        <time>2014-12-24T17:32:10.000Z</time>
      </trkpt>
      <trkpt lat="49.92778" lon="1.07333">
        <ele>8</ele>
        <time>2014-12-24T17:32:11.000Z</time>
      </trkpt>
      <trkpt lat="49.92779" lon="1.07338">
        <ele>8.1</ele>
        <time>2014-12-24T17:32:12.000Z</time>
      </trkpt>
      <trkpt lat="49.92781" lon="1.07342">
        <ele>8.3</ele>
        <time>2014-12-24T17:32:13.000Z</time>
      </trkpt>
      <trkpt lat="49.92783" lon="1.07347">
        <ele>8.4</ele>
        <time>2014-12-24T17:32:14.000Z</time>
      </trkpt>
      <trkpt lat="49.92784" lon="1.07351">
        <ele>8.5</ele>
        <time>2014-12-24T17:32:15.000Z</time>
      </trkpt>
      <trkpt lat="49.92786" lon="1.07355">
        <ele>8.6</ele>
        <time>2014-12-24T17:32:16.000Z</time>
      </trkpt>
      <trkpt lat="49.92787" lon="1.0736">
        <ele>8.6</ele>
        <time>2014-12-24T17:32:17.000Z</time>
      </trkpt>
      <trkpt lat="49.92789" lon="1.07364">
        <ele>8.6</ele>
        <time>2014-12-24T17:32:18.000Z</time>
      </trkpt>
      <trkpt lat="49.92791" lon="1.07368">
        <ele>8.5</ele>
        <time>2014-12-24T17:32:19.000Z</time>
      </trkpt>
      <trkpt lat="49.92792" lon="1.07373">
        <ele>8.5</ele>
        <time>2014-12-24T17:32:20.000Z</time>
      </trkpt>
      <trkpt lat="49.92794" lon="1.07377">
        <ele>8.4</ele>
        <time>2014-12-24T17:32:21.000Z</time>
      </trkpt>
      <trkpt lat="49.92796" lon="1.07381">
        <ele>8.4</ele>
        <time>2014-12-24T17:32:22.000Z</time>
      </trkpt>
      <trkpt lat="49.92797" lon="1.07385">
        <ele>8.3</ele>
        <time>2014-12-24T17:32:23.000Z</time>
      </trkpt>
      <trkpt lat="49.92799" lon="1.0739">
        <ele>8.2</ele>
        <time>2014-12-24T17:32:24.000Z</time>
      </trkpt>
      <trkpt lat="49.928" lon="1.07394">
        <ele>8.1</ele>
        <time>2014-12-24T17:32:25.000Z</time>
      </trkpt>
      <trkpt lat="49.92802" lon="1.07399">
        <ele>8.1</ele>
        <time>2014-12-24T17:32:26.000Z</time>
      </trkpt>
      <trkpt lat="49.92803" lon="1.07403">
        <ele>8</ele>
        <time>2014-12-24T17:32:27.000Z</time>
      </trkpt>
      <trkpt lat="49.92805" lon="1.07408">
        <ele>8</ele>
        <time>2014-12-24T17:32:28.000Z</time>
      </trkpt>
      <trkpt lat="49.92806" lon="1.07412">
        <ele>8</ele>
        <time>2014-12-24T17:32:29.000Z</time>
      </trkpt>
      <trkpt lat="49.92807" lon="1.07416">
        <ele>8</ele>
        <time>2014-12-24T17:32:30.000Z</time>
      </trkpt>
      <trkpt lat="49.92809" lon="1.07421">
        <ele>8</ele>
        <time>2014-12-24T17:32:31.000Z</time>
      </trkpt>
      <trkpt lat="49.92811" lon="1.07425">
        <ele>8</ele>
        <time>2014-12-24T17:32:32.000Z</time>
      </trkpt>
      <trkpt lat="49.92813" lon="1.07429">
        <ele>8</ele>
        <time>2014-12-24T17:32:33.000Z</time>
      </trkpt>
      <trkpt lat="49.92815" lon="1.07433">
        <ele>8</ele>
        <time>2014-12-24T17:32:34.000Z</time>
      </trkpt>
      <trkpt lat="49.92817" lon="1.07437">
        <ele>8</ele>
        <time>2014-12-24T17:32:35.000Z</time>
      </trkpt>
      <trkpt lat="49.92819" lon="1.07442">
        <ele>8</ele>
        <time>2014-12-24T17:32:36.000Z</time>
      </trkpt>
      <trkpt lat="49.9282" lon="1.07446">
        <ele>8</ele>
        <time>2014-12-24T17:32:37.000Z</time>
      </trkpt>
      <trkpt lat="49.92822" lon="1.0745">
        <ele>8</ele>
        <time>2014-12-24T17:32:38.000Z</time>
      </trkpt>
      <trkpt lat="49.92824" lon="1.07454">
        <ele>8</ele>
        <time>2014-12-24T17:32:39.000Z</time>
      </trkpt>
      <trkpt lat="49.92826" lon="1.07458">
        <ele>8</ele>
        <time>2014-12-24T17:32:40.000Z</time>
      </trkpt>
      <trkpt lat="49.92828" lon="1.07462">
        <ele>8</ele>
        <time>2014-12-24T17:32:41.000Z</time>
      </trkpt>
      <trkpt lat="49.92829" lon="1.07467">
        <ele>8</ele>
        <time>2014-12-24T17:32:42.000Z</time>
      </trkpt>
      <trkpt lat="49.92831" lon="1.07471">
        <ele>8</ele>
        <time>2014-12-24T17:32:43.000Z</time>
      </trkpt>
      <trkpt lat="49.92833" lon="1.07475">
        <ele>8</ele>
        <time>2014-12-24T17:32:44.000Z</time>
      </trkpt>
      <trkpt lat="49.92835" lon="1.07479">
        <ele>8</ele>
        <time>2014-12-24T17:32:45.000Z</time>
      </trkpt>
      <trkpt lat="49.92836" lon="1.07483">
        <ele>8</ele>
        <time>2014-12-24T17:32:46.000Z</time>
      </trkpt>
      <trkpt lat="49.92838" lon="1.07487">
        <ele>8</ele>
        <time>2014-12-24T17:32:47.000Z</time>
      </trkpt>
      <trkpt lat="49.9284" lon="1.07492">
        <ele>8</ele>
        <time>2014-12-24T17:32:48.000Z</time>
      </trkpt>
      <trkpt lat="49.92841" lon="1.07496">
        <ele>8</ele>
        <time>2014-12-24T17:32:49.000Z</time>
      </trkpt>
      <trkpt lat="49.92843" lon="1.075">
        <ele>8</ele>
        <time>2014-12-24T17:32:50.000Z</time>
      </trkpt>
      <trkpt lat="49.92845" lon="1.07505">
        <ele>8.1</ele>
        <time>2014-12-24T17:32:51.000Z</time>
      </trkpt>
      <trkpt lat="49.92847" lon="1.07509">
        <ele>8.2</ele>
        <time>2014-12-24T17:32:52.000Z</time>
      </trkpt>
      <trkpt lat="49.92849" lon="1.07513">
        <ele>8.2</ele>
        <time>2014-12-24T17:32:53.000Z</time>
      </trkpt>
      <trkpt lat="49.9285" lon="1.07517">
        <ele>8.2</ele>
        <time>2014-12-24T17:32:54.000Z</time>
      </trkpt>
      <trkpt lat="49.92852" lon="1.07521">
        <ele>8.2</ele>
        <time>2014-12-24T17:32:55.000Z</time>
      </trkpt>
      <trkpt lat="49.92854" lon="1.07526">
        <ele>8.2</ele>
        <time>2014-12-24T17:32:56.000Z</time>
      </trkpt>
      <trkpt lat="49.92856" lon="1.0753">
        <ele>8.2</ele>
        <time>2014-12-24T17:32:57.000Z</time>
      </trkpt>
      <trkpt lat="49.92858" lon="1.07535">
        <ele>8.1</ele>
        <time>2014-12-24T17:32:58.000Z</time>
      </trkpt>
      <trkpt lat="49.9286" lon="1.07539">
        <ele>8.1</ele>
        <time>2014-12-24T17:32:59.000Z</time>
      </trkpt>
      <trkpt lat="49.92861" lon="1.07543">
        <ele>8</ele>
        <time>2014-12-24T17:33:00.000Z</time>
      </trkpt>
      <trkpt lat="49.92863" lon="1.07547">
        <ele>8</ele>
        <time>2014-12-24T17:33:01.000Z</time>
      </trkpt>
      <trkpt lat="49.92865" lon="1.07552">
        <ele>8</ele>
        <time>2014-12-24T17:33:02.000Z</time>
      </trkpt>
      <trkpt lat="49.92867" lon="1.07556">
        <ele>8</ele>
        <time>2014-12-24T17:33:03.000Z</time>
      </trkpt>
      <trkpt lat="49.92869" lon="1.0756">
        <ele>8</ele>
        <time>2014-12-24T17:33:04.000Z</time>
      </trkpt>
      <trkpt lat="49.92871" lon="1.07564">
        <ele>8</ele>
        <time>2014-12-24T17:33:05.000Z</time>
      </trkpt>
      <trkpt lat="49.92873" lon="1.07568">
        <ele>8</ele>
        <time>2014-12-24T17:33:06.000Z</time>
      </trkpt>
      <trkpt lat="49.92875" lon="1.07573">
        <ele>8</ele>
        <time>2014-12-24T17:33:07.000Z</time>
      </trkpt>
      <trkpt lat="49.92878" lon="1.07577">
        <ele>8</ele>
        <time>2014-12-24T17:33:08.000Z</time>
      </trkpt>
      <trkpt lat="49.9288" lon="1.07581">
        <ele>8</ele>
        <time>2014-12-24T17:33:09.000Z</time>
      </trkpt>
      <trkpt lat="49.92882" lon="1.07585">
        <ele>8</ele>
        <time>2014-12-24T17:33:10.000Z</time>
      </trkpt>
      <trkpt lat="49.92884" lon="1.07589">
        <ele>8</ele>
        <time>2014-12-24T17:33:11.000Z</time>
      </trkpt>
      <trkpt lat="49.92886" lon="1.07593">
        <ele>8</ele>
        <time>2014-12-24T17:33:12.000Z</time>
      </trkpt>
      <trkpt lat="49.92888" lon="1.07597">
        <ele>8</ele>
        <time>2014-12-24T17:33:13.000Z</time>
      </trkpt>
      <trkpt lat="49.9289" lon="1.07601">
        <ele>8</ele>
        <time>2014-12-24T17:33:14.000Z</time>
      </trkpt>
      <trkpt lat="49.92892" lon="1.07606">
        <ele>8</ele>
        <time>2014-12-24T17:33:15.000Z</time>
      </trkpt>
      <trkpt lat="49.92894" lon="1.0761">
        <ele>8</ele>
        <time>2014-12-24T17:33:16.000Z</time>
      </trkpt>
      <trkpt lat="49.92896" lon="1.07614">
        <ele>8</ele>
        <time>2014-12-24T17:33:17.000Z</time>
      </trkpt>
      <trkpt lat="49.92898" lon="1.07618">
        <ele>8</ele>
        <time>2014-12-24T17:33:18.000Z</time>
      </trkpt>
      <trkpt lat="49.92899" lon="1.07622">
        <ele>8</ele>
        <time>2014-12-24T17:33:19.000Z</time>
      </trkpt>
      <trkpt lat="49.92901" lon="1.07627">
        <ele>8</ele>
        <time>2014-12-24T17:33:20.000Z</time>
      </trkpt>
      <trkpt lat="49.92902" lon="1.07631">
        <ele>8</ele>
        <time>2014-12-24T17:33:21.000Z</time>
      </trkpt>
      <trkpt lat="49.92904" lon="1.07635">
        <ele>8</ele>
        <time>2014-12-24T17:33:22.000Z</time>
      </trkpt>
      <trkpt lat="49.92906" lon="1.07639">
        <ele>8</ele>
        <time>2014-12-24T17:33:23.000Z</time>
      </trkpt>
      <trkpt lat="49.92908" lon="1.07643">
        <ele>8</ele>
        <time>2014-12-24T17:33:24.000Z</time>
      </trkpt>
      <trkpt lat="49.9291" lon="1.07647">
        <ele>8</ele>
        <time>2014-12-24T17:33:25.000Z</time>
      </trkpt>
      <trkpt lat="49.92912" lon="1.07651">
        <ele>8</ele>
        <time>2014-12-24T17:33:26.000Z</time>
      </trkpt>
      <trkpt lat="49.92914" lon="1.07655">
        <ele>8</ele>
        <time>2014-12-24T17:33:27.000Z</time>
      </trkpt>
      <trkpt lat="49.92916" lon="1.07659">
        <ele>8</ele>
        <time>2014-12-24T17:33:28.000Z</time>
      </trkpt>
      <trkpt lat="49.92918" lon="1.07662">
        <ele>8</ele>
        <time>2014-12-24T17:33:29.000Z</time>
      </trkpt>
      <trkpt lat="49.9292" lon="1.07666">
        <ele>8</ele>
        <time>2014-12-24T17:33:30.000Z</time>
      </trkpt>
      <trkpt lat="49.92922" lon="1.07671">
        <ele>8</ele>
        <time>2014-12-24T17:33:31.000Z</time>
      </trkpt>
      <trkpt lat="49.92924" lon="1.07675">
        <ele>8</ele>
        <time>2014-12-24T17:33:32.000Z</time>
      </trkpt>
      <trkpt lat="49.92926" lon="1.07679">
        <ele>8</ele>
        <time>2014-12-24T17:33:33.000Z</time>
      </trkpt>
      <trkpt lat="49.92928" lon="1.07683">
        <ele>8</ele>
        <time>2014-12-24T17:33:34.000Z</time>
      </trkpt>
      <trkpt lat="49.9293" lon="1.07687">
        <ele>8</ele>
        <time>2014-12-24T17:33:35.000Z</time>
      </trkpt>
      <trkpt lat="49.92932" lon="1.07691">
        <ele>8</ele>
        <time>2014-12-24T17:33:36.000Z</time>
      </trkpt>
      <trkpt lat="49.92934" lon="1.07695">
        <ele>8</ele>
        <time>2014-12-24T17:33:37.000Z</time>
      </trkpt>
      <trkpt lat="49.92936" lon="1.07699">
        <ele>8.1</ele>
        <time>2014-12-24T17:33:38.000Z</time>
      </trkpt>
      <trkpt lat="49.92938" lon="1.07703">
        <ele>8.1</ele>
        <time>2014-12-24T17:33:39.000Z</time>
      </trkpt>
      <trkpt lat="49.9294" lon="1.07707">
        <ele>8.1</ele>
        <time>2014-12-24T17:33:40.000Z</time>
      </trkpt>
      <trkpt lat="49.92942" lon="1.07711">
        <ele>8.1</ele>
        <time>2014-12-24T17:33:41.000Z</time>
      </trkpt>
      <trkpt lat="49.92944" lon="1.07715">
        <ele>8</ele>
        <time>2014-12-24T17:33:42.000Z</time>
      </trkpt>
      <trkpt lat="49.92945" lon="1.07719">
        <ele>8</ele>
        <time>2014-12-24T17:33:43.000Z</time>
      </trkpt>
      <trkpt lat="49.92947" lon="1.07723">
        <ele>8</ele>
        <time>2014-12-24T17:33:44.000Z</time>
      </trkpt>
      <trkpt lat="49.92948" lon="1.07728">
        <ele>8</ele>
        <time>2014-12-24T17:33:45.000Z</time>
      </trkpt>
      <trkpt lat="49.9295" lon="1.07732">
        <ele>8</ele>
        <time>2014-12-24T17:33:46.000Z</time>
      </trkpt>
      <trkpt lat="49.92951" lon="1.07736">
        <ele>8</ele>
        <time>2014-12-24T17:33:47.000Z</time>
      </trkpt>
      <trkpt lat="49.92953" lon="1.0774">
        <ele>8</ele>
        <time>2014-12-24T17:33:48.000Z</time>
      </trkpt>
      <trkpt lat="49.92955" lon="1.07745">
        <ele>8</ele>
        <time>2014-12-24T17:33:49.000Z</time>
      </trkpt>
      <trkpt lat="49.92956" lon="1.07749">
        <ele>8</ele>
        <time>2014-12-24T17:33:50.000Z</time>
      </trkpt>
      <trkpt lat="49.92958" lon="1.07753">
        <ele>8.1</ele>
        <time>2014-12-24T17:33:51.000Z</time>
      </trkpt>
      <trkpt lat="49.92959" lon="1.07757">
        <ele>8.1</ele>
        <time>2014-12-24T17:33:52.000Z</time>
      </trkpt>
      <trkpt lat="49.92961" lon="1.07761">
        <ele>8.2</ele>
        <time>2014-12-24T17:33:53.000Z</time>
      </trkpt>
      <trkpt lat="49.92963" lon="1.07766">
        <ele>8.2</ele>
        <time>2014-12-24T17:33:54.000Z</time>
      </trkpt>
      <trkpt lat="49.92964" lon="1.0777">
        <ele>8.2</ele>
        <time>2014-12-24T17:33:55.000Z</time>
      </trkpt>
      <trkpt lat="49.92966" lon="1.07774">
        <ele>8.2</ele>
        <time>2014-12-24T17:33:56.000Z</time>
      </trkpt>
      <trkpt lat="49.92968" lon="1.07778">
        <ele>8.1</ele>
        <time>2014-12-24T17:33:57.000Z</time>
      </trkpt>
      <trkpt lat="49.9297" lon="1.07782">
        <ele>8.1</ele>
        <time>2014-12-24T17:33:58.000Z</time>
      </trkpt>
      <trkpt lat="49.92972" lon="1.07786">
        <ele>8</ele>
        <time>2014-12-24T17:33:59.000Z</time>
      </trkpt>
      <trkpt lat="49.92974" lon="1.0779">
        <ele>8</ele>
        <time>2014-12-24T17:34:00.000Z</time>
      </trkpt>
      <trkpt lat="49.92977" lon="1.07794">
        <ele>8</ele>
        <time>2014-12-24T17:34:01.000Z</time>
      </trkpt>
      <trkpt lat="49.92979" lon="1.07798">
        <ele>8</ele>
        <time>2014-12-24T17:34:02.000Z</time>
      </trkpt>
      <trkpt lat="49.92981" lon="1.07802">
        <ele>8</ele>
        <time>2014-12-24T17:34:03.000Z</time>
      </trkpt>
      <trkpt lat="49.92982" lon="1.07806">
        <ele>8</ele>
        <time>2014-12-24T17:34:04.000Z</time>
      </trkpt>
      <trkpt lat="49.92984" lon="1.07811">
        <ele>8.1</ele>
        <time>2014-12-24T17:34:05.000Z</time>
      </trkpt>
      <trkpt lat="49.92986" lon="1.07815">
        <ele>8.2</ele>
        <time>2014-12-24T17:34:06.000Z</time>
      </trkpt>
      <trkpt lat="49.92988" lon="1.07819">
        <ele>8.2</ele>
        <time>2014-12-24T17:34:07.000Z</time>
      </trkpt>
      <trkpt lat="49.9299" lon="1.07823">
        <ele>8.2</ele>
        <time>2014-12-24T17:34:08.000Z</time>
      </trkpt>
      <trkpt lat="49.92992" lon="1.07826">
        <ele>8.2</ele>
        <time>2014-12-24T17:34:09.000Z</time>
      </trkpt>
      <trkpt lat="49.92994" lon="1.0783">
        <ele>8.2</ele>
        <time>2014-12-24T17:34:10.000Z</time>
      </trkpt>
      <trkpt lat="49.92996" lon="1.07834">
        <ele>8.1</ele>
        <time>2014-12-24T17:34:11.000Z</time>
      </trkpt>
      <trkpt lat="49.92998" lon="1.07838">
        <ele>8.1</ele>
        <time>2014-12-24T17:34:12.000Z</time>
      </trkpt>
      <trkpt lat="49.93" lon="1.07842">
        <ele>8</ele>
        <time>2014-12-24T17:34:13.000Z</time>
      </trkpt>
      <trkpt lat="49.93002" lon="1.07846">
        <ele>8</ele>
        <time>2014-12-24T17:34:14.000Z</time>
      </trkpt>
      <trkpt lat="49.93005" lon="1.07849">
        <ele>8</ele>
        <time>2014-12-24T17:34:15.000Z</time>
      </trkpt>
      <trkpt lat="49.93007" lon="1.07853">
        <ele>8</ele>
        <time>2014-12-24T17:34:16.000Z</time>
      </trkpt>
      <trkpt lat="49.93009" lon="1.07857">
        <ele>8</ele>
        <time>2014-12-24T17:34:17.000Z</time>
      </trkpt>
      <trkpt lat="49.93011" lon="1.07861">
        <ele>8</ele>
        <time>2014-12-24T17:34:18.000Z</time>
      </trkpt>
      <trkpt lat="49.93013" lon="1.07865">
        <ele>8.1</ele>
        <time>2014-12-24T17:34:19.000Z</time>
      </trkpt>
      <trkpt lat="49.93015" lon="1.07869">
        <ele>8.1</ele>
        <time>2014-12-24T17:34:20.000Z</time>
      </trkpt>
      <trkpt lat="49.93017" lon="1.07873">
        <ele>8.2</ele>
        <time>2014-12-24T17:34:21.000Z</time>
      </trkpt>
      <trkpt lat="49.93019" lon="1.07877">
        <ele>8.2</ele>
        <time>2014-12-24T17:34:22.000Z</time>
      </trkpt>
      <trkpt lat="49.9302" lon="1.07881">
        <ele>8.2</ele>
        <time>2014-12-24T17:34:23.000Z</time>
      </trkpt>
      <trkpt lat="49.93022" lon="1.07885">
        <ele>8.2</ele>
        <time>2014-12-24T17:34:24.000Z</time>
      </trkpt>
      <trkpt lat="49.93024" lon="1.07889">
        <ele>8.1</ele>
        <time>2014-12-24T17:34:25.000Z</time>
      </trkpt>
      <trkpt lat="49.93026" lon="1.07892">
        <ele>8.1</ele>
        <time>2014-12-24T17:34:26.000Z</time>
      </trkpt>
      <trkpt lat="49.93028" lon="1.07896">
        <ele>8</ele>
        <time>2014-12-24T17:34:27.000Z</time>
      </trkpt>
      <trkpt lat="49.9303" lon="1.079">
        <ele>8</ele>
        <time>2014-12-24T17:34:28.000Z</time>
      </trkpt>
      <trkpt lat="49.93032" lon="1.07904">
        <ele>8</ele>
        <time>2014-12-24T17:34:29.000Z</time>
      </trkpt>
      <trkpt lat="49.93034" lon="1.07908">
        <ele>8</ele>
        <time>2014-12-24T17:34:30.000Z</time>
      </trkpt>
      <trkpt lat="49.93036" lon="1.07911">
        <ele>8</ele>
        <time>2014-12-24T17:34:31.000Z</time>
      </trkpt>
      <trkpt lat="49.93038" lon="1.07915">
        <ele>8</ele>
        <time>2014-12-24T17:34:32.000Z</time>
      </trkpt>
      <trkpt lat="49.9304" lon="1.07919">
        <ele>8</ele>
        <time>2014-12-24T17:34:33.000Z</time>
      </trkpt>
      <trkpt lat="49.93042" lon="1.07923">
        <ele>8.1</ele>
        <time>2014-12-24T17:34:34.000Z</time>
      </trkpt>
      <trkpt lat="49.93044" lon="1.07927">
        <ele>8.1</ele>
        <time>2014-12-24T17:34:35.000Z</time>
      </trkpt>
      <trkpt lat="49.93046" lon="1.07931">
        <ele>8.2</ele>
        <time>2014-12-24T17:34:36.000Z</time>
      </trkpt>
      <trkpt lat="49.93048" lon="1.07935">
        <ele>8.2</ele>
        <time>2014-12-24T17:34:37.000Z</time>
      </trkpt>
      <trkpt lat="49.9305" lon="1.07939">
        <ele>8.2</ele>
        <time>2014-12-24T17:34:38.000Z</time>
      </trkpt>
      <trkpt lat="49.93052" lon="1.07942">
        <ele>8.1</ele>
        <time>2014-12-24T17:34:39.000Z</time>
      </trkpt>
      <trkpt lat="49.93054" lon="1.07946">
        <ele>8</ele>
        <time>2014-12-24T17:34:40.000Z</time>
      </trkpt>
      <trkpt lat="49.93057" lon="1.0795">
        <ele>8</ele>
        <time>2014-12-24T17:34:41.000Z</time>
      </trkpt>
      <trkpt lat="49.93059" lon="1.07954">
        <ele>8</ele>
        <time>2014-12-24T17:34:42.000Z</time>
      </trkpt>
      <trkpt lat="49.93062" lon="1.07957">
        <ele>8</ele>
        <time>2014-12-24T17:34:43.000Z</time>
      </trkpt>
      <trkpt lat="49.93064" lon="1.07961">
        <ele>8</ele>
        <time>2014-12-24T17:34:44.000Z</time>
      </trkpt>
      <trkpt lat="49.93067" lon="1.07965">
        <ele>8</ele>
        <time>2014-12-24T17:34:45.000Z</time>
      </trkpt>
      <trkpt lat="49.93069" lon="1.07969">
        <ele>8</ele>
        <time>2014-12-24T17:34:46.000Z</time>
      </trkpt>
      <trkpt lat="49.9307" lon="1.07973">
        <ele>8</ele>
        <time>2014-12-24T17:34:47.000Z</time>
      </trkpt>
      <trkpt lat="49.93072" lon="1.07977">
        <ele>8.1</ele>
        <time>2014-12-24T17:34:48.000Z</time>
      </trkpt>
      <trkpt lat="49.93074" lon="1.07981">
        <ele>8.1</ele>
        <time>2014-12-24T17:34:49.000Z</time>
      </trkpt>
      <trkpt lat="49.93076" lon="1.07984">
        <ele>8.1</ele>
        <time>2014-12-24T17:34:50.000Z</time>
      </trkpt>
      <trkpt lat="49.93078" lon="1.07988">
        <ele>8.1</ele>
        <time>2014-12-24T17:34:51.000Z</time>
      </trkpt>
      <trkpt lat="49.9308" lon="1.07992">
        <ele>8.1</ele>
        <time>2014-12-24T17:34:52.000Z</time>
      </trkpt>
      <trkpt lat="49.93083" lon="1.07996">
        <ele>8</ele>
        <time>2014-12-24T17:34:53.000Z</time>
      </trkpt>
      <trkpt lat="49.93085" lon="1.07999">
        <ele>8</ele>
        <time>2014-12-24T17:34:54.000Z</time>
      </trkpt>
      <trkpt lat="49.93087" lon="1.08003">
        <ele>8</ele>
        <time>2014-12-24T17:34:55.000Z</time>
      </trkpt>
      <trkpt lat="49.93088" lon="1.08007">
        <ele>8</ele>
        <time>2014-12-24T17:34:56.000Z</time>
      </trkpt>
      <trkpt lat="49.9309" lon="1.08011">
        <ele>8</ele>
        <time>2014-12-24T17:34:57.000Z</time>
      </trkpt>
      <trkpt lat="49.93092" lon="1.08015">
        <ele>8</ele>
        <time>2014-12-24T17:34:58.000Z</time>
      </trkpt>
      <trkpt lat="49.93095" lon="1.08018">
        <ele>8</ele>
        <time>2014-12-24T17:34:59.000Z</time>
      </trkpt>
      <trkpt lat="49.93097" lon="1.08022">
        <ele>8</ele>
        <time>2014-12-24T17:35:00.000Z</time>
      </trkpt>
      <trkpt lat="49.93099" lon="1.08026">
        <ele>8</ele>
        <time>2014-12-24T17:35:01.000Z</time>
      </trkpt>
      <trkpt lat="49.93101" lon="1.0803">
        <ele>8</ele>
        <time>2014-12-24T17:35:02.000Z</time>
      </trkpt>
      <trkpt lat="49.93104" lon="1.08033">
        <ele>8.1</ele>
        <time>2014-12-24T17:35:03.000Z</time>
      </trkpt>
      <trkpt lat="49.93106" lon="1.08037">
        <ele>8.1</ele>
        <time>2014-12-24T17:35:04.000Z</time>
      </trkpt>
      <trkpt lat="49.93109" lon="1.08041">
        <ele>8</ele>
        <time>2014-12-24T17:35:05.000Z</time>
      </trkpt>
      <trkpt lat="49.93112" lon="1.08044">
        <ele>8</ele>
        <time>2014-12-24T17:35:06.000Z</time>
      </trkpt>
      <trkpt lat="49.93114" lon="1.08048">
        <ele>8</ele>
        <time>2014-12-24T17:35:07.000Z</time>
      </trkpt>
      <trkpt lat="49.93116" lon="1.08052">
        <ele>8</ele>
        <time>2014-12-24T17:35:08.000Z</time>
      </trkpt>
      <trkpt lat="49.93118" lon="1.08056">
        <ele>8</ele>
        <time>2014-12-24T17:35:09.000Z</time>
      </trkpt>
      <trkpt lat="49.93121" lon="1.0806">
        <ele>8</ele>
        <time>2014-12-24T17:35:10.000Z</time>
      </trkpt>
      <trkpt lat="49.93123" lon="1.08064">
        <ele>8</ele>
        <time>2014-12-24T17:35:11.000Z</time>
      </trkpt>
      <trkpt lat="49.93125" lon="1.08067">
        <ele>8</ele>
        <time>2014-12-24T17:35:12.000Z</time>
      </trkpt>
      <trkpt lat="49.93127" lon="1.08071">
        <ele>8</ele>
        <time>2014-12-24T17:35:13.000Z</time>
      </trkpt>
      <trkpt lat="49.93129" lon="1.08075">
        <ele>8</ele>
        <time>2014-12-24T17:35:14.000Z</time>
      </trkpt>
      <trkpt lat="49.93132" lon="1.08079">
        <ele>8</ele>
        <time>2014-12-24T17:35:15.000Z</time>
      </trkpt>
      <trkpt lat="49.93134" lon="1.08083">
        <ele>8</ele>
        <time>2014-12-24T17:35:16.000Z</time>
      </trkpt>
      <trkpt lat="49.93137" lon="1.08086">
        <ele>8</ele>
        <time>2014-12-24T17:35:17.000Z</time>
      </trkpt>
      <trkpt lat="49.93139" lon="1.0809">
        <ele>8</ele>
        <time>2014-12-24T17:35:18.000Z</time>
      </trkpt>
      <trkpt lat="49.93141" lon="1.08094">
        <ele>8</ele>
        <time>2014-12-24T17:35:19.000Z</time>
      </trkpt>
      <trkpt lat="49.93144" lon="1.08098">
        <ele>8</ele>
        <time>2014-12-24T17:35:20.000Z</time>
      </trkpt>
      <trkpt lat="49.93146" lon="1.08102">
        <ele>8</ele>
        <time>2014-12-24T17:35:21.000Z</time>
      </trkpt>
      <trkpt lat="49.93149" lon="1.08105">
        <ele>8</ele>
        <time>2014-12-24T17:35:22.000Z</time>
      </trkpt>
      <trkpt lat="49.93151" lon="1.08109">
        <ele>8</ele>
        <time>2014-12-24T17:35:23.000Z</time>
      </trkpt>
      <trkpt lat="49.93154" lon="1.08112">
        <ele>8</ele>
        <time>2014-12-24T17:35:24.000Z</time>
      </trkpt>
      <trkpt lat="49.93157" lon="1.08116">
        <ele>8</ele>
        <time>2014-12-24T17:35:25.000Z</time>
      </trkpt>
      <trkpt lat="49.9316" lon="1.08119">
        <ele>8</ele>
        <time>2014-12-24T17:35:26.000Z</time>
      </trkpt>
      <trkpt lat="49.93162" lon="1.08123">
        <ele>8</ele>
        <time>2014-12-24T17:35:27.000Z</time>
      </trkpt>
      <trkpt lat="49.93165" lon="1.08127">
        <ele>8</ele>
        <time>2014-12-24T17:35:28.000Z</time>
      </trkpt>
      <trkpt lat="49.93167" lon="1.08131">
        <ele>8</ele>
        <time>2014-12-24T17:35:29.000Z</time>
      </trkpt>
      <trkpt lat="49.9317" lon="1.08134">
        <ele>8</ele>
        <time>2014-12-24T17:35:30.000Z</time>
      </trkpt>
      <trkpt lat="49.93172" lon="1.08138">
        <ele>8</ele>
        <time>2014-12-24T17:35:31.000Z</time>
      </trkpt>
      <trkpt lat="49.93174" lon="1.08142">
        <ele>8</ele>
        <time>2014-12-24T17:35:32.000Z</time>
      </trkpt>
      <trkpt lat="49.93176" lon="1.08146">
        <ele>8</ele>
        <time>2014-12-24T17:35:33.000Z</time>
      </trkpt>
      <trkpt lat="49.93179" lon="1.0815">
        <ele>8</ele>
        <time>2014-12-24T17:35:34.000Z</time>
      </trkpt>
      <trkpt lat="49.93181" lon="1.08154">
        <ele>8</ele>
        <time>2014-12-24T17:35:35.000Z</time>
      </trkpt>
      <trkpt lat="49.93184" lon="1.08158">
        <ele>8</ele>
        <time>2014-12-24T17:35:36.000Z</time>
      </trkpt>
      <trkpt lat="49.93186" lon="1.08162">
        <ele>8</ele>
        <time>2014-12-24T17:35:37.000Z</time>
      </trkpt>
      <trkpt lat="49.93188" lon="1.08165">
        <ele>8</ele>
        <time>2014-12-24T17:35:38.000Z</time>
      </trkpt>
      <trkpt lat="49.9319" lon="1.08169">
        <ele>8</ele>
        <time>2014-12-24T17:35:39.000Z</time>
      </trkpt>
      <trkpt lat="49.93192" lon="1.08173">
        <ele>8</ele>
        <time>2014-12-24T17:35:40.000Z</time>
      </trkpt>
      <trkpt lat="49.93195" lon="1.08176">
        <ele>8</ele>
        <time>2014-12-24T17:35:41.000Z</time>
      </trkpt>
      <trkpt lat="49.93197" lon="1.0818">
        <ele>8</ele>
        <time>2014-12-24T17:35:42.000Z</time>
      </trkpt>
      <trkpt lat="49.93199" lon="1.08184">
        <ele>8</ele>
        <time>2014-12-24T17:35:43.000Z</time>
      </trkpt>
      <trkpt lat="49.93202" lon="1.08188">
        <ele>8</ele>
        <time>2014-12-24T17:35:44.000Z</time>
      </trkpt>
      <trkpt lat="49.93204" lon="1.08192">
        <ele>8</ele>
        <time>2014-12-24T17:35:45.000Z</time>
      </trkpt>
      <trkpt lat="49.93206" lon="1.08196">
        <ele>8</ele>
        <time>2014-12-24T17:35:46.000Z</time>
      </trkpt>
      <trkpt lat="49.93209" lon="1.08199">
        <ele>8</ele>
        <time>2014-12-24T17:35:47.000Z</time>
      </trkpt>
      <trkpt lat="49.93211" lon="1.08203">
        <ele>8</ele>
        <time>2014-12-24T17:35:48.000Z</time>
      </trkpt>
      <trkpt lat="49.93214" lon="1.08207">
        <ele>8</ele>
        <time>2014-12-24T17:35:49.000Z</time>
      </trkpt>
      <trkpt lat="49.93217" lon="1.08211">
        <ele>8</ele>
        <time>2014-12-24T17:35:50.000Z</time>
      </trkpt>
      <trkpt lat="49.93219" lon="1.08214">
        <ele>8</ele>
        <time>2014-12-24T17:35:51.000Z</time>
      </trkpt>
      <trkpt lat="49.93222" lon="1.08218">
        <ele>8</ele>
        <time>2014-12-24T17:35:52.000Z</time>
      </trkpt>
      <trkpt lat="49.93224" lon="1.08221">
        <ele>8</ele>
        <time>2014-12-24T17:35:53.000Z</time>
      </trkpt>
      <trkpt lat="49.93227" lon="1.08225">
        <ele>8</ele>
        <time>2014-12-24T17:35:54.000Z</time>
      </trkpt>
      <trkpt lat="49.93229" lon="1.08229">
        <ele>8</ele>
        <time>2014-12-24T17:35:55.000Z</time>
      </trkpt>
      <trkpt lat="49.93232" lon="1.08233">
        <ele>8</ele>
        <time>2014-12-24T17:35:56.000Z</time>
      </trkpt>
      <trkpt lat="49.93234" lon="1.08236">
        <ele>8</ele>
        <time>2014-12-24T17:35:57.000Z</time>
      </trkpt>
      <trkpt lat="49.93236" lon="1.0824">
        <ele>8</ele>
        <time>2014-12-24T17:35:58.000Z</time>
      </trkpt>
      <trkpt lat="49.93238" lon="1.08244">
        <ele>8</ele>
        <time>2014-12-24T17:35:59.000Z</time>
      </trkpt>
      <trkpt lat="49.93241" lon="1.08248">
        <ele>8</ele>
        <time>2014-12-24T17:36:00.000Z</time>
      </trkpt>
      <trkpt lat="49.93243" lon="1.08252">
        <ele>8</ele>
        <time>2014-12-24T17:36:01.000Z</time>
      </trkpt>
      <trkpt lat="49.93245" lon="1.08255">
        <ele>8</ele>
        <time>2014-12-24T17:36:02.000Z</time>
      </trkpt>
      <trkpt lat="49.93247" lon="1.08259">
        <ele>8</ele>
        <time>2014-12-24T17:36:03.000Z</time>
      </trkpt>
      <trkpt lat="49.93249" lon="1.08263">
        <ele>8</ele>
        <time>2014-12-24T17:36:04.000Z</time>
      </trkpt>
      <trkpt lat="49.93252" lon="1.08267">
        <ele>8</ele>
        <time>2014-12-24T17:36:05.000Z</time>
      </trkpt>
      <trkpt lat="49.93254" lon="1.08271">
        <ele>8.1</ele>
        <time>2014-12-24T17:36:06.000Z</time>
      </trkpt>
      <trkpt lat="49.93256" lon="1.08274">
        <ele>8.2</ele>
        <time>2014-12-24T17:36:07.000Z</time>
      </trkpt>
      <trkpt lat="49.93259" lon="1.08278">
        <ele>8.3</ele>
        <time>2014-12-24T17:36:08.000Z</time>
      </trkpt>
      <trkpt lat="49.93261" lon="1.08282">
        <ele>8.5</ele>
        <time>2014-12-24T17:36:09.000Z</time>
      </trkpt>
      <trkpt lat="49.93263" lon="1.08285">
        <ele>8.6</ele>
        <time>2014-12-24T17:36:10.000Z</time>
      </trkpt>
      <trkpt lat="49.93266" lon="1.08289">
        <ele>8.7</ele>
        <time>2014-12-24T17:36:11.000Z</time>
      </trkpt>
      <trkpt lat="49.93268" lon="1.08293">
        <ele>8.8</ele>
        <time>2014-12-24T17:36:12.000Z</time>
      </trkpt>
      <trkpt lat="49.93271" lon="1.08296">
        <ele>8.9</ele>
        <time>2014-12-24T17:36:13.000Z</time>
      </trkpt>
      <trkpt lat="49.93274" lon="1.083">
        <ele>9</ele>
        <time>2014-12-24T17:36:14.000Z</time>
      </trkpt>
      <trkpt lat="49.93276" lon="1.08304">
        <ele>9</ele>
        <time>2014-12-24T17:36:15.000Z</time>
      </trkpt>
      <trkpt lat="49.93278" lon="1.08307">
        <ele>9</ele>
        <time>2014-12-24T17:36:16.000Z</time>
      </trkpt>
      <trkpt lat="49.93281" lon="1.08311">
        <ele>8.9</ele>
        <time>2014-12-24T17:36:17.000Z</time>
      </trkpt>
      <trkpt lat="49.93283" lon="1.08315">
        <ele>8.8</ele>
        <time>2014-12-24T17:36:18.000Z</time>
      </trkpt>
      <trkpt lat="49.93285" lon="1.08318">
        <ele>8.8</ele>
        <time>2014-12-24T17:36:19.000Z</time>
      </trkpt>
      <trkpt lat="49.93287" lon="1.08322">
        <ele>8.7</ele>
        <time>2014-12-24T17:36:20.000Z</time>
      </trkpt>
      <trkpt lat="49.93289" lon="1.08325">
        <ele>8.6</ele>
        <time>2014-12-24T17:36:21.000Z</time>
      </trkpt>
      <trkpt lat="49.93291" lon="1.08329">
        <ele>8.5</ele>
        <time>2014-12-24T17:36:22.000Z</time>
      </trkpt>
      <trkpt lat="49.93294" lon="1.08332">
        <ele>8.4</ele>
        <time>2014-12-24T17:36:23.000Z</time>
      </trkpt>
      <trkpt lat="49.93296" lon="1.08335">
        <ele>8.4</ele>
        <time>2014-12-24T17:36:24.000Z</time>
      </trkpt>
      <trkpt lat="49.93298" lon="1.08338">
        <ele>8.4</ele>
        <time>2014-12-24T17:36:25.000Z</time>
      </trkpt>
      <trkpt lat="49.93301" lon="1.08341">
        <ele>8.4</ele>
        <time>2014-12-24T17:36:26.000Z</time>
      </trkpt>
      <trkpt lat="49.93303" lon="1.08343">
        <ele>8.4</ele>
        <time>2014-12-24T17:36:27.000Z</time>
      </trkpt>
      <trkpt lat="49.93306" lon="1.08346">
        <ele>8.4</ele>
        <time>2014-12-24T17:36:28.000Z</time>
      </trkpt>
      <trkpt lat="49.93308" lon="1.08349">
        <ele>8.5</ele>
        <time>2014-12-24T17:36:29.000Z</time>
      </trkpt>
      <trkpt lat="49.93311" lon="1.08351">
        <ele>8.7</ele>
        <time>2014-12-24T17:36:30.000Z</time>
      </trkpt>
      <trkpt lat="49.93314" lon="1.08354">
        <ele>8.8</ele>
        <time>2014-12-24T17:36:31.000Z</time>
      </trkpt>
      <trkpt lat="49.93316" lon="1.08357">
        <ele>8.9</ele>
        <time>2014-12-24T17:36:32.000Z</time>
      </trkpt>
      <trkpt lat="49.93319" lon="1.0836">
        <ele>9</ele>
        <time>2014-12-24T17:36:33.000Z</time>
      </trkpt>
      <trkpt lat="49.93322" lon="1.08363">
        <ele>9</ele>
        <time>2014-12-24T17:36:34.000Z</time>
      </trkpt>
      <trkpt lat="49.93324" lon="1.08366">
        <ele>9</ele>
        <time>2014-12-24T17:36:35.000Z</time>
      </trkpt>
      <trkpt lat="49.93326" lon="1.0837">
        <ele>9</ele>
        <time>2014-12-24T17:36:36.000Z</time>
      </trkpt>
      <trkpt lat="49.93328" lon="1.08373">
        <ele>9</ele>
        <time>2014-12-24T17:36:37.000Z</time>
      </trkpt>
      <trkpt lat="49.93331" lon="1.08376">
        <ele>9</ele>
        <time>2014-12-24T17:36:38.000Z</time>
      </trkpt>
      <trkpt lat="49.93333" lon="1.08379">
        <ele>9</ele>
        <time>2014-12-24T17:36:39.000Z</time>
      </trkpt>
      <trkpt lat="49.93335" lon="1.08382">
        <ele>9</ele>
        <time>2014-12-24T17:36:40.000Z</time>
      </trkpt>
      <trkpt lat="49.93329" lon="1.08394">
        <ele>8.8</ele>
        <time>2014-12-24T17:36:41.000Z</time>
      </trkpt>
      <trkpt lat="49.93328" lon="1.08395">
        <ele>8.8</ele>
        <time>2014-12-24T17:36:42.000Z</time>
      </trkpt>
      <trkpt lat="49.93327" lon="1.08397">
        <ele>8.7</ele>
        <time>2014-12-24T17:36:43.000Z</time>
      </trkpt>
      <trkpt lat="49.93325" lon="1.08399">
        <ele>8.6</ele>
        <time>2014-12-24T17:36:44.000Z</time>
      </trkpt>
      <trkpt lat="49.93323" lon="1.08401">
        <ele>8.6</ele>
        <time>2014-12-24T17:36:45.000Z</time>
      </trkpt>
      <trkpt lat="49.9332" lon="1.08404">
        <ele>8.5</ele>
        <time>2014-12-24T17:36:46.000Z</time>
      </trkpt>
      <trkpt lat="49.93318" lon="1.08406">
        <ele>8.4</ele>
        <time>2014-12-24T17:36:47.000Z</time>
      </trkpt>
      <trkpt lat="49.93315" lon="1.08409">
        <ele>8.3</ele>
        <time>2014-12-24T17:36:48.000Z</time>
      </trkpt>
      <trkpt lat="49.93312" lon="1.08412">
        <ele>8.2</ele>
        <time>2014-12-24T17:36:49.000Z</time>
      </trkpt>
      <trkpt lat="49.9331" lon="1.08415">
        <ele>8.1</ele>
        <time>2014-12-24T17:36:50.000Z</time>
      </trkpt>
      <trkpt lat="49.93307" lon="1.08418">
        <ele>8</ele>
        <time>2014-12-24T17:36:51.000Z</time>
      </trkpt>
      <trkpt lat="49.93304" lon="1.08421">
        <ele>8.2</ele>
        <time>2014-12-24T17:36:52.000Z</time>
      </trkpt>
      <trkpt lat="49.93302" lon="1.08424">
        <ele>8.4</ele>
        <time>2014-12-24T17:36:53.000Z</time>
      </trkpt>
      <trkpt lat="49.93299" lon="1.08427">
        <ele>8.5</ele>
        <time>2014-12-24T17:36:54.000Z</time>
      </trkpt>
      <trkpt lat="49.93296" lon="1.08431">
        <ele>8.7</ele>
        <time>2014-12-24T17:36:55.000Z</time>
      </trkpt>
      <trkpt lat="49.93293" lon="1.08434">
        <ele>8.8</ele>
        <time>2014-12-24T17:36:56.000Z</time>
      </trkpt>
      <trkpt lat="49.9329" lon="1.08437">
        <ele>8.9</ele>
        <time>2014-12-24T17:36:57.000Z</time>
      </trkpt>
      <trkpt lat="49.93287" lon="1.0844">
        <ele>8.9</ele>
        <time>2014-12-24T17:36:58.000Z</time>
      </trkpt>
      <trkpt lat="49.93285" lon="1.08443">
        <ele>9</ele>
        <time>2014-12-24T17:36:59.000Z</time>
      </trkpt>
      <trkpt lat="49.93282" lon="1.08445">
        <ele>9</ele>
        <time>2014-12-24T17:37:00.000Z</time>
      </trkpt>
      <trkpt lat="49.93279" lon="1.08448">
        <ele>9</ele>
        <time>2014-12-24T17:37:01.000Z</time>
      </trkpt>
      <trkpt lat="49.93276" lon="1.0845">
        <ele>7.9</ele>
        <time>2014-12-24T17:37:02.000Z</time>
      </trkpt>
      <trkpt lat="49.93273" lon="1.08453">
        <ele>7.5</ele>
        <time>2014-12-24T17:37:03.000Z</time>
      </trkpt>
      <trkpt lat="49.9327" lon="1.08455">
        <ele>7.2</ele>
        <time>2014-12-24T17:37:04.000Z</time>
      </trkpt>
      <trkpt lat="49.93267" lon="1.08457">
        <ele>6.8</ele>
        <time>2014-12-24T17:37:05.000Z</time>
      </trkpt>
      <trkpt lat="49.93264" lon="1.08459">
        <ele>6.4</ele>
        <time>2014-12-24T17:37:06.000Z</time>
      </trkpt>
      <trkpt lat="49.93261" lon="1.08461">
        <ele>6</ele>
        <time>2014-12-24T17:37:07.000Z</time>
      </trkpt>
      <trkpt lat="49.93257" lon="1.08463">
        <ele>5.6</ele>
        <time>2014-12-24T17:37:08.000Z</time>
      </trkpt>
      <trkpt lat="49.93254" lon="1.08466">
        <ele>5.2</ele>
        <time>2014-12-24T17:37:09.000Z</time>
      </trkpt>
      <trkpt lat="49.93251" lon="1.08468">
        <ele>4.8</ele>
        <time>2014-12-24T17:37:10.000Z</time>
      </trkpt>
      <trkpt lat="49.93248" lon="1.0847">
        <ele>4.8</ele>
        <time>2014-12-24T17:37:11.000Z</time>
      </trkpt>
      <trkpt lat="49.93245" lon="1.08472">
        <ele>5</ele>
        <time>2014-12-24T17:37:12.000Z</time>
      </trkpt>
      <trkpt lat="49.93242" lon="1.08474">
        <ele>5.4</ele>
        <time>2014-12-24T17:37:13.000Z</time>
      </trkpt>
      <trkpt lat="49.93239" lon="1.08476">
        <ele>5.7</ele>
        <time>2014-12-24T17:37:14.000Z</time>
      </trkpt>
      <trkpt lat="49.93236" lon="1.08478">
        <ele>6</ele>
        <time>2014-12-24T17:37:15.000Z</time>
      </trkpt>
      <trkpt lat="49.93233" lon="1.0848">
        <ele>6.2</ele>
        <time>2014-12-24T17:37:16.000Z</time>
      </trkpt>
      <trkpt lat="49.9323" lon="1.08482">
        <ele>6.4</ele>
        <time>2014-12-24T17:37:17.000Z</time>
      </trkpt>
      <trkpt lat="49.93227" lon="1.08483">
        <ele>6.5</ele>
        <time>2014-12-24T17:37:18.000Z</time>
      </trkpt>
      <trkpt lat="49.93224" lon="1.08485">
        <ele>6.5</ele>
        <time>2014-12-24T17:37:19.000Z</time>
      </trkpt>
      <trkpt lat="49.93221" lon="1.08487">
        <ele>6.4</ele>
        <time>2014-12-24T17:37:20.000Z</time>
      </trkpt>
      <trkpt lat="49.93218" lon="1.0849">
        <ele>6.3</ele>
        <time>2014-12-24T17:37:21.000Z</time>
      </trkpt>
      <trkpt lat="49.93215" lon="1.08492">
        <ele>6.2</ele>
        <time>2014-12-24T17:37:22.000Z</time>
      </trkpt>
      <trkpt lat="49.93212" lon="1.08494">
        <ele>6.3</ele>
        <time>2014-12-24T17:37:23.000Z</time>
      </trkpt>
      <trkpt lat="49.93209" lon="1.08496">
        <ele>6.4</ele>
        <time>2014-12-24T17:37:24.000Z</time>
      </trkpt>
      <trkpt lat="49.93206" lon="1.08499">
        <ele>6.5</ele>
        <time>2014-12-24T17:37:25.000Z</time>
      </trkpt>
      <trkpt lat="49.93202" lon="1.08501">
        <ele>6.86</ele>
        <time>2014-12-24T17:37:26.000Z</time>
      </trkpt>
      <trkpt lat="49.93199" lon="1.08503">
        <ele>7.31</ele>
        <time>2014-12-24T17:37:27.000Z</time>
      </trkpt>
      <trkpt lat="49.93196" lon="1.08504">
        <ele>7.76</ele>
        <time>2014-12-24T17:37:28.000Z</time>
      </trkpt>
      <trkpt lat="49.93193" lon="1.08506">
        <ele>8</ele>
        <time>2014-12-24T17:37:29.000Z</time>
      </trkpt>
      <trkpt lat="49.9319" lon="1.08507">
        <ele>8</ele>
        <time>2014-12-24T17:37:30.000Z</time>
      </trkpt>
      <trkpt lat="49.93187" lon="1.08509">
        <ele>8</ele>
        <time>2014-12-24T17:37:31.000Z</time>
      </trkpt>
      <trkpt lat="49.93184" lon="1.0851">
        <ele>8</ele>
        <time>2014-12-24T17:37:32.000Z</time>
      </trkpt>
      <trkpt lat="49.93181" lon="1.08512">
        <ele>8</ele>
        <time>2014-12-24T17:37:33.000Z</time>
      </trkpt>
      <trkpt lat="49.93178" lon="1.08513">
        <ele>8</ele>
        <time>2014-12-24T17:37:34.000Z</time>
      </trkpt>
      <trkpt lat="49.93175" lon="1.08514">
        <ele>8</ele>
        <time>2014-12-24T17:37:35.000Z</time>
      </trkpt>
      <trkpt lat="49.93172" lon="1.08515">
        <ele>8</ele>
        <time>2014-12-24T17:37:36.000Z</time>
      </trkpt>
      <trkpt lat="49.93168" lon="1.08516">
        <ele>8</ele>
        <time>2014-12-24T17:37:37.000Z</time>
      </trkpt>
      <trkpt lat="49.93165" lon="1.08516">
        <ele>8</ele>
        <time>2014-12-24T17:37:38.000Z</time>
      </trkpt>
      <trkpt lat="49.93162" lon="1.08516">
        <ele>8</ele>
        <time>2014-12-24T17:37:39.000Z</time>
      </trkpt>
      <trkpt lat="49.93158" lon="1.08516">
        <ele>8</ele>
        <time>2014-12-24T17:37:40.000Z</time>
      </trkpt>
      <trkpt lat="49.93155" lon="1.08516">
        <ele>8</ele>
        <time>2014-12-24T17:37:41.000Z</time>
      </trkpt>
      <trkpt lat="49.93152" lon="1.08517">
        <ele>8</ele>
        <time>2014-12-24T17:37:42.000Z</time>
      </trkpt>
      <trkpt lat="49.93149" lon="1.08517">
        <ele>8</ele>
        <time>2014-12-24T17:37:43.000Z</time>
      </trkpt>
      <trkpt lat="49.93146" lon="1.08517">
        <ele>8</ele>
        <time>2014-12-24T17:37:44.000Z</time>
      </trkpt>
      <trkpt lat="49.93143" lon="1.08517">
        <ele>8</ele>
        <time>2014-12-24T17:37:45.000Z</time>
      </trkpt>
      <trkpt lat="49.9314" lon="1.08518">
        <ele>8</ele>
        <time>2014-12-24T17:37:46.000Z</time>
      </trkpt>
      <trkpt lat="49.93137" lon="1.08518">
        <ele>8</ele>
        <time>2014-12-24T17:37:47.000Z</time>
      </trkpt>
      <trkpt lat="49.93134" lon="1.08518">
        <ele>8</ele>
        <time>2014-12-24T17:37:48.000Z</time>
      </trkpt>
      <trkpt lat="49.93131" lon="1.08519">
        <ele>8</ele>
        <time>2014-12-24T17:37:49.000Z</time>
      </trkpt>
      <trkpt lat="49.93128" lon="1.08519">
        <ele>8</ele>
        <time>2014-12-24T17:37:50.000Z</time>
      </trkpt>
      <trkpt lat="49.93125" lon="1.08519">
        <ele>8</ele>
        <time>2014-12-24T17:37:51.000Z</time>
      </trkpt>
      <trkpt lat="49.93122" lon="1.08519">
        <ele>8</ele>
        <time>2014-12-24T17:37:52.000Z</time>
      </trkpt>
      <trkpt lat="49.93118" lon="1.08519">
        <ele>8</ele>
        <time>2014-12-24T17:37:53.000Z</time>
      </trkpt>
      <trkpt lat="49.93115" lon="1.0852">
        <ele>8</ele>
        <time>2014-12-24T17:37:54.000Z</time>
      </trkpt>
      <trkpt lat="49.93112" lon="1.0852">
        <ele>8</ele>
        <time>2014-12-24T17:37:55.000Z</time>
      </trkpt>
      <trkpt lat="49.93109" lon="1.0852">
        <ele>8</ele>
        <time>2014-12-24T17:37:56.000Z</time>
      </trkpt>
      <trkpt lat="49.93105" lon="1.0852">
        <ele>8</ele>
        <time>2014-12-24T17:37:57.000Z</time>
      </trkpt>
      <trkpt lat="49.93102" lon="1.08519">
        <ele>8</ele>
        <time>2014-12-24T17:37:58.000Z</time>
      </trkpt>
      <trkpt lat="49.93099" lon="1.08518">
        <ele>8</ele>
        <time>2014-12-24T17:37:59.000Z</time>
      </trkpt>
      <trkpt lat="49.93095" lon="1.08518">
        <ele>8</ele>
        <time>2014-12-24T17:38:00.000Z</time>
      </trkpt>
      <trkpt lat="49.93092" lon="1.08517">
        <ele>8</ele>
        <time>2014-12-24T17:38:01.000Z</time>
      </trkpt>
      <trkpt lat="49.93088" lon="1.08517">
        <ele>8</ele>
        <time>2014-12-24T17:38:02.000Z</time>
      </trkpt>
      <trkpt lat="49.93085" lon="1.08517">
        <ele>8</ele>
        <time>2014-12-24T17:38:03.000Z</time>
      </trkpt>
      <trkpt lat="49.93081" lon="1.08516">
        <ele>7.93</ele>
        <time>2014-12-24T17:38:04.000Z</time>
      </trkpt>
      <trkpt lat="49.93078" lon="1.08516">
        <ele>7.8</ele>
        <time>2014-12-24T17:38:05.000Z</time>
      </trkpt>
      <trkpt lat="49.93075" lon="1.08516">
        <ele>7.69</ele>
        <time>2014-12-24T17:38:06.000Z</time>
      </trkpt>
      <trkpt lat="49.93072" lon="1.08515">
        <ele>7.57</ele>
        <time>2014-12-24T17:38:07.000Z</time>
      </trkpt>
      <trkpt lat="49.93068" lon="1.08515">
        <ele>7.46</ele>
        <time>2014-12-24T17:38:08.000Z</time>
      </trkpt>
      <trkpt lat="49.93065" lon="1.08515">
        <ele>7.34</ele>
        <time>2014-12-24T17:38:09.000Z</time>
      </trkpt>
      <trkpt lat="49.93061" lon="1.08515">
        <ele>7.21</ele>
        <time>2014-12-24T17:38:10.000Z</time>
      </trkpt>
      <trkpt lat="49.93058" lon="1.08515">
        <ele>7.09</ele>
        <time>2014-12-24T17:38:11.000Z</time>
      </trkpt>
      <trkpt lat="49.93054" lon="1.08514">
        <ele>7</ele>
        <time>2014-12-24T17:38:12.000Z</time>
      </trkpt>
      <trkpt lat="49.93051" lon="1.08514">
        <ele>7</ele>
        <time>2014-12-24T17:38:13.000Z</time>
      </trkpt>
      <trkpt lat="49.93048" lon="1.08514">
        <ele>7</ele>
        <time>2014-12-24T17:38:14.000Z</time>
      </trkpt>
      <trkpt lat="49.93044" lon="1.08514">
        <ele>7</ele>
        <time>2014-12-24T17:38:15.000Z</time>
      </trkpt>
      <trkpt lat="49.93041" lon="1.08514">
        <ele>7</ele>
        <time>2014-12-24T17:38:16.000Z</time>
      </trkpt>
      <trkpt lat="49.93038" lon="1.08513">
        <ele>7</ele>
        <time>2014-12-24T17:38:17.000Z</time>
      </trkpt>
      <trkpt lat="49.93034" lon="1.08512">
        <ele>7</ele>
        <time>2014-12-24T17:38:18.000Z</time>
      </trkpt>
      <trkpt lat="49.93031" lon="1.08511">
        <ele>7</ele>
        <time>2014-12-24T17:38:19.000Z</time>
      </trkpt>
      <trkpt lat="49.93028" lon="1.08511">
        <ele>7</ele>
        <time>2014-12-24T17:38:20.000Z</time>
      </trkpt>
      <trkpt lat="49.93025" lon="1.0851">
        <ele>7</ele>
        <time>2014-12-24T17:38:21.000Z</time>
      </trkpt>
      <trkpt lat="49.93021" lon="1.08509">
        <ele>7</ele>
        <time>2014-12-24T17:38:22.000Z</time>
      </trkpt>
      <trkpt lat="49.93018" lon="1.08508">
        <ele>7</ele>
        <time>2014-12-24T17:38:23.000Z</time>
      </trkpt>
      <trkpt lat="49.93015" lon="1.08506">
        <ele>7</ele>
        <time>2014-12-24T17:38:24.000Z</time>
      </trkpt>
      <trkpt lat="49.93012" lon="1.08505">
        <ele>7</ele>
        <time>2014-12-24T17:38:25.000Z</time>
      </trkpt>
      <trkpt lat="49.93009" lon="1.08503">
        <ele>7</ele>
        <time>2014-12-24T17:38:26.000Z</time>
      </trkpt>
      <trkpt lat="49.93006" lon="1.08499">
        <ele>7</ele>
        <time>2014-12-24T17:38:27.000Z</time>
      </trkpt>
      <trkpt lat="49.93005" lon="1.08496">
        <ele>7.2</ele>
        <time>2014-12-24T17:38:28.000Z</time>
      </trkpt>
      <trkpt lat="49.93003" lon="1.08492">
        <ele>7.3</ele>
        <time>2014-12-24T17:38:29.000Z</time>
      </trkpt>
      <trkpt lat="49.93002" lon="1.08488">
        <ele>7.4</ele>
        <time>2014-12-24T17:38:30.000Z</time>
      </trkpt>
      <trkpt lat="49.93" lon="1.08484">
        <ele>7.5</ele>
        <time>2014-12-24T17:38:31.000Z</time>
      </trkpt>
      <trkpt lat="49.92998" lon="1.08481">
        <ele>7.6</ele>
        <time>2014-12-24T17:38:32.000Z</time>
      </trkpt>
      <trkpt lat="49.92995" lon="1.08478">
        <ele>7.6</ele>
        <time>2014-12-24T17:38:33.000Z</time>
      </trkpt>
      <trkpt lat="49.92992" lon="1.08475">
        <ele>7.6</ele>
        <time>2014-12-24T17:38:34.000Z</time>
      </trkpt>
      <trkpt lat="49.9299" lon="1.08472">
        <ele>7.6</ele>
        <time>2014-12-24T17:38:35.000Z</time>
      </trkpt>
      <trkpt lat="49.92987" lon="1.08469">
        <ele>7.5</ele>
        <time>2014-12-24T17:38:36.000Z</time>
      </trkpt>
      <trkpt lat="49.92985" lon="1.08466">
        <ele>7.4</ele>
        <time>2014-12-24T17:38:37.000Z</time>
      </trkpt>
      <trkpt lat="49.92982" lon="1.08464">
        <ele>7.3</ele>
        <time>2014-12-24T17:38:38.000Z</time>
      </trkpt>
      <trkpt lat="49.92979" lon="1.08461">
        <ele>7.3</ele>
        <time>2014-12-24T17:38:39.000Z</time>
      </trkpt>
      <trkpt lat="49.92977" lon="1.08458">
        <ele>7.2</ele>
        <time>2014-12-24T17:38:40.000Z</time>
      </trkpt>
      <trkpt lat="49.92974" lon="1.08455">
        <ele>7.1</ele>
        <time>2014-12-24T17:38:41.000Z</time>
      </trkpt>
      <trkpt lat="49.92971" lon="1.08452">
        <ele>7</ele>
        <time>2014-12-24T17:38:42.000Z</time>
      </trkpt>
      <trkpt lat="49.92969" lon="1.08449">
        <ele>6.9</ele>
        <time>2014-12-24T17:38:43.000Z</time>
      </trkpt>
      <trkpt lat="49.92966" lon="1.08446">
        <ele>7</ele>
        <time>2014-12-24T17:38:44.000Z</time>
      </trkpt>
      <trkpt lat="49.92963" lon="1.08443">
        <ele>7</ele>
        <time>2014-12-24T17:38:45.000Z</time>
      </trkpt>
      <trkpt lat="49.92961" lon="1.0844">
        <ele>7.1</ele>
        <time>2014-12-24T17:38:46.000Z</time>
      </trkpt>
      <trkpt lat="49.92958" lon="1.08437">
        <ele>7.1</ele>
        <time>2014-12-24T17:38:47.000Z</time>
      </trkpt>
      <trkpt lat="49.92955" lon="1.08434">
        <ele>7.1</ele>
        <time>2014-12-24T17:38:48.000Z</time>
      </trkpt>
      <trkpt lat="49.92952" lon="1.08431">
        <ele>7.1</ele>
        <time>2014-12-24T17:38:49.000Z</time>
      </trkpt>
      <trkpt lat="49.92949" lon="1.08428">
        <ele>7.1</ele>
        <time>2014-12-24T17:38:50.000Z</time>
      </trkpt>
      <trkpt lat="49.92947" lon="1.08425">
        <ele>7.1</ele>
        <time>2014-12-24T17:38:51.000Z</time>
      </trkpt>
      <trkpt lat="49.92944" lon="1.08422">
        <ele>7</ele>
        <time>2014-12-24T17:38:52.000Z</time>
      </trkpt>
      <trkpt lat="49.92941" lon="1.08419">
        <ele>6.9</ele>
        <time>2014-12-24T17:38:53.000Z</time>
      </trkpt>
      <trkpt lat="49.92939" lon="1.08415">
        <ele>6.9</ele>
        <time>2014-12-24T17:38:54.000Z</time>
      </trkpt>
      <trkpt lat="49.92937" lon="1.08412">
        <ele>6.9</ele>
        <time>2014-12-24T17:38:55.000Z</time>
      </trkpt>
      <trkpt lat="49.92935" lon="1.08408">
        <ele>6.8</ele>
        <time>2014-12-24T17:38:56.000Z</time>
      </trkpt>
      <trkpt lat="49.92933" lon="1.08405">
        <ele>6.8</ele>
        <time>2014-12-24T17:38:57.000Z</time>
      </trkpt>
      <trkpt lat="49.9293" lon="1.08402">
        <ele>6.8</ele>
        <time>2014-12-24T17:38:58.000Z</time>
      </trkpt>
      <trkpt lat="49.92928" lon="1.08398">
        <ele>6.7</ele>
        <time>2014-12-24T17:38:59.000Z</time>
      </trkpt>
      <trkpt lat="49.92926" lon="1.08395">
        <ele>6.6</ele>
        <time>2014-12-24T17:39:00.000Z</time>
      </trkpt>
      <trkpt lat="49.92924" lon="1.08391">
        <ele>6.5</ele>
        <time>2014-12-24T17:39:01.000Z</time>
      </trkpt>
      <trkpt lat="49.92922" lon="1.08387">
        <ele>6.3</ele>
        <time>2014-12-24T17:39:02.000Z</time>
      </trkpt>
      <trkpt lat="49.9292" lon="1.08383">
        <ele>6.2</ele>
        <time>2014-12-24T17:39:03.000Z</time>
      </trkpt>
      <trkpt lat="49.92918" lon="1.08379">
        <ele>6.1</ele>
        <time>2014-12-24T17:39:04.000Z</time>
      </trkpt>
      <trkpt lat="49.92916" lon="1.08375">
        <ele>6</ele>
        <time>2014-12-24T17:39:05.000Z</time>
      </trkpt>
      <trkpt lat="49.92915" lon="1.0837">
        <ele>6</ele>
        <time>2014-12-24T17:39:06.000Z</time>
      </trkpt>
      <trkpt lat="49.92914" lon="1.08366">
        <ele>6</ele>
        <time>2014-12-24T17:39:07.000Z</time>
      </trkpt>
      <trkpt lat="49.92912" lon="1.08361">
        <ele>6</ele>
        <time>2014-12-24T17:39:08.000Z</time>
      </trkpt>
      <trkpt lat="49.9291" lon="1.08357">
        <ele>6</ele>
        <time>2014-12-24T17:39:09.000Z</time>
      </trkpt>
      <trkpt lat="49.92909" lon="1.08353">
        <ele>5.9</ele>
        <time>2014-12-24T17:39:10.000Z</time>
      </trkpt>
      <trkpt lat="49.92908" lon="1.08348">
        <ele>5.7</ele>
        <time>2014-12-24T17:39:11.000Z</time>
      </trkpt>
      <trkpt lat="49.92906" lon="1.08344">
        <ele>5.4</ele>
        <time>2014-12-24T17:39:12.000Z</time>
      </trkpt>
      <trkpt lat="49.92905" lon="1.08339">
        <ele>5.1</ele>
        <time>2014-12-24T17:39:13.000Z</time>
      </trkpt>
      <trkpt lat="49.92903" lon="1.08335">
        <ele>4.7</ele>
        <time>2014-12-24T17:39:14.000Z</time>
      </trkpt>
      <trkpt lat="49.92902" lon="1.0833">
        <ele>4.6</ele>
        <time>2014-12-24T17:39:15.000Z</time>
      </trkpt>
      <trkpt lat="49.92901" lon="1.08326">
        <ele>4.8</ele>
        <time>2014-12-24T17:39:16.000Z</time>
      </trkpt>
      <trkpt lat="49.92899" lon="1.08321">
        <ele>5</ele>
        <time>2014-12-24T17:39:17.000Z</time>
      </trkpt>
      <trkpt lat="49.92898" lon="1.08317">
        <ele>5.2</ele>
        <time>2014-12-24T17:39:18.000Z</time>
      </trkpt>
      <trkpt lat="49.92896" lon="1.08312">
        <ele>5.6</ele>
        <time>2014-12-24T17:39:19.000Z</time>
      </trkpt>
      <trkpt lat="49.92894" lon="1.08308">
        <ele>6</ele>
        <time>2014-12-24T17:39:20.000Z</time>
      </trkpt>
      <trkpt lat="49.92893" lon="1.08303">
        <ele>6.1</ele>
        <time>2014-12-24T17:39:21.000Z</time>
      </trkpt>
      <trkpt lat="49.92891" lon="1.08298">
        <ele>6.1</ele>
        <time>2014-12-24T17:39:22.000Z</time>
      </trkpt>
      <trkpt lat="49.9289" lon="1.08294">
        <ele>6</ele>
        <time>2014-12-24T17:39:23.000Z</time>
      </trkpt>
      <trkpt lat="49.92888" lon="1.08289">
        <ele>6</ele>
        <time>2014-12-24T17:39:24.000Z</time>
      </trkpt>
      <trkpt lat="49.92887" lon="1.08285">
        <ele>5.8</ele>
        <time>2014-12-24T17:39:25.000Z</time>
      </trkpt>
      <trkpt lat="49.92885" lon="1.08281">
        <ele>5.5</ele>
        <time>2014-12-24T17:39:26.000Z</time>
      </trkpt>
      <trkpt lat="49.92884" lon="1.08276">
        <ele>5.4</ele>
        <time>2014-12-24T17:39:27.000Z</time>
      </trkpt>
      <trkpt lat="49.92883" lon="1.08271">
        <ele>5.4</ele>
        <time>2014-12-24T17:39:28.000Z</time>
      </trkpt>
      <trkpt lat="49.92881" lon="1.08267">
        <ele>5.5</ele>
        <time>2014-12-24T17:39:29.000Z</time>
      </trkpt>
      <trkpt lat="49.9288" lon="1.08262">
        <ele>5.6</ele>
        <time>2014-12-24T17:39:30.000Z</time>
      </trkpt>
      <trkpt lat="49.92878" lon="1.08257">
        <ele>5.9</ele>
        <time>2014-12-24T17:39:31.000Z</time>
      </trkpt>
      <trkpt lat="49.92877" lon="1.08253">
        <ele>6.2</ele>
        <time>2014-12-24T17:39:32.000Z</time>
      </trkpt>
      <trkpt lat="49.92875" lon="1.08249">
        <ele>6.5</ele>
        <time>2014-12-24T17:39:33.000Z</time>
      </trkpt>
      <trkpt lat="49.92873" lon="1.08245">
        <ele>6.5</ele>
        <time>2014-12-24T17:39:34.000Z</time>
      </trkpt>
      <trkpt lat="49.92871" lon="1.08241">
        <ele>6.4</ele>
        <time>2014-12-24T17:39:35.000Z</time>
      </trkpt>
      <trkpt lat="49.92869" lon="1.08237">
        <ele>6.4</ele>
        <time>2014-12-24T17:39:36.000Z</time>
      </trkpt>
      <trkpt lat="49.92868" lon="1.08233">
        <ele>6.3</ele>
        <time>2014-12-24T17:39:37.000Z</time>
      </trkpt>
      <trkpt lat="49.92866" lon="1.08228">
        <ele>6.2</ele>
        <time>2014-12-24T17:39:38.000Z</time>
      </trkpt>
      <trkpt lat="49.92864" lon="1.08224">
        <ele>6.1</ele>
        <time>2014-12-24T17:39:39.000Z</time>
      </trkpt>
      <trkpt lat="49.92862" lon="1.0822">
        <ele>6</ele>
        <time>2014-12-24T17:39:40.000Z</time>
      </trkpt>
      <trkpt lat="49.9286" lon="1.08216">
        <ele>6</ele>
        <time>2014-12-24T17:39:41.000Z</time>
      </trkpt>
      <trkpt lat="49.92858" lon="1.08211">
        <ele>6</ele>
        <time>2014-12-24T17:39:42.000Z</time>
      </trkpt>
      <trkpt lat="49.92856" lon="1.08207">
        <ele>6</ele>
        <time>2014-12-24T17:39:43.000Z</time>
      </trkpt>
      <trkpt lat="49.92854" lon="1.08203">
        <ele>6</ele>
        <time>2014-12-24T17:39:44.000Z</time>
      </trkpt>
      <trkpt lat="49.92852" lon="1.08199">
        <ele>6</ele>
        <time>2014-12-24T17:39:45.000Z</time>
      </trkpt>
      <trkpt lat="49.9285" lon="1.08194">
        <ele>6</ele>
        <time>2014-12-24T17:39:46.000Z</time>
      </trkpt>
      <trkpt lat="49.92848" lon="1.08191">
        <ele>6</ele>
        <time>2014-12-24T17:39:47.000Z</time>
      </trkpt>
      <trkpt lat="49.92846" lon="1.08187">
        <ele>6</ele>
        <time>2014-12-24T17:39:48.000Z</time>
      </trkpt>
      <trkpt lat="49.92844" lon="1.08183">
        <ele>6</ele>
        <time>2014-12-24T17:39:49.000Z</time>
      </trkpt>
      <trkpt lat="49.92842" lon="1.08179">
        <ele>6</ele>
        <time>2014-12-24T17:39:50.000Z</time>
      </trkpt>
      <trkpt lat="49.9284" lon="1.08175">
        <ele>6</ele>
        <time>2014-12-24T17:39:51.000Z</time>
      </trkpt>
      <trkpt lat="49.92838" lon="1.08171">
        <ele>6</ele>
        <time>2014-12-24T17:39:52.000Z</time>
      </trkpt>
      <trkpt lat="49.92836" lon="1.08167">
        <ele>6</ele>
        <time>2014-12-24T17:39:53.000Z</time>
      </trkpt>
      <trkpt lat="49.92834" lon="1.08163">
        <ele>6</ele>
        <time>2014-12-24T17:39:54.000Z</time>
      </trkpt>
      <trkpt lat="49.92831" lon="1.08159">
        <ele>6</ele>
        <time>2014-12-24T17:39:55.000Z</time>
      </trkpt>
      <trkpt lat="49.92829" lon="1.08156">
        <ele>6</ele>
        <time>2014-12-24T17:39:56.000Z</time>
      </trkpt>
      <trkpt lat="49.92827" lon="1.08152">
        <ele>6</ele>
        <time>2014-12-24T17:39:57.000Z</time>
      </trkpt>
      <trkpt lat="49.92825" lon="1.08148">
        <ele>6</ele>
        <time>2014-12-24T17:39:58.000Z</time>
      </trkpt>
      <trkpt lat="49.92823" lon="1.08144">
        <ele>6</ele>
        <time>2014-12-24T17:39:59.000Z</time>
      </trkpt>
      <trkpt lat="49.92821" lon="1.0814">
        <ele>6</ele>
        <time>2014-12-24T17:40:00.000Z</time>
      </trkpt>
      <trkpt lat="49.92819" lon="1.08136">
        <ele>6</ele>
        <time>2014-12-24T17:40:01.000Z</time>
      </trkpt>
      <trkpt lat="49.92817" lon="1.08133">
        <ele>6</ele>
        <time>2014-12-24T17:40:02.000Z</time>
      </trkpt>
      <trkpt lat="49.92815" lon="1.08129">
        <ele>6</ele>
        <time>2014-12-24T17:40:03.000Z</time>
      </trkpt>
      <trkpt lat="49.92813" lon="1.08125">
        <ele>6</ele>
        <time>2014-12-24T17:40:04.000Z</time>
      </trkpt>
      <trkpt lat="49.92811" lon="1.08121">
        <ele>6</ele>
        <time>2014-12-24T17:40:05.000Z</time>
      </trkpt>
      <trkpt lat="49.92809" lon="1.08117">
        <ele>6</ele>
        <time>2014-12-24T17:40:06.000Z</time>
      </trkpt>
      <trkpt lat="49.92807" lon="1.08113">
        <ele>6</ele>
        <time>2014-12-24T17:40:07.000Z</time>
      </trkpt>
      <trkpt lat="49.92804" lon="1.08109">
        <ele>6</ele>
        <time>2014-12-24T17:40:08.000Z</time>
      </trkpt>
      <trkpt lat="49.92802" lon="1.08106">
        <ele>6</ele>
        <time>2014-12-24T17:40:09.000Z</time>
      </trkpt>
      <trkpt lat="49.928" lon="1.08102">
        <ele>6</ele>
        <time>2014-12-24T17:40:10.000Z</time>
      </trkpt>
      <trkpt lat="49.92798" lon="1.08098">
        <ele>6</ele>
        <time>2014-12-24T17:40:11.000Z</time>
      </trkpt>
      <trkpt lat="49.92796" lon="1.08094">
        <ele>6</ele>
        <time>2014-12-24T17:40:12.000Z</time>
      </trkpt>
      <trkpt lat="49.92793" lon="1.0809">
        <ele>6</ele>
        <time>2014-12-24T17:40:13.000Z</time>
      </trkpt>
      <trkpt lat="49.92791" lon="1.08086">
        <ele>6</ele>
        <time>2014-12-24T17:40:14.000Z</time>
      </trkpt>
      <trkpt lat="49.92789" lon="1.08082">
        <ele>6</ele>
        <time>2014-12-24T17:40:15.000Z</time>
      </trkpt>
      <trkpt lat="49.92786" lon="1.08079">
        <ele>6</ele>
        <time>2014-12-24T17:40:16.000Z</time>
      </trkpt>
      <trkpt lat="49.92784" lon="1.08075">
        <ele>6</ele>
        <time>2014-12-24T17:40:17.000Z</time>
      </trkpt>
      <trkpt lat="49.92782" lon="1.08072">
        <ele>6</ele>
        <time>2014-12-24T17:40:18.000Z</time>
      </trkpt>
      <trkpt lat="49.92779" lon="1.08068">
        <ele>6</ele>
        <time>2014-12-24T17:40:19.000Z</time>
      </trkpt>
      <trkpt lat="49.92777" lon="1.08065">
        <ele>6</ele>
        <time>2014-12-24T17:40:20.000Z</time>
      </trkpt>
      <trkpt lat="49.92774" lon="1.08062">
        <ele>6</ele>
        <time>2014-12-24T17:40:21.000Z</time>
      </trkpt>
      <trkpt lat="49.92772" lon="1.08059">
        <ele>6</ele>
        <time>2014-12-24T17:40:22.000Z</time>
      </trkpt>
      <trkpt lat="49.92769" lon="1.08056">
        <ele>6</ele>
        <time>2014-12-24T17:40:23.000Z</time>
      </trkpt>
      <trkpt lat="49.92767" lon="1.08053">
        <ele>6</ele>
        <time>2014-12-24T17:40:24.000Z</time>
      </trkpt>
      <trkpt lat="49.92764" lon="1.0805">
        <ele>6</ele>
        <time>2014-12-24T17:40:25.000Z</time>
      </trkpt>
      <trkpt lat="49.92762" lon="1.08047">
        <ele>6</ele>
        <time>2014-12-24T17:40:26.000Z</time>
      </trkpt>
      <trkpt lat="49.92759" lon="1.08044">
        <ele>6</ele>
        <time>2014-12-24T17:40:27.000Z</time>
      </trkpt>
      <trkpt lat="49.92756" lon="1.08041">
        <ele>6</ele>
        <time>2014-12-24T17:40:28.000Z</time>
      </trkpt>
      <trkpt lat="49.92754" lon="1.08038">
        <ele>6</ele>
        <time>2014-12-24T17:40:29.000Z</time>
      </trkpt>
      <trkpt lat="49.92751" lon="1.08035">
        <ele>6</ele>
        <time>2014-12-24T17:40:30.000Z</time>
      </trkpt>
      <trkpt lat="49.92749" lon="1.08033">
        <ele>6</ele>
        <time>2014-12-24T17:40:31.000Z</time>
      </trkpt>
      <trkpt lat="49.92746" lon="1.0803">
        <ele>6</ele>
        <time>2014-12-24T17:40:32.000Z</time>
      </trkpt>
      <trkpt lat="49.92743" lon="1.08027">
        <ele>6</ele>
        <time>2014-12-24T17:40:33.000Z</time>
      </trkpt>
      <trkpt lat="49.92741" lon="1.08024">
        <ele>6</ele>
        <time>2014-12-24T17:40:34.000Z</time>
      </trkpt>
      <trkpt lat="49.92738" lon="1.08021">
        <ele>6</ele>
        <time>2014-12-24T17:40:35.000Z</time>
      </trkpt>
      <trkpt lat="49.92736" lon="1.08018">
        <ele>6</ele>
        <time>2014-12-24T17:40:36.000Z</time>
      </trkpt>
      <trkpt lat="49.92733" lon="1.08015">
        <ele>6</ele>
        <time>2014-12-24T17:40:37.000Z</time>
      </trkpt>
      <trkpt lat="49.92731" lon="1.08012">
        <ele>6</ele>
        <time>2014-12-24T17:40:38.000Z</time>
      </trkpt>
      <trkpt lat="49.92729" lon="1.08009">
        <ele>6</ele>
        <time>2014-12-24T17:40:39.000Z</time>
      </trkpt>
      <trkpt lat="49.92726" lon="1.08006">
        <ele>6</ele>
        <time>2014-12-24T17:40:40.000Z</time>
      </trkpt>
      <trkpt lat="49.92724" lon="1.08003">
        <ele>6</ele>
        <time>2014-12-24T17:40:41.000Z</time>
      </trkpt>
      <trkpt lat="49.92722" lon="1.08001">
        <ele>5.98</ele>
        <time>2014-12-24T17:40:42.000Z</time>
      </trkpt>
      <trkpt lat="49.92719" lon="1.07999">
        <ele>5.9</ele>
        <time>2014-12-24T17:40:43.000Z</time>
      </trkpt>
      <trkpt lat="49.92716" lon="1.07997">
        <ele>5.9</ele>
        <time>2014-12-24T17:40:44.000Z</time>
      </trkpt>
      <trkpt lat="49.92713" lon="1.07996">
        <ele>5.8</ele>
        <time>2014-12-24T17:40:45.000Z</time>
      </trkpt>
      <trkpt lat="49.9271" lon="1.07995">
        <ele>5.7</ele>
        <time>2014-12-24T17:40:46.000Z</time>
      </trkpt>
      <trkpt lat="49.92707" lon="1.07995">
        <ele>5.6</ele>
        <time>2014-12-24T17:40:47.000Z</time>
      </trkpt>
      <trkpt lat="49.92704" lon="1.07994">
        <ele>5.5</ele>
        <time>2014-12-24T17:40:48.000Z</time>
      </trkpt>
      <trkpt lat="49.92701" lon="1.07994">
        <ele>5.4</ele>
        <time>2014-12-24T17:40:49.000Z</time>
      </trkpt>
      <trkpt lat="49.92698" lon="1.07994">
        <ele>5.3</ele>
        <time>2014-12-24T17:40:50.000Z</time>
      </trkpt>
      <trkpt lat="49.92695" lon="1.07994">
        <ele>5.2</ele>
        <time>2014-12-24T17:40:51.000Z</time>
      </trkpt>
      <trkpt lat="49.92692" lon="1.07995">
        <ele>5.3</ele>
        <time>2014-12-24T17:40:52.000Z</time>
      </trkpt>
      <trkpt lat="49.92689" lon="1.07995">
        <ele>5.3</ele>
        <time>2014-12-24T17:40:53.000Z</time>
      </trkpt>
      <trkpt lat="49.92686" lon="1.07996">
        <ele>5.4</ele>
        <time>2014-12-24T17:40:54.000Z</time>
      </trkpt>
      <trkpt lat="49.92683" lon="1.07996">
        <ele>5.5</ele>
        <time>2014-12-24T17:40:55.000Z</time>
      </trkpt>
      <trkpt lat="49.9268" lon="1.07997">
        <ele>5.6</ele>
        <time>2014-12-24T17:40:56.000Z</time>
      </trkpt>
      <trkpt lat="49.92677" lon="1.07999">
        <ele>5.6</ele>
        <time>2014-12-24T17:40:57.000Z</time>
      </trkpt>
      <trkpt lat="49.92675" lon="1.08001">
        <ele>5.6</ele>
        <time>2014-12-24T17:40:58.000Z</time>
      </trkpt>
      <trkpt lat="49.92672" lon="1.08003">
        <ele>5.3</ele>
        <time>2014-12-24T17:40:59.000Z</time>
      </trkpt>
      <trkpt lat="49.92669" lon="1.08005">
        <ele>5</ele>
        <time>2014-12-24T17:41:00.000Z</time>
      </trkpt>
      <trkpt lat="49.92667" lon="1.08008">
        <ele>4.6</ele>
        <time>2014-12-24T17:41:01.000Z</time>
      </trkpt>
      <trkpt lat="49.92665" lon="1.0801">
        <ele>4.3</ele>
        <time>2014-12-24T17:41:02.000Z</time>
      </trkpt>
      <trkpt lat="49.92663" lon="1.08012">
        <ele>4.1</ele>
        <time>2014-12-24T17:41:03.000Z</time>
      </trkpt>
      <trkpt lat="49.92661" lon="1.08015">
        <ele>3.9</ele>
        <time>2014-12-24T17:41:04.000Z</time>
      </trkpt>
      <trkpt lat="49.92659" lon="1.08017">
        <ele>3.8</ele>
        <time>2014-12-24T17:41:05.000Z</time>
      </trkpt>
      <trkpt lat="49.92657" lon="1.08019">
        <ele>3.8</ele>
        <time>2014-12-24T17:41:06.000Z</time>
      </trkpt>
      <trkpt lat="49.92654" lon="1.08021">
        <ele>3.9</ele>
        <time>2014-12-24T17:41:07.000Z</time>
      </trkpt>
      <trkpt lat="49.92651" lon="1.08023">
        <ele>4.2</ele>
        <time>2014-12-24T17:41:08.000Z</time>
      </trkpt>
      <trkpt lat="49.92648" lon="1.08023">
        <ele>4.7</ele>
        <time>2014-12-24T17:41:09.000Z</time>
      </trkpt>
      <trkpt lat="49.92644" lon="1.08024">
        <ele>5.2</ele>
        <time>2014-12-24T17:41:10.000Z</time>
      </trkpt>
      <trkpt lat="49.92641" lon="1.08024">
        <ele>5.7</ele>
        <time>2014-12-24T17:41:11.000Z</time>
      </trkpt>
      <trkpt lat="49.92637" lon="1.08024">
        <ele>6</ele>
        <time>2014-12-24T17:41:12.000Z</time>
      </trkpt>
      <trkpt lat="49.92634" lon="1.08024">
        <ele>6</ele>
        <time>2014-12-24T17:41:13.000Z</time>
      </trkpt>
      <trkpt lat="49.92631" lon="1.08024">
        <ele>6</ele>
        <time>2014-12-24T17:41:14.000Z</time>
      </trkpt>
      <trkpt lat="49.92628" lon="1.08025">
        <ele>6</ele>
        <time>2014-12-24T17:41:15.000Z</time>
      </trkpt>
      <trkpt lat="49.92625" lon="1.08025">
        <ele>6</ele>
        <time>2014-12-24T17:41:16.000Z</time>
      </trkpt>
      <trkpt lat="49.92622" lon="1.08026">
        <ele>6</ele>
        <time>2014-12-24T17:41:17.000Z</time>
      </trkpt>
      <trkpt lat="49.92619" lon="1.08027">
        <ele>6</ele>
        <time>2014-12-24T17:41:18.000Z</time>
      </trkpt>
      <trkpt lat="49.92615" lon="1.08028">
        <ele>6</ele>
        <time>2014-12-24T17:41:19.000Z</time>
      </trkpt>
      <trkpt lat="49.92612" lon="1.08029">
        <ele>5.9</ele>
        <time>2014-12-24T17:41:20.000Z</time>
      </trkpt>
      <trkpt lat="49.92609" lon="1.0803">
        <ele>5.8</ele>
        <time>2014-12-24T17:41:21.000Z</time>
      </trkpt>
      <trkpt lat="49.92606" lon="1.08031">
        <ele>5.7</ele>
        <time>2014-12-24T17:41:22.000Z</time>
      </trkpt>
      <trkpt lat="49.92603" lon="1.08033">
        <ele>5.5</ele>
        <time>2014-12-24T17:41:23.000Z</time>
      </trkpt>
      <trkpt lat="49.92599" lon="1.08035">
        <ele>5.2</ele>
        <time>2014-12-24T17:41:24.000Z</time>
      </trkpt>
      <trkpt lat="49.92596" lon="1.08037">
        <ele>4.8</ele>
        <time>2014-12-24T17:41:25.000Z</time>
      </trkpt>
      <trkpt lat="49.92593" lon="1.08039">
        <ele>4.4</ele>
        <time>2014-12-24T17:41:26.000Z</time>
      </trkpt>
      <trkpt lat="49.9259" lon="1.08041">
        <ele>4</ele>
        <time>2014-12-24T17:41:27.000Z</time>
      </trkpt>
      <trkpt lat="49.92587" lon="1.08043">
        <ele>3.5</ele>
        <time>2014-12-24T17:41:28.000Z</time>
      </trkpt>
      <trkpt lat="49.92584" lon="1.08045">
        <ele>2.9</ele>
        <time>2014-12-24T17:41:29.000Z</time>
      </trkpt>
      <trkpt lat="49.92581" lon="1.08048">
        <ele>2.8</ele>
        <time>2014-12-24T17:41:30.000Z</time>
      </trkpt>
      <trkpt lat="49.92578" lon="1.0805">
        <ele>2.8</ele>
        <time>2014-12-24T17:41:31.000Z</time>
      </trkpt>
      <trkpt lat="49.92575" lon="1.08052">
        <ele>3</ele>
        <time>2014-12-24T17:41:32.000Z</time>
      </trkpt>
      <trkpt lat="49.92572" lon="1.08053">
        <ele>3.3</ele>
        <time>2014-12-24T17:41:33.000Z</time>
      </trkpt>
      <trkpt lat="49.92569" lon="1.08055">
        <ele>3.6</ele>
        <time>2014-12-24T17:41:34.000Z</time>
      </trkpt>
      <trkpt lat="49.92566" lon="1.08057">
        <ele>4.13</ele>
        <time>2014-12-24T17:41:35.000Z</time>
      </trkpt>
      <trkpt lat="49.92563" lon="1.08059">
        <ele>4.68</ele>
        <time>2014-12-24T17:41:36.000Z</time>
      </trkpt>
      <trkpt lat="49.9256" lon="1.08061">
        <ele>5.24</ele>
        <time>2014-12-24T17:41:37.000Z</time>
      </trkpt>
      <trkpt lat="49.92557" lon="1.08063">
        <ele>5.8</ele>
        <time>2014-12-24T17:41:38.000Z</time>
      </trkpt>
      <trkpt lat="49.92554" lon="1.08065">
        <ele>4.6</ele>
        <time>2014-12-24T17:41:39.000Z</time>
      </trkpt>
      <trkpt lat="49.9255" lon="1.08067">
        <ele>4.3</ele>
        <time>2014-12-24T17:41:40.000Z</time>
      </trkpt>
      <trkpt lat="49.92547" lon="1.0807">
        <ele>4</ele>
        <time>2014-12-24T17:41:41.000Z</time>
      </trkpt>
      <trkpt lat="49.92544" lon="1.08072">
        <ele>3.7</ele>
        <time>2014-12-24T17:41:42.000Z</time>
      </trkpt>
      <trkpt lat="49.92541" lon="1.08074">
        <ele>3.4</ele>
        <time>2014-12-24T17:41:43.000Z</time>
      </trkpt>
      <trkpt lat="49.92538" lon="1.08075">
        <ele>3.1</ele>
        <time>2014-12-24T17:41:44.000Z</time>
      </trkpt>
      <trkpt lat="49.92535" lon="1.08077">
        <ele>2.9</ele>
        <time>2014-12-24T17:41:45.000Z</time>
      </trkpt>
      <trkpt lat="49.92532" lon="1.08079">
        <ele>2.6</ele>
        <time>2014-12-24T17:41:46.000Z</time>
      </trkpt>
      <trkpt lat="49.92529" lon="1.08081">
        <ele>2.3</ele>
        <time>2014-12-24T17:41:47.000Z</time>
      </trkpt>
      <trkpt lat="49.92526" lon="1.08083">
        <ele>2.3</ele>
        <time>2014-12-24T17:41:48.000Z</time>
      </trkpt>
      <trkpt lat="49.92523" lon="1.08085">
        <ele>2.66</ele>
        <time>2014-12-24T17:41:49.000Z</time>
      </trkpt>
      <trkpt lat="49.9252" lon="1.08087">
        <ele>3.08</ele>
        <time>2014-12-24T17:41:50.000Z</time>
      </trkpt>
      <trkpt lat="49.92517" lon="1.08089">
        <ele>3.54</ele>
        <time>2014-12-24T17:41:51.000Z</time>
      </trkpt>
      <trkpt lat="49.92514" lon="1.08091">
        <ele>4.01</ele>
        <time>2014-12-24T17:41:52.000Z</time>
      </trkpt>
      <trkpt lat="49.92511" lon="1.08093">
        <ele>4.46</ele>
        <time>2014-12-24T17:41:53.000Z</time>
      </trkpt>
      <trkpt lat="49.92508" lon="1.08095">
        <ele>4.91</ele>
        <time>2014-12-24T17:41:54.000Z</time>
      </trkpt>
      <trkpt lat="49.92504" lon="1.08097">
        <ele>5.37</ele>
        <time>2014-12-24T17:41:55.000Z</time>
      </trkpt>
      <trkpt lat="49.92501" lon="1.08099">
        <ele>5.84</ele>
        <time>2014-12-24T17:41:56.000Z</time>
      </trkpt>
      <trkpt lat="49.92498" lon="1.08101">
        <ele>4.2</ele>
        <time>2014-12-24T17:41:57.000Z</time>
      </trkpt>
      <trkpt lat="49.92495" lon="1.08102">
        <ele>4</ele>
        <time>2014-12-24T17:41:58.000Z</time>
      </trkpt>
      <trkpt lat="49.92492" lon="1.08103">
        <ele>3.9</ele>
        <time>2014-12-24T17:41:59.000Z</time>
      </trkpt>
      <trkpt lat="49.92489" lon="1.08104">
        <ele>3.9</ele>
        <time>2014-12-24T17:42:00.000Z</time>
      </trkpt>
      <trkpt lat="49.92486" lon="1.08104">
        <ele>3.9</ele>
        <time>2014-12-24T17:42:01.000Z</time>
      </trkpt>
      <trkpt lat="49.92482" lon="1.08105">
        <ele>3.8</ele>
        <time>2014-12-24T17:42:02.000Z</time>
      </trkpt>
      <trkpt lat="49.92479" lon="1.08105">
        <ele>3.8</ele>
        <time>2014-12-24T17:42:03.000Z</time>
      </trkpt>
      <trkpt lat="49.92476" lon="1.08106">
        <ele>3.7</ele>
        <time>2014-12-24T17:42:04.000Z</time>
      </trkpt>
      <trkpt lat="49.92473" lon="1.08106">
        <ele>3.7</ele>
        <time>2014-12-24T17:42:05.000Z</time>
      </trkpt>
      <trkpt lat="49.92469" lon="1.08107">
        <ele>3.9</ele>
        <time>2014-12-24T17:42:06.000Z</time>
      </trkpt>
      <trkpt lat="49.92466" lon="1.08107">
        <ele>4.1</ele>
        <time>2014-12-24T17:42:07.000Z</time>
      </trkpt>
      <trkpt lat="49.92463" lon="1.08107">
        <ele>4.4</ele>
        <time>2014-12-24T17:42:08.000Z</time>
      </trkpt>
      <trkpt lat="49.9246" lon="1.08107">
        <ele>4.7</ele>
        <time>2014-12-24T17:42:09.000Z</time>
      </trkpt>
      <trkpt lat="49.92457" lon="1.08108">
        <ele>5</ele>
        <time>2014-12-24T17:42:10.000Z</time>
      </trkpt>
      <trkpt lat="49.92454" lon="1.08108">
        <ele>5.2</ele>
        <time>2014-12-24T17:42:11.000Z</time>
      </trkpt>
      <trkpt lat="49.92451" lon="1.08108">
        <ele>5.4</ele>
        <time>2014-12-24T17:42:12.000Z</time>
      </trkpt>
      <trkpt lat="49.92448" lon="1.08109">
        <ele>5.7</ele>
        <time>2014-12-24T17:42:13.000Z</time>
      </trkpt>
      <trkpt lat="49.92446" lon="1.0811">
        <ele>5.9</ele>
        <time>2014-12-24T17:42:14.000Z</time>
      </trkpt>
      <trkpt lat="49.92443" lon="1.08111">
        <ele>6</ele>
        <time>2014-12-24T17:42:15.000Z</time>
      </trkpt>
      <trkpt lat="49.9244" lon="1.08113">
        <ele>5.9</ele>
        <time>2014-12-24T17:42:16.000Z</time>
      </trkpt>
      <trkpt lat="49.92437" lon="1.08114">
        <ele>5.8</ele>
        <time>2014-12-24T17:42:17.000Z</time>
      </trkpt>
      <trkpt lat="49.92434" lon="1.08115">
        <ele>5.7</ele>
        <time>2014-12-24T17:42:18.000Z</time>
      </trkpt>
      <trkpt lat="49.92431" lon="1.08117">
        <ele>5.6</ele>
        <time>2014-12-24T17:42:19.000Z</time>
      </trkpt>
      <trkpt lat="49.92428" lon="1.08119">
        <ele>5.4</ele>
        <time>2014-12-24T17:42:20.000Z</time>
      </trkpt>
      <trkpt lat="49.92425" lon="1.08121">
        <ele>5.3</ele>
        <time>2014-12-24T17:42:21.000Z</time>
      </trkpt>
      <trkpt lat="49.92423" lon="1.08122">
        <ele>5.2</ele>
        <time>2014-12-24T17:42:22.000Z</time>
      </trkpt>
      <trkpt lat="49.9242" lon="1.08124">
        <ele>5.1</ele>
        <time>2014-12-24T17:42:23.000Z</time>
      </trkpt>
      <trkpt lat="49.92417" lon="1.08126">
        <ele>4.9</ele>
        <time>2014-12-24T17:42:24.000Z</time>
      </trkpt>
      <trkpt lat="49.92414" lon="1.08128">
        <ele>4.9</ele>
        <time>2014-12-24T17:42:25.000Z</time>
      </trkpt>
      <trkpt lat="49.92411" lon="1.0813">
        <ele>4.9</ele>
        <time>2014-12-24T17:42:26.000Z</time>
      </trkpt>
      <trkpt lat="49.92408" lon="1.08132">
        <ele>5</ele>
        <time>2014-12-24T17:42:27.000Z</time>
      </trkpt>
      <trkpt lat="49.92405" lon="1.08134">
        <ele>5.1</ele>
        <time>2014-12-24T17:42:28.000Z</time>
      </trkpt>
      <trkpt lat="49.92402" lon="1.08136">
        <ele>5.2</ele>
        <time>2014-12-24T17:42:29.000Z</time>
      </trkpt>
      <trkpt lat="49.92399" lon="1.08138">
        <ele>5.3</ele>
        <time>2014-12-24T17:42:30.000Z</time>
      </trkpt>
      <trkpt lat="49.92396" lon="1.0814">
        <ele>5.3</ele>
        <time>2014-12-24T17:42:31.000Z</time>
      </trkpt>
      <trkpt lat="49.92394" lon="1.08142">
        <ele>5.1</ele>
        <time>2014-12-24T17:42:32.000Z</time>
      </trkpt>
      <trkpt lat="49.92391" lon="1.08144">
        <ele>4.9</ele>
        <time>2014-12-24T17:42:33.000Z</time>
      </trkpt>
      <trkpt lat="49.92388" lon="1.08146">
        <ele>4.8</ele>
        <time>2014-12-24T17:42:34.000Z</time>
      </trkpt>
      <trkpt lat="49.92385" lon="1.08148">
        <ele>4.7</ele>
        <time>2014-12-24T17:42:35.000Z</time>
      </trkpt>
      <trkpt lat="49.92383" lon="1.08149">
        <ele>4.7</ele>
        <time>2014-12-24T17:42:36.000Z</time>
      </trkpt>
      <trkpt lat="49.9238" lon="1.08151">
        <ele>4.7</ele>
        <time>2014-12-24T17:42:37.000Z</time>
      </trkpt>
      <trkpt lat="49.92377" lon="1.08153">
        <ele>4.8</ele>
        <time>2014-12-24T17:42:38.000Z</time>
      </trkpt>
      <trkpt lat="49.92375" lon="1.08154">
        <ele>4.9</ele>
        <time>2014-12-24T17:42:39.000Z</time>
      </trkpt>
      <trkpt lat="49.92372" lon="1.08156">
        <ele>5.1</ele>
        <time>2014-12-24T17:42:40.000Z</time>
      </trkpt>
      <trkpt lat="49.92369" lon="1.08158">
        <ele>5.3</ele>
        <time>2014-12-24T17:42:41.000Z</time>
      </trkpt>
      <trkpt lat="49.92366" lon="1.0816">
        <ele>5.6</ele>
        <time>2014-12-24T17:42:42.000Z</time>
      </trkpt>
      <trkpt lat="49.92363" lon="1.08161">
        <ele>6</ele>
        <time>2014-12-24T17:42:43.000Z</time>
      </trkpt>
      <trkpt lat="49.92359" lon="1.08163">
        <ele>6.2</ele>
        <time>2014-12-24T17:42:44.000Z</time>
      </trkpt>
      <trkpt lat="49.92356" lon="1.08165">
        <ele>6.2</ele>
        <time>2014-12-24T17:42:45.000Z</time>
      </trkpt>
      <trkpt lat="49.92353" lon="1.08166">
        <ele>6.3</ele>
        <time>2014-12-24T17:42:46.000Z</time>
      </trkpt>
      <trkpt lat="49.9235" lon="1.08166">
        <ele>6.4</ele>
        <time>2014-12-24T17:42:47.000Z</time>
      </trkpt>
      <trkpt lat="49.92347" lon="1.08166">
        <ele>6.5</ele>
        <time>2014-12-24T17:42:48.000Z</time>
      </trkpt>
      <trkpt lat="49.92344" lon="1.08166">
        <ele>6.6</ele>
        <time>2014-12-24T17:42:49.000Z</time>
      </trkpt>
      <trkpt lat="49.92341" lon="1.08166">
        <ele>6.7</ele>
        <time>2014-12-24T17:42:50.000Z</time>
      </trkpt>
      <trkpt lat="49.92338" lon="1.08165">
        <ele>6.8</ele>
        <time>2014-12-24T17:42:51.000Z</time>
      </trkpt>
      <trkpt lat="49.92334" lon="1.08164">
        <ele>6.9</ele>
        <time>2014-12-24T17:42:52.000Z</time>
      </trkpt>
      <trkpt lat="49.92331" lon="1.08163">
        <ele>6.8</ele>
        <time>2014-12-24T17:42:53.000Z</time>
      </trkpt>
      <trkpt lat="49.92328" lon="1.08161">
        <ele>6.7</ele>
        <time>2014-12-24T17:42:54.000Z</time>
      </trkpt>
      <trkpt lat="49.92325" lon="1.0816">
        <ele>6.6</ele>
        <time>2014-12-24T17:42:55.000Z</time>
      </trkpt>
      <trkpt lat="49.92323" lon="1.08158">
        <ele>6.5</ele>
        <time>2014-12-24T17:42:56.000Z</time>
      </trkpt>
      <trkpt lat="49.9232" lon="1.08156">
        <ele>6.5</ele>
        <time>2014-12-24T17:42:57.000Z</time>
      </trkpt>
      <trkpt lat="49.92317" lon="1.08154">
        <ele>6.5</ele>
        <time>2014-12-24T17:42:58.000Z</time>
      </trkpt>
      <trkpt lat="49.92314" lon="1.08152">
        <ele>6.5</ele>
        <time>2014-12-24T17:42:59.000Z</time>
      </trkpt>
      <trkpt lat="49.92311" lon="1.08151">
        <ele>6.5</ele>
        <time>2014-12-24T17:43:00.000Z</time>
      </trkpt>
      <trkpt lat="49.92308" lon="1.08151">
        <ele>6.6</ele>
        <time>2014-12-24T17:43:01.000Z</time>
      </trkpt>
      <trkpt lat="49.92305" lon="1.08151">
        <ele>6.6</ele>
        <time>2014-12-24T17:43:02.000Z</time>
      </trkpt>
      <trkpt lat="49.92302" lon="1.08151">
        <ele>6.6</ele>
        <time>2014-12-24T17:43:03.000Z</time>
      </trkpt>
      <trkpt lat="49.92299" lon="1.08152">
        <ele>6.6</ele>
        <time>2014-12-24T17:43:04.000Z</time>
      </trkpt>
      <trkpt lat="49.92296" lon="1.08153">
        <ele>6.7</ele>
        <time>2014-12-24T17:43:05.000Z</time>
      </trkpt>
      <trkpt lat="49.92292" lon="1.08153">
        <ele>6.7</ele>
        <time>2014-12-24T17:43:06.000Z</time>
      </trkpt>
      <trkpt lat="49.92289" lon="1.08154">
        <ele>6.8</ele>
        <time>2014-12-24T17:43:07.000Z</time>
      </trkpt>
      <trkpt lat="49.92286" lon="1.08155">
        <ele>6.8</ele>
        <time>2014-12-24T17:43:08.000Z</time>
      </trkpt>
      <trkpt lat="49.92283" lon="1.08155">
        <ele>6.9</ele>
        <time>2014-12-24T17:43:09.000Z</time>
      </trkpt>
      <trkpt lat="49.9228" lon="1.08156">
        <ele>7</ele>
        <time>2014-12-24T17:43:10.000Z</time>
      </trkpt>
      <trkpt lat="49.92276" lon="1.08156">
        <ele>7</ele>
        <time>2014-12-24T17:43:11.000Z</time>
      </trkpt>
      <trkpt lat="49.92273" lon="1.08157">
        <ele>7</ele>
        <time>2014-12-24T17:43:12.000Z</time>
      </trkpt>
      <trkpt lat="49.9227" lon="1.08157">
        <ele>7</ele>
        <time>2014-12-24T17:43:13.000Z</time>
      </trkpt>
      <trkpt lat="49.92267" lon="1.08158">
        <ele>7</ele>
        <time>2014-12-24T17:43:14.000Z</time>
      </trkpt>
      <trkpt lat="49.92263" lon="1.08158">
        <ele>7</ele>
        <time>2014-12-24T17:43:15.000Z</time>
      </trkpt>
      <trkpt lat="49.9226" lon="1.08158">
        <ele>7</ele>
        <time>2014-12-24T17:43:16.000Z</time>
      </trkpt>
      <trkpt lat="49.92257" lon="1.08158">
        <ele>7</ele>
        <time>2014-12-24T17:43:17.000Z</time>
      </trkpt>
      <trkpt lat="49.92253" lon="1.08158">
        <ele>7</ele>
        <time>2014-12-24T17:43:18.000Z</time>
      </trkpt>
      <trkpt lat="49.9225" lon="1.08157">
        <ele>7</ele>
        <time>2014-12-24T17:43:19.000Z</time>
      </trkpt>
      <trkpt lat="49.92247" lon="1.08156">
        <ele>7</ele>
        <time>2014-12-24T17:43:20.000Z</time>
      </trkpt>
      <trkpt lat="49.92244" lon="1.08156">
        <ele>7</ele>
        <time>2014-12-24T17:43:21.000Z</time>
      </trkpt>
      <trkpt lat="49.9224" lon="1.08155">
        <ele>7</ele>
        <time>2014-12-24T17:43:22.000Z</time>
      </trkpt>
      <trkpt lat="49.92237" lon="1.08153">
        <ele>7</ele>
        <time>2014-12-24T17:43:23.000Z</time>
      </trkpt>
      <trkpt lat="49.92234" lon="1.08152">
        <ele>7</ele>
        <time>2014-12-24T17:43:24.000Z</time>
      </trkpt>
      <trkpt lat="49.92231" lon="1.0815">
        <ele>7</ele>
        <time>2014-12-24T17:43:25.000Z</time>
      </trkpt>
      <trkpt lat="49.92228" lon="1.08148">
        <ele>7</ele>
        <time>2014-12-24T17:43:26.000Z</time>
      </trkpt>
      <trkpt lat="49.92226" lon="1.08146">
        <ele>7</ele>
        <time>2014-12-24T17:43:27.000Z</time>
      </trkpt>
      <trkpt lat="49.92224" lon="1.08143">
        <ele>7</ele>
        <time>2014-12-24T17:43:28.000Z</time>
      </trkpt>
      <trkpt lat="49.92222" lon="1.0814">
        <ele>7</ele>
        <time>2014-12-24T17:43:29.000Z</time>
      </trkpt>
      <trkpt lat="49.92221" lon="1.08136">
        <ele>7</ele>
        <time>2014-12-24T17:43:30.000Z</time>
      </trkpt>
      <trkpt lat="49.9222" lon="1.08132">
        <ele>7</ele>
        <time>2014-12-24T17:43:31.000Z</time>
      </trkpt>
      <trkpt lat="49.92219" lon="1.08128">
        <ele>7</ele>
        <time>2014-12-24T17:43:32.000Z</time>
      </trkpt>
      <trkpt lat="49.92218" lon="1.08123">
        <ele>7</ele>
        <time>2014-12-24T17:43:33.000Z</time>
      </trkpt>
      <trkpt lat="49.92218" lon="1.08119">
        <ele>7</ele>
        <time>2014-12-24T17:43:34.000Z</time>
      </trkpt>
      <trkpt lat="49.92218" lon="1.08114">
        <ele>7</ele>
        <time>2014-12-24T17:43:35.000Z</time>
      </trkpt>
      <trkpt lat="49.92218" lon="1.08109">
        <ele>7</ele>
        <time>2014-12-24T17:43:36.000Z</time>
      </trkpt>
      <trkpt lat="49.92218" lon="1.08104">
        <ele>7</ele>
        <time>2014-12-24T17:43:37.000Z</time>
      </trkpt>
      <trkpt lat="49.92217" lon="1.08099">
        <ele>7</ele>
        <time>2014-12-24T17:43:38.000Z</time>
      </trkpt>
      <trkpt lat="49.92217" lon="1.08095">
        <ele>7</ele>
        <time>2014-12-24T17:43:39.000Z</time>
      </trkpt>
      <trkpt lat="49.92217" lon="1.0809">
        <ele>7</ele>
        <time>2014-12-24T17:43:40.000Z</time>
      </trkpt>
      <trkpt lat="49.92217" lon="1.08085">
        <ele>7</ele>
        <time>2014-12-24T17:43:41.000Z</time>
      </trkpt>
      <trkpt lat="49.92217" lon="1.0808">
        <ele>7</ele>
        <time>2014-12-24T17:43:42.000Z</time>
      </trkpt>
      <trkpt lat="49.92216" lon="1.08075">
        <ele>7</ele>
        <time>2014-12-24T17:43:43.000Z</time>
      </trkpt>
      <trkpt lat="49.92216" lon="1.0807">
        <ele>7</ele>
        <time>2014-12-24T17:43:44.000Z</time>
      </trkpt>
      <trkpt lat="49.92216" lon="1.08065">
        <ele>7</ele>
        <time>2014-12-24T17:43:45.000Z</time>
      </trkpt>
      <trkpt lat="49.92216" lon="1.08061">
        <ele>7</ele>
        <time>2014-12-24T17:43:46.000Z</time>
      </trkpt>
      <trkpt lat="49.92216" lon="1.08056">
        <ele>7</ele>
        <time>2014-12-24T17:43:47.000Z</time>
      </trkpt>
      <trkpt lat="49.92216" lon="1.08051">
        <ele>7</ele>
        <time>2014-12-24T17:43:48.000Z</time>
      </trkpt>
      <trkpt lat="49.92216" lon="1.08047">
        <ele>7</ele>
        <time>2014-12-24T17:43:49.000Z</time>
      </trkpt>
      <trkpt lat="49.92216" lon="1.08042">
        <ele>7</ele>
        <time>2014-12-24T17:43:50.000Z</time>
      </trkpt>
      <trkpt lat="49.92215" lon="1.08038">
        <ele>7</ele>
        <time>2014-12-24T17:43:51.000Z</time>
      </trkpt>
      <trkpt lat="49.92215" lon="1.08033">
        <ele>7</ele>
        <time>2014-12-24T17:43:52.000Z</time>
      </trkpt>
      <trkpt lat="49.92215" lon="1.08029">
        <ele>7</ele>
        <time>2014-12-24T17:43:53.000Z</time>
      </trkpt>
      <trkpt lat="49.92214" lon="1.08025">
        <ele>7</ele>
        <time>2014-12-24T17:43:54.000Z</time>
      </trkpt>
      <trkpt lat="49.92214" lon="1.0802">
        <ele>6.9</ele>
        <time>2014-12-24T17:43:55.000Z</time>
      </trkpt>
      <trkpt lat="49.92213" lon="1.08015">
        <ele>6.9</ele>
        <time>2014-12-24T17:43:56.000Z</time>
      </trkpt>
      <trkpt lat="49.92213" lon="1.08011">
        <ele>6.8</ele>
        <time>2014-12-24T17:43:57.000Z</time>
      </trkpt>
      <trkpt lat="49.92213" lon="1.08006">
        <ele>6.7</ele>
        <time>2014-12-24T17:43:58.000Z</time>
      </trkpt>
      <trkpt lat="49.92212" lon="1.08001">
        <ele>6.7</ele>
        <time>2014-12-24T17:43:59.000Z</time>
      </trkpt>
      <trkpt lat="49.92212" lon="1.07996">
        <ele>6.5</ele>
        <time>2014-12-24T17:44:00.000Z</time>
      </trkpt>
      <trkpt lat="49.92212" lon="1.07991">
        <ele>6.4</ele>
        <time>2014-12-24T17:44:01.000Z</time>
      </trkpt>
      <trkpt lat="49.92211" lon="1.07986">
        <ele>6.3</ele>
        <time>2014-12-24T17:44:02.000Z</time>
      </trkpt>
      <trkpt lat="49.92211" lon="1.07981">
        <ele>6.2</ele>
        <time>2014-12-24T17:44:03.000Z</time>
      </trkpt>
      <trkpt lat="49.92211" lon="1.07976">
        <ele>6.1</ele>
        <time>2014-12-24T17:44:04.000Z</time>
      </trkpt>
      <trkpt lat="49.9221" lon="1.07972">
        <ele>6</ele>
        <time>2014-12-24T17:44:05.000Z</time>
      </trkpt>
      <trkpt lat="49.9221" lon="1.07967">
        <ele>6.1</ele>
        <time>2014-12-24T17:44:06.000Z</time>
      </trkpt>
      <trkpt lat="49.9221" lon="1.07962">
        <ele>6.2</ele>
        <time>2014-12-24T17:44:07.000Z</time>
      </trkpt>
      <trkpt lat="49.92209" lon="1.07957">
        <ele>6.3</ele>
        <time>2014-12-24T17:44:08.000Z</time>
      </trkpt>
      <trkpt lat="49.92209" lon="1.07952">
        <ele>6.4</ele>
        <time>2014-12-24T17:44:09.000Z</time>
      </trkpt>
      <trkpt lat="49.92208" lon="1.07948">
        <ele>6.4</ele>
        <time>2014-12-24T17:44:10.000Z</time>
      </trkpt>
      <trkpt lat="49.92208" lon="1.07943">
        <ele>6.5</ele>
        <time>2014-12-24T17:44:11.000Z</time>
      </trkpt>
      <trkpt lat="49.92208" lon="1.07939">
        <ele>6.4</ele>
        <time>2014-12-24T17:44:12.000Z</time>
      </trkpt>
      <trkpt lat="49.92208" lon="1.07934">
        <ele>6.3</ele>
        <time>2014-12-24T17:44:13.000Z</time>
      </trkpt>
      <trkpt lat="49.92207" lon="1.0793">
        <ele>6.2</ele>
        <time>2014-12-24T17:44:14.000Z</time>
      </trkpt>
      <trkpt lat="49.92207" lon="1.07925">
        <ele>6.1</ele>
        <time>2014-12-24T17:44:15.000Z</time>
      </trkpt>
      <trkpt lat="49.92206" lon="1.07921">
        <ele>6.1</ele>
        <time>2014-12-24T17:44:16.000Z</time>
      </trkpt>
      <trkpt lat="49.92205" lon="1.07917">
        <ele>6</ele>
        <time>2014-12-24T17:44:17.000Z</time>
      </trkpt>
      <trkpt lat="49.92203" lon="1.07914">
        <ele>6</ele>
        <time>2014-12-24T17:44:18.000Z</time>
      </trkpt>
      <trkpt lat="49.92202" lon="1.0791">
        <ele>6</ele>
        <time>2014-12-24T17:44:19.000Z</time>
      </trkpt>
      <trkpt lat="49.922" lon="1.07906">
        <ele>6</ele>
        <time>2014-12-24T17:44:20.000Z</time>
      </trkpt>
      <trkpt lat="49.92198" lon="1.07902">
        <ele>6</ele>
        <time>2014-12-24T17:44:21.000Z</time>
      </trkpt>
      <trkpt lat="49.92197" lon="1.07898">
        <ele>6</ele>
        <time>2014-12-24T17:44:22.000Z</time>
      </trkpt>
      <trkpt lat="49.92196" lon="1.07894">
        <ele>6</ele>
        <time>2014-12-24T17:44:23.000Z</time>
      </trkpt>
      <trkpt lat="49.92194" lon="1.0789">
        <ele>6</ele>
        <time>2014-12-24T17:44:24.000Z</time>
      </trkpt>
      <trkpt lat="49.92193" lon="1.07886">
        <ele>6</ele>
        <time>2014-12-24T17:44:25.000Z</time>
      </trkpt>
      <trkpt lat="49.92192" lon="1.07882">
        <ele>6</ele>
        <time>2014-12-24T17:44:26.000Z</time>
      </trkpt>
      <trkpt lat="49.92191" lon="1.07878">
        <ele>6</ele>
        <time>2014-12-24T17:44:27.000Z</time>
      </trkpt>
      <trkpt lat="49.92191" lon="1.07875">
        <ele>6</ele>
        <time>2014-12-24T17:44:28.000Z</time>
      </trkpt>
      <trkpt lat="49.9219" lon="1.07872">
        <ele>6</ele>
        <time>2014-12-24T17:44:29.000Z</time>
      </trkpt>
      <trkpt lat="49.92191" lon="1.07869">
        <ele>6</ele>
        <time>2014-12-24T17:44:30.000Z</time>
      </trkpt>
      <trkpt lat="49.92192" lon="1.07867">
        <ele>6</ele>
        <time>2014-12-24T17:44:31.000Z</time>
      </trkpt>
      <trkpt lat="49.92192" lon="1.07861">
        <ele>6</ele>
        <time>2014-12-24T17:44:32.000Z</time>
      </trkpt>
      <trkpt lat="49.92191" lon="1.0786">
        <ele>6</ele>
        <time>2014-12-24T17:44:33.000Z</time>
      </trkpt>
      <trkpt lat="49.92189" lon="1.0786">
        <ele>6</ele>
        <time>2014-12-24T17:44:34.000Z</time>
      </trkpt>
      <trkpt lat="49.92186" lon="1.0786">
        <ele>6</ele>
        <time>2014-12-24T17:44:35.000Z</time>
      </trkpt>
      <trkpt lat="49.92183" lon="1.0786">
        <ele>6</ele>
        <time>2014-12-24T17:44:36.000Z</time>
      </trkpt>
      <trkpt lat="49.9218" lon="1.0786">
        <ele>6</ele>
        <time>2014-12-24T17:44:37.000Z</time>
      </trkpt>
      <trkpt lat="49.92177" lon="1.07859">
        <ele>6</ele>
        <time>2014-12-24T17:44:38.000Z</time>
      </trkpt>
      <trkpt lat="49.92173" lon="1.07859">
        <ele>6</ele>
        <time>2014-12-24T17:44:39.000Z</time>
      </trkpt>
      <trkpt lat="49.9217" lon="1.07859">
        <ele>6</ele>
        <time>2014-12-24T17:44:40.000Z</time>
      </trkpt>
      <trkpt lat="49.92166" lon="1.0786">
        <ele>6</ele>
        <time>2014-12-24T17:44:41.000Z</time>
      </trkpt>
      <trkpt lat="49.92163" lon="1.0786">
        <ele>6</ele>
        <time>2014-12-24T17:44:42.000Z</time>
      </trkpt>
      <trkpt lat="49.92159" lon="1.07861">
        <ele>6</ele>
        <time>2014-12-24T17:44:43.000Z</time>
      </trkpt>
      <trkpt lat="49.92156" lon="1.07861">
        <ele>6</ele>
        <time>2014-12-24T17:44:44.000Z</time>
      </trkpt>
      <trkpt lat="49.92153" lon="1.07862">
        <ele>6</ele>
        <time>2014-12-24T17:44:45.000Z</time>
      </trkpt>
      <trkpt lat="49.9215" lon="1.07862">
        <ele>6</ele>
        <time>2014-12-24T17:44:46.000Z</time>
      </trkpt>
      <trkpt lat="49.92147" lon="1.07862">
        <ele>6</ele>
        <time>2014-12-24T17:44:47.000Z</time>
      </trkpt>
      <trkpt lat="49.92144" lon="1.07863">
        <ele>6</ele>
        <time>2014-12-24T17:44:48.000Z</time>
      </trkpt>
      <trkpt lat="49.92141" lon="1.07863">
        <ele>6</ele>
        <time>2014-12-24T17:44:49.000Z</time>
      </trkpt>
      <trkpt lat="49.92139" lon="1.07862">
        <ele>6</ele>
        <time>2014-12-24T17:44:50.000Z</time>
      </trkpt>
      <trkpt lat="49.92136" lon="1.07862">
        <ele>6</ele>
        <time>2014-12-24T17:44:51.000Z</time>
      </trkpt>
      <trkpt lat="49.92133" lon="1.07862">
        <ele>6</ele>
        <time>2014-12-24T17:44:52.000Z</time>
      </trkpt>
      <trkpt lat="49.92129" lon="1.07862">
        <ele>6</ele>
        <time>2014-12-24T17:44:53.000Z</time>
      </trkpt>
      <trkpt lat="49.92126" lon="1.07862">
        <ele>6</ele>
        <time>2014-12-24T17:44:54.000Z</time>
      </trkpt>
      <trkpt lat="49.92123" lon="1.07862">
        <ele>6</ele>
        <time>2014-12-24T17:44:55.000Z</time>
      </trkpt>
      <trkpt lat="49.92119" lon="1.07862">
        <ele>6</ele>
        <time>2014-12-24T17:44:56.000Z</time>
      </trkpt>
      <trkpt lat="49.92116" lon="1.07862">
        <ele>6</ele>
        <time>2014-12-24T17:44:57.000Z</time>
      </trkpt>
      <trkpt lat="49.92113" lon="1.07862">
        <ele>6</ele>
        <time>2014-12-24T17:44:58.000Z</time>
      </trkpt>
      <trkpt lat="49.9211" lon="1.07862">
        <ele>6</ele>
        <time>2014-12-24T17:44:59.000Z</time>
      </trkpt>
      <trkpt lat="49.92107" lon="1.07862">
        <ele>6</ele>
        <time>2014-12-24T17:45:00.000Z</time>
      </trkpt>
      <trkpt lat="49.92104" lon="1.07862">
        <ele>6</ele>
        <time>2014-12-24T17:45:01.000Z</time>
      </trkpt>
      <trkpt lat="49.92101" lon="1.07862">
        <ele>6</ele>
        <time>2014-12-24T17:45:02.000Z</time>
      </trkpt>
      <trkpt lat="49.92098" lon="1.07862">
        <ele>6</ele>
        <time>2014-12-24T17:45:03.000Z</time>
      </trkpt>
      <trkpt lat="49.92095" lon="1.07862">
        <ele>6</ele>
        <time>2014-12-24T17:45:04.000Z</time>
      </trkpt>
      <trkpt lat="49.92092" lon="1.07862">
        <ele>6</ele>
        <time>2014-12-24T17:45:05.000Z</time>
      </trkpt>
      <trkpt lat="49.92089" lon="1.07862">
        <ele>6</ele>
        <time>2014-12-24T17:45:06.000Z</time>
      </trkpt>
      <trkpt lat="49.92086" lon="1.07862">
        <ele>6</ele>
        <time>2014-12-24T17:45:07.000Z</time>
      </trkpt>
      <trkpt lat="49.92083" lon="1.07862">
        <ele>6</ele>
        <time>2014-12-24T17:45:08.000Z</time>
      </trkpt>
      <trkpt lat="49.9208" lon="1.07862">
        <ele>6</ele>
        <time>2014-12-24T17:45:09.000Z</time>
      </trkpt>
      <trkpt lat="49.92077" lon="1.07862">
        <ele>6</ele>
        <time>2014-12-24T17:45:10.000Z</time>
      </trkpt>
      <trkpt lat="49.92074" lon="1.07863">
        <ele>6</ele>
        <time>2014-12-24T17:45:11.000Z</time>
      </trkpt>
      <trkpt lat="49.92071" lon="1.07863">
        <ele>6</ele>
        <time>2014-12-24T17:45:12.000Z</time>
      </trkpt>
      <trkpt lat="49.92068" lon="1.07863">
        <ele>6</ele>
        <time>2014-12-24T17:45:13.000Z</time>
      </trkpt>
      <trkpt lat="49.92065" lon="1.07864">
        <ele>6.1</ele>
        <time>2014-12-24T17:45:14.000Z</time>
      </trkpt>
      <trkpt lat="49.92061" lon="1.07865">
        <ele>6.1</ele>
        <time>2014-12-24T17:45:15.000Z</time>
      </trkpt>
      <trkpt lat="49.92058" lon="1.07866">
        <ele>6.2</ele>
        <time>2014-12-24T17:45:16.000Z</time>
      </trkpt>
      <trkpt lat="49.92055" lon="1.07867">
        <ele>6.2</ele>
        <time>2014-12-24T17:45:17.000Z</time>
      </trkpt>
      <trkpt lat="49.92051" lon="1.07868">
        <ele>6.2</ele>
        <time>2014-12-24T17:45:18.000Z</time>
      </trkpt>
      <trkpt lat="49.92048" lon="1.07868">
        <ele>6.2</ele>
        <time>2014-12-24T17:45:19.000Z</time>
      </trkpt>
      <trkpt lat="49.92045" lon="1.07868">
        <ele>6.3</ele>
        <time>2014-12-24T17:45:20.000Z</time>
      </trkpt>
      <trkpt lat="49.92041" lon="1.07868">
        <ele>6.3</ele>
        <time>2014-12-24T17:45:21.000Z</time>
      </trkpt>
      <trkpt lat="49.92038" lon="1.07869">
        <ele>6.3</ele>
        <time>2014-12-24T17:45:22.000Z</time>
      </trkpt>
      <trkpt lat="49.92035" lon="1.07869">
        <ele>6.3</ele>
        <time>2014-12-24T17:45:23.000Z</time>
      </trkpt>
      <trkpt lat="49.92031" lon="1.0787">
        <ele>6.3</ele>
        <time>2014-12-24T17:45:24.000Z</time>
      </trkpt>
      <trkpt lat="49.92028" lon="1.07871">
        <ele>6.4</ele>
        <time>2014-12-24T17:45:25.000Z</time>
      </trkpt>
      <trkpt lat="49.92025" lon="1.07872">
        <ele>6.5</ele>
        <time>2014-12-24T17:45:26.000Z</time>
      </trkpt>
      <trkpt lat="49.92022" lon="1.07873">
        <ele>6.5</ele>
        <time>2014-12-24T17:45:27.000Z</time>
      </trkpt>
      <trkpt lat="49.92019" lon="1.07873">
        <ele>6.6</ele>
        <time>2014-12-24T17:45:28.000Z</time>
      </trkpt>
      <trkpt lat="49.92016" lon="1.07874">
        <ele>6.7</ele>
        <time>2014-12-24T17:45:29.000Z</time>
      </trkpt>
      <trkpt lat="49.92013" lon="1.07875">
        <ele>6.8</ele>
        <time>2014-12-24T17:45:30.000Z</time>
      </trkpt>
      <trkpt lat="49.9201" lon="1.07875">
        <ele>6.8</ele>
        <time>2014-12-24T17:45:31.000Z</time>
      </trkpt>
      <trkpt lat="49.92007" lon="1.07876">
        <ele>6.9</ele>
        <time>2014-12-24T17:45:32.000Z</time>
      </trkpt>
      <trkpt lat="49.92004" lon="1.07876">
        <ele>6.9</ele>
        <time>2014-12-24T17:45:33.000Z</time>
      </trkpt>
      <trkpt lat="49.92001" lon="1.07876">
        <ele>7</ele>
        <time>2014-12-24T17:45:34.000Z</time>
      </trkpt>
      <trkpt lat="49.91997" lon="1.07876">
        <ele>7</ele>
        <time>2014-12-24T17:45:35.000Z</time>
      </trkpt>
      <trkpt lat="49.91994" lon="1.07876">
        <ele>7</ele>
        <time>2014-12-24T17:45:36.000Z</time>
      </trkpt>
      <trkpt lat="49.9199" lon="1.07877">
        <ele>7</ele>
        <time>2014-12-24T17:45:37.000Z</time>
      </trkpt>
      <trkpt lat="49.91987" lon="1.07877">
        <ele>7</ele>
        <time>2014-12-24T17:45:38.000Z</time>
      </trkpt>
      <trkpt lat="49.91984" lon="1.07878">
        <ele>7</ele>
        <time>2014-12-24T17:45:39.000Z</time>
      </trkpt>
      <trkpt lat="49.9198" lon="1.07878">
        <ele>7</ele>
        <time>2014-12-24T17:45:40.000Z</time>
      </trkpt>
      <trkpt lat="49.91977" lon="1.07879">
        <ele>7</ele>
        <time>2014-12-24T17:45:41.000Z</time>
      </trkpt>
      <trkpt lat="49.91974" lon="1.07878">
        <ele>7</ele>
        <time>2014-12-24T17:45:42.000Z</time>
      </trkpt>
      <trkpt lat="49.91971" lon="1.07876">
        <ele>7</ele>
        <time>2014-12-24T17:45:43.000Z</time>
      </trkpt>
      <trkpt lat="49.91969" lon="1.07873">
        <ele>7</ele>
        <time>2014-12-24T17:45:44.000Z</time>
      </trkpt>
      <trkpt lat="49.91967" lon="1.07868">
        <ele>7</ele>
        <time>2014-12-24T17:45:45.000Z</time>
      </trkpt>
      <trkpt lat="49.91966" lon="1.07863">
        <ele>7</ele>
        <time>2014-12-24T17:45:46.000Z</time>
      </trkpt>
      <trkpt lat="49.91966" lon="1.07857">
        <ele>7</ele>
        <time>2014-12-24T17:45:47.000Z</time>
      </trkpt>
      <trkpt lat="49.91966" lon="1.07852">
        <ele>7</ele>
        <time>2014-12-24T17:45:48.000Z</time>
      </trkpt>
      <trkpt lat="49.91966" lon="1.07846">
        <ele>7</ele>
        <time>2014-12-24T17:45:49.000Z</time>
      </trkpt>
      <trkpt lat="49.91966" lon="1.0784">
        <ele>7</ele>
        <time>2014-12-24T17:45:50.000Z</time>
      </trkpt>
      <trkpt lat="49.91966" lon="1.07835">
        <ele>7</ele>
        <time>2014-12-24T17:45:51.000Z</time>
      </trkpt>
      <trkpt lat="49.91965" lon="1.0783">
        <ele>7</ele>
        <time>2014-12-24T17:45:52.000Z</time>
      </trkpt>
      <trkpt lat="49.91964" lon="1.07825">
        <ele>7</ele>
        <time>2014-12-24T17:45:53.000Z</time>
      </trkpt>
      <trkpt lat="49.91963" lon="1.0782">
        <ele>7</ele>
        <time>2014-12-24T17:45:54.000Z</time>
      </trkpt>
      <trkpt lat="49.91962" lon="1.07816">
        <ele>7</ele>
        <time>2014-12-24T17:45:55.000Z</time>
      </trkpt>
      <trkpt lat="49.9196" lon="1.07811">
        <ele>7</ele>
        <time>2014-12-24T17:45:56.000Z</time>
      </trkpt>
      <trkpt lat="49.91959" lon="1.07806">
        <ele>7</ele>
        <time>2014-12-24T17:45:57.000Z</time>
      </trkpt>
      <trkpt lat="49.91959" lon="1.07801">
        <ele>7</ele>
        <time>2014-12-24T17:45:58.000Z</time>
      </trkpt>
      <trkpt lat="49.91958" lon="1.07796">
        <ele>7</ele>
        <time>2014-12-24T17:45:59.000Z</time>
      </trkpt>
      <trkpt lat="49.91958" lon="1.07791">
        <ele>7</ele>
        <time>2014-12-24T17:46:00.000Z</time>
      </trkpt>
      <trkpt lat="49.91957" lon="1.07786">
        <ele>7</ele>
        <time>2014-12-24T17:46:01.000Z</time>
      </trkpt>
      <trkpt lat="49.91957" lon="1.07781">
        <ele>7</ele>
        <time>2014-12-24T17:46:02.000Z</time>
      </trkpt>
      <trkpt lat="49.91957" lon="1.07776">
        <ele>7</ele>
        <time>2014-12-24T17:46:03.000Z</time>
      </trkpt>
      <trkpt lat="49.91957" lon="1.07771">
        <ele>7</ele>
        <time>2014-12-24T17:46:04.000Z</time>
      </trkpt>
      <trkpt lat="49.91956" lon="1.07766">
        <ele>7</ele>
        <time>2014-12-24T17:46:05.000Z</time>
      </trkpt>
      <trkpt lat="49.91956" lon="1.07761">
        <ele>7</ele>
        <time>2014-12-24T17:46:06.000Z</time>
      </trkpt>
      <trkpt lat="49.91956" lon="1.07756">
        <ele>7</ele>
        <time>2014-12-24T17:46:07.000Z</time>
      </trkpt>
      <trkpt lat="49.91955" lon="1.07751">
        <ele>7</ele>
        <time>2014-12-24T17:46:08.000Z</time>
      </trkpt>
      <trkpt lat="49.91955" lon="1.07747">
        <ele>7</ele>
        <time>2014-12-24T17:46:09.000Z</time>
      </trkpt>
      <trkpt lat="49.91955" lon="1.07742">
        <ele>7</ele>
        <time>2014-12-24T17:46:10.000Z</time>
      </trkpt>
      <trkpt lat="49.91955" lon="1.07738">
        <ele>7</ele>
        <time>2014-12-24T17:46:11.000Z</time>
      </trkpt>
      <trkpt lat="49.91954" lon="1.07734">
        <ele>7</ele>
        <time>2014-12-24T17:46:12.000Z</time>
      </trkpt>
      <trkpt lat="49.91953" lon="1.07731">
        <ele>7</ele>
        <time>2014-12-24T17:46:13.000Z</time>
      </trkpt>
      <trkpt lat="49.91951" lon="1.07728">
        <ele>7</ele>
        <time>2014-12-24T17:46:14.000Z</time>
      </trkpt>
      <trkpt lat="49.91949" lon="1.07726">
        <ele>7</ele>
        <time>2014-12-24T17:46:15.000Z</time>
      </trkpt>
      <trkpt lat="49.91946" lon="1.07724">
        <ele>7</ele>
        <time>2014-12-24T17:46:16.000Z</time>
      </trkpt>
      <trkpt lat="49.91944" lon="1.07723">
        <ele>7</ele>
        <time>2014-12-24T17:46:17.000Z</time>
      </trkpt>
      <trkpt lat="49.91941" lon="1.07721">
        <ele>7</ele>
        <time>2014-12-24T17:46:18.000Z</time>
      </trkpt>
      <trkpt lat="49.91938" lon="1.07721">
        <ele>7</ele>
        <time>2014-12-24T17:46:19.000Z</time>
      </trkpt>
      <trkpt lat="49.91935" lon="1.0772">
        <ele>7</ele>
        <time>2014-12-24T17:46:20.000Z</time>
      </trkpt>
      <trkpt lat="49.91932" lon="1.0772">
        <ele>7</ele>
        <time>2014-12-24T17:46:21.000Z</time>
      </trkpt>
      <trkpt lat="49.91929" lon="1.07719">
        <ele>7</ele>
        <time>2014-12-24T17:46:22.000Z</time>
      </trkpt>
      <trkpt lat="49.91926" lon="1.07719">
        <ele>7</ele>
        <time>2014-12-24T17:46:23.000Z</time>
      </trkpt>
      <trkpt lat="49.91924" lon="1.07719">
        <ele>7</ele>
        <time>2014-12-24T17:46:24.000Z</time>
      </trkpt>
      <trkpt lat="49.91918" lon="1.07719">
        <ele>7</ele>
        <time>2014-12-24T17:46:25.000Z</time>
      </trkpt>
      <trkpt lat="49.91917" lon="1.07719">
        <ele>7</ele>
        <time>2014-12-24T17:46:26.000Z</time>
      </trkpt>
      <trkpt lat="49.91914" lon="1.07719">
        <ele>7</ele>
        <time>2014-12-24T17:46:27.000Z</time>
      </trkpt>
      <trkpt lat="49.91911" lon="1.07719">
        <ele>7</ele>
        <time>2014-12-24T17:46:28.000Z</time>
      </trkpt>
      <trkpt lat="49.91906" lon="1.0772">
        <ele>7</ele>
        <time>2014-12-24T17:46:29.000Z</time>
      </trkpt>
      <trkpt lat="49.91902" lon="1.0772">
        <ele>7</ele>
        <time>2014-12-24T17:46:30.000Z</time>
      </trkpt>
      <trkpt lat="49.91898" lon="1.0772">
        <ele>7</ele>
        <time>2014-12-24T17:46:31.000Z</time>
      </trkpt>
      <trkpt lat="49.91893" lon="1.0772">
        <ele>7</ele>
        <time>2014-12-24T17:46:32.000Z</time>
      </trkpt>
      <trkpt lat="49.91889" lon="1.0772">
        <ele>7</ele>
        <time>2014-12-24T17:46:33.000Z</time>
      </trkpt>
      <trkpt lat="49.91886" lon="1.0772">
        <ele>7</ele>
        <time>2014-12-24T17:46:34.000Z</time>
      </trkpt>
      <trkpt lat="49.91882" lon="1.0772">
        <ele>7</ele>
        <time>2014-12-24T17:46:35.000Z</time>
      </trkpt>
      <trkpt lat="49.91878" lon="1.0772">
        <ele>7</ele>
        <time>2014-12-24T17:46:36.000Z</time>
      </trkpt>
      <trkpt lat="49.91874" lon="1.0772">
        <ele>7</ele>
        <time>2014-12-24T17:46:37.000Z</time>
      </trkpt>
      <trkpt lat="49.9187" lon="1.07721">
        <ele>7</ele>
        <time>2014-12-24T17:46:38.000Z</time>
      </trkpt>
      <trkpt lat="49.91866" lon="1.07721">
        <ele>7</ele>
        <time>2014-12-24T17:46:39.000Z</time>
      </trkpt>
      <trkpt lat="49.91863" lon="1.07722">
        <ele>7</ele>
        <time>2014-12-24T17:46:40.000Z</time>
      </trkpt>
      <trkpt lat="49.91859" lon="1.07722">
        <ele>7</ele>
        <time>2014-12-24T17:46:41.000Z</time>
      </trkpt>
      <trkpt lat="49.91852" lon="1.07725">
        <ele>7</ele>
        <time>2014-12-24T17:46:42.000Z</time>
      </trkpt>
      <trkpt lat="49.9185" lon="1.07725">
        <ele>7</ele>
        <time>2014-12-24T17:46:43.000Z</time>
      </trkpt>
      <trkpt lat="49.91848" lon="1.07724">
        <ele>7</ele>
        <time>2014-12-24T17:46:44.000Z</time>
      </trkpt>
      <trkpt lat="49.91846" lon="1.07725">
        <ele>7</ele>
        <time>2014-12-24T17:46:45.000Z</time>
      </trkpt>
      <trkpt lat="49.91843" lon="1.07725">
        <ele>7</ele>
        <time>2014-12-24T17:46:46.000Z</time>
      </trkpt>
      <trkpt lat="49.9184" lon="1.07725">
        <ele>7</ele>
        <time>2014-12-24T17:46:47.000Z</time>
      </trkpt>
      <trkpt lat="49.91837" lon="1.07725">
        <ele>7</ele>
        <time>2014-12-24T17:46:48.000Z</time>
      </trkpt>
      <trkpt lat="49.91834" lon="1.07726">
        <ele>7</ele>
        <time>2014-12-24T17:46:49.000Z</time>
      </trkpt>
      <trkpt lat="49.91831" lon="1.07725">
        <ele>7</ele>
        <time>2014-12-24T17:46:50.000Z</time>
      </trkpt>
      <trkpt lat="49.91828" lon="1.07725">
        <ele>7</ele>
        <time>2014-12-24T17:46:51.000Z</time>
      </trkpt>
      <trkpt lat="49.91825" lon="1.07726">
        <ele>7</ele>
        <time>2014-12-24T17:46:52.000Z</time>
      </trkpt>
      <trkpt lat="49.91821" lon="1.07725">
        <ele>7</ele>
        <time>2014-12-24T17:46:53.000Z</time>
      </trkpt>
      <trkpt lat="49.91817" lon="1.07725">
        <ele>7</ele>
        <time>2014-12-24T17:46:54.000Z</time>
      </trkpt>
      <trkpt lat="49.91814" lon="1.07724">
        <ele>7</ele>
        <time>2014-12-24T17:46:55.000Z</time>
      </trkpt>
      <trkpt lat="49.9181" lon="1.07724">
        <ele>7</ele>
        <time>2014-12-24T17:46:56.000Z</time>
      </trkpt>
      <trkpt lat="49.91806" lon="1.07723">
        <ele>7</ele>
        <time>2014-12-24T17:46:57.000Z</time>
      </trkpt>
      <trkpt lat="49.91802" lon="1.07723">
        <ele>7</ele>
        <time>2014-12-24T17:46:58.000Z</time>
      </trkpt>
      <trkpt lat="49.91799" lon="1.07723">
        <ele>7</ele>
        <time>2014-12-24T17:46:59.000Z</time>
      </trkpt>
      <trkpt lat="49.91795" lon="1.07725">
        <ele>7</ele>
        <time>2014-12-24T17:47:00.000Z</time>
      </trkpt>
      <trkpt lat="49.91791" lon="1.07727">
        <ele>7</ele>
        <time>2014-12-24T17:47:01.000Z</time>
      </trkpt>
      <trkpt lat="49.91788" lon="1.07729">
        <ele>7</ele>
        <time>2014-12-24T17:47:02.000Z</time>
      </trkpt>
      <trkpt lat="49.91785" lon="1.07733">
        <ele>7</ele>
        <time>2014-12-24T17:47:03.000Z</time>
      </trkpt>
      <trkpt lat="49.91783" lon="1.07736">
        <ele>7</ele>
        <time>2014-12-24T17:47:04.000Z</time>
      </trkpt>
      <trkpt lat="49.9178" lon="1.0774">
        <ele>7</ele>
        <time>2014-12-24T17:47:05.000Z</time>
      </trkpt>
      <trkpt lat="49.91777" lon="1.07743">
        <ele>7</ele>
        <time>2014-12-24T17:47:06.000Z</time>
      </trkpt>
      <trkpt lat="49.91774" lon="1.07745">
        <ele>7</ele>
        <time>2014-12-24T17:47:07.000Z</time>
      </trkpt>
      <trkpt lat="49.91771" lon="1.07746">
        <ele>7</ele>
        <time>2014-12-24T17:47:08.000Z</time>
      </trkpt>
      <trkpt lat="49.91768" lon="1.07747">
        <ele>7</ele>
        <time>2014-12-24T17:47:09.000Z</time>
      </trkpt>
      <trkpt lat="49.91765" lon="1.07748">
        <ele>7</ele>
        <time>2014-12-24T17:47:10.000Z</time>
      </trkpt>
      <trkpt lat="49.91762" lon="1.07747">
        <ele>7</ele>
        <time>2014-12-24T17:47:11.000Z</time>
      </trkpt>
      <trkpt lat="49.91759" lon="1.07747">
        <ele>7</ele>
        <time>2014-12-24T17:47:12.000Z</time>
      </trkpt>
      <trkpt lat="49.91756" lon="1.07745">
        <ele>7</ele>
        <time>2014-12-24T17:47:13.000Z</time>
      </trkpt>
      <trkpt lat="49.91754" lon="1.07744">
        <ele>7</ele>
        <time>2014-12-24T17:47:14.000Z</time>
      </trkpt>
      <trkpt lat="49.91751" lon="1.07744">
        <ele>7</ele>
        <time>2014-12-24T17:47:15.000Z</time>
      </trkpt>
      <trkpt lat="49.91748" lon="1.07744">
        <ele>7.2</ele>
        <time>2014-12-24T17:47:16.000Z</time>
      </trkpt>
      <trkpt lat="49.91744" lon="1.07745">
        <ele>7.4</ele>
        <time>2014-12-24T17:47:17.000Z</time>
      </trkpt>
      <trkpt lat="49.91741" lon="1.07747">
        <ele>7.6</ele>
        <time>2014-12-24T17:47:18.000Z</time>
      </trkpt>
      <trkpt lat="49.91737" lon="1.07749">
        <ele>7.6</ele>
        <time>2014-12-24T17:47:19.000Z</time>
      </trkpt>
      <trkpt lat="49.91734" lon="1.07751">
        <ele>7.6</ele>
        <time>2014-12-24T17:47:20.000Z</time>
      </trkpt>
      <trkpt lat="49.91731" lon="1.07754">
        <ele>7.6</ele>
        <time>2014-12-24T17:47:21.000Z</time>
      </trkpt>
      <trkpt lat="49.91728" lon="1.07756">
        <ele>7.6</ele>
        <time>2014-12-24T17:47:22.000Z</time>
      </trkpt>
      <trkpt lat="49.91725" lon="1.07759">
        <ele>7.6</ele>
        <time>2014-12-24T17:47:23.000Z</time>
      </trkpt>
      <trkpt lat="49.91721" lon="1.07761">
        <ele>7.8</ele>
        <time>2014-12-24T17:47:24.000Z</time>
      </trkpt>
      <trkpt lat="49.91718" lon="1.07764">
        <ele>8.3</ele>
        <time>2014-12-24T17:47:25.000Z</time>
      </trkpt>
      <trkpt lat="49.91715" lon="1.07767">
        <ele>8.6</ele>
        <time>2014-12-24T17:47:26.000Z</time>
      </trkpt>
      <trkpt lat="49.91712" lon="1.07769">
        <ele>8.8</ele>
        <time>2014-12-24T17:47:27.000Z</time>
      </trkpt>
      <trkpt lat="49.91709" lon="1.07772">
        <ele>8.8</ele>
        <time>2014-12-24T17:47:28.000Z</time>
      </trkpt>
      <trkpt lat="49.91706" lon="1.07775">
        <ele>8.7</ele>
        <time>2014-12-24T17:47:29.000Z</time>
      </trkpt>
      <trkpt lat="49.91703" lon="1.07778">
        <ele>8.4</ele>
        <time>2014-12-24T17:47:30.000Z</time>
      </trkpt>
      <trkpt lat="49.91699" lon="1.07782">
        <ele>8.4</ele>
        <time>2014-12-24T17:47:31.000Z</time>
      </trkpt>
      <trkpt lat="49.91696" lon="1.07784">
        <ele>8.4</ele>
        <time>2014-12-24T17:47:32.000Z</time>
      </trkpt>
      <trkpt lat="49.91693" lon="1.07787">
        <ele>8.7</ele>
        <time>2014-12-24T17:47:33.000Z</time>
      </trkpt>
      <trkpt lat="49.91689" lon="1.07789">
        <ele>9.2</ele>
        <time>2014-12-24T17:47:34.000Z</time>
      </trkpt>
      <trkpt lat="49.91685" lon="1.07792">
        <ele>9.6</ele>
        <time>2014-12-24T17:47:35.000Z</time>
      </trkpt>
      <trkpt lat="49.91682" lon="1.07795">
        <ele>9.8</ele>
        <time>2014-12-24T17:47:36.000Z</time>
      </trkpt>
      <trkpt lat="49.91679" lon="1.07797">
        <ele>9.9</ele>
        <time>2014-12-24T17:47:37.000Z</time>
      </trkpt>
      <trkpt lat="49.91677" lon="1.078">
        <ele>9.8</ele>
        <time>2014-12-24T17:47:38.000Z</time>
      </trkpt>
      <trkpt lat="49.91674" lon="1.07804">
        <ele>9.5</ele>
        <time>2014-12-24T17:47:39.000Z</time>
      </trkpt>
      <trkpt lat="49.91672" lon="1.07808">
        <ele>9.2</ele>
        <time>2014-12-24T17:47:40.000Z</time>
      </trkpt>
      <trkpt lat="49.91669" lon="1.07812">
        <ele>9.1</ele>
        <time>2014-12-24T17:47:41.000Z</time>
      </trkpt>
      <trkpt lat="49.91667" lon="1.07815">
        <ele>8.9</ele>
        <time>2014-12-24T17:47:42.000Z</time>
      </trkpt>
      <trkpt lat="49.91664" lon="1.07819">
        <ele>8.9</ele>
        <time>2014-12-24T17:47:43.000Z</time>
      </trkpt>
      <trkpt lat="49.91661" lon="1.07822">
        <ele>8.8</ele>
        <time>2014-12-24T17:47:44.000Z</time>
      </trkpt>
      <trkpt lat="49.91659" lon="1.07825">
        <ele>8.8</ele>
        <time>2014-12-24T17:47:45.000Z</time>
      </trkpt>
      <trkpt lat="49.91656" lon="1.07828">
        <ele>8.8</ele>
        <time>2014-12-24T17:47:46.000Z</time>
      </trkpt>
      <trkpt lat="49.91653" lon="1.0783">
        <ele>8.8</ele>
        <time>2014-12-24T17:47:47.000Z</time>
      </trkpt>
      <trkpt lat="49.9165" lon="1.07833">
        <ele>8.9</ele>
        <time>2014-12-24T17:47:48.000Z</time>
      </trkpt>
      <trkpt lat="49.91647" lon="1.07836">
        <ele>8.9</ele>
        <time>2014-12-24T17:47:49.000Z</time>
      </trkpt>
      <trkpt lat="49.91644" lon="1.07839">
        <ele>8.9</ele>
        <time>2014-12-24T17:47:50.000Z</time>
      </trkpt>
      <trkpt lat="49.91642" lon="1.07842">
        <ele>8.8</ele>
        <time>2014-12-24T17:47:51.000Z</time>
      </trkpt>
      <trkpt lat="49.91639" lon="1.07846">
        <ele>8.7</ele>
        <time>2014-12-24T17:47:52.000Z</time>
      </trkpt>
      <trkpt lat="49.91636" lon="1.07849">
        <ele>8.8</ele>
        <time>2014-12-24T17:47:53.000Z</time>
      </trkpt>
      <trkpt lat="49.91633" lon="1.07852">
        <ele>8.9</ele>
        <time>2014-12-24T17:47:54.000Z</time>
      </trkpt>
      <trkpt lat="49.9163" lon="1.07855">
        <ele>8.9</ele>
        <time>2014-12-24T17:47:55.000Z</time>
      </trkpt>
      <trkpt lat="49.91628" lon="1.07858">
        <ele>8.8</ele>
        <time>2014-12-24T17:47:56.000Z</time>
      </trkpt>
      <trkpt lat="49.91625" lon="1.07861">
        <ele>8.6</ele>
        <time>2014-12-24T17:47:57.000Z</time>
      </trkpt>
      <trkpt lat="49.91622" lon="1.07863">
        <ele>8.6</ele>
        <time>2014-12-24T17:47:58.000Z</time>
      </trkpt>
      <trkpt lat="49.9162" lon="1.07866">
        <ele>8.7</ele>
        <time>2014-12-24T17:47:59.000Z</time>
      </trkpt>
      <trkpt lat="49.91617" lon="1.07868">
        <ele>8.7</ele>
        <time>2014-12-24T17:48:00.000Z</time>
      </trkpt>
      <trkpt lat="49.91614" lon="1.07871">
        <ele>8.7</ele>
        <time>2014-12-24T17:48:01.000Z</time>
      </trkpt>
      <trkpt lat="49.91611" lon="1.07874">
        <ele>8.6</ele>
        <time>2014-12-24T17:48:02.000Z</time>
      </trkpt>
      <trkpt lat="49.91609" lon="1.07877">
        <ele>8.9</ele>
        <time>2014-12-24T17:48:03.000Z</time>
      </trkpt>
      <trkpt lat="49.91606" lon="1.0788">
        <ele>9.2</ele>
        <time>2014-12-24T17:48:04.000Z</time>
      </trkpt>
      <trkpt lat="49.91603" lon="1.07883">
        <ele>9.4</ele>
        <time>2014-12-24T17:48:05.000Z</time>
      </trkpt>
      <trkpt lat="49.916" lon="1.07885">
        <ele>9.4</ele>
        <time>2014-12-24T17:48:06.000Z</time>
      </trkpt>
      <trkpt lat="49.91597" lon="1.07889">
        <ele>9.1</ele>
        <time>2014-12-24T17:48:07.000Z</time>
      </trkpt>
      <trkpt lat="49.91594" lon="1.07892">
        <ele>9.2</ele>
        <time>2014-12-24T17:48:08.000Z</time>
      </trkpt>
      <trkpt lat="49.91592" lon="1.07895">
        <ele>9.3</ele>
        <time>2014-12-24T17:48:09.000Z</time>
      </trkpt>
      <trkpt lat="49.91589" lon="1.07897">
        <ele>9.5</ele>
        <time>2014-12-24T17:48:10.000Z</time>
      </trkpt>
      <trkpt lat="49.91586" lon="1.07899">
        <ele>9.6</ele>
        <time>2014-12-24T17:48:11.000Z</time>
      </trkpt>
      <trkpt lat="49.91583" lon="1.07902">
        <ele>9.6</ele>
        <time>2014-12-24T17:48:12.000Z</time>
      </trkpt>
      <trkpt lat="49.91581" lon="1.07905">
        <ele>10.2</ele>
        <time>2014-12-24T17:48:13.000Z</time>
      </trkpt>
      <trkpt lat="49.91578" lon="1.07908">
        <ele>10.6</ele>
        <time>2014-12-24T17:48:14.000Z</time>
      </trkpt>
      <trkpt lat="49.91575" lon="1.07912">
        <ele>10.8</ele>
        <time>2014-12-24T17:48:15.000Z</time>
      </trkpt>
      <trkpt lat="49.91573" lon="1.07915">
        <ele>10.9</ele>
        <time>2014-12-24T17:48:16.000Z</time>
      </trkpt>
      <trkpt lat="49.9157" lon="1.07919">
        <ele>11.1</ele>
        <time>2014-12-24T17:48:17.000Z</time>
      </trkpt>
      <trkpt lat="49.91567" lon="1.07922">
        <ele>11.3</ele>
        <time>2014-12-24T17:48:18.000Z</time>
      </trkpt>
      <trkpt lat="49.91565" lon="1.07925">
        <ele>11.4</ele>
        <time>2014-12-24T17:48:19.000Z</time>
      </trkpt>
      <trkpt lat="49.91562" lon="1.07928">
        <ele>11.2</ele>
        <time>2014-12-24T17:48:20.000Z</time>
      </trkpt>
      <trkpt lat="49.91559" lon="1.07932">
        <ele>10.9</ele>
        <time>2014-12-24T17:48:21.000Z</time>
      </trkpt>
      <trkpt lat="49.91556" lon="1.07935">
        <ele>10.4</ele>
        <time>2014-12-24T17:48:22.000Z</time>
      </trkpt>
      <trkpt lat="49.91553" lon="1.07938">
        <ele>9.7</ele>
        <time>2014-12-24T17:48:23.000Z</time>
      </trkpt>
      <trkpt lat="49.9155" lon="1.07941">
        <ele>8.9</ele>
        <time>2014-12-24T17:48:24.000Z</time>
      </trkpt>
      <trkpt lat="49.91547" lon="1.07945">
        <ele>8.3</ele>
        <time>2014-12-24T17:48:25.000Z</time>
      </trkpt>
      <trkpt lat="49.91544" lon="1.07947">
        <ele>8.3</ele>
        <time>2014-12-24T17:48:26.000Z</time>
      </trkpt>
      <trkpt lat="49.91541" lon="1.07949">
        <ele>8.3</ele>
        <time>2014-12-24T17:48:27.000Z</time>
      </trkpt>
      <trkpt lat="49.91538" lon="1.07952">
        <ele>8.3</ele>
        <time>2014-12-24T17:48:28.000Z</time>
      </trkpt>
      <trkpt lat="49.91535" lon="1.07955">
        <ele>8.4</ele>
        <time>2014-12-24T17:48:29.000Z</time>
      </trkpt>
      <trkpt lat="49.91532" lon="1.07959">
        <ele>8.3</ele>
        <time>2014-12-24T17:48:30.000Z</time>
      </trkpt>
      <trkpt lat="49.91529" lon="1.07963">
        <ele>8.3</ele>
        <time>2014-12-24T17:48:31.000Z</time>
      </trkpt>
      <trkpt lat="49.91527" lon="1.07966">
        <ele>8.2</ele>
        <time>2014-12-24T17:48:32.000Z</time>
      </trkpt>
      <trkpt lat="49.91525" lon="1.0797">
        <ele>8.2</ele>
        <time>2014-12-24T17:48:33.000Z</time>
      </trkpt>
      <trkpt lat="49.91523" lon="1.07974">
        <ele>8.2</ele>
        <time>2014-12-24T17:48:34.000Z</time>
      </trkpt>
      <trkpt lat="49.9152" lon="1.07977">
        <ele>8.2</ele>
        <time>2014-12-24T17:48:35.000Z</time>
      </trkpt>
      <trkpt lat="49.91518" lon="1.0798">
        <ele>8.3</ele>
        <time>2014-12-24T17:48:36.000Z</time>
      </trkpt>
      <trkpt lat="49.91516" lon="1.07984">
        <ele>8.3</ele>
        <time>2014-12-24T17:48:37.000Z</time>
      </trkpt>
      <trkpt lat="49.91513" lon="1.07987">
        <ele>8.2</ele>
        <time>2014-12-24T17:48:38.000Z</time>
      </trkpt>
      <trkpt lat="49.91511" lon="1.07991">
        <ele>8.2</ele>
        <time>2014-12-24T17:48:39.000Z</time>
      </trkpt>
      <trkpt lat="49.91508" lon="1.07995">
        <ele>8.1</ele>
        <time>2014-12-24T17:48:40.000Z</time>
      </trkpt>
      <trkpt lat="49.91505" lon="1.07998">
        <ele>8.1</ele>
        <time>2014-12-24T17:48:41.000Z</time>
      </trkpt>
      <trkpt lat="49.91502" lon="1.08001">
        <ele>8</ele>
        <time>2014-12-24T17:48:42.000Z</time>
      </trkpt>
      <trkpt lat="49.91499" lon="1.08004">
        <ele>8</ele>
        <time>2014-12-24T17:48:43.000Z</time>
      </trkpt>
      <trkpt lat="49.91497" lon="1.08007">
        <ele>8.1</ele>
        <time>2014-12-24T17:48:44.000Z</time>
      </trkpt>
      <trkpt lat="49.91494" lon="1.0801">
        <ele>8.1</ele>
        <time>2014-12-24T17:48:45.000Z</time>
      </trkpt>
      <trkpt lat="49.91491" lon="1.08013">
        <ele>8.2</ele>
        <time>2014-12-24T17:48:46.000Z</time>
      </trkpt>
      <trkpt lat="49.91489" lon="1.08017">
        <ele>8.1</ele>
        <time>2014-12-24T17:48:47.000Z</time>
      </trkpt>
      <trkpt lat="49.91487" lon="1.08021">
        <ele>8.1</ele>
        <time>2014-12-24T17:48:48.000Z</time>
      </trkpt>
      <trkpt lat="49.91486" lon="1.08025">
        <ele>8</ele>
        <time>2014-12-24T17:48:49.000Z</time>
      </trkpt>
      <trkpt lat="49.91484" lon="1.08029">
        <ele>8</ele>
        <time>2014-12-24T17:48:50.000Z</time>
      </trkpt>
      <trkpt lat="49.91482" lon="1.08033">
        <ele>8</ele>
        <time>2014-12-24T17:48:51.000Z</time>
      </trkpt>
      <trkpt lat="49.91479" lon="1.08037">
        <ele>8</ele>
        <time>2014-12-24T17:48:52.000Z</time>
      </trkpt>
      <trkpt lat="49.91477" lon="1.0804">
        <ele>8</ele>
        <time>2014-12-24T17:48:53.000Z</time>
      </trkpt>
      <trkpt lat="49.91475" lon="1.08044">
        <ele>8</ele>
        <time>2014-12-24T17:48:54.000Z</time>
      </trkpt>
      <trkpt lat="49.91472" lon="1.08047">
        <ele>8</ele>
        <time>2014-12-24T17:48:55.000Z</time>
      </trkpt>
      <trkpt lat="49.91469" lon="1.08051">
        <ele>8</ele>
        <time>2014-12-24T17:48:56.000Z</time>
      </trkpt>
      <trkpt lat="49.91467" lon="1.08054">
        <ele>8</ele>
        <time>2014-12-24T17:48:57.000Z</time>
      </trkpt>
      <trkpt lat="49.91464" lon="1.08057">
        <ele>8</ele>
        <time>2014-12-24T17:48:58.000Z</time>
      </trkpt>
      <trkpt lat="49.91461" lon="1.0806">
        <ele>7.9</ele>
        <time>2014-12-24T17:48:59.000Z</time>
      </trkpt>
      <trkpt lat="49.91459" lon="1.08063">
        <ele>7.9</ele>
        <time>2014-12-24T17:49:00.000Z</time>
      </trkpt>
      <trkpt lat="49.91456" lon="1.08066">
        <ele>7.8</ele>
        <time>2014-12-24T17:49:01.000Z</time>
      </trkpt>
      <trkpt lat="49.91453" lon="1.0807">
        <ele>7.8</ele>
        <time>2014-12-24T17:49:02.000Z</time>
      </trkpt>
      <trkpt lat="49.9145" lon="1.08073">
        <ele>7.9</ele>
        <time>2014-12-24T17:49:03.000Z</time>
      </trkpt>
      <trkpt lat="49.91447" lon="1.08076">
        <ele>7.9</ele>
        <time>2014-12-24T17:49:04.000Z</time>
      </trkpt>
      <trkpt lat="49.91445" lon="1.08079">
        <ele>8</ele>
        <time>2014-12-24T17:49:05.000Z</time>
      </trkpt>
      <trkpt lat="49.91442" lon="1.08082">
        <ele>8</ele>
        <time>2014-12-24T17:49:06.000Z</time>
      </trkpt>
      <trkpt lat="49.91439" lon="1.08084">
        <ele>8</ele>
        <time>2014-12-24T17:49:07.000Z</time>
      </trkpt>
      <trkpt lat="49.91436" lon="1.08086">
        <ele>7.9</ele>
        <time>2014-12-24T17:49:08.000Z</time>
      </trkpt>
      <trkpt lat="49.91433" lon="1.08089">
        <ele>7.8</ele>
        <time>2014-12-24T17:49:09.000Z</time>
      </trkpt>
      <trkpt lat="49.9143" lon="1.08092">
        <ele>7.7</ele>
        <time>2014-12-24T17:49:10.000Z</time>
      </trkpt>
      <trkpt lat="49.91427" lon="1.08095">
        <ele>7.6</ele>
        <time>2014-12-24T17:49:11.000Z</time>
      </trkpt>
      <trkpt lat="49.91425" lon="1.08098">
        <ele>7.5</ele>
        <time>2014-12-24T17:49:12.000Z</time>
      </trkpt>
      <trkpt lat="49.91422" lon="1.08101">
        <ele>7.4</ele>
        <time>2014-12-24T17:49:13.000Z</time>
      </trkpt>
      <trkpt lat="49.91419" lon="1.08104">
        <ele>7.3</ele>
        <time>2014-12-24T17:49:14.000Z</time>
      </trkpt>
      <trkpt lat="49.91416" lon="1.08107">
        <ele>7.2</ele>
        <time>2014-12-24T17:49:15.000Z</time>
      </trkpt>
      <trkpt lat="49.91413" lon="1.0811">
        <ele>7.2</ele>
        <time>2014-12-24T17:49:16.000Z</time>
      </trkpt>
      <trkpt lat="49.9141" lon="1.08113">
        <ele>7.2</ele>
        <time>2014-12-24T17:49:17.000Z</time>
      </trkpt>
      <trkpt lat="49.91407" lon="1.08116">
        <ele>7.3</ele>
        <time>2014-12-24T17:49:18.000Z</time>
      </trkpt>
      <trkpt lat="49.91404" lon="1.08119">
        <ele>7.3</ele>
        <time>2014-12-24T17:49:19.000Z</time>
      </trkpt>
      <trkpt lat="49.91401" lon="1.08122">
        <ele>7.3</ele>
        <time>2014-12-24T17:49:20.000Z</time>
      </trkpt>
      <trkpt lat="49.91399" lon="1.08125">
        <ele>7.3</ele>
        <time>2014-12-24T17:49:21.000Z</time>
      </trkpt>
      <trkpt lat="49.91396" lon="1.08128">
        <ele>7.3</ele>
        <time>2014-12-24T17:49:22.000Z</time>
      </trkpt>
      <trkpt lat="49.91393" lon="1.08131">
        <ele>7.2</ele>
        <time>2014-12-24T17:49:23.000Z</time>
      </trkpt>
      <trkpt lat="49.9139" lon="1.08135">
        <ele>7.1</ele>
        <time>2014-12-24T17:49:24.000Z</time>
      </trkpt>
      <trkpt lat="49.91387" lon="1.08138">
        <ele>7.2</ele>
        <time>2014-12-24T17:49:25.000Z</time>
      </trkpt>
      <trkpt lat="49.91385" lon="1.08141">
        <ele>7.2</ele>
        <time>2014-12-24T17:49:26.000Z</time>
      </trkpt>
      <trkpt lat="49.91382" lon="1.08144">
        <ele>7.3</ele>
        <time>2014-12-24T17:49:27.000Z</time>
      </trkpt>
      <trkpt lat="49.91379" lon="1.08147">
        <ele>7.3</ele>
        <time>2014-12-24T17:49:28.000Z</time>
      </trkpt>
      <trkpt lat="49.91377" lon="1.0815">
        <ele>7.3</ele>
        <time>2014-12-24T17:49:29.000Z</time>
      </trkpt>
      <trkpt lat="49.91374" lon="1.08153">
        <ele>7.3</ele>
        <time>2014-12-24T17:49:30.000Z</time>
      </trkpt>
      <trkpt lat="49.91371" lon="1.08155">
        <ele>7.3</ele>
        <time>2014-12-24T17:49:31.000Z</time>
      </trkpt>
      <trkpt lat="49.91369" lon="1.08158">
        <ele>7.3</ele>
        <time>2014-12-24T17:49:32.000Z</time>
      </trkpt>
      <trkpt lat="49.91367" lon="1.08161">
        <ele>7.2</ele>
        <time>2014-12-24T17:49:33.000Z</time>
      </trkpt>
      <trkpt lat="49.91364" lon="1.08164">
        <ele>7.1</ele>
        <time>2014-12-24T17:49:34.000Z</time>
      </trkpt>
      <trkpt lat="49.91361" lon="1.08167">
        <ele>7</ele>
        <time>2014-12-24T17:49:35.000Z</time>
      </trkpt>
      <trkpt lat="49.91358" lon="1.08169">
        <ele>7.1</ele>
        <time>2014-12-24T17:49:36.000Z</time>
      </trkpt>
      <trkpt lat="49.91355" lon="1.08172">
        <ele>7.2</ele>
        <time>2014-12-24T17:49:37.000Z</time>
      </trkpt>
      <trkpt lat="49.91352" lon="1.08174">
        <ele>7.2</ele>
        <time>2014-12-24T17:49:38.000Z</time>
      </trkpt>
      <trkpt lat="49.9135" lon="1.08176">
        <ele>7.2</ele>
        <time>2014-12-24T17:49:39.000Z</time>
      </trkpt>
      <trkpt lat="49.91347" lon="1.08179">
        <ele>7.1</ele>
        <time>2014-12-24T17:49:40.000Z</time>
      </trkpt>
      <trkpt lat="49.91345" lon="1.08182">
        <ele>7</ele>
        <time>2014-12-24T17:49:41.000Z</time>
      </trkpt>
      <trkpt lat="49.91343" lon="1.08185">
        <ele>6.8</ele>
        <time>2014-12-24T17:49:42.000Z</time>
      </trkpt>
      <trkpt lat="49.9134" lon="1.08189">
        <ele>6.5</ele>
        <time>2014-12-24T17:49:43.000Z</time>
      </trkpt>
      <trkpt lat="49.91337" lon="1.08193">
        <ele>6.2</ele>
        <time>2014-12-24T17:49:44.000Z</time>
      </trkpt>
      <trkpt lat="49.91334" lon="1.08196">
        <ele>6</ele>
        <time>2014-12-24T17:49:45.000Z</time>
      </trkpt>
      <trkpt lat="49.91332" lon="1.08199">
        <ele>6.2</ele>
        <time>2014-12-24T17:49:46.000Z</time>
      </trkpt>
      <trkpt lat="49.91329" lon="1.08202">
        <ele>6.3</ele>
        <time>2014-12-24T17:49:47.000Z</time>
      </trkpt>
      <trkpt lat="49.91326" lon="1.08205">
        <ele>6.5</ele>
        <time>2014-12-24T17:49:48.000Z</time>
      </trkpt>
      <trkpt lat="49.91324" lon="1.08208">
        <ele>6.5</ele>
        <time>2014-12-24T17:49:49.000Z</time>
      </trkpt>
      <trkpt lat="49.91321" lon="1.0821">
        <ele>6.6</ele>
        <time>2014-12-24T17:49:50.000Z</time>
      </trkpt>
      <trkpt lat="49.91318" lon="1.08213">
        <ele>6.5</ele>
        <time>2014-12-24T17:49:51.000Z</time>
      </trkpt>
      <trkpt lat="49.91316" lon="1.08216">
        <ele>6.4</ele>
        <time>2014-12-24T17:49:52.000Z</time>
      </trkpt>
      <trkpt lat="49.91313" lon="1.08219">
        <ele>6.3</ele>
        <time>2014-12-24T17:49:53.000Z</time>
      </trkpt>
      <trkpt lat="49.91311" lon="1.08222">
        <ele>6</ele>
        <time>2014-12-24T17:49:54.000Z</time>
      </trkpt>
      <trkpt lat="49.91308" lon="1.08225">
        <ele>6</ele>
        <time>2014-12-24T17:49:55.000Z</time>
      </trkpt>
      <trkpt lat="49.91305" lon="1.08228">
        <ele>6</ele>
        <time>2014-12-24T17:49:56.000Z</time>
      </trkpt>
      <trkpt lat="49.91302" lon="1.08231">
        <ele>6.2</ele>
        <time>2014-12-24T17:49:57.000Z</time>
      </trkpt>
      <trkpt lat="49.913" lon="1.08234">
        <ele>6.3</ele>
        <time>2014-12-24T17:49:58.000Z</time>
      </trkpt>
      <trkpt lat="49.91297" lon="1.08237">
        <ele>6.3</ele>
        <time>2014-12-24T17:49:59.000Z</time>
      </trkpt>
      <trkpt lat="49.91294" lon="1.08239">
        <ele>6.3</ele>
        <time>2014-12-24T17:50:00.000Z</time>
      </trkpt>
      <trkpt lat="49.91291" lon="1.08242">
        <ele>6.3</ele>
        <time>2014-12-24T17:50:01.000Z</time>
      </trkpt>
      <trkpt lat="49.91288" lon="1.08245">
        <ele>6.2</ele>
        <time>2014-12-24T17:50:02.000Z</time>
      </trkpt>
      <trkpt lat="49.91285" lon="1.08248">
        <ele>6.1</ele>
        <time>2014-12-24T17:50:03.000Z</time>
      </trkpt>
      <trkpt lat="49.91282" lon="1.0825">
        <ele>6</ele>
        <time>2014-12-24T17:50:04.000Z</time>
      </trkpt>
      <trkpt lat="49.91279" lon="1.08253">
        <ele>5.9</ele>
        <time>2014-12-24T17:50:05.000Z</time>
      </trkpt>
      <trkpt lat="49.91276" lon="1.08255">
        <ele>6</ele>
        <time>2014-12-24T17:50:06.000Z</time>
      </trkpt>
      <trkpt lat="49.91273" lon="1.08258">
        <ele>6.1</ele>
        <time>2014-12-24T17:50:07.000Z</time>
      </trkpt>
      <trkpt lat="49.9127" lon="1.08261">
        <ele>6.2</ele>
        <time>2014-12-24T17:50:08.000Z</time>
      </trkpt>
      <trkpt lat="49.91268" lon="1.08263">
        <ele>6.3</ele>
        <time>2014-12-24T17:50:09.000Z</time>
      </trkpt>
      <trkpt lat="49.91265" lon="1.08265">
        <ele>6.3</ele>
        <time>2014-12-24T17:50:10.000Z</time>
      </trkpt>
      <trkpt lat="49.91263" lon="1.08268">
        <ele>6.3</ele>
        <time>2014-12-24T17:50:11.000Z</time>
      </trkpt>
      <trkpt lat="49.9126" lon="1.08271">
        <ele>6.2</ele>
        <time>2014-12-24T17:50:12.000Z</time>
      </trkpt>
      <trkpt lat="49.91258" lon="1.08274">
        <ele>6</ele>
        <time>2014-12-24T17:50:13.000Z</time>
      </trkpt>
      <trkpt lat="49.91255" lon="1.08277">
        <ele>5.9</ele>
        <time>2014-12-24T17:50:14.000Z</time>
      </trkpt>
      <trkpt lat="49.91252" lon="1.0828">
        <ele>5.8</ele>
        <time>2014-12-24T17:50:15.000Z</time>
      </trkpt>
      <trkpt lat="49.9125" lon="1.08283">
        <ele>5.9</ele>
        <time>2014-12-24T17:50:16.000Z</time>
      </trkpt>
      <trkpt lat="49.91247" lon="1.08286">
        <ele>6.1</ele>
        <time>2014-12-24T17:50:17.000Z</time>
      </trkpt>
      <trkpt lat="49.91244" lon="1.08289">
        <ele>6.3</ele>
        <time>2014-12-24T17:50:18.000Z</time>
      </trkpt>
      <trkpt lat="49.91242" lon="1.08292">
        <ele>6.4</ele>
        <time>2014-12-24T17:50:19.000Z</time>
      </trkpt>
      <trkpt lat="49.91239" lon="1.08295">
        <ele>6.4</ele>
        <time>2014-12-24T17:50:20.000Z</time>
      </trkpt>
      <trkpt lat="49.91236" lon="1.08298">
        <ele>6.3</ele>
        <time>2014-12-24T17:50:21.000Z</time>
      </trkpt>
      <trkpt lat="49.91234" lon="1.08301">
        <ele>6.1</ele>
        <time>2014-12-24T17:50:22.000Z</time>
      </trkpt>
      <trkpt lat="49.91231" lon="1.08304">
        <ele>5.8</ele>
        <time>2014-12-24T17:50:23.000Z</time>
      </trkpt>
      <trkpt lat="49.91229" lon="1.08307">
        <ele>5.7</ele>
        <time>2014-12-24T17:50:24.000Z</time>
      </trkpt>
      <trkpt lat="49.91226" lon="1.0831">
        <ele>5.7</ele>
        <time>2014-12-24T17:50:25.000Z</time>
      </trkpt>
      <trkpt lat="49.91224" lon="1.08313">
        <ele>5.7</ele>
        <time>2014-12-24T17:50:26.000Z</time>
      </trkpt>
      <trkpt lat="49.91221" lon="1.08315">
        <ele>5.8</ele>
        <time>2014-12-24T17:50:27.000Z</time>
      </trkpt>
      <trkpt lat="49.91219" lon="1.08318">
        <ele>6</ele>
        <time>2014-12-24T17:50:28.000Z</time>
      </trkpt>
      <trkpt lat="49.91216" lon="1.08321">
        <ele>6.1</ele>
        <time>2014-12-24T17:50:29.000Z</time>
      </trkpt>
      <trkpt lat="49.91214" lon="1.08324">
        <ele>6</ele>
        <time>2014-12-24T17:50:30.000Z</time>
      </trkpt>
      <trkpt lat="49.91212" lon="1.08327">
        <ele>5.9</ele>
        <time>2014-12-24T17:50:31.000Z</time>
      </trkpt>
      <trkpt lat="49.91209" lon="1.0833">
        <ele>5.8</ele>
        <time>2014-12-24T17:50:32.000Z</time>
      </trkpt>
      <trkpt lat="49.91207" lon="1.08332">
        <ele>5.7</ele>
        <time>2014-12-24T17:50:33.000Z</time>
      </trkpt>
      <trkpt lat="49.91205" lon="1.08334">
        <ele>5.6</ele>
        <time>2014-12-24T17:50:34.000Z</time>
      </trkpt>
      <trkpt lat="49.91203" lon="1.08336">
        <ele>5.6</ele>
        <time>2014-12-24T17:50:35.000Z</time>
      </trkpt>
      <trkpt lat="49.912" lon="1.08338">
        <ele>5.7</ele>
        <time>2014-12-24T17:50:36.000Z</time>
      </trkpt>
      <trkpt lat="49.91198" lon="1.0834">
        <ele>5.7</ele>
        <time>2014-12-24T17:50:37.000Z</time>
      </trkpt>
      <trkpt lat="49.91195" lon="1.08341">
        <ele>5.7</ele>
        <time>2014-12-24T17:50:38.000Z</time>
      </trkpt>
      <trkpt lat="49.91193" lon="1.08343">
        <ele>5.9</ele>
        <time>2014-12-24T17:50:39.000Z</time>
      </trkpt>
      <trkpt lat="49.9119" lon="1.08345">
        <ele>6.1</ele>
        <time>2014-12-24T17:50:40.000Z</time>
      </trkpt>
      <trkpt lat="49.91188" lon="1.08346">
        <ele>6.3</ele>
        <time>2014-12-24T17:50:41.000Z</time>
      </trkpt>
      <trkpt lat="49.91186" lon="1.08347">
        <ele>6.5</ele>
        <time>2014-12-24T17:50:42.000Z</time>
      </trkpt>
      <trkpt lat="49.91184" lon="1.08347">
        <ele>6.6</ele>
        <time>2014-12-24T17:50:43.000Z</time>
      </trkpt>
      <trkpt lat="49.91182" lon="1.08348">
        <ele>6.7</ele>
        <time>2014-12-24T17:50:44.000Z</time>
      </trkpt>
      <trkpt lat="49.9118" lon="1.08349">
        <ele>6.9</ele>
        <time>2014-12-24T17:50:45.000Z</time>
      </trkpt>
      <trkpt lat="49.91177" lon="1.0835">
        <ele>7.1</ele>
        <time>2014-12-24T17:50:46.000Z</time>
      </trkpt>
      <trkpt lat="49.91175" lon="1.0835">
        <ele>7.1</ele>
        <time>2014-12-24T17:50:47.000Z</time>
      </trkpt>
      <trkpt lat="49.91174" lon="1.08351">
        <ele>7.1</ele>
        <time>2014-12-24T17:50:48.000Z</time>
      </trkpt>
      <trkpt lat="49.91172" lon="1.08353">
        <ele>7.1</ele>
        <time>2014-12-24T17:50:49.000Z</time>
      </trkpt>
      <trkpt lat="49.91171" lon="1.08354">
        <ele>7</ele>
        <time>2014-12-24T17:50:50.000Z</time>
      </trkpt>
      <trkpt lat="49.91169" lon="1.08355">
        <ele>6.9</ele>
        <time>2014-12-24T17:50:51.000Z</time>
      </trkpt>
      <trkpt lat="49.91168" lon="1.08356">
        <ele>6.8</ele>
        <time>2014-12-24T17:50:52.000Z</time>
      </trkpt>
      <trkpt lat="49.91166" lon="1.08358">
        <ele>6.7</ele>
        <time>2014-12-24T17:50:53.000Z</time>
      </trkpt>
      <trkpt lat="49.91165" lon="1.08359">
        <ele>7</ele>
        <time>2014-12-24T17:50:54.000Z</time>
      </trkpt>
      <trkpt lat="49.91163" lon="1.08359">
        <ele>7.2</ele>
        <time>2014-12-24T17:50:55.000Z</time>
      </trkpt>
      <trkpt lat="49.91162" lon="1.0836">
        <ele>7.4</ele>
        <time>2014-12-24T17:50:56.000Z</time>
      </trkpt>
      <trkpt lat="49.9116" lon="1.08361">
        <ele>7.6</ele>
        <time>2014-12-24T17:50:57.000Z</time>
      </trkpt>
      <trkpt lat="49.91159" lon="1.08362">
        <ele>7.9</ele>
        <time>2014-12-24T17:50:58.000Z</time>
      </trkpt>
      <trkpt lat="49.91157" lon="1.08363">
        <ele>8.1</ele>
        <time>2014-12-24T17:50:59.000Z</time>
      </trkpt>
      <trkpt lat="49.91156" lon="1.08364">
        <ele>8.2</ele>
        <time>2014-12-24T17:51:00.000Z</time>
      </trkpt>
      <trkpt lat="49.91155" lon="1.08365">
        <ele>8.4</ele>
        <time>2014-12-24T17:51:01.000Z</time>
      </trkpt>
      <trkpt lat="49.91154" lon="1.08367">
        <ele>8.6</ele>
        <time>2014-12-24T17:51:02.000Z</time>
      </trkpt>
      <trkpt lat="49.91152" lon="1.08368">
        <ele>8.7</ele>
        <time>2014-12-24T17:51:03.000Z</time>
      </trkpt>
      <trkpt lat="49.91151" lon="1.08369">
        <ele>8.8</ele>
        <time>2014-12-24T17:51:04.000Z</time>
      </trkpt>
      <trkpt lat="49.9115" lon="1.0837">
        <ele>8.9</ele>
        <time>2014-12-24T17:51:05.000Z</time>
      </trkpt>
      <trkpt lat="49.91148" lon="1.08371">
        <ele>9</ele>
        <time>2014-12-24T17:51:06.000Z</time>
      </trkpt>
      <trkpt lat="49.91146" lon="1.08372">
        <ele>9.1</ele>
        <time>2014-12-24T17:51:07.000Z</time>
      </trkpt>
      <trkpt lat="49.91145" lon="1.08373">
        <ele>9.1</ele>
        <time>2014-12-24T17:51:08.000Z</time>
      </trkpt>
      <trkpt lat="49.91143" lon="1.08374">
        <ele>9.1</ele>
        <time>2014-12-24T17:51:09.000Z</time>
      </trkpt>
      <trkpt lat="49.91141" lon="1.08376">
        <ele>9</ele>
        <time>2014-12-24T17:51:10.000Z</time>
      </trkpt>
      <trkpt lat="49.91139" lon="1.08377">
        <ele>9</ele>
        <time>2014-12-24T17:51:11.000Z</time>
      </trkpt>
      <trkpt lat="49.91137" lon="1.08379">
        <ele>9.4</ele>
        <time>2014-12-24T17:51:12.000Z</time>
      </trkpt>
      <trkpt lat="49.91134" lon="1.0838">
        <ele>9.7</ele>
        <time>2014-12-24T17:51:13.000Z</time>
      </trkpt>
      <trkpt lat="49.91132" lon="1.08382">
        <ele>10.1</ele>
        <time>2014-12-24T17:51:14.000Z</time>
      </trkpt>
      <trkpt lat="49.9113" lon="1.08384">
        <ele>10.3</ele>
        <time>2014-12-24T17:51:15.000Z</time>
      </trkpt>
      <trkpt lat="49.91128" lon="1.08386">
        <ele>10.6</ele>
        <time>2014-12-24T17:51:16.000Z</time>
      </trkpt>
      <trkpt lat="49.91126" lon="1.08388">
        <ele>10.9</ele>
        <time>2014-12-24T17:51:17.000Z</time>
      </trkpt>
      <trkpt lat="49.91124" lon="1.0839">
        <ele>11.3</ele>
        <time>2014-12-24T17:51:18.000Z</time>
      </trkpt>
      <trkpt lat="49.91121" lon="1.08392">
        <ele>11.7</ele>
        <time>2014-12-24T17:51:19.000Z</time>
      </trkpt>
      <trkpt lat="49.91119" lon="1.08394">
        <ele>12</ele>
        <time>2014-12-24T17:51:20.000Z</time>
      </trkpt>
      <trkpt lat="49.91116" lon="1.08396">
        <ele>12.1</ele>
        <time>2014-12-24T17:51:21.000Z</time>
      </trkpt>
      <trkpt lat="49.91114" lon="1.08398">
        <ele>11.9</ele>
        <time>2014-12-24T17:51:22.000Z</time>
      </trkpt>
      <trkpt lat="49.91112" lon="1.08401">
        <ele>11.3</ele>
        <time>2014-12-24T17:51:23.000Z</time>
      </trkpt>
      <trkpt lat="49.9111" lon="1.08405">
        <ele>10.6</ele>
        <time>2014-12-24T17:51:24.000Z</time>
      </trkpt>
      <trkpt lat="49.91108" lon="1.08408">
        <ele>10</ele>
        <time>2014-12-24T17:51:25.000Z</time>
      </trkpt>
      <trkpt lat="49.91106" lon="1.08411">
        <ele>9.6</ele>
        <time>2014-12-24T17:51:26.000Z</time>
      </trkpt>
      <trkpt lat="49.91104" lon="1.08414">
        <ele>9.1</ele>
        <time>2014-12-24T17:51:27.000Z</time>
      </trkpt>
      <trkpt lat="49.91103" lon="1.08418">
        <ele>8.6</ele>
        <time>2014-12-24T17:51:28.000Z</time>
      </trkpt>
      <trkpt lat="49.91102" lon="1.08421">
        <ele>8.7</ele>
        <time>2014-12-24T17:51:29.000Z</time>
      </trkpt>
      <trkpt lat="49.911" lon="1.08424">
        <ele>8.8</ele>
        <time>2014-12-24T17:51:30.000Z</time>
      </trkpt>
      <trkpt lat="49.91098" lon="1.08426">
        <ele>9</ele>
        <time>2014-12-24T17:51:31.000Z</time>
      </trkpt>
      <trkpt lat="49.91096" lon="1.08429">
        <ele>9.1</ele>
        <time>2014-12-24T17:51:32.000Z</time>
      </trkpt>
      <trkpt lat="49.91094" lon="1.08431">
        <ele>9</ele>
        <time>2014-12-24T17:51:33.000Z</time>
      </trkpt>
      <trkpt lat="49.91092" lon="1.08435">
        <ele>8.5</ele>
        <time>2014-12-24T17:51:34.000Z</time>
      </trkpt>
      <trkpt lat="49.9109" lon="1.08439">
        <ele>7.9</ele>
        <time>2014-12-24T17:51:35.000Z</time>
      </trkpt>
      <trkpt lat="49.91088" lon="1.08443">
        <ele>7.2</ele>
        <time>2014-12-24T17:51:36.000Z</time>
      </trkpt>
      <trkpt lat="49.91086" lon="1.08447">
        <ele>6.8</ele>
        <time>2014-12-24T17:51:37.000Z</time>
      </trkpt>
      <trkpt lat="49.91084" lon="1.0845">
        <ele>6.8</ele>
        <time>2014-12-24T17:51:38.000Z</time>
      </trkpt>
      <trkpt lat="49.91082" lon="1.08453">
        <ele>7</ele>
        <time>2014-12-24T17:51:39.000Z</time>
      </trkpt>
      <trkpt lat="49.91079" lon="1.08457">
        <ele>7.2</ele>
        <time>2014-12-24T17:51:40.000Z</time>
      </trkpt>
      <trkpt lat="49.91077" lon="1.0846">
        <ele>7.3</ele>
        <time>2014-12-24T17:51:41.000Z</time>
      </trkpt>
      <trkpt lat="49.91075" lon="1.08463">
        <ele>7.3</ele>
        <time>2014-12-24T17:51:42.000Z</time>
      </trkpt>
      <trkpt lat="49.91073" lon="1.08466">
        <ele>7.2</ele>
        <time>2014-12-24T17:51:43.000Z</time>
      </trkpt>
      <trkpt lat="49.9107" lon="1.08468">
        <ele>7</ele>
        <time>2014-12-24T17:51:44.000Z</time>
      </trkpt>
      <trkpt lat="49.91068" lon="1.08471">
        <ele>6.7</ele>
        <time>2014-12-24T17:51:45.000Z</time>
      </trkpt>
      <trkpt lat="49.91066" lon="1.08474">
        <ele>6.6</ele>
        <time>2014-12-24T17:51:46.000Z</time>
      </trkpt>
      <trkpt lat="49.91064" lon="1.08477">
        <ele>6.6</ele>
        <time>2014-12-24T17:51:47.000Z</time>
      </trkpt>
      <trkpt lat="49.91062" lon="1.0848">
        <ele>6.6</ele>
        <time>2014-12-24T17:51:48.000Z</time>
      </trkpt>
      <trkpt lat="49.91059" lon="1.08483">
        <ele>6.6</ele>
        <time>2014-12-24T17:51:49.000Z</time>
      </trkpt>
      <trkpt lat="49.91057" lon="1.08486">
        <ele>6.5</ele>
        <time>2014-12-24T17:51:50.000Z</time>
      </trkpt>
      <trkpt lat="49.91054" lon="1.0849">
        <ele>6.4</ele>
        <time>2014-12-24T17:51:51.000Z</time>
      </trkpt>
      <trkpt lat="49.91052" lon="1.08494">
        <ele>6.4</ele>
        <time>2014-12-24T17:51:52.000Z</time>
      </trkpt>
      <trkpt lat="49.9105" lon="1.08497">
        <ele>6.4</ele>
        <time>2014-12-24T17:51:53.000Z</time>
      </trkpt>
      <trkpt lat="49.91047" lon="1.08501">
        <ele>6.3</ele>
        <time>2014-12-24T17:51:54.000Z</time>
      </trkpt>
      <trkpt lat="49.91045" lon="1.08504">
        <ele>6.4</ele>
        <time>2014-12-24T17:51:55.000Z</time>
      </trkpt>
      <trkpt lat="49.91043" lon="1.08508">
        <ele>6.5</ele>
        <time>2014-12-24T17:51:56.000Z</time>
      </trkpt>
      <trkpt lat="49.9104" lon="1.08511">
        <ele>6.5</ele>
        <time>2014-12-24T17:51:57.000Z</time>
      </trkpt>
      <trkpt lat="49.91038" lon="1.08514">
        <ele>6.5</ele>
        <time>2014-12-24T17:51:58.000Z</time>
      </trkpt>
      <trkpt lat="49.91035" lon="1.08517">
        <ele>6.4</ele>
        <time>2014-12-24T17:51:59.000Z</time>
      </trkpt>
      <trkpt lat="49.91033" lon="1.08521">
        <ele>6.4</ele>
        <time>2014-12-24T17:52:00.000Z</time>
      </trkpt>
      <trkpt lat="49.91031" lon="1.08523">
        <ele>6.2</ele>
        <time>2014-12-24T17:52:01.000Z</time>
      </trkpt>
      <trkpt lat="49.91029" lon="1.08526">
        <ele>6.1</ele>
        <time>2014-12-24T17:52:02.000Z</time>
      </trkpt>
      <trkpt lat="49.91027" lon="1.08529">
        <ele>6.1</ele>
        <time>2014-12-24T17:52:03.000Z</time>
      </trkpt>
      <trkpt lat="49.91025" lon="1.08531">
        <ele>6.2</ele>
        <time>2014-12-24T17:52:04.000Z</time>
      </trkpt>
      <trkpt lat="49.91023" lon="1.08534">
        <ele>6.3</ele>
        <time>2014-12-24T17:52:05.000Z</time>
      </trkpt>
      <trkpt lat="49.91021" lon="1.08536">
        <ele>6.4</ele>
        <time>2014-12-24T17:52:06.000Z</time>
      </trkpt>
      <trkpt lat="49.91019" lon="1.08539">
        <ele>6.5</ele>
        <time>2014-12-24T17:52:07.000Z</time>
      </trkpt>
      <trkpt lat="49.91017" lon="1.08541">
        <ele>6.5</ele>
        <time>2014-12-24T17:52:08.000Z</time>
      </trkpt>
      <trkpt lat="49.91015" lon="1.08544">
        <ele>6.5</ele>
        <time>2014-12-24T17:52:09.000Z</time>
      </trkpt>
      <trkpt lat="49.91013" lon="1.08546">
        <ele>6.5</ele>
        <time>2014-12-24T17:52:10.000Z</time>
      </trkpt>
      <trkpt lat="49.9101" lon="1.08549">
        <ele>6.4</ele>
        <time>2014-12-24T17:52:11.000Z</time>
      </trkpt>
      <trkpt lat="49.91008" lon="1.08551">
        <ele>6.4</ele>
        <time>2014-12-24T17:52:12.000Z</time>
      </trkpt>
      <trkpt lat="49.91006" lon="1.08553">
        <ele>6.3</ele>
        <time>2014-12-24T17:52:13.000Z</time>
      </trkpt>
      <trkpt lat="49.91004" lon="1.08556">
        <ele>6.1</ele>
        <time>2014-12-24T17:52:14.000Z</time>
      </trkpt>
      <trkpt lat="49.91001" lon="1.08559">
        <ele>6</ele>
        <time>2014-12-24T17:52:15.000Z</time>
      </trkpt>
      <trkpt lat="49.90999" lon="1.08562">
        <ele>6.1</ele>
        <time>2014-12-24T17:52:16.000Z</time>
      </trkpt>
      <trkpt lat="49.90996" lon="1.08565">
        <ele>6.3</ele>
        <time>2014-12-24T17:52:17.000Z</time>
      </trkpt>
      <trkpt lat="49.90994" lon="1.08568">
        <ele>6.4</ele>
        <time>2014-12-24T17:52:18.000Z</time>
      </trkpt>
      <trkpt lat="49.90991" lon="1.08571">
        <ele>6.4</ele>
        <time>2014-12-24T17:52:19.000Z</time>
      </trkpt>
      <trkpt lat="49.90988" lon="1.08574">
        <ele>6.4</ele>
        <time>2014-12-24T17:52:20.000Z</time>
      </trkpt>
      <trkpt lat="49.90986" lon="1.08577">
        <ele>6.3</ele>
        <time>2014-12-24T17:52:21.000Z</time>
      </trkpt>
      <trkpt lat="49.90983" lon="1.0858">
        <ele>6.2</ele>
        <time>2014-12-24T17:52:22.000Z</time>
      </trkpt>
      <trkpt lat="49.90981" lon="1.08583">
        <ele>6.1</ele>
        <time>2014-12-24T17:52:23.000Z</time>
      </trkpt>
      <trkpt lat="49.90978" lon="1.08585">
        <ele>6</ele>
        <time>2014-12-24T17:52:24.000Z</time>
      </trkpt>
      <trkpt lat="49.90976" lon="1.08588">
        <ele>6</ele>
        <time>2014-12-24T17:52:25.000Z</time>
      </trkpt>
      <trkpt lat="49.90974" lon="1.08591">
        <ele>6</ele>
        <time>2014-12-24T17:52:26.000Z</time>
      </trkpt>
      <trkpt lat="49.90972" lon="1.08593">
        <ele>6.1</ele>
        <time>2014-12-24T17:52:27.000Z</time>
      </trkpt>
      <trkpt lat="49.90969" lon="1.08596">
        <ele>6.4</ele>
        <time>2014-12-24T17:52:28.000Z</time>
      </trkpt>
      <trkpt lat="49.90967" lon="1.08599">
        <ele>6.6</ele>
        <time>2014-12-24T17:52:29.000Z</time>
      </trkpt>
      <trkpt lat="49.90965" lon="1.08601">
        <ele>6.7</ele>
        <time>2014-12-24T17:52:30.000Z</time>
      </trkpt>
      <trkpt lat="49.90963" lon="1.08604">
        <ele>6.8</ele>
        <time>2014-12-24T17:52:31.000Z</time>
      </trkpt>
      <trkpt lat="49.90961" lon="1.08607">
        <ele>6.7</ele>
        <time>2014-12-24T17:52:32.000Z</time>
      </trkpt>
      <trkpt lat="49.90958" lon="1.0861">
        <ele>6.6</ele>
        <time>2014-12-24T17:52:33.000Z</time>
      </trkpt>
      <trkpt lat="49.90956" lon="1.08614">
        <ele>6.5</ele>
        <time>2014-12-24T17:52:34.000Z</time>
      </trkpt>
      <trkpt lat="49.90954" lon="1.08617">
        <ele>6.5</ele>
        <time>2014-12-24T17:52:35.000Z</time>
      </trkpt>
      <trkpt lat="49.90952" lon="1.0862">
        <ele>6.5</ele>
        <time>2014-12-24T17:52:36.000Z</time>
      </trkpt>
      <trkpt lat="49.90949" lon="1.08624">
        <ele>6.5</ele>
        <time>2014-12-24T17:52:37.000Z</time>
      </trkpt>
      <trkpt lat="49.90947" lon="1.08627">
        <ele>6.4</ele>
        <time>2014-12-24T17:52:38.000Z</time>
      </trkpt>
      <trkpt lat="49.90945" lon="1.0863">
        <ele>6.3</ele>
        <time>2014-12-24T17:52:39.000Z</time>
      </trkpt>
      <trkpt lat="49.90943" lon="1.08633">
        <ele>6.4</ele>
        <time>2014-12-24T17:52:40.000Z</time>
      </trkpt>
      <trkpt lat="49.90941" lon="1.08636">
        <ele>6.4</ele>
        <time>2014-12-24T17:52:41.000Z</time>
      </trkpt>
      <trkpt lat="49.90938" lon="1.0864">
        <ele>6.4</ele>
        <time>2014-12-24T17:52:42.000Z</time>
      </trkpt>
      <trkpt lat="49.90936" lon="1.08643">
        <ele>6.6</ele>
        <time>2014-12-24T17:52:43.000Z</time>
      </trkpt>
      <trkpt lat="49.90934" lon="1.08647">
        <ele>6.7</ele>
        <time>2014-12-24T17:52:44.000Z</time>
      </trkpt>
      <trkpt lat="49.90932" lon="1.0865">
        <ele>6.7</ele>
        <time>2014-12-24T17:52:45.000Z</time>
      </trkpt>
      <trkpt lat="49.90929" lon="1.08654">
        <ele>6.8</ele>
        <time>2014-12-24T17:52:46.000Z</time>
      </trkpt>
      <trkpt lat="49.90927" lon="1.08657">
        <ele>6.8</ele>
        <time>2014-12-24T17:52:47.000Z</time>
      </trkpt>
      <trkpt lat="49.90925" lon="1.0866">
        <ele>6.9</ele>
        <time>2014-12-24T17:52:48.000Z</time>
      </trkpt>
      <trkpt lat="49.90923" lon="1.08664">
        <ele>6.9</ele>
        <time>2014-12-24T17:52:49.000Z</time>
      </trkpt>
      <trkpt lat="49.90921" lon="1.08667">
        <ele>6.9</ele>
        <time>2014-12-24T17:52:50.000Z</time>
      </trkpt>
      <trkpt lat="49.90918" lon="1.0867">
        <ele>6.8</ele>
        <time>2014-12-24T17:52:51.000Z</time>
      </trkpt>
      <trkpt lat="49.90916" lon="1.08673">
        <ele>6.8</ele>
        <time>2014-12-24T17:52:52.000Z</time>
      </trkpt>
      <trkpt lat="49.90914" lon="1.08676">
        <ele>6.8</ele>
        <time>2014-12-24T17:52:53.000Z</time>
      </trkpt>
      <trkpt lat="49.90912" lon="1.08679">
        <ele>6.8</ele>
        <time>2014-12-24T17:52:54.000Z</time>
      </trkpt>
      <trkpt lat="49.9091" lon="1.08682">
        <ele>6.8</ele>
        <time>2014-12-24T17:52:55.000Z</time>
      </trkpt>
      <trkpt lat="49.90908" lon="1.08685">
        <ele>6.7</ele>
        <time>2014-12-24T17:52:56.000Z</time>
      </trkpt>
      <trkpt lat="49.90906" lon="1.08689">
        <ele>6.7</ele>
        <time>2014-12-24T17:52:57.000Z</time>
      </trkpt>
      <trkpt lat="49.90904" lon="1.08692">
        <ele>6.6</ele>
        <time>2014-12-24T17:52:58.000Z</time>
      </trkpt>
      <trkpt lat="49.90901" lon="1.08696">
        <ele>6.5</ele>
        <time>2014-12-24T17:52:59.000Z</time>
      </trkpt>
      <trkpt lat="49.90899" lon="1.08699">
        <ele>6.5</ele>
        <time>2014-12-24T17:53:00.000Z</time>
      </trkpt>
      <trkpt lat="49.90897" lon="1.08702">
        <ele>6.5</ele>
        <time>2014-12-24T17:53:01.000Z</time>
      </trkpt>
      <trkpt lat="49.90895" lon="1.08705">
        <ele>6.5</ele>
        <time>2014-12-24T17:53:02.000Z</time>
      </trkpt>
      <trkpt lat="49.90893" lon="1.08709">
        <ele>6.4</ele>
        <time>2014-12-24T17:53:03.000Z</time>
      </trkpt>
      <trkpt lat="49.9089" lon="1.08712">
        <ele>6.3</ele>
        <time>2014-12-24T17:53:04.000Z</time>
      </trkpt>
      <trkpt lat="49.90888" lon="1.08716">
        <ele>6.3</ele>
        <time>2014-12-24T17:53:05.000Z</time>
      </trkpt>
      <trkpt lat="49.90886" lon="1.08719">
        <ele>6.2</ele>
        <time>2014-12-24T17:53:06.000Z</time>
      </trkpt>
      <trkpt lat="49.90884" lon="1.08723">
        <ele>6.2</ele>
        <time>2014-12-24T17:53:07.000Z</time>
      </trkpt>
      <trkpt lat="49.90882" lon="1.08726">
        <ele>6.3</ele>
        <time>2014-12-24T17:53:08.000Z</time>
      </trkpt>
      <trkpt lat="49.9088" lon="1.08729">
        <ele>6.3</ele>
        <time>2014-12-24T17:53:09.000Z</time>
      </trkpt>
      <trkpt lat="49.90878" lon="1.08733">
        <ele>6.4</ele>
        <time>2014-12-24T17:53:10.000Z</time>
      </trkpt>
      <trkpt lat="49.90875" lon="1.08737">
        <ele>6.5</ele>
        <time>2014-12-24T17:53:11.000Z</time>
      </trkpt>
      <trkpt lat="49.90873" lon="1.0874">
        <ele>6.6</ele>
        <time>2014-12-24T17:53:12.000Z</time>
      </trkpt>
      <trkpt lat="49.90871" lon="1.08744">
        <ele>6.6</ele>
        <time>2014-12-24T17:53:13.000Z</time>
      </trkpt>
      <trkpt lat="49.90869" lon="1.08747">
        <ele>6.7</ele>
        <time>2014-12-24T17:53:14.000Z</time>
      </trkpt>
      <trkpt lat="49.90867" lon="1.08751">
        <ele>6.8</ele>
        <time>2014-12-24T17:53:15.000Z</time>
      </trkpt>
      <trkpt lat="49.90865" lon="1.08754">
        <ele>6.7</ele>
        <time>2014-12-24T17:53:16.000Z</time>
      </trkpt>
      <trkpt lat="49.90863" lon="1.08757">
        <ele>6.7</ele>
        <time>2014-12-24T17:53:17.000Z</time>
      </trkpt>
      <trkpt lat="49.90861" lon="1.08761">
        <ele>6.6</ele>
        <time>2014-12-24T17:53:18.000Z</time>
      </trkpt>
      <trkpt lat="49.90859" lon="1.08764">
        <ele>6.5</ele>
        <time>2014-12-24T17:53:19.000Z</time>
      </trkpt>
      <trkpt lat="49.90856" lon="1.08767">
        <ele>6.5</ele>
        <time>2014-12-24T17:53:20.000Z</time>
      </trkpt>
      <trkpt lat="49.90854" lon="1.0877">
        <ele>6.5</ele>
        <time>2014-12-24T17:53:21.000Z</time>
      </trkpt>
      <trkpt lat="49.90852" lon="1.08773">
        <ele>6.4</ele>
        <time>2014-12-24T17:53:22.000Z</time>
      </trkpt>
      <trkpt lat="49.9085" lon="1.08776">
        <ele>6.4</ele>
        <time>2014-12-24T17:53:23.000Z</time>
      </trkpt>
      <trkpt lat="49.90848" lon="1.08779">
        <ele>6.4</ele>
        <time>2014-12-24T17:53:24.000Z</time>
      </trkpt>
      <trkpt lat="49.90846" lon="1.08782">
        <ele>6.5</ele>
        <time>2014-12-24T17:53:25.000Z</time>
      </trkpt>
      <trkpt lat="49.90844" lon="1.08785">
        <ele>6.5</ele>
        <time>2014-12-24T17:53:26.000Z</time>
      </trkpt>
      <trkpt lat="49.90842" lon="1.08788">
        <ele>6.4</ele>
        <time>2014-12-24T17:53:27.000Z</time>
      </trkpt>
      <trkpt lat="49.9084" lon="1.08791">
        <ele>6.4</ele>
        <time>2014-12-24T17:53:28.000Z</time>
      </trkpt>
      <trkpt lat="49.90838" lon="1.08794">
        <ele>6.4</ele>
        <time>2014-12-24T17:53:29.000Z</time>
      </trkpt>
      <trkpt lat="49.90836" lon="1.08797">
        <ele>6.3</ele>
        <time>2014-12-24T17:53:30.000Z</time>
      </trkpt>
      <trkpt lat="49.90834" lon="1.088">
        <ele>6.2</ele>
        <time>2014-12-24T17:53:31.000Z</time>
      </trkpt>
      <trkpt lat="49.90831" lon="1.08804">
        <ele>6.1</ele>
        <time>2014-12-24T17:53:32.000Z</time>
      </trkpt>
      <trkpt lat="49.90829" lon="1.08807">
        <ele>6.1</ele>
        <time>2014-12-24T17:53:33.000Z</time>
      </trkpt>
      <trkpt lat="49.90827" lon="1.0881">
        <ele>6.2</ele>
        <time>2014-12-24T17:53:34.000Z</time>
      </trkpt>
      <trkpt lat="49.90825" lon="1.08813">
        <ele>6.3</ele>
        <time>2014-12-24T17:53:35.000Z</time>
      </trkpt>
      <trkpt lat="49.90823" lon="1.08816">
        <ele>6.4</ele>
        <time>2014-12-24T17:53:36.000Z</time>
      </trkpt>
      <trkpt lat="49.90821" lon="1.0882">
        <ele>6.4</ele>
        <time>2014-12-24T17:53:37.000Z</time>
      </trkpt>
      <trkpt lat="49.90819" lon="1.08823">
        <ele>6.5</ele>
        <time>2014-12-24T17:53:38.000Z</time>
      </trkpt>
      <trkpt lat="49.90817" lon="1.08827">
        <ele>6.6</ele>
        <time>2014-12-24T17:53:39.000Z</time>
      </trkpt>
      <trkpt lat="49.90815" lon="1.0883">
        <ele>6.7</ele>
        <time>2014-12-24T17:53:40.000Z</time>
      </trkpt>
      <trkpt lat="49.90813" lon="1.08834">
        <ele>6.7</ele>
        <time>2014-12-24T17:53:41.000Z</time>
      </trkpt>
      <trkpt lat="49.9081" lon="1.08838">
        <ele>6.7</ele>
        <time>2014-12-24T17:53:42.000Z</time>
      </trkpt>
      <trkpt lat="49.90808" lon="1.08842">
        <ele>6.6</ele>
        <time>2014-12-24T17:53:43.000Z</time>
      </trkpt>
      <trkpt lat="49.90806" lon="1.08845">
        <ele>6.6</ele>
        <time>2014-12-24T17:53:44.000Z</time>
      </trkpt>
      <trkpt lat="49.90804" lon="1.08849">
        <ele>6.5</ele>
        <time>2014-12-24T17:53:45.000Z</time>
      </trkpt>
      <trkpt lat="49.90802" lon="1.08852">
        <ele>6.5</ele>
        <time>2014-12-24T17:53:46.000Z</time>
      </trkpt>
      <trkpt lat="49.908" lon="1.08856">
        <ele>6.4</ele>
        <time>2014-12-24T17:53:47.000Z</time>
      </trkpt>
      <trkpt lat="49.90798" lon="1.08859">
        <ele>6.4</ele>
        <time>2014-12-24T17:53:48.000Z</time>
      </trkpt>
      <trkpt lat="49.90795" lon="1.08862">
        <ele>6.4</ele>
        <time>2014-12-24T17:53:49.000Z</time>
      </trkpt>
      <trkpt lat="49.90793" lon="1.08865">
        <ele>6.4</ele>
        <time>2014-12-24T17:53:50.000Z</time>
      </trkpt>
      <trkpt lat="49.90791" lon="1.08869">
        <ele>6.4</ele>
        <time>2014-12-24T17:53:51.000Z</time>
      </trkpt>
      <trkpt lat="49.90789" lon="1.08872">
        <ele>6.4</ele>
        <time>2014-12-24T17:53:52.000Z</time>
      </trkpt>
      <trkpt lat="49.90787" lon="1.08875">
        <ele>6.3</ele>
        <time>2014-12-24T17:53:53.000Z</time>
      </trkpt>
      <trkpt lat="49.90785" lon="1.08878">
        <ele>6.3</ele>
        <time>2014-12-24T17:53:54.000Z</time>
      </trkpt>
      <trkpt lat="49.90783" lon="1.08882">
        <ele>6.2</ele>
        <time>2014-12-24T17:53:55.000Z</time>
      </trkpt>
      <trkpt lat="49.90781" lon="1.08885">
        <ele>6.1</ele>
        <time>2014-12-24T17:53:56.000Z</time>
      </trkpt>
      <trkpt lat="49.90778" lon="1.08888">
        <ele>6</ele>
        <time>2014-12-24T17:53:57.000Z</time>
      </trkpt>
      <trkpt lat="49.90776" lon="1.08891">
        <ele>6.2</ele>
        <time>2014-12-24T17:53:58.000Z</time>
      </trkpt>
      <trkpt lat="49.90774" lon="1.08893">
        <ele>6.3</ele>
        <time>2014-12-24T17:53:59.000Z</time>
      </trkpt>
      <trkpt lat="49.90772" lon="1.08896">
        <ele>6.5</ele>
        <time>2014-12-24T17:54:00.000Z</time>
      </trkpt>
      <trkpt lat="49.9077" lon="1.08899">
        <ele>6.6</ele>
        <time>2014-12-24T17:54:01.000Z</time>
      </trkpt>
      <trkpt lat="49.90768" lon="1.08903">
        <ele>6.7</ele>
        <time>2014-12-24T17:54:02.000Z</time>
      </trkpt>
      <trkpt lat="49.90766" lon="1.08906">
        <ele>6.7</ele>
        <time>2014-12-24T17:54:03.000Z</time>
      </trkpt>
      <trkpt lat="49.90764" lon="1.08909">
        <ele>6.8</ele>
        <time>2014-12-24T17:54:04.000Z</time>
      </trkpt>
      <trkpt lat="49.90762" lon="1.08912">
        <ele>6.7</ele>
        <time>2014-12-24T17:54:05.000Z</time>
      </trkpt>
      <trkpt lat="49.9076" lon="1.08915">
        <ele>6.7</ele>
        <time>2014-12-24T17:54:06.000Z</time>
      </trkpt>
      <trkpt lat="49.90758" lon="1.08919">
        <ele>6.7</ele>
        <time>2014-12-24T17:54:07.000Z</time>
      </trkpt>
      <trkpt lat="49.90756" lon="1.08922">
        <ele>6.6</ele>
        <time>2014-12-24T17:54:08.000Z</time>
      </trkpt>
      <trkpt lat="49.90754" lon="1.08925">
        <ele>6.6</ele>
        <time>2014-12-24T17:54:09.000Z</time>
      </trkpt>
      <trkpt lat="49.90752" lon="1.08928">
        <ele>6.5</ele>
        <time>2014-12-24T17:54:10.000Z</time>
      </trkpt>
      <trkpt lat="49.9075" lon="1.08931">
        <ele>6.5</ele>
        <time>2014-12-24T17:54:11.000Z</time>
      </trkpt>
      <trkpt lat="49.90748" lon="1.08934">
        <ele>6.6</ele>
        <time>2014-12-24T17:54:12.000Z</time>
      </trkpt>
      <trkpt lat="49.90746" lon="1.08936">
        <ele>6.6</ele>
        <time>2014-12-24T17:54:13.000Z</time>
      </trkpt>
      <trkpt lat="49.90744" lon="1.08939">
        <ele>6.7</ele>
        <time>2014-12-24T17:54:14.000Z</time>
      </trkpt>
      <trkpt lat="49.90742" lon="1.08942">
        <ele>6.7</ele>
        <time>2014-12-24T17:54:15.000Z</time>
      </trkpt>
      <trkpt lat="49.9074" lon="1.08945">
        <ele>6.7</ele>
        <time>2014-12-24T17:54:16.000Z</time>
      </trkpt>
      <trkpt lat="49.90737" lon="1.08948">
        <ele>6.8</ele>
        <time>2014-12-24T17:54:17.000Z</time>
      </trkpt>
      <trkpt lat="49.90735" lon="1.08951">
        <ele>6.9</ele>
        <time>2014-12-24T17:54:18.000Z</time>
      </trkpt>
      <trkpt lat="49.90733" lon="1.08954">
        <ele>7</ele>
        <time>2014-12-24T17:54:19.000Z</time>
      </trkpt>
      <trkpt lat="49.90731" lon="1.08957">
        <ele>7</ele>
        <time>2014-12-24T17:54:20.000Z</time>
      </trkpt>
      <trkpt lat="49.9073" lon="1.08961">
        <ele>7</ele>
        <time>2014-12-24T17:54:21.000Z</time>
      </trkpt>
      <trkpt lat="49.90728" lon="1.08964">
        <ele>7</ele>
        <time>2014-12-24T17:54:22.000Z</time>
      </trkpt>
      <trkpt lat="49.90726" lon="1.08967">
        <ele>7</ele>
        <time>2014-12-24T17:54:23.000Z</time>
      </trkpt>
      <trkpt lat="49.90724" lon="1.0897">
        <ele>7</ele>
        <time>2014-12-24T17:54:24.000Z</time>
      </trkpt>
      <trkpt lat="49.90722" lon="1.08974">
        <ele>7</ele>
        <time>2014-12-24T17:54:25.000Z</time>
      </trkpt>
      <trkpt lat="49.9072" lon="1.08977">
        <ele>7</ele>
        <time>2014-12-24T17:54:26.000Z</time>
      </trkpt>
      <trkpt lat="49.90718" lon="1.0898">
        <ele>7</ele>
        <time>2014-12-24T17:54:27.000Z</time>
      </trkpt>
      <trkpt lat="49.90716" lon="1.08983">
        <ele>7</ele>
        <time>2014-12-24T17:54:28.000Z</time>
      </trkpt>
      <trkpt lat="49.90713" lon="1.08986">
        <ele>7</ele>
        <time>2014-12-24T17:54:29.000Z</time>
      </trkpt>
      <trkpt lat="49.90711" lon="1.08989">
        <ele>6.9</ele>
        <time>2014-12-24T17:54:30.000Z</time>
      </trkpt>
      <trkpt lat="49.90709" lon="1.08992">
        <ele>6.9</ele>
        <time>2014-12-24T17:54:31.000Z</time>
      </trkpt>
      <trkpt lat="49.90707" lon="1.08996">
        <ele>6.8</ele>
        <time>2014-12-24T17:54:32.000Z</time>
      </trkpt>
      <trkpt lat="49.90705" lon="1.08999">
        <ele>6.7</ele>
        <time>2014-12-24T17:54:33.000Z</time>
      </trkpt>
      <trkpt lat="49.90703" lon="1.09002">
        <ele>6.7</ele>
        <time>2014-12-24T17:54:34.000Z</time>
      </trkpt>
      <trkpt lat="49.90701" lon="1.09006">
        <ele>6.8</ele>
        <time>2014-12-24T17:54:35.000Z</time>
      </trkpt>
      <trkpt lat="49.90699" lon="1.09009">
        <ele>6.9</ele>
        <time>2014-12-24T17:54:36.000Z</time>
      </trkpt>
      <trkpt lat="49.90696" lon="1.09012">
        <ele>6.9</ele>
        <time>2014-12-24T17:54:37.000Z</time>
      </trkpt>
      <trkpt lat="49.90694" lon="1.09015">
        <ele>7</ele>
        <time>2014-12-24T17:54:38.000Z</time>
      </trkpt>
      <trkpt lat="49.90692" lon="1.09019">
        <ele>7.1</ele>
        <time>2014-12-24T17:54:39.000Z</time>
      </trkpt>
      <trkpt lat="49.9069" lon="1.09022">
        <ele>7.2</ele>
        <time>2014-12-24T17:54:40.000Z</time>
      </trkpt>
      <trkpt lat="49.90688" lon="1.09025">
        <ele>7.3</ele>
        <time>2014-12-24T17:54:41.000Z</time>
      </trkpt>
      <trkpt lat="49.90686" lon="1.09028">
        <ele>7.3</ele>
        <time>2014-12-24T17:54:42.000Z</time>
      </trkpt>
      <trkpt lat="49.90684" lon="1.09031">
        <ele>7.3</ele>
        <time>2014-12-24T17:54:43.000Z</time>
      </trkpt>
      <trkpt lat="49.90682" lon="1.09035">
        <ele>7.3</ele>
        <time>2014-12-24T17:54:44.000Z</time>
      </trkpt>
      <trkpt lat="49.90681" lon="1.09038">
        <ele>7.3</ele>
        <time>2014-12-24T17:54:45.000Z</time>
      </trkpt>
      <trkpt lat="49.90679" lon="1.09042">
        <ele>7.3</ele>
        <time>2014-12-24T17:54:46.000Z</time>
      </trkpt>
      <trkpt lat="49.90677" lon="1.09045">
        <ele>7.2</ele>
        <time>2014-12-24T17:54:47.000Z</time>
      </trkpt>
      <trkpt lat="49.90675" lon="1.09049">
        <ele>7.2</ele>
        <time>2014-12-24T17:54:48.000Z</time>
      </trkpt>
      <trkpt lat="49.90673" lon="1.09052">
        <ele>7.1</ele>
        <time>2014-12-24T17:54:49.000Z</time>
      </trkpt>
      <trkpt lat="49.9067" lon="1.09056">
        <ele>7</ele>
        <time>2014-12-24T17:54:50.000Z</time>
      </trkpt>
      <trkpt lat="49.90668" lon="1.09059">
        <ele>7</ele>
        <time>2014-12-24T17:54:51.000Z</time>
      </trkpt>
      <trkpt lat="49.90666" lon="1.09062">
        <ele>7</ele>
        <time>2014-12-24T17:54:52.000Z</time>
      </trkpt>
      <trkpt lat="49.90664" lon="1.09066">
        <ele>7.1</ele>
        <time>2014-12-24T17:54:53.000Z</time>
      </trkpt>
      <trkpt lat="49.90662" lon="1.09069">
        <ele>7.2</ele>
        <time>2014-12-24T17:54:54.000Z</time>
      </trkpt>
      <trkpt lat="49.9066" lon="1.09073">
        <ele>7.2</ele>
        <time>2014-12-24T17:54:55.000Z</time>
      </trkpt>
      <trkpt lat="49.90658" lon="1.09076">
        <ele>7.2</ele>
        <time>2014-12-24T17:54:56.000Z</time>
      </trkpt>
      <trkpt lat="49.90656" lon="1.09078">
        <ele>7.1</ele>
        <time>2014-12-24T17:54:57.000Z</time>
      </trkpt>
      <trkpt lat="49.90654" lon="1.09081">
        <ele>7.1</ele>
        <time>2014-12-24T17:54:58.000Z</time>
      </trkpt>
      <trkpt lat="49.90652" lon="1.09084">
        <ele>7</ele>
        <time>2014-12-24T17:54:59.000Z</time>
      </trkpt>
      <trkpt lat="49.9065" lon="1.09086">
        <ele>6.9</ele>
        <time>2014-12-24T17:55:00.000Z</time>
      </trkpt>
      <trkpt lat="49.90648" lon="1.09089">
        <ele>6.8</ele>
        <time>2014-12-24T17:55:01.000Z</time>
      </trkpt>
      <trkpt lat="49.90647" lon="1.09092">
        <ele>6.7</ele>
        <time>2014-12-24T17:55:02.000Z</time>
      </trkpt>
      <trkpt lat="49.90645" lon="1.09095">
        <ele>6.6</ele>
        <time>2014-12-24T17:55:03.000Z</time>
      </trkpt>
      <trkpt lat="49.90643" lon="1.09098">
        <ele>6.5</ele>
        <time>2014-12-24T17:55:04.000Z</time>
      </trkpt>
      <trkpt lat="49.90641" lon="1.09101">
        <ele>6.4</ele>
        <time>2014-12-24T17:55:05.000Z</time>
      </trkpt>
      <trkpt lat="49.90639" lon="1.09104">
        <ele>6.3</ele>
        <time>2014-12-24T17:55:06.000Z</time>
      </trkpt>
      <trkpt lat="49.90637" lon="1.09107">
        <ele>6.2</ele>
        <time>2014-12-24T17:55:07.000Z</time>
      </trkpt>
      <trkpt lat="49.90635" lon="1.0911">
        <ele>6.2</ele>
        <time>2014-12-24T17:55:08.000Z</time>
      </trkpt>
      <trkpt lat="49.90633" lon="1.09113">
        <ele>6.2</ele>
        <time>2014-12-24T17:55:09.000Z</time>
      </trkpt>
      <trkpt lat="49.90631" lon="1.09117">
        <ele>6.3</ele>
        <time>2014-12-24T17:55:10.000Z</time>
      </trkpt>
      <trkpt lat="49.90628" lon="1.0912">
        <ele>6.4</ele>
        <time>2014-12-24T17:55:11.000Z</time>
      </trkpt>
      <trkpt lat="49.90626" lon="1.09123">
        <ele>6.5</ele>
        <time>2014-12-24T17:55:12.000Z</time>
      </trkpt>
      <trkpt lat="49.90624" lon="1.09127">
        <ele>6.5</ele>
        <time>2014-12-24T17:55:13.000Z</time>
      </trkpt>
      <trkpt lat="49.90622" lon="1.0913">
        <ele>6.6</ele>
        <time>2014-12-24T17:55:14.000Z</time>
      </trkpt>
      <trkpt lat="49.9062" lon="1.09134">
        <ele>6.7</ele>
        <time>2014-12-24T17:55:15.000Z</time>
      </trkpt>
      <trkpt lat="49.90618" lon="1.09137">
        <ele>6.8</ele>
        <time>2014-12-24T17:55:16.000Z</time>
      </trkpt>
      <trkpt lat="49.90616" lon="1.0914">
        <ele>6.8</ele>
        <time>2014-12-24T17:55:17.000Z</time>
      </trkpt>
      <trkpt lat="49.90614" lon="1.09144">
        <ele>6.7</ele>
        <time>2014-12-24T17:55:18.000Z</time>
      </trkpt>
      <trkpt lat="49.90612" lon="1.09147">
        <ele>6.7</ele>
        <time>2014-12-24T17:55:19.000Z</time>
      </trkpt>
      <trkpt lat="49.9061" lon="1.0915">
        <ele>6.6</ele>
        <time>2014-12-24T17:55:20.000Z</time>
      </trkpt>
      <trkpt lat="49.90608" lon="1.09154">
        <ele>6.6</ele>
        <time>2014-12-24T17:55:21.000Z</time>
      </trkpt>
      <trkpt lat="49.90605" lon="1.09157">
        <ele>6.6</ele>
        <time>2014-12-24T17:55:22.000Z</time>
      </trkpt>
      <trkpt lat="49.90603" lon="1.0916">
        <ele>6.5</ele>
        <time>2014-12-24T17:55:23.000Z</time>
      </trkpt>
      <trkpt lat="49.90601" lon="1.09164">
        <ele>6.5</ele>
        <time>2014-12-24T17:55:24.000Z</time>
      </trkpt>
      <trkpt lat="49.90599" lon="1.09167">
        <ele>6.4</ele>
        <time>2014-12-24T17:55:25.000Z</time>
      </trkpt>
      <trkpt lat="49.90597" lon="1.0917">
        <ele>6.5</ele>
        <time>2014-12-24T17:55:26.000Z</time>
      </trkpt>
      <trkpt lat="49.90594" lon="1.09173">
        <ele>6.5</ele>
        <time>2014-12-24T17:55:27.000Z</time>
      </trkpt>
      <trkpt lat="49.90592" lon="1.09176">
        <ele>6.4</ele>
        <time>2014-12-24T17:55:28.000Z</time>
      </trkpt>
      <trkpt lat="49.9059" lon="1.0918">
        <ele>6.4</ele>
        <time>2014-12-24T17:55:29.000Z</time>
      </trkpt>
      <trkpt lat="49.90588" lon="1.09183">
        <ele>6.4</ele>
        <time>2014-12-24T17:55:30.000Z</time>
      </trkpt>
      <trkpt lat="49.90586" lon="1.09186">
        <ele>6.3</ele>
        <time>2014-12-24T17:55:31.000Z</time>
      </trkpt>
      <trkpt lat="49.90583" lon="1.09189">
        <ele>6.2</ele>
        <time>2014-12-24T17:55:32.000Z</time>
      </trkpt>
      <trkpt lat="49.90581" lon="1.09192">
        <ele>6.3</ele>
        <time>2014-12-24T17:55:33.000Z</time>
      </trkpt>
      <trkpt lat="49.90579" lon="1.09195">
        <ele>6.3</ele>
        <time>2014-12-24T17:55:34.000Z</time>
      </trkpt>
      <trkpt lat="49.90576" lon="1.09198">
        <ele>6.5</ele>
        <time>2014-12-24T17:55:35.000Z</time>
      </trkpt>
      <trkpt lat="49.90574" lon="1.092">
        <ele>6.6</ele>
        <time>2014-12-24T17:55:36.000Z</time>
      </trkpt>
      <trkpt lat="49.90571" lon="1.09203">
        <ele>6.7</ele>
        <time>2014-12-24T17:55:37.000Z</time>
      </trkpt>
      <trkpt lat="49.90569" lon="1.09206">
        <ele>6.8</ele>
        <time>2014-12-24T17:55:38.000Z</time>
      </trkpt>
      <trkpt lat="49.90566" lon="1.09208">
        <ele>6.9</ele>
        <time>2014-12-24T17:55:39.000Z</time>
      </trkpt>
      <trkpt lat="49.90564" lon="1.09211">
        <ele>7</ele>
        <time>2014-12-24T17:55:40.000Z</time>
      </trkpt>
      <trkpt lat="49.90561" lon="1.09213">
        <ele>7</ele>
        <time>2014-12-24T17:55:41.000Z</time>
      </trkpt>
      <trkpt lat="49.90559" lon="1.09216">
        <ele>7.1</ele>
        <time>2014-12-24T17:55:42.000Z</time>
      </trkpt>
      <trkpt lat="49.90556" lon="1.09218">
        <ele>7.1</ele>
        <time>2014-12-24T17:55:43.000Z</time>
      </trkpt>
      <trkpt lat="49.90554" lon="1.09221">
        <ele>7.1</ele>
        <time>2014-12-24T17:55:44.000Z</time>
      </trkpt>
      <trkpt lat="49.90551" lon="1.09223">
        <ele>7</ele>
        <time>2014-12-24T17:55:45.000Z</time>
      </trkpt>
      <trkpt lat="49.90548" lon="1.09225">
        <ele>6.9</ele>
        <time>2014-12-24T17:55:46.000Z</time>
      </trkpt>
      <trkpt lat="49.90546" lon="1.09228">
        <ele>6.9</ele>
        <time>2014-12-24T17:55:47.000Z</time>
      </trkpt>
      <trkpt lat="49.90543" lon="1.0923">
        <ele>6.8</ele>
        <time>2014-12-24T17:55:48.000Z</time>
      </trkpt>
      <trkpt lat="49.90541" lon="1.09233">
        <ele>6.8</ele>
        <time>2014-12-24T17:55:49.000Z</time>
      </trkpt>
      <trkpt lat="49.90538" lon="1.09235">
        <ele>6.8</ele>
        <time>2014-12-24T17:55:50.000Z</time>
      </trkpt>
      <trkpt lat="49.90536" lon="1.09237">
        <ele>6.8</ele>
        <time>2014-12-24T17:55:51.000Z</time>
      </trkpt>
      <trkpt lat="49.90533" lon="1.0924">
        <ele>6.9</ele>
        <time>2014-12-24T17:55:52.000Z</time>
      </trkpt>
      <trkpt lat="49.90531" lon="1.09242">
        <ele>6.9</ele>
        <time>2014-12-24T17:55:53.000Z</time>
      </trkpt>
      <trkpt lat="49.90528" lon="1.09244">
        <ele>7</ele>
        <time>2014-12-24T17:55:54.000Z</time>
      </trkpt>
      <trkpt lat="49.90526" lon="1.09246">
        <ele>7.1</ele>
        <time>2014-12-24T17:55:55.000Z</time>
      </trkpt>
      <trkpt lat="49.90524" lon="1.09249">
        <ele>7.2</ele>
        <time>2014-12-24T17:55:56.000Z</time>
      </trkpt>
      <trkpt lat="49.90521" lon="1.09251">
        <ele>7.2</ele>
        <time>2014-12-24T17:55:57.000Z</time>
      </trkpt>
      <trkpt lat="49.90519" lon="1.09254">
        <ele>7.3</ele>
        <time>2014-12-24T17:55:58.000Z</time>
      </trkpt>
      <trkpt lat="49.90517" lon="1.09256">
        <ele>7.3</ele>
        <time>2014-12-24T17:55:59.000Z</time>
      </trkpt>
      <trkpt lat="49.90514" lon="1.09259">
        <ele>7.3</ele>
        <time>2014-12-24T17:56:00.000Z</time>
      </trkpt>
      <trkpt lat="49.90512" lon="1.09261">
        <ele>7.3</ele>
        <time>2014-12-24T17:56:01.000Z</time>
      </trkpt>
      <trkpt lat="49.90509" lon="1.09264">
        <ele>7.3</ele>
        <time>2014-12-24T17:56:02.000Z</time>
      </trkpt>
      <trkpt lat="49.90507" lon="1.09266">
        <ele>7.3</ele>
        <time>2014-12-24T17:56:03.000Z</time>
      </trkpt>
      <trkpt lat="49.90505" lon="1.09269">
        <ele>7.3</ele>
        <time>2014-12-24T17:56:04.000Z</time>
      </trkpt>
      <trkpt lat="49.90502" lon="1.09271">
        <ele>7.2</ele>
        <time>2014-12-24T17:56:05.000Z</time>
      </trkpt>
      <trkpt lat="49.905" lon="1.09273">
        <ele>7.2</ele>
        <time>2014-12-24T17:56:06.000Z</time>
      </trkpt>
      <trkpt lat="49.90498" lon="1.09276">
        <ele>7.2</ele>
        <time>2014-12-24T17:56:07.000Z</time>
      </trkpt>
      <trkpt lat="49.90495" lon="1.09278">
        <ele>7.2</ele>
        <time>2014-12-24T17:56:08.000Z</time>
      </trkpt>
      <trkpt lat="49.90493" lon="1.0928">
        <ele>7.2</ele>
        <time>2014-12-24T17:56:09.000Z</time>
      </trkpt>
      <trkpt lat="49.90491" lon="1.09282">
        <ele>7.2</ele>
        <time>2014-12-24T17:56:10.000Z</time>
      </trkpt>
      <trkpt lat="49.90489" lon="1.09285">
        <ele>7.3</ele>
        <time>2014-12-24T17:56:11.000Z</time>
      </trkpt>
      <trkpt lat="49.90486" lon="1.09287">
        <ele>7.3</ele>
        <time>2014-12-24T17:56:12.000Z</time>
      </trkpt>
      <trkpt lat="49.90484" lon="1.09289">
        <ele>7.4</ele>
        <time>2014-12-24T17:56:13.000Z</time>
      </trkpt>
      <trkpt lat="49.90481" lon="1.09291">
        <ele>7.5</ele>
        <time>2014-12-24T17:56:14.000Z</time>
      </trkpt>
      <trkpt lat="49.90479" lon="1.09293">
        <ele>7.6</ele>
        <time>2014-12-24T17:56:15.000Z</time>
      </trkpt>
      <trkpt lat="49.90476" lon="1.09295">
        <ele>7.8</ele>
        <time>2014-12-24T17:56:16.000Z</time>
      </trkpt>
      <trkpt lat="49.90474" lon="1.09297">
        <ele>7.9</ele>
        <time>2014-12-24T17:56:17.000Z</time>
      </trkpt>
      <trkpt lat="49.90471" lon="1.09299">
        <ele>8</ele>
        <time>2014-12-24T17:56:18.000Z</time>
      </trkpt>
      <trkpt lat="49.90469" lon="1.09301">
        <ele>8.1</ele>
        <time>2014-12-24T17:56:19.000Z</time>
      </trkpt>
      <trkpt lat="49.90466" lon="1.09303">
        <ele>8.2</ele>
        <time>2014-12-24T17:56:20.000Z</time>
      </trkpt>
      <trkpt lat="49.90464" lon="1.09305">
        <ele>8.3</ele>
        <time>2014-12-24T17:56:21.000Z</time>
      </trkpt>
      <trkpt lat="49.90462" lon="1.09307">
        <ele>8.4</ele>
        <time>2014-12-24T17:56:22.000Z</time>
      </trkpt>
      <trkpt lat="49.9046" lon="1.09309">
        <ele>8.4</ele>
        <time>2014-12-24T17:56:23.000Z</time>
      </trkpt>
      <trkpt lat="49.90458" lon="1.0931">
        <ele>8.5</ele>
        <time>2014-12-24T17:56:24.000Z</time>
      </trkpt>
      <trkpt lat="49.90457" lon="1.09312">
        <ele>8.5</ele>
        <time>2014-12-24T17:56:25.000Z</time>
      </trkpt>
      <trkpt lat="49.90456" lon="1.09313">
        <ele>8.6</ele>
        <time>2014-12-24T17:56:26.000Z</time>
      </trkpt>
      <trkpt lat="49.90455" lon="1.09315">
        <ele>8.6</ele>
        <time>2014-12-24T17:56:27.000Z</time>
      </trkpt>
      <trkpt lat="49.90454" lon="1.09316">
        <ele>8.7</ele>
        <time>2014-12-24T17:56:28.000Z</time>
      </trkpt>
      <trkpt lat="49.90452" lon="1.09318">
        <ele>8.7</ele>
        <time>2014-12-24T17:56:29.000Z</time>
      </trkpt>
      <trkpt lat="49.90451" lon="1.09319">
        <ele>8.8</ele>
        <time>2014-12-24T17:56:30.000Z</time>
      </trkpt>
      <trkpt lat="49.9045" lon="1.0932">
        <ele>8.8</ele>
        <time>2014-12-24T17:56:31.000Z</time>
      </trkpt>
      <trkpt lat="49.90448" lon="1.09321">
        <ele>8.9</ele>
        <time>2014-12-24T17:56:32.000Z</time>
      </trkpt>
      <trkpt lat="49.90447" lon="1.09323">
        <ele>8.9</ele>
        <time>2014-12-24T17:56:33.000Z</time>
      </trkpt>
      <trkpt lat="49.90446" lon="1.09324">
        <ele>9</ele>
        <time>2014-12-24T17:56:34.000Z</time>
      </trkpt>
      <trkpt lat="49.90444" lon="1.09325">
        <ele>9</ele>
        <time>2014-12-24T17:56:35.000Z</time>
      </trkpt>
      <trkpt lat="49.90443" lon="1.09326">
        <ele>9.1</ele>
        <time>2014-12-24T17:56:36.000Z</time>
      </trkpt>
      <trkpt lat="49.90442" lon="1.09327">
        <ele>9.1</ele>
        <time>2014-12-24T17:56:37.000Z</time>
      </trkpt>
      <trkpt lat="49.9044" lon="1.09328">
        <ele>9.2</ele>
        <time>2014-12-24T17:56:38.000Z</time>
      </trkpt>
      <trkpt lat="49.90439" lon="1.0933">
        <ele>9.2</ele>
        <time>2014-12-24T17:56:39.000Z</time>
      </trkpt>
      <trkpt lat="49.90438" lon="1.09331">
        <ele>9.2</ele>
        <time>2014-12-24T17:56:40.000Z</time>
      </trkpt>
      <trkpt lat="49.90436" lon="1.09333">
        <ele>9.3</ele>
        <time>2014-12-24T17:56:41.000Z</time>
      </trkpt>
      <trkpt lat="49.90435" lon="1.09334">
        <ele>9.3</ele>
        <time>2014-12-24T17:56:42.000Z</time>
      </trkpt>
      <trkpt lat="49.90434" lon="1.09335">
        <ele>9.3</ele>
        <time>2014-12-24T17:56:43.000Z</time>
      </trkpt>
      <trkpt lat="49.90433" lon="1.09336">
        <ele>9.3</ele>
        <time>2014-12-24T17:56:44.000Z</time>
      </trkpt>
      <trkpt lat="49.90432" lon="1.09337">
        <ele>9.3</ele>
        <time>2014-12-24T17:56:45.000Z</time>
      </trkpt>
      <trkpt lat="49.90431" lon="1.09338">
        <ele>9.3</ele>
        <time>2014-12-24T17:56:46.000Z</time>
      </trkpt>
      <trkpt lat="49.9043" lon="1.0934">
        <ele>9.3</ele>
        <time>2014-12-24T17:56:47.000Z</time>
      </trkpt>
      <trkpt lat="49.90429" lon="1.09341">
        <ele>9.3</ele>
        <time>2014-12-24T17:56:48.000Z</time>
      </trkpt>
      <trkpt lat="49.90428" lon="1.09342">
        <ele>9.3</ele>
        <time>2014-12-24T17:56:49.000Z</time>
      </trkpt>
      <trkpt lat="49.90426" lon="1.09344">
        <ele>9.4</ele>
        <time>2014-12-24T17:56:50.000Z</time>
      </trkpt>
      <trkpt lat="49.90425" lon="1.09345">
        <ele>9.4</ele>
        <time>2014-12-24T17:56:51.000Z</time>
      </trkpt>
      <trkpt lat="49.90424" lon="1.09346">
        <ele>9.5</ele>
        <time>2014-12-24T17:56:52.000Z</time>
      </trkpt>
      <trkpt lat="49.90422" lon="1.09347">
        <ele>9.6</ele>
        <time>2014-12-24T17:56:53.000Z</time>
      </trkpt>
      <trkpt lat="49.90421" lon="1.09349">
        <ele>9.7</ele>
        <time>2014-12-24T17:56:54.000Z</time>
      </trkpt>
      <trkpt lat="49.9042" lon="1.0935">
        <ele>9.8</ele>
        <time>2014-12-24T17:56:55.000Z</time>
      </trkpt>
      <trkpt lat="49.90418" lon="1.09351">
        <ele>9.9</ele>
        <time>2014-12-24T17:56:56.000Z</time>
      </trkpt>
      <trkpt lat="49.90417" lon="1.09352">
        <ele>10</ele>
        <time>2014-12-24T17:56:57.000Z</time>
      </trkpt>
      <trkpt lat="49.90416" lon="1.09353">
        <ele>10</ele>
        <time>2014-12-24T17:56:58.000Z</time>
      </trkpt>
      <trkpt lat="49.90415" lon="1.09355">
        <ele>10</ele>
        <time>2014-12-24T17:56:59.000Z</time>
      </trkpt>
      <trkpt lat="49.90413" lon="1.09356">
        <ele>10</ele>
        <time>2014-12-24T17:57:00.000Z</time>
      </trkpt>
      <trkpt lat="49.90412" lon="1.09357">
        <ele>10</ele>
        <time>2014-12-24T17:57:01.000Z</time>
      </trkpt>
      <trkpt lat="49.90411" lon="1.09358">
        <ele>10</ele>
        <time>2014-12-24T17:57:02.000Z</time>
      </trkpt>
      <trkpt lat="49.9041" lon="1.0936">
        <ele>10</ele>
        <time>2014-12-24T17:57:03.000Z</time>
      </trkpt>
      <trkpt lat="49.90409" lon="1.09361">
        <ele>10</ele>
        <time>2014-12-24T17:57:04.000Z</time>
      </trkpt>
      <trkpt lat="49.90407" lon="1.09362">
        <ele>9.9</ele>
        <time>2014-12-24T17:57:05.000Z</time>
      </trkpt>
      <trkpt lat="49.90406" lon="1.09364">
        <ele>9.8</ele>
        <time>2014-12-24T17:57:06.000Z</time>
      </trkpt>
      <trkpt lat="49.90405" lon="1.09365">
        <ele>9.7</ele>
        <time>2014-12-24T17:57:07.000Z</time>
      </trkpt>
      <trkpt lat="49.90404" lon="1.09367">
        <ele>9.7</ele>
        <time>2014-12-24T17:57:08.000Z</time>
      </trkpt>
      <trkpt lat="49.90403" lon="1.09368">
        <ele>9.6</ele>
        <time>2014-12-24T17:57:09.000Z</time>
      </trkpt>
      <trkpt lat="49.90402" lon="1.0937">
        <ele>9.6</ele>
        <time>2014-12-24T17:57:10.000Z</time>
      </trkpt>
      <trkpt lat="49.904" lon="1.09371">
        <ele>9.6</ele>
        <time>2014-12-24T17:57:11.000Z</time>
      </trkpt>
      <trkpt lat="49.90399" lon="1.09372">
        <ele>9.6</ele>
        <time>2014-12-24T17:57:12.000Z</time>
      </trkpt>
      <trkpt lat="49.90398" lon="1.09374">
        <ele>9.6</ele>
        <time>2014-12-24T17:57:13.000Z</time>
      </trkpt>
      <trkpt lat="49.90397" lon="1.09375">
        <ele>9.6</ele>
        <time>2014-12-24T17:57:14.000Z</time>
      </trkpt>
      <trkpt lat="49.90395" lon="1.09376">
        <ele>9.6</ele>
        <time>2014-12-24T17:57:15.000Z</time>
      </trkpt>
      <trkpt lat="49.90394" lon="1.09377">
        <ele>9.7</ele>
        <time>2014-12-24T17:57:16.000Z</time>
      </trkpt>
      <trkpt lat="49.90393" lon="1.09378">
        <ele>9.7</ele>
        <time>2014-12-24T17:57:17.000Z</time>
      </trkpt>
      <trkpt lat="49.90392" lon="1.0938">
        <ele>9.8</ele>
        <time>2014-12-24T17:57:18.000Z</time>
      </trkpt>
      <trkpt lat="49.9039" lon="1.09381">
        <ele>9.9</ele>
        <time>2014-12-24T17:57:19.000Z</time>
      </trkpt>
      <trkpt lat="49.90389" lon="1.09383">
        <ele>10</ele>
        <time>2014-12-24T17:57:20.000Z</time>
      </trkpt>
      <trkpt lat="49.90388" lon="1.09385">
        <ele>10.1</ele>
        <time>2014-12-24T17:57:21.000Z</time>
      </trkpt>
      <trkpt lat="49.90386" lon="1.09387">
        <ele>10.1</ele>
        <time>2014-12-24T17:57:22.000Z</time>
      </trkpt>
      <trkpt lat="49.90384" lon="1.09389">
        <ele>10.1</ele>
        <time>2014-12-24T17:57:23.000Z</time>
      </trkpt>
      <trkpt lat="49.90383" lon="1.09392">
        <ele>10.1</ele>
        <time>2014-12-24T17:57:24.000Z</time>
      </trkpt>
      <trkpt lat="49.90381" lon="1.09394">
        <ele>10</ele>
        <time>2014-12-24T17:57:25.000Z</time>
      </trkpt>
      <trkpt lat="49.90379" lon="1.09397">
        <ele>10</ele>
        <time>2014-12-24T17:57:26.000Z</time>
      </trkpt>
      <trkpt lat="49.90378" lon="1.094">
        <ele>9.9</ele>
        <time>2014-12-24T17:57:27.000Z</time>
      </trkpt>
      <trkpt lat="49.90376" lon="1.09402">
        <ele>10</ele>
        <time>2014-12-24T17:57:28.000Z</time>
      </trkpt>
      <trkpt lat="49.90374" lon="1.09405">
        <ele>10</ele>
        <time>2014-12-24T17:57:29.000Z</time>
      </trkpt>
      <trkpt lat="49.90372" lon="1.09408">
        <ele>10</ele>
        <time>2014-12-24T17:57:30.000Z</time>
      </trkpt>
      <trkpt lat="49.90371" lon="1.09411">
        <ele>10.1</ele>
        <time>2014-12-24T17:57:31.000Z</time>
      </trkpt>
      <trkpt lat="49.90369" lon="1.09414">
        <ele>10.2</ele>
        <time>2014-12-24T17:57:32.000Z</time>
      </trkpt>
      <trkpt lat="49.90367" lon="1.09419">
        <ele>10.2</ele>
        <time>2014-12-24T17:57:33.000Z</time>
      </trkpt>
      <trkpt lat="49.90365" lon="1.09422">
        <ele>10.2</ele>
        <time>2014-12-24T17:57:34.000Z</time>
      </trkpt>
      <trkpt lat="49.90363" lon="1.09426">
        <ele>10.2</ele>
        <time>2014-12-24T17:57:35.000Z</time>
      </trkpt>
      <trkpt lat="49.90361" lon="1.09429">
        <ele>10.1</ele>
        <time>2014-12-24T17:57:36.000Z</time>
      </trkpt>
      <trkpt lat="49.9036" lon="1.09432">
        <ele>10.1</ele>
        <time>2014-12-24T17:57:37.000Z</time>
      </trkpt>
      <trkpt lat="49.90358" lon="1.09436">
        <ele>10.2</ele>
        <time>2014-12-24T17:57:38.000Z</time>
      </trkpt>
      <trkpt lat="49.90356" lon="1.09439">
        <ele>10.3</ele>
        <time>2014-12-24T17:57:39.000Z</time>
      </trkpt>
      <trkpt lat="49.90355" lon="1.09442">
        <ele>10.3</ele>
        <time>2014-12-24T17:57:40.000Z</time>
      </trkpt>
      <trkpt lat="49.90353" lon="1.09445">
        <ele>10.4</ele>
        <time>2014-12-24T17:57:41.000Z</time>
      </trkpt>
      <trkpt lat="49.90352" lon="1.09448">
        <ele>10.4</ele>
        <time>2014-12-24T17:57:42.000Z</time>
      </trkpt>
      <trkpt lat="49.9035" lon="1.09452">
        <ele>10.5</ele>
        <time>2014-12-24T17:57:43.000Z</time>
      </trkpt>
      <trkpt lat="49.90348" lon="1.09455">
        <ele>10.6</ele>
        <time>2014-12-24T17:57:44.000Z</time>
      </trkpt>
      <trkpt lat="49.90347" lon="1.09458">
        <ele>10.6</ele>
        <time>2014-12-24T17:57:45.000Z</time>
      </trkpt>
      <trkpt lat="49.90345" lon="1.09461">
        <ele>10.7</ele>
        <time>2014-12-24T17:57:46.000Z</time>
      </trkpt>
      <trkpt lat="49.90344" lon="1.09464">
        <ele>10.7</ele>
        <time>2014-12-24T17:57:47.000Z</time>
      </trkpt>
      <trkpt lat="49.90342" lon="1.09468">
        <ele>10.8</ele>
        <time>2014-12-24T17:57:48.000Z</time>
      </trkpt>
      <trkpt lat="49.90341" lon="1.09471">
        <ele>10.8</ele>
        <time>2014-12-24T17:57:49.000Z</time>
      </trkpt>
      <trkpt lat="49.90339" lon="1.09474">
        <ele>10.8</ele>
        <time>2014-12-24T17:57:50.000Z</time>
      </trkpt>
      <trkpt lat="49.90337" lon="1.09478">
        <ele>10.8</ele>
        <time>2014-12-24T17:57:51.000Z</time>
      </trkpt>
      <trkpt lat="49.90336" lon="1.09481">
        <ele>10.7</ele>
        <time>2014-12-24T17:57:52.000Z</time>
      </trkpt>
      <trkpt lat="49.90334" lon="1.09484">
        <ele>10.5</ele>
        <time>2014-12-24T17:57:53.000Z</time>
      </trkpt>
      <trkpt lat="49.90333" lon="1.09488">
        <ele>10.4</ele>
        <time>2014-12-24T17:57:54.000Z</time>
      </trkpt>
      <trkpt lat="49.90331" lon="1.09491">
        <ele>10.4</ele>
        <time>2014-12-24T17:57:55.000Z</time>
      </trkpt>
      <trkpt lat="49.9033" lon="1.09495">
        <ele>10.4</ele>
        <time>2014-12-24T17:57:56.000Z</time>
      </trkpt>
      <trkpt lat="49.90328" lon="1.09498">
        <ele>10.4</ele>
        <time>2014-12-24T17:57:57.000Z</time>
      </trkpt>
      <trkpt lat="49.90327" lon="1.09501">
        <ele>10.5</ele>
        <time>2014-12-24T17:57:58.000Z</time>
      </trkpt>
      <trkpt lat="49.90325" lon="1.09505">
        <ele>10.6</ele>
        <time>2014-12-24T17:57:59.000Z</time>
      </trkpt>
      <trkpt lat="49.90324" lon="1.09508">
        <ele>10.8</ele>
        <time>2014-12-24T17:58:00.000Z</time>
      </trkpt>
      <trkpt lat="49.90322" lon="1.09512">
        <ele>10.9</ele>
        <time>2014-12-24T17:58:01.000Z</time>
      </trkpt>
      <trkpt lat="49.9032" lon="1.09515">
        <ele>11</ele>
        <time>2014-12-24T17:58:02.000Z</time>
      </trkpt>
      <trkpt lat="49.90319" lon="1.09519">
        <ele>11</ele>
        <time>2014-12-24T17:58:03.000Z</time>
      </trkpt>
      <trkpt lat="49.90317" lon="1.09522">
        <ele>11</ele>
        <time>2014-12-24T17:58:04.000Z</time>
      </trkpt>
      <trkpt lat="49.90316" lon="1.09525">
        <ele>11.1</ele>
        <time>2014-12-24T17:58:05.000Z</time>
      </trkpt>
      <trkpt lat="49.90314" lon="1.09529">
        <ele>11.1</ele>
        <time>2014-12-24T17:58:06.000Z</time>
      </trkpt>
      <trkpt lat="49.90313" lon="1.09532">
        <ele>11</ele>
        <time>2014-12-24T17:58:07.000Z</time>
      </trkpt>
      <trkpt lat="49.90311" lon="1.09535">
        <ele>10.9</ele>
        <time>2014-12-24T17:58:08.000Z</time>
      </trkpt>
      <trkpt lat="49.90309" lon="1.09539">
        <ele>10.7</ele>
        <time>2014-12-24T17:58:09.000Z</time>
      </trkpt>
      <trkpt lat="49.90308" lon="1.09542">
        <ele>10.5</ele>
        <time>2014-12-24T17:58:10.000Z</time>
      </trkpt>
      <trkpt lat="49.90306" lon="1.09546">
        <ele>10.3</ele>
        <time>2014-12-24T17:58:11.000Z</time>
      </trkpt>
      <trkpt lat="49.90305" lon="1.09549">
        <ele>10.1</ele>
        <time>2014-12-24T17:58:12.000Z</time>
      </trkpt>
      <trkpt lat="49.90303" lon="1.09552">
        <ele>10.1</ele>
        <time>2014-12-24T17:58:13.000Z</time>
      </trkpt>
      <trkpt lat="49.90302" lon="1.09555">
        <ele>10.1</ele>
        <time>2014-12-24T17:58:14.000Z</time>
      </trkpt>
      <trkpt lat="49.903" lon="1.09557">
        <ele>10.3</ele>
        <time>2014-12-24T17:58:15.000Z</time>
      </trkpt>
      <trkpt lat="49.90298" lon="1.0956">
        <ele>10.5</ele>
        <time>2014-12-24T17:58:16.000Z</time>
      </trkpt>
      <trkpt lat="49.90296" lon="1.09562">
        <ele>10.8</ele>
        <time>2014-12-24T17:58:17.000Z</time>
      </trkpt>
      <trkpt lat="49.90294" lon="1.09564">
        <ele>11.1</ele>
        <time>2014-12-24T17:58:18.000Z</time>
      </trkpt>
      <trkpt lat="49.90292" lon="1.09567">
        <ele>11.4</ele>
        <time>2014-12-24T17:58:19.000Z</time>
      </trkpt>
      <trkpt lat="49.9029" lon="1.09569">
        <ele>11.7</ele>
        <time>2014-12-24T17:58:20.000Z</time>
      </trkpt>
      <trkpt lat="49.90287" lon="1.09572">
        <ele>12.1</ele>
        <time>2014-12-24T17:58:21.000Z</time>
      </trkpt>
      <trkpt lat="49.90285" lon="1.09573">
        <ele>12.4</ele>
        <time>2014-12-24T17:58:22.000Z</time>
      </trkpt>
      <trkpt lat="49.90282" lon="1.09575">
        <ele>12.9</ele>
        <time>2014-12-24T17:58:23.000Z</time>
      </trkpt>
      <trkpt lat="49.90279" lon="1.09576">
        <ele>13.5</ele>
        <time>2014-12-24T17:58:24.000Z</time>
      </trkpt>
      <trkpt lat="49.90277" lon="1.09576">
        <ele>13.9</ele>
        <time>2014-12-24T17:58:25.000Z</time>
      </trkpt>
      <trkpt lat="49.90274" lon="1.09576">
        <ele>14.2</ele>
        <time>2014-12-24T17:58:26.000Z</time>
      </trkpt>
      <trkpt lat="49.90272" lon="1.09576">
        <ele>14.6</ele>
        <time>2014-12-24T17:58:27.000Z</time>
      </trkpt>
      <trkpt lat="49.90269" lon="1.09576">
        <ele>14.9</ele>
        <time>2014-12-24T17:58:28.000Z</time>
      </trkpt>
      <trkpt lat="49.90267" lon="1.09575">
        <ele>15.3</ele>
        <time>2014-12-24T17:58:29.000Z</time>
      </trkpt>
      <trkpt lat="49.90265" lon="1.09575">
        <ele>15.7</ele>
        <time>2014-12-24T17:58:30.000Z</time>
      </trkpt>
      <trkpt lat="49.90262" lon="1.09574">
        <ele>16.1</ele>
        <time>2014-12-24T17:58:31.000Z</time>
      </trkpt>
      <trkpt lat="49.9026" lon="1.09573">
        <ele>16.4</ele>
        <time>2014-12-24T17:58:32.000Z</time>
      </trkpt>
      <trkpt lat="49.90258" lon="1.09572">
        <ele>16.8</ele>
        <time>2014-12-24T17:58:33.000Z</time>
      </trkpt>
      <trkpt lat="49.90256" lon="1.09571">
        <ele>17.1</ele>
        <time>2014-12-24T17:58:34.000Z</time>
      </trkpt>
      <trkpt lat="49.90254" lon="1.0957">
        <ele>17.5</ele>
        <time>2014-12-24T17:58:35.000Z</time>
      </trkpt>
      <trkpt lat="49.90251" lon="1.0957">
        <ele>17.8</ele>
        <time>2014-12-24T17:58:36.000Z</time>
      </trkpt>
      <trkpt lat="49.90249" lon="1.09569">
        <ele>18.1</ele>
        <time>2014-12-24T17:58:37.000Z</time>
      </trkpt>
      <trkpt lat="49.90247" lon="1.09568">
        <ele>18.5</ele>
        <time>2014-12-24T17:58:38.000Z</time>
      </trkpt>
      <trkpt lat="49.90245" lon="1.09568">
        <ele>18.8</ele>
        <time>2014-12-24T17:58:39.000Z</time>
      </trkpt>
      <trkpt lat="49.90243" lon="1.09568">
        <ele>19.1</ele>
        <time>2014-12-24T17:58:40.000Z</time>
      </trkpt>
      <trkpt lat="49.90241" lon="1.09568">
        <ele>19.4</ele>
        <time>2014-12-24T17:58:41.000Z</time>
      </trkpt>
      <trkpt lat="49.90239" lon="1.09569">
        <ele>19.7</ele>
        <time>2014-12-24T17:58:42.000Z</time>
      </trkpt>
      <trkpt lat="49.90237" lon="1.09569">
        <ele>19.9</ele>
        <time>2014-12-24T17:58:43.000Z</time>
      </trkpt>
      <trkpt lat="49.90235" lon="1.0957">
        <ele>20.2</ele>
        <time>2014-12-24T17:58:44.000Z</time>
      </trkpt>
      <trkpt lat="49.90233" lon="1.09571">
        <ele>20.3</ele>
        <time>2014-12-24T17:58:45.000Z</time>
      </trkpt>
      <trkpt lat="49.90231" lon="1.09573">
        <ele>20.5</ele>
        <time>2014-12-24T17:58:46.000Z</time>
      </trkpt>
      <trkpt lat="49.9023" lon="1.09575">
        <ele>20.6</ele>
        <time>2014-12-24T17:58:47.000Z</time>
      </trkpt>
      <trkpt lat="49.90228" lon="1.09577">
        <ele>20.7</ele>
        <time>2014-12-24T17:58:48.000Z</time>
      </trkpt>
      <trkpt lat="49.90226" lon="1.09579">
        <ele>20.8</ele>
        <time>2014-12-24T17:58:49.000Z</time>
      </trkpt>
      <trkpt lat="49.90225" lon="1.09581">
        <ele>20.9</ele>
        <time>2014-12-24T17:58:50.000Z</time>
      </trkpt>
      <trkpt lat="49.90223" lon="1.09583">
        <ele>20.9</ele>
        <time>2014-12-24T17:58:51.000Z</time>
      </trkpt>
      <trkpt lat="49.90222" lon="1.09585">
        <ele>21</ele>
        <time>2014-12-24T17:58:52.000Z</time>
      </trkpt>
      <trkpt lat="49.9022" lon="1.09588">
        <ele>21.2</ele>
        <time>2014-12-24T17:58:53.000Z</time>
      </trkpt>
      <trkpt lat="49.90219" lon="1.0959">
        <ele>21.3</ele>
        <time>2014-12-24T17:58:54.000Z</time>
      </trkpt>
      <trkpt lat="49.90218" lon="1.09593">
        <ele>21.4</ele>
        <time>2014-12-24T17:58:55.000Z</time>
      </trkpt>
      <trkpt lat="49.90216" lon="1.09595">
        <ele>21.4</ele>
        <time>2014-12-24T17:58:56.000Z</time>
      </trkpt>
      <trkpt lat="49.90215" lon="1.09598">
        <ele>21.5</ele>
        <time>2014-12-24T17:58:57.000Z</time>
      </trkpt>
      <trkpt lat="49.90213" lon="1.09601">
        <ele>21.6</ele>
        <time>2014-12-24T17:58:58.000Z</time>
      </trkpt>
      <trkpt lat="49.90212" lon="1.09604">
        <ele>21.6</ele>
        <time>2014-12-24T17:58:59.000Z</time>
      </trkpt>
      <trkpt lat="49.9021" lon="1.09608">
        <ele>21.5</ele>
        <time>2014-12-24T17:59:00.000Z</time>
      </trkpt>
      <trkpt lat="49.90209" lon="1.09611">
        <ele>21.5</ele>
        <time>2014-12-24T17:59:01.000Z</time>
      </trkpt>
      <trkpt lat="49.90207" lon="1.09614">
        <ele>21.6</ele>
        <time>2014-12-24T17:59:02.000Z</time>
      </trkpt>
      <trkpt lat="49.90205" lon="1.09617">
        <ele>21.9</ele>
        <time>2014-12-24T17:59:03.000Z</time>
      </trkpt>
      <trkpt lat="49.90204" lon="1.09621">
        <ele>22.1</ele>
        <time>2014-12-24T17:59:04.000Z</time>
      </trkpt>
      <trkpt lat="49.90202" lon="1.09624">
        <ele>22.3</ele>
        <time>2014-12-24T17:59:05.000Z</time>
      </trkpt>
      <trkpt lat="49.90201" lon="1.09627">
        <ele>22.6</ele>
        <time>2014-12-24T17:59:06.000Z</time>
      </trkpt>
      <trkpt lat="49.90199" lon="1.0963">
        <ele>22.9</ele>
        <time>2014-12-24T17:59:07.000Z</time>
      </trkpt>
      <trkpt lat="49.90198" lon="1.09633">
        <ele>23.2</ele>
        <time>2014-12-24T17:59:08.000Z</time>
      </trkpt>
      <trkpt lat="49.90196" lon="1.09636">
        <ele>23.6</ele>
        <time>2014-12-24T17:59:09.000Z</time>
      </trkpt>
      <trkpt lat="49.90195" lon="1.09639">
        <ele>23.9</ele>
        <time>2014-12-24T17:59:10.000Z</time>
      </trkpt>
      <trkpt lat="49.90193" lon="1.09642">
        <ele>23.9</ele>
        <time>2014-12-24T17:59:11.000Z</time>
      </trkpt>
      <trkpt lat="49.90192" lon="1.09645">
        <ele>24</ele>
        <time>2014-12-24T17:59:12.000Z</time>
      </trkpt>
      <trkpt lat="49.9019" lon="1.09649">
        <ele>24</ele>
        <time>2014-12-24T17:59:13.000Z</time>
      </trkpt>
      <trkpt lat="49.90188" lon="1.09652">
        <ele>24.1</ele>
        <time>2014-12-24T17:59:14.000Z</time>
      </trkpt>
      <trkpt lat="49.90187" lon="1.09655">
        <ele>24.2</ele>
        <time>2014-12-24T17:59:15.000Z</time>
      </trkpt>
      <trkpt lat="49.90185" lon="1.09659">
        <ele>24.2</ele>
        <time>2014-12-24T17:59:16.000Z</time>
      </trkpt>
      <trkpt lat="49.90184" lon="1.09662">
        <ele>24.2</ele>
        <time>2014-12-24T17:59:17.000Z</time>
      </trkpt>
      <trkpt lat="49.90182" lon="1.09666">
        <ele>24.3</ele>
        <time>2014-12-24T17:59:18.000Z</time>
      </trkpt>
      <trkpt lat="49.9018" lon="1.09669">
        <ele>24.4</ele>
        <time>2014-12-24T17:59:19.000Z</time>
      </trkpt>
      <trkpt lat="49.90179" lon="1.09673">
        <ele>24.6</ele>
        <time>2014-12-24T17:59:20.000Z</time>
      </trkpt>
      <trkpt lat="49.90177" lon="1.09676">
        <ele>24.8</ele>
        <time>2014-12-24T17:59:21.000Z</time>
      </trkpt>
      <trkpt lat="49.90176" lon="1.09679">
        <ele>25</ele>
        <time>2014-12-24T17:59:22.000Z</time>
      </trkpt>
      <trkpt lat="49.90174" lon="1.09683">
        <ele>25.2</ele>
        <time>2014-12-24T17:59:23.000Z</time>
      </trkpt>
      <trkpt lat="49.90172" lon="1.09686">
        <ele>25.3</ele>
        <time>2014-12-24T17:59:24.000Z</time>
      </trkpt>
      <trkpt lat="49.90171" lon="1.09689">
        <ele>25.5</ele>
        <time>2014-12-24T17:59:25.000Z</time>
      </trkpt>
      <trkpt lat="49.90169" lon="1.09692">
        <ele>25.6</ele>
        <time>2014-12-24T17:59:26.000Z</time>
      </trkpt>
      <trkpt lat="49.90167" lon="1.09696">
        <ele>25.8</ele>
        <time>2014-12-24T17:59:27.000Z</time>
      </trkpt>
      <trkpt lat="49.90166" lon="1.09699">
        <ele>26.2</ele>
        <time>2014-12-24T17:59:28.000Z</time>
      </trkpt>
      <trkpt lat="49.90164" lon="1.09702">
        <ele>26.5</ele>
        <time>2014-12-24T17:59:29.000Z</time>
      </trkpt>
      <trkpt lat="49.90163" lon="1.09705">
        <ele>26.9</ele>
        <time>2014-12-24T17:59:30.000Z</time>
      </trkpt>
      <trkpt lat="49.90161" lon="1.09708">
        <ele>27.2</ele>
        <time>2014-12-24T17:59:31.000Z</time>
      </trkpt>
      <trkpt lat="49.9016" lon="1.09711">
        <ele>27.5</ele>
        <time>2014-12-24T17:59:32.000Z</time>
      </trkpt>
      <trkpt lat="49.90158" lon="1.09714">
        <ele>27.7</ele>
        <time>2014-12-24T17:59:33.000Z</time>
      </trkpt>
      <trkpt lat="49.90157" lon="1.09717">
        <ele>27.9</ele>
        <time>2014-12-24T17:59:34.000Z</time>
      </trkpt>
      <trkpt lat="49.90155" lon="1.0972">
        <ele>28.1</ele>
        <time>2014-12-24T17:59:35.000Z</time>
      </trkpt>
      <trkpt lat="49.90154" lon="1.09722">
        <ele>28.2</ele>
        <time>2014-12-24T17:59:36.000Z</time>
      </trkpt>
      <trkpt lat="49.90152" lon="1.09725">
        <ele>28.3</ele>
        <time>2014-12-24T17:59:37.000Z</time>
      </trkpt>
      <trkpt lat="49.90151" lon="1.09728">
        <ele>28.5</ele>
        <time>2014-12-24T17:59:38.000Z</time>
      </trkpt>
      <trkpt lat="49.90149" lon="1.0973">
        <ele>28.6</ele>
        <time>2014-12-24T17:59:39.000Z</time>
      </trkpt>
      <trkpt lat="49.90147" lon="1.09733">
        <ele>28.8</ele>
        <time>2014-12-24T17:59:40.000Z</time>
      </trkpt>
      <trkpt lat="49.90145" lon="1.09735">
        <ele>29</ele>
        <time>2014-12-24T17:59:41.000Z</time>
      </trkpt>
      <trkpt lat="49.90143" lon="1.09738">
        <ele>29.2</ele>
        <time>2014-12-24T17:59:42.000Z</time>
      </trkpt>
      <trkpt lat="49.90141" lon="1.0974">
        <ele>29.5</ele>
        <time>2014-12-24T17:59:43.000Z</time>
      </trkpt>
      <trkpt lat="49.90139" lon="1.09742">
        <ele>29.8</ele>
        <time>2014-12-24T17:59:44.000Z</time>
      </trkpt>
      <trkpt lat="49.90137" lon="1.09744">
        <ele>30</ele>
        <time>2014-12-24T17:59:45.000Z</time>
      </trkpt>
      <trkpt lat="49.90135" lon="1.09746">
        <ele>30.1</ele>
        <time>2014-12-24T17:59:46.000Z</time>
      </trkpt>
      <trkpt lat="49.90133" lon="1.09748">
        <ele>30.3</ele>
        <time>2014-12-24T17:59:47.000Z</time>
      </trkpt>
      <trkpt lat="49.90131" lon="1.09749">
        <ele>30.5</ele>
        <time>2014-12-24T17:59:48.000Z</time>
      </trkpt>
      <trkpt lat="49.90129" lon="1.09751">
        <ele>30.6</ele>
        <time>2014-12-24T17:59:49.000Z</time>
      </trkpt>
      <trkpt lat="49.90127" lon="1.09752">
        <ele>30.7</ele>
        <time>2014-12-24T17:59:50.000Z</time>
      </trkpt>
      <trkpt lat="49.90126" lon="1.09753">
        <ele>30.9</ele>
        <time>2014-12-24T17:59:51.000Z</time>
      </trkpt>
      <trkpt lat="49.90124" lon="1.09754">
        <ele>31.1</ele>
        <time>2014-12-24T17:59:52.000Z</time>
      </trkpt>
      <trkpt lat="49.90122" lon="1.09755">
        <ele>31.3</ele>
        <time>2014-12-24T17:59:53.000Z</time>
      </trkpt>
      <trkpt lat="49.9012" lon="1.09755">
        <ele>31.5</ele>
        <time>2014-12-24T17:59:54.000Z</time>
      </trkpt>
      <trkpt lat="49.90118" lon="1.09756">
        <ele>31.7</ele>
        <time>2014-12-24T17:59:55.000Z</time>
      </trkpt>
      <trkpt lat="49.90116" lon="1.09757">
        <ele>31.9</ele>
        <time>2014-12-24T17:59:56.000Z</time>
      </trkpt>
      <trkpt lat="49.90114" lon="1.09758">
        <ele>32.1</ele>
        <time>2014-12-24T17:59:57.000Z</time>
      </trkpt>
      <trkpt lat="49.90112" lon="1.09759">
        <ele>32.3</ele>
        <time>2014-12-24T17:59:58.000Z</time>
      </trkpt>
      <trkpt lat="49.9011" lon="1.0976">
        <ele>32.5</ele>
        <time>2014-12-24T17:59:59.000Z</time>
      </trkpt>
      <trkpt lat="49.90108" lon="1.09761">
        <ele>32.9</ele>
        <time>2014-12-24T18:00:00.000Z</time>
      </trkpt>
      <trkpt lat="49.90106" lon="1.09762">
        <ele>33.2</ele>
        <time>2014-12-24T18:00:01.000Z</time>
      </trkpt>
      <trkpt lat="49.90104" lon="1.09763">
        <ele>33.6</ele>
        <time>2014-12-24T18:00:02.000Z</time>
      </trkpt>
      <trkpt lat="49.90102" lon="1.09765">
        <ele>33.9</ele>
        <time>2014-12-24T18:00:03.000Z</time>
      </trkpt>
      <trkpt lat="49.901" lon="1.09766">
        <ele>34.3</ele>
        <time>2014-12-24T18:00:04.000Z</time>
      </trkpt>
      <trkpt lat="49.90099" lon="1.09767">
        <ele>34.7</ele>
        <time>2014-12-24T18:00:05.000Z</time>
      </trkpt>
      <trkpt lat="49.90097" lon="1.09769">
        <ele>35.1</ele>
        <time>2014-12-24T18:00:06.000Z</time>
      </trkpt>
      <trkpt lat="49.90095" lon="1.0977">
        <ele>35.5</ele>
        <time>2014-12-24T18:00:07.000Z</time>
      </trkpt>
      <trkpt lat="49.90094" lon="1.09771">
        <ele>35.9</ele>
        <time>2014-12-24T18:00:08.000Z</time>
      </trkpt>
      <trkpt lat="49.90092" lon="1.09773">
        <ele>36.3</ele>
        <time>2014-12-24T18:00:09.000Z</time>
      </trkpt>
      <trkpt lat="49.9009" lon="1.09774">
        <ele>36.7</ele>
        <time>2014-12-24T18:00:10.000Z</time>
      </trkpt>
      <trkpt lat="49.90089" lon="1.09776">
        <ele>37.2</ele>
        <time>2014-12-24T18:00:11.000Z</time>
      </trkpt>
      <trkpt lat="49.90087" lon="1.09778">
        <ele>37.6</ele>
        <time>2014-12-24T18:00:12.000Z</time>
      </trkpt>
      <trkpt lat="49.90085" lon="1.0978">
        <ele>38</ele>
        <time>2014-12-24T18:00:13.000Z</time>
      </trkpt>
      <trkpt lat="49.90084" lon="1.09781">
        <ele>38.3</ele>
        <time>2014-12-24T18:00:14.000Z</time>
      </trkpt>
      <trkpt lat="49.90082" lon="1.09783">
        <ele>38.5</ele>
        <time>2014-12-24T18:00:15.000Z</time>
      </trkpt>
      <trkpt lat="49.9008" lon="1.09785">
        <ele>38.7</ele>
        <time>2014-12-24T18:00:16.000Z</time>
      </trkpt>
      <trkpt lat="49.90079" lon="1.09786">
        <ele>39</ele>
        <time>2014-12-24T18:00:17.000Z</time>
      </trkpt>
      <trkpt lat="49.90077" lon="1.09787">
        <ele>39.3</ele>
        <time>2014-12-24T18:00:18.000Z</time>
      </trkpt>
      <trkpt lat="49.90075" lon="1.09788">
        <ele>39.6</ele>
        <time>2014-12-24T18:00:19.000Z</time>
      </trkpt>
      <trkpt lat="49.90074" lon="1.09788">
        <ele>40.1</ele>
        <time>2014-12-24T18:00:20.000Z</time>
      </trkpt>
      <trkpt lat="49.90072" lon="1.09789">
        <ele>40.6</ele>
        <time>2014-12-24T18:00:21.000Z</time>
      </trkpt>
      <trkpt lat="49.9007" lon="1.09788">
        <ele>41.1</ele>
        <time>2014-12-24T18:00:22.000Z</time>
      </trkpt>
      <trkpt lat="49.90068" lon="1.09788">
        <ele>41.7</ele>
        <time>2014-12-24T18:00:23.000Z</time>
      </trkpt>
      <trkpt lat="49.90066" lon="1.09787">
        <ele>42.3</ele>
        <time>2014-12-24T18:00:24.000Z</time>
      </trkpt>
      <trkpt lat="49.90064" lon="1.09786">
        <ele>42.9</ele>
        <time>2014-12-24T18:00:25.000Z</time>
      </trkpt>
      <trkpt lat="49.90062" lon="1.09786">
        <ele>43.4</ele>
        <time>2014-12-24T18:00:26.000Z</time>
      </trkpt>
      <trkpt lat="49.9006" lon="1.09784">
        <ele>44</ele>
        <time>2014-12-24T18:00:27.000Z</time>
      </trkpt>
      <trkpt lat="49.90058" lon="1.09783">
        <ele>44.4</ele>
        <time>2014-12-24T18:00:28.000Z</time>
      </trkpt>
      <trkpt lat="49.90056" lon="1.09781">
        <ele>44.9</ele>
        <time>2014-12-24T18:00:29.000Z</time>
      </trkpt>
      <trkpt lat="49.90054" lon="1.09779">
        <ele>45.3</ele>
        <time>2014-12-24T18:00:30.000Z</time>
      </trkpt>
      <trkpt lat="49.90053" lon="1.09777">
        <ele>45.8</ele>
        <time>2014-12-24T18:00:31.000Z</time>
      </trkpt>
      <trkpt lat="49.90052" lon="1.09774">
        <ele>46.3</ele>
        <time>2014-12-24T18:00:32.000Z</time>
      </trkpt>
      <trkpt lat="49.90051" lon="1.09771">
        <ele>46.8</ele>
        <time>2014-12-24T18:00:33.000Z</time>
      </trkpt>
      <trkpt lat="49.9005" lon="1.09768">
        <ele>47.2</ele>
        <time>2014-12-24T18:00:34.000Z</time>
      </trkpt>
      <trkpt lat="49.90049" lon="1.09764">
        <ele>47.6</ele>
        <time>2014-12-24T18:00:35.000Z</time>
      </trkpt>
      <trkpt lat="49.90048" lon="1.09761">
        <ele>48.1</ele>
        <time>2014-12-24T18:00:36.000Z</time>
      </trkpt>
      <trkpt lat="49.90047" lon="1.09757">
        <ele>48.4</ele>
        <time>2014-12-24T18:00:37.000Z</time>
      </trkpt>
      <trkpt lat="49.90047" lon="1.09753">
        <ele>48.8</ele>
        <time>2014-12-24T18:00:38.000Z</time>
      </trkpt>
      <trkpt lat="49.90046" lon="1.09749">
        <ele>49.1</ele>
        <time>2014-12-24T18:00:39.000Z</time>
      </trkpt>
      <trkpt lat="49.90046" lon="1.09745">
        <ele>49.7</ele>
        <time>2014-12-24T18:00:40.000Z</time>
      </trkpt>
      <trkpt lat="49.90045" lon="1.09742">
        <ele>50.2</ele>
        <time>2014-12-24T18:00:41.000Z</time>
      </trkpt>
      <trkpt lat="49.90045" lon="1.09738">
        <ele>50.7</ele>
        <time>2014-12-24T18:00:42.000Z</time>
      </trkpt>
      <trkpt lat="49.90045" lon="1.09734">
        <ele>51.1</ele>
        <time>2014-12-24T18:00:43.000Z</time>
      </trkpt>
      <trkpt lat="49.90046" lon="1.0973">
        <ele>51.5</ele>
        <time>2014-12-24T18:00:44.000Z</time>
      </trkpt>
      <trkpt lat="49.90046" lon="1.09726">
        <ele>51.9</ele>
        <time>2014-12-24T18:00:45.000Z</time>
      </trkpt>
      <trkpt lat="49.90047" lon="1.09722">
        <ele>52.2</ele>
        <time>2014-12-24T18:00:46.000Z</time>
      </trkpt>
      <trkpt lat="49.90048" lon="1.09719">
        <ele>52.5</ele>
        <time>2014-12-24T18:00:47.000Z</time>
      </trkpt>
      <trkpt lat="49.90049" lon="1.09715">
        <ele>52.8</ele>
        <time>2014-12-24T18:00:48.000Z</time>
      </trkpt>
      <trkpt lat="49.9005" lon="1.09712">
        <ele>53</ele>
        <time>2014-12-24T18:00:49.000Z</time>
      </trkpt>
      <trkpt lat="49.90051" lon="1.09708">
        <ele>53.2</ele>
        <time>2014-12-24T18:00:50.000Z</time>
      </trkpt>
      <trkpt lat="49.90052" lon="1.09705">
        <ele>53.4</ele>
        <time>2014-12-24T18:00:51.000Z</time>
      </trkpt>
      <trkpt lat="49.90052" lon="1.09701">
        <ele>53.7</ele>
        <time>2014-12-24T18:00:52.000Z</time>
      </trkpt>
      <trkpt lat="49.90053" lon="1.09698">
        <ele>54</ele>
        <time>2014-12-24T18:00:53.000Z</time>
      </trkpt>
      <trkpt lat="49.90054" lon="1.09694">
        <ele>54.3</ele>
        <time>2014-12-24T18:00:54.000Z</time>
      </trkpt>
      <trkpt lat="49.90054" lon="1.0969">
        <ele>54.7</ele>
        <time>2014-12-24T18:00:55.000Z</time>
      </trkpt>
      <trkpt lat="49.90055" lon="1.09687">
        <ele>55</ele>
        <time>2014-12-24T18:00:56.000Z</time>
      </trkpt>
      <trkpt lat="49.90055" lon="1.09683">
        <ele>55.3</ele>
        <time>2014-12-24T18:00:57.000Z</time>
      </trkpt>
      <trkpt lat="49.90056" lon="1.0968">
        <ele>55.6</ele>
        <time>2014-12-24T18:00:58.000Z</time>
      </trkpt>
      <trkpt lat="49.90055" lon="1.09676">
        <ele>56</ele>
        <time>2014-12-24T18:00:59.000Z</time>
      </trkpt>
      <trkpt lat="49.90055" lon="1.09673">
        <ele>56.4</ele>
        <time>2014-12-24T18:01:00.000Z</time>
      </trkpt>
      <trkpt lat="49.90054" lon="1.09671">
        <ele>56.7</ele>
        <time>2014-12-24T18:01:01.000Z</time>
      </trkpt>
      <trkpt lat="49.9005" lon="1.09668">
        <ele>57.5</ele>
        <time>2014-12-24T18:01:02.000Z</time>
      </trkpt>
      <trkpt lat="49.90049" lon="1.09669">
        <ele>57.5</ele>
        <time>2014-12-24T18:01:03.000Z</time>
      </trkpt>
      <trkpt lat="49.90048" lon="1.0967">
        <ele>57.5</ele>
        <time>2014-12-24T18:01:04.000Z</time>
      </trkpt>
      <trkpt lat="49.90046" lon="1.09671">
        <ele>57.6</ele>
        <time>2014-12-24T18:01:05.000Z</time>
      </trkpt>
      <trkpt lat="49.90045" lon="1.09673">
        <ele>57.6</ele>
        <time>2014-12-24T18:01:06.000Z</time>
      </trkpt>
      <trkpt lat="49.90043" lon="1.09676">
        <ele>57.6</ele>
        <time>2014-12-24T18:01:07.000Z</time>
      </trkpt>
      <trkpt lat="49.9004" lon="1.09678">
        <ele>57.6</ele>
        <time>2014-12-24T18:01:08.000Z</time>
      </trkpt>
      <trkpt lat="49.90038" lon="1.0968">
        <ele>57.7</ele>
        <time>2014-12-24T18:01:09.000Z</time>
      </trkpt>
      <trkpt lat="49.90036" lon="1.09682">
        <ele>57.8</ele>
        <time>2014-12-24T18:01:10.000Z</time>
      </trkpt>
      <trkpt lat="49.90035" lon="1.09684">
        <ele>57.8</ele>
        <time>2014-12-24T18:01:11.000Z</time>
      </trkpt>
      <trkpt lat="49.90034" lon="1.09685">
        <ele>57.9</ele>
        <time>2014-12-24T18:01:12.000Z</time>
      </trkpt>
      <trkpt lat="49.90033" lon="1.09687">
        <ele>57.9</ele>
        <time>2014-12-24T18:01:13.000Z</time>
      </trkpt>
      <trkpt lat="49.90032" lon="1.09688">
        <ele>57.9</ele>
        <time>2014-12-24T18:01:14.000Z</time>
      </trkpt>
      <trkpt lat="49.90032" lon="1.09689">
        <ele>57.9</ele>
        <time>2014-12-24T18:01:15.000Z</time>
      </trkpt>
      <trkpt lat="49.90032" lon="1.09689">
        <ele>57.9</ele>
        <time>2014-12-24T18:01:16.000Z</time>
      </trkpt>
      <trkpt lat="49.90031" lon="1.09691">
        <ele>57.8</ele>
        <time>2014-12-24T18:01:17.000Z</time>
      </trkpt>
      <trkpt lat="49.90031" lon="1.09691">
        <ele>57.8</ele>
        <time>2014-12-24T18:01:18.000Z</time>
      </trkpt>
      <trkpt lat="49.90031" lon="1.09691">
        <ele>57.8</ele>
        <time>2014-12-24T18:01:19.000Z</time>
      </trkpt>
      <trkpt lat="49.90031" lon="1.09691">
        <ele>57.8</ele>
        <time>2014-12-24T18:01:20.000Z</time>
      </trkpt>
      <trkpt lat="49.90031" lon="1.09691">
        <ele>57.8</ele>
        <time>2014-12-24T18:01:21.000Z</time>
      </trkpt>
      <trkpt lat="49.90031" lon="1.09691">
        <ele>57.8</ele>
        <time>2014-12-24T18:01:22.000Z</time>
      </trkpt>
      <trkpt lat="49.90031" lon="1.09691">
        <ele>57.8</ele>
        <time>2014-12-24T18:01:23.000Z</time>
      </trkpt>
      <trkpt lat="49.90031" lon="1.09691">
        <ele>57.8</ele>
        <time>2014-12-24T18:01:24.000Z</time>
      </trkpt>
      <trkpt lat="49.90031" lon="1.09691">
        <ele>57.8</ele>
        <time>2014-12-24T18:01:25.000Z</time>
      </trkpt>
      <trkpt lat="49.90031" lon="1.09691">
        <ele>57.8</ele>
        <time>2014-12-24T18:01:26.000Z</time>
      </trkpt>
    </trkseg>
  </trk>
</gpx>